<?xml version="1.0" encoding="UTF-8" standalone="no" ?>
<gpx xmlns="http://www.topografix.com/GPX/1/1" xmlns:xsi="http://www.w3.org/2001/XMLSchema-instance" xsi:schemaLocation="http://www.topografix.com/GPX/1/1 http://www.topografix.com/GPX/1/1/gpx.xsd" version="1.1" creator="VisuGPX - https://www.visugpx.com">
  <metadata>
    <name>VTT - Launaguet-Montberon-Launaguet 30-04-2022</name>
  </metadata>
  <trk>
    <name><![CDATA[VTT - Launaguet-Montberon-Launaguet 30-04-2022]]></name>
    <extensions>
      <line xmlns="http://www.topografix.com/GPX/gpx_style/0/2">
        <color>0000FF</color>
        <width>4</width>
      </line>
    </extensions>
    <trkseg>
      <trkpt lat="43.65548" lon="1.44774">
        <ele>180.736572</ele>
        <time>2022-04-29T13:00:51.861Z</time>
      </trkpt>
      <trkpt lat="43.65506" lon="1.44856">
        <ele>180.736572</ele>
        <time>2022-04-29T13:01:03.062Z</time>
      </trkpt>
      <trkpt lat="43.65501" lon="1.44868">
        <ele>180.736572</ele>
        <time>2022-04-29T13:01:06.066Z</time>
      </trkpt>
      <trkpt lat="43.65495" lon="1.4488">
        <ele>180.742927</ele>
        <time>2022-04-29T13:01:09.050Z</time>
      </trkpt>
      <trkpt lat="43.65489" lon="1.44893">
        <ele>180.764737</ele>
        <time>2022-04-29T13:01:12.074Z</time>
      </trkpt>
      <trkpt lat="43.65482" lon="1.44906">
        <ele>180.786771</ele>
        <time>2022-04-29T13:01:15.081Z</time>
      </trkpt>
      <trkpt lat="43.65477" lon="1.4492">
        <ele>180.808661</ele>
        <time>2022-04-29T13:01:18.077Z</time>
      </trkpt>
      <trkpt lat="43.65475" lon="1.44937">
        <ele>180.832974</ele>
        <time>2022-04-29T13:01:21.073Z</time>
      </trkpt>
      <trkpt lat="43.65483" lon="1.44951">
        <ele>180.857057</ele>
        <time>2022-04-29T13:01:24.061Z</time>
      </trkpt>
      <trkpt lat="43.65491" lon="1.44965">
        <ele>180.881955</ele>
        <time>2022-04-29T13:01:27.059Z</time>
      </trkpt>
      <trkpt lat="43.655" lon="1.44977">
        <ele>180.906976</ele>
        <time>2022-04-29T13:01:30.052Z</time>
      </trkpt>
      <trkpt lat="43.65509" lon="1.44991">
        <ele>180.932904</ele>
        <time>2022-04-29T13:01:33.076Z</time>
      </trkpt>
      <trkpt lat="43.65515" lon="1.45">
        <ele>180.950839</ele>
        <time>2022-04-29T13:01:35.075Z</time>
      </trkpt>
      <trkpt lat="43.65522" lon="1.45009">
        <ele>180.968293</ele>
        <time>2022-04-29T13:01:37.057Z</time>
      </trkpt>
      <trkpt lat="43.65528" lon="1.45019">
        <ele>180.986504</ele>
        <time>2022-04-29T13:01:39.043Z</time>
      </trkpt>
      <trkpt lat="43.65535" lon="1.45028">
        <ele>181.005316</ele>
        <time>2022-04-29T13:01:41.058Z</time>
      </trkpt>
      <trkpt lat="43.65541" lon="1.45037">
        <ele>181.023557</ele>
        <time>2022-04-29T13:01:43.047Z</time>
      </trkpt>
      <trkpt lat="43.65548" lon="1.45047">
        <ele>181.041919</ele>
        <time>2022-04-29T13:01:45.075Z</time>
      </trkpt>
      <trkpt lat="43.65555" lon="1.45056">
        <ele>181.060652</ele>
        <time>2022-04-29T13:01:47.045Z</time>
      </trkpt>
      <trkpt lat="43.65562" lon="1.45066">
        <ele>181.079149</ele>
        <time>2022-04-29T13:01:49.081Z</time>
      </trkpt>
      <trkpt lat="43.65571" lon="1.45078">
        <ele>181.065167</ele>
        <time>2022-04-29T13:01:52.066Z</time>
      </trkpt>
      <trkpt lat="43.6558" lon="1.45091">
        <ele>181.037525</ele>
        <time>2022-04-29T13:01:55.076Z</time>
      </trkpt>
      <trkpt lat="43.65587" lon="1.45101">
        <ele>181.018275</ele>
        <time>2022-04-29T13:01:57.052Z</time>
      </trkpt>
      <trkpt lat="43.65594" lon="1.4511">
        <ele>180.998319</ele>
        <time>2022-04-29T13:01:59.062Z</time>
      </trkpt>
      <trkpt lat="43.656" lon="1.45121">
        <ele>180.978126</ele>
        <time>2022-04-29T13:02:01.057Z</time>
      </trkpt>
      <trkpt lat="43.65603" lon="1.45134">
        <ele>180.957662</ele>
        <time>2022-04-29T13:02:03.078Z</time>
      </trkpt>
      <trkpt lat="43.65603" lon="1.45147">
        <ele>180.938195</ele>
        <time>2022-04-29T13:02:05.055Z</time>
      </trkpt>
      <trkpt lat="43.65597" lon="1.45158">
        <ele>180.917948</ele>
        <time>2022-04-29T13:02:07.046Z</time>
      </trkpt>
      <trkpt lat="43.65589" lon="1.45167">
        <ele>180.896606</ele>
        <time>2022-04-29T13:02:09.055Z</time>
      </trkpt>
      <trkpt lat="43.65581" lon="1.45176">
        <ele>180.87612</ele>
        <time>2022-04-29T13:02:11.057Z</time>
      </trkpt>
      <trkpt lat="43.65573" lon="1.45186">
        <ele>180.854679</ele>
        <time>2022-04-29T13:02:13.087Z</time>
      </trkpt>
      <trkpt lat="43.65565" lon="1.45195">
        <ele>180.832957</ele>
        <time>2022-04-29T13:02:15.078Z</time>
      </trkpt>
      <trkpt lat="43.65556" lon="1.45204">
        <ele>180.811132</ele>
        <time>2022-04-29T13:02:17.072Z</time>
      </trkpt>
      <trkpt lat="43.65548" lon="1.45213">
        <ele>180.789538</ele>
        <time>2022-04-29T13:02:19.088Z</time>
      </trkpt>
      <trkpt lat="43.65539" lon="1.45222">
        <ele>180.767415</ele>
        <time>2022-04-29T13:02:21.051Z</time>
      </trkpt>
      <trkpt lat="43.65531" lon="1.45232">
        <ele>180.745952</ele>
        <time>2022-04-29T13:02:23.056Z</time>
      </trkpt>
      <trkpt lat="43.65524" lon="1.45241">
        <ele>180.724663</ele>
        <time>2022-04-29T13:02:25.070Z</time>
      </trkpt>
      <trkpt lat="43.65516" lon="1.45252">
        <ele>180.729052</ele>
        <time>2022-04-29T13:02:27.070Z</time>
      </trkpt>
      <trkpt lat="43.65509" lon="1.45262">
        <ele>180.743972</ele>
        <time>2022-04-29T13:02:29.052Z</time>
      </trkpt>
      <trkpt lat="43.655" lon="1.45271">
        <ele>180.758693</ele>
        <time>2022-04-29T13:02:31.069Z</time>
      </trkpt>
      <trkpt lat="43.65492" lon="1.4528">
        <ele>180.773524</ele>
        <time>2022-04-29T13:02:33.054Z</time>
      </trkpt>
      <trkpt lat="43.65483" lon="1.45289">
        <ele>180.788556</ele>
        <time>2022-04-29T13:02:35.058Z</time>
      </trkpt>
      <trkpt lat="43.65475" lon="1.45298">
        <ele>180.803388</ele>
        <time>2022-04-29T13:02:37.059Z</time>
      </trkpt>
      <trkpt lat="43.65466" lon="1.45307">
        <ele>180.81832</ele>
        <time>2022-04-29T13:02:39.068Z</time>
      </trkpt>
      <trkpt lat="43.65457" lon="1.45316">
        <ele>180.833384</ele>
        <time>2022-04-29T13:02:41.062Z</time>
      </trkpt>
      <trkpt lat="43.6545" lon="1.45327">
        <ele>180.847807</ele>
        <time>2022-04-29T13:02:43.059Z</time>
      </trkpt>
      <trkpt lat="43.65445" lon="1.45338">
        <ele>180.861209</ele>
        <time>2022-04-29T13:02:45.060Z</time>
      </trkpt>
      <trkpt lat="43.65438" lon="1.45352">
        <ele>180.878575</ele>
        <time>2022-04-29T13:02:48.045Z</time>
      </trkpt>
      <trkpt lat="43.65442" lon="1.45366">
        <ele>180.893843</ele>
        <time>2022-04-29T13:02:51.085Z</time>
      </trkpt>
      <trkpt lat="43.65452" lon="1.4537">
        <ele>180.908402</ele>
        <time>2022-04-29T13:02:54.075Z</time>
      </trkpt>
      <trkpt lat="43.65464" lon="1.45374">
        <ele>180.92499</ele>
        <time>2022-04-29T13:02:57.052Z</time>
      </trkpt>
      <trkpt lat="43.65473" lon="1.45376">
        <ele>180.93755</ele>
        <time>2022-04-29T13:02:59.097Z</time>
      </trkpt>
      <trkpt lat="43.65481" lon="1.4538">
        <ele>180.950097</ele>
        <time>2022-04-29T13:03:01.060Z</time>
      </trkpt>
      <trkpt lat="43.65491" lon="1.45383">
        <ele>180.963235</ele>
        <time>2022-04-29T13:03:03.059Z</time>
      </trkpt>
      <trkpt lat="43.655" lon="1.45386">
        <ele>180.965151</ele>
        <time>2022-04-29T13:03:05.062Z</time>
      </trkpt>
      <trkpt lat="43.65509" lon="1.4539">
        <ele>180.959346</ele>
        <time>2022-04-29T13:03:07.052Z</time>
      </trkpt>
      <trkpt lat="43.65518" lon="1.45393">
        <ele>180.953552</ele>
        <time>2022-04-29T13:03:09.078Z</time>
      </trkpt>
      <trkpt lat="43.65528" lon="1.45396">
        <ele>180.947864</ele>
        <time>2022-04-29T13:03:11.066Z</time>
      </trkpt>
      <trkpt lat="43.65537" lon="1.454">
        <ele>180.942164</ele>
        <time>2022-04-29T13:03:13.064Z</time>
      </trkpt>
      <trkpt lat="43.65546" lon="1.45403">
        <ele>180.936322</ele>
        <time>2022-04-29T13:03:15.074Z</time>
      </trkpt>
      <trkpt lat="43.65555" lon="1.45406">
        <ele>180.930506</ele>
        <time>2022-04-29T13:03:17.090Z</time>
      </trkpt>
      <trkpt lat="43.65565" lon="1.45409">
        <ele>180.924722</ele>
        <time>2022-04-29T13:03:19.058Z</time>
      </trkpt>
      <trkpt lat="43.65574" lon="1.45412">
        <ele>180.918997</ele>
        <time>2022-04-29T13:03:21.078Z</time>
      </trkpt>
      <trkpt lat="43.65583" lon="1.45415">
        <ele>180.913272</ele>
        <time>2022-04-29T13:03:23.051Z</time>
      </trkpt>
      <trkpt lat="43.65592" lon="1.45419">
        <ele>180.907607</ele>
        <time>2022-04-29T13:03:25.073Z</time>
      </trkpt>
      <trkpt lat="43.65601" lon="1.45422">
        <ele>180.901961</ele>
        <time>2022-04-29T13:03:27.084Z</time>
      </trkpt>
      <trkpt lat="43.6561" lon="1.45425">
        <ele>180.896214</ele>
        <time>2022-04-29T13:03:29.056Z</time>
      </trkpt>
      <trkpt lat="43.65619" lon="1.45429">
        <ele>180.890454</ele>
        <time>2022-04-29T13:03:31.071Z</time>
      </trkpt>
      <trkpt lat="43.65629" lon="1.45434">
        <ele>180.884596</ele>
        <time>2022-04-29T13:03:33.073Z</time>
      </trkpt>
      <trkpt lat="43.65638" lon="1.45438">
        <ele>180.878907</ele>
        <time>2022-04-29T13:03:35.089Z</time>
      </trkpt>
      <trkpt lat="43.65646" lon="1.45441">
        <ele>180.873333</ele>
        <time>2022-04-29T13:03:37.089Z</time>
      </trkpt>
      <trkpt lat="43.65655" lon="1.45445">
        <ele>180.867772</ele>
        <time>2022-04-29T13:03:39.070Z</time>
      </trkpt>
      <trkpt lat="43.65664" lon="1.45449">
        <ele>180.862177</ele>
        <time>2022-04-29T13:03:41.073Z</time>
      </trkpt>
      <trkpt lat="43.65673" lon="1.45452">
        <ele>180.889493</ele>
        <time>2022-04-29T13:03:43.064Z</time>
      </trkpt>
      <trkpt lat="43.65682" lon="1.45456">
        <ele>180.940761</ele>
        <time>2022-04-29T13:03:45.080Z</time>
      </trkpt>
      <trkpt lat="43.6569" lon="1.4546">
        <ele>180.990908</ele>
        <time>2022-04-29T13:03:47.075Z</time>
      </trkpt>
      <trkpt lat="43.65699" lon="1.45463">
        <ele>181.041054</ele>
        <time>2022-04-29T13:03:49.110Z</time>
      </trkpt>
      <trkpt lat="43.65712" lon="1.45469">
        <ele>181.115238</ele>
        <time>2022-04-29T13:03:52.058Z</time>
      </trkpt>
      <trkpt lat="43.65724" lon="1.45474">
        <ele>181.186308</ele>
        <time>2022-04-29T13:03:55.069Z</time>
      </trkpt>
      <trkpt lat="43.65735" lon="1.45475">
        <ele>181.249173</ele>
        <time>2022-04-29T13:03:58.052Z</time>
      </trkpt>
      <trkpt lat="43.65746" lon="1.45477">
        <ele>181.305828</ele>
        <time>2022-04-29T13:04:01.067Z</time>
      </trkpt>
      <trkpt lat="43.65755" lon="1.45481">
        <ele>181.359731</ele>
        <time>2022-04-29T13:04:04.053Z</time>
      </trkpt>
      <trkpt lat="43.65764" lon="1.45483">
        <ele>181.413034</ele>
        <time>2022-04-29T13:04:07.064Z</time>
      </trkpt>
      <trkpt lat="43.65775" lon="1.45487">
        <ele>181.473539</ele>
        <time>2022-04-29T13:04:11.076Z</time>
      </trkpt>
      <trkpt lat="43.65784" lon="1.45494">
        <ele>181.530339</ele>
        <time>2022-04-29T13:04:17.048Z</time>
      </trkpt>
      <trkpt lat="43.65792" lon="1.455">
        <ele>181.580903</ele>
        <time>2022-04-29T13:04:25.050Z</time>
      </trkpt>
      <trkpt lat="43.65801" lon="1.45499">
        <ele>181.633577</ele>
        <time>2022-04-29T13:04:29.071Z</time>
      </trkpt>
      <trkpt lat="43.65813" lon="1.455">
        <ele>181.70002</ele>
        <time>2022-04-29T13:04:32.048Z</time>
      </trkpt>
      <trkpt lat="43.65822" lon="1.45497">
        <ele>181.750602</ele>
        <time>2022-04-29T13:04:34.080Z</time>
      </trkpt>
      <trkpt lat="43.65832" lon="1.45494">
        <ele>181.808132</ele>
        <time>2022-04-29T13:04:36.045Z</time>
      </trkpt>
      <trkpt lat="43.65844" lon="1.4549">
        <ele>181.827988</ele>
        <time>2022-04-29T13:04:38.107Z</time>
      </trkpt>
      <trkpt lat="43.65856" lon="1.45487">
        <ele>181.73382</ele>
        <time>2022-04-29T13:04:40.075Z</time>
      </trkpt>
      <trkpt lat="43.65868" lon="1.45485">
        <ele>181.641344</ele>
        <time>2022-04-29T13:04:42.061Z</time>
      </trkpt>
      <trkpt lat="43.6588" lon="1.45485">
        <ele>181.551671</ele>
        <time>2022-04-29T13:04:44.055Z</time>
      </trkpt>
      <trkpt lat="43.65892" lon="1.45485">
        <ele>181.461999</ele>
        <time>2022-04-29T13:04:46.055Z</time>
      </trkpt>
      <trkpt lat="43.65904" lon="1.45486">
        <ele>181.372091</ele>
        <time>2022-04-29T13:04:48.049Z</time>
      </trkpt>
      <trkpt lat="43.65916" lon="1.45489">
        <ele>181.281862</ele>
        <time>2022-04-29T13:04:50.056Z</time>
      </trkpt>
      <trkpt lat="43.65927" lon="1.45494">
        <ele>181.191727</ele>
        <time>2022-04-29T13:04:52.062Z</time>
      </trkpt>
      <trkpt lat="43.65935" lon="1.45505">
        <ele>181.103801</ele>
        <time>2022-04-29T13:04:54.062Z</time>
      </trkpt>
      <trkpt lat="43.65944" lon="1.45515">
        <ele>181.015929</ele>
        <time>2022-04-29T13:04:56.056Z</time>
      </trkpt>
      <trkpt lat="43.65956" lon="1.45516">
        <ele>180.928154</ele>
        <time>2022-04-29T13:04:58.080Z</time>
      </trkpt>
      <trkpt lat="43.65966" lon="1.4551">
        <ele>180.842232</ele>
        <time>2022-04-29T13:05:00.056Z</time>
      </trkpt>
      <trkpt lat="43.65976" lon="1.45502">
        <ele>180.752792</ele>
        <time>2022-04-29T13:05:02.073Z</time>
      </trkpt>
      <trkpt lat="43.65988" lon="1.45496">
        <ele>180.657618</ele>
        <time>2022-04-29T13:05:04.068Z</time>
      </trkpt>
      <trkpt lat="43.66001" lon="1.45494">
        <ele>180.559463</ele>
        <time>2022-04-29T13:05:06.064Z</time>
      </trkpt>
      <trkpt lat="43.66011" lon="1.45494">
        <ele>180.487103</ele>
        <time>2022-04-29T13:05:08.072Z</time>
      </trkpt>
      <trkpt lat="43.6602" lon="1.45499">
        <ele>180.466328</ele>
        <time>2022-04-29T13:05:11.044Z</time>
      </trkpt>
      <trkpt lat="43.66028" lon="1.45506">
        <ele>180.44622</ele>
        <time>2022-04-29T13:05:13.041Z</time>
      </trkpt>
      <trkpt lat="43.66037" lon="1.45515">
        <ele>180.423572</ele>
        <time>2022-04-29T13:05:15.038Z</time>
      </trkpt>
      <trkpt lat="43.66046" lon="1.45521">
        <ele>180.400692</ele>
        <time>2022-04-29T13:05:17.060Z</time>
      </trkpt>
      <trkpt lat="43.66056" lon="1.45528">
        <ele>180.378206</ele>
        <time>2022-04-29T13:05:19.049Z</time>
      </trkpt>
      <trkpt lat="43.66065" lon="1.45533">
        <ele>180.357465</ele>
        <time>2022-04-29T13:05:21.050Z</time>
      </trkpt>
      <trkpt lat="43.66077" lon="1.45531">
        <ele>180.330417</ele>
        <time>2022-04-29T13:05:24.066Z</time>
      </trkpt>
      <trkpt lat="43.66087" lon="1.4553">
        <ele>180.310485</ele>
        <time>2022-04-29T13:05:26.050Z</time>
      </trkpt>
      <trkpt lat="43.66096" lon="1.45535">
        <ele>180.289899</ele>
        <time>2022-04-29T13:05:28.083Z</time>
      </trkpt>
      <trkpt lat="43.66104" lon="1.4554">
        <ele>180.269094</ele>
        <time>2022-04-29T13:05:30.058Z</time>
      </trkpt>
      <trkpt lat="43.66115" lon="1.45547">
        <ele>180.24532</ele>
        <time>2022-04-29T13:05:33.077Z</time>
      </trkpt>
      <trkpt lat="43.66123" lon="1.45553">
        <ele>180.224886</ele>
        <time>2022-04-29T13:05:36.059Z</time>
      </trkpt>
      <trkpt lat="43.66132" lon="1.45561">
        <ele>180.201968</ele>
        <time>2022-04-29T13:05:39.059Z</time>
      </trkpt>
      <trkpt lat="43.66142" lon="1.4557">
        <ele>180.176597</ele>
        <time>2022-04-29T13:05:42.060Z</time>
      </trkpt>
      <trkpt lat="43.66152" lon="1.45579">
        <ele>180.150413</ele>
        <time>2022-04-29T13:05:45.062Z</time>
      </trkpt>
      <trkpt lat="43.66162" lon="1.45588">
        <ele>180.126094</ele>
        <time>2022-04-29T13:05:48.066Z</time>
      </trkpt>
      <trkpt lat="43.6617" lon="1.45601">
        <ele>180.098872</ele>
        <time>2022-04-29T13:05:51.081Z</time>
      </trkpt>
      <trkpt lat="43.66176" lon="1.4561">
        <ele>180.075231</ele>
        <time>2022-04-29T13:05:53.065Z</time>
      </trkpt>
      <trkpt lat="43.66184" lon="1.45618">
        <ele>180.051132</ele>
        <time>2022-04-29T13:05:55.074Z</time>
      </trkpt>
      <trkpt lat="43.66191" lon="1.45626">
        <ele>180.027418</ele>
        <time>2022-04-29T13:05:57.060Z</time>
      </trkpt>
      <trkpt lat="43.66199" lon="1.45631">
        <ele>180.004259</ele>
        <time>2022-04-29T13:05:59.066Z</time>
      </trkpt>
      <trkpt lat="43.66209" lon="1.45619">
        <ele>179.970628</ele>
        <time>2022-04-29T13:06:02.063Z</time>
      </trkpt>
      <trkpt lat="43.66213" lon="1.45607">
        <ele>179.94617</ele>
        <time>2022-04-29T13:06:04.045Z</time>
      </trkpt>
      <trkpt lat="43.66217" lon="1.45594">
        <ele>179.920739</ele>
        <time>2022-04-29T13:06:06.068Z</time>
      </trkpt>
      <trkpt lat="43.66221" lon="1.45581">
        <ele>179.894427</ele>
        <time>2022-04-29T13:06:08.071Z</time>
      </trkpt>
      <trkpt lat="43.66224" lon="1.45568">
        <ele>179.868214</ele>
        <time>2022-04-29T13:06:10.060Z</time>
      </trkpt>
      <trkpt lat="43.66228" lon="1.45554">
        <ele>179.841048</ele>
        <time>2022-04-29T13:06:12.104Z</time>
      </trkpt>
      <trkpt lat="43.66232" lon="1.45541">
        <ele>179.814907</ele>
        <time>2022-04-29T13:06:14.067Z</time>
      </trkpt>
      <trkpt lat="43.66237" lon="1.45528">
        <ele>179.788223</ele>
        <time>2022-04-29T13:06:16.075Z</time>
      </trkpt>
      <trkpt lat="43.6624" lon="1.45515">
        <ele>179.761073</ele>
        <time>2022-04-29T13:06:18.076Z</time>
      </trkpt>
      <trkpt lat="43.66244" lon="1.45501">
        <ele>179.734591</ele>
        <time>2022-04-29T13:06:20.045Z</time>
      </trkpt>
      <trkpt lat="43.66248" lon="1.45488">
        <ele>179.707767</ele>
        <time>2022-04-29T13:06:22.085Z</time>
      </trkpt>
      <trkpt lat="43.66252" lon="1.45474">
        <ele>179.680696</ele>
        <time>2022-04-29T13:06:24.088Z</time>
      </trkpt>
      <trkpt lat="43.66256" lon="1.45461">
        <ele>179.653281</ele>
        <time>2022-04-29T13:06:26.049Z</time>
      </trkpt>
      <trkpt lat="43.6626" lon="1.45446">
        <ele>179.639596</ele>
        <time>2022-04-29T13:06:28.055Z</time>
      </trkpt>
      <trkpt lat="43.66263" lon="1.45432">
        <ele>179.63224</ele>
        <time>2022-04-29T13:06:30.065Z</time>
      </trkpt>
      <trkpt lat="43.66267" lon="1.45417">
        <ele>179.62431</ele>
        <time>2022-04-29T13:06:32.050Z</time>
      </trkpt>
      <trkpt lat="43.66272" lon="1.45402">
        <ele>179.616355</ele>
        <time>2022-04-29T13:06:34.065Z</time>
      </trkpt>
      <trkpt lat="43.66276" lon="1.45387">
        <ele>179.608663</ele>
        <time>2022-04-29T13:06:36.067Z</time>
      </trkpt>
      <trkpt lat="43.66279" lon="1.45373">
        <ele>179.601264</ele>
        <time>2022-04-29T13:06:38.063Z</time>
      </trkpt>
      <trkpt lat="43.66275" lon="1.45359">
        <ele>179.593766</ele>
        <time>2022-04-29T13:06:40.062Z</time>
      </trkpt>
      <trkpt lat="43.66271" lon="1.45345">
        <ele>179.586343</ele>
        <time>2022-04-29T13:06:42.042Z</time>
      </trkpt>
      <trkpt lat="43.66274" lon="1.4533">
        <ele>179.578935</ele>
        <time>2022-04-29T13:06:44.037Z</time>
      </trkpt>
      <trkpt lat="43.6628" lon="1.45317">
        <ele>179.571576</ele>
        <time>2022-04-29T13:06:46.050Z</time>
      </trkpt>
      <trkpt lat="43.66287" lon="1.45304">
        <ele>179.563774</ele>
        <time>2022-04-29T13:06:48.064Z</time>
      </trkpt>
      <trkpt lat="43.66292" lon="1.45291">
        <ele>179.556338</ele>
        <time>2022-04-29T13:06:50.058Z</time>
      </trkpt>
      <trkpt lat="43.66299" lon="1.45279">
        <ele>179.549049</ele>
        <time>2022-04-29T13:06:52.047Z</time>
      </trkpt>
      <trkpt lat="43.66308" lon="1.45268">
        <ele>179.540782</ele>
        <time>2022-04-29T13:06:54.049Z</time>
      </trkpt>
      <trkpt lat="43.66316" lon="1.45255">
        <ele>179.532309</ele>
        <time>2022-04-29T13:06:56.071Z</time>
      </trkpt>
      <trkpt lat="43.66324" lon="1.45246">
        <ele>179.525444</ele>
        <time>2022-04-29T13:06:58.055Z</time>
      </trkpt>
      <trkpt lat="43.66332" lon="1.45238">
        <ele>179.494693</ele>
        <time>2022-04-29T13:07:00.080Z</time>
      </trkpt>
      <trkpt lat="43.6634" lon="1.45228">
        <ele>179.447186</ele>
        <time>2022-04-29T13:07:02.061Z</time>
      </trkpt>
      <trkpt lat="43.66349" lon="1.45214">
        <ele>179.385767</ele>
        <time>2022-04-29T13:07:05.084Z</time>
      </trkpt>
      <trkpt lat="43.66354" lon="1.45203">
        <ele>179.342706</ele>
        <time>2022-04-29T13:07:07.086Z</time>
      </trkpt>
      <trkpt lat="43.66361" lon="1.45186">
        <ele>179.281878</ele>
        <time>2022-04-29T13:07:09.064Z</time>
      </trkpt>
      <trkpt lat="43.66362" lon="1.45172">
        <ele>179.23472</ele>
        <time>2022-04-29T13:07:11.041Z</time>
      </trkpt>
      <trkpt lat="43.66363" lon="1.45154">
        <ele>179.177595</ele>
        <time>2022-04-29T13:07:14.045Z</time>
      </trkpt>
      <trkpt lat="43.6637" lon="1.45138">
        <ele>179.114265</ele>
        <time>2022-04-29T13:07:17.064Z</time>
      </trkpt>
      <trkpt lat="43.66376" lon="1.45123">
        <ele>179.062115</ele>
        <time>2022-04-29T13:07:19.078Z</time>
      </trkpt>
      <trkpt lat="43.66381" lon="1.45109">
        <ele>179.011163</ele>
        <time>2022-04-29T13:07:21.057Z</time>
      </trkpt>
      <trkpt lat="43.66387" lon="1.45096">
        <ele>178.961437</ele>
        <time>2022-04-29T13:07:23.104Z</time>
      </trkpt>
      <trkpt lat="43.66392" lon="1.45083">
        <ele>178.911919</ele>
        <time>2022-04-29T13:07:25.068Z</time>
      </trkpt>
      <trkpt lat="43.66395" lon="1.45067">
        <ele>178.85883</ele>
        <time>2022-04-29T13:07:27.069Z</time>
      </trkpt>
      <trkpt lat="43.66396" lon="1.45051">
        <ele>178.807481</ele>
        <time>2022-04-29T13:07:29.054Z</time>
      </trkpt>
      <trkpt lat="43.66397" lon="1.45036">
        <ele>178.758388</ele>
        <time>2022-04-29T13:07:31.073Z</time>
      </trkpt>
      <trkpt lat="43.664" lon="1.45023">
        <ele>178.716751</ele>
        <time>2022-04-29T13:07:33.062Z</time>
      </trkpt>
      <trkpt lat="43.66405" lon="1.4501">
        <ele>178.699884</ele>
        <time>2022-04-29T13:07:35.077Z</time>
      </trkpt>
      <trkpt lat="43.66411" lon="1.44997">
        <ele>178.682745</ele>
        <time>2022-04-29T13:07:37.061Z</time>
      </trkpt>
      <trkpt lat="43.66415" lon="1.44983">
        <ele>178.665901</ele>
        <time>2022-04-29T13:07:39.075Z</time>
      </trkpt>
      <trkpt lat="43.66419" lon="1.44969">
        <ele>178.648852</ele>
        <time>2022-04-29T13:07:41.048Z</time>
      </trkpt>
      <trkpt lat="43.66424" lon="1.44955">
        <ele>178.63175</ele>
        <time>2022-04-29T13:07:43.069Z</time>
      </trkpt>
      <trkpt lat="43.66428" lon="1.44941">
        <ele>178.614339</ele>
        <time>2022-04-29T13:07:45.074Z</time>
      </trkpt>
      <trkpt lat="43.66432" lon="1.44926">
        <ele>178.596642</ele>
        <time>2022-04-29T13:07:47.073Z</time>
      </trkpt>
      <trkpt lat="43.66437" lon="1.44912">
        <ele>178.579138</ele>
        <time>2022-04-29T13:07:49.077Z</time>
      </trkpt>
      <trkpt lat="43.66443" lon="1.44899">
        <ele>178.561367</ele>
        <time>2022-04-29T13:07:51.069Z</time>
      </trkpt>
      <trkpt lat="43.66449" lon="1.44885">
        <ele>178.544423</ele>
        <time>2022-04-29T13:07:53.073Z</time>
      </trkpt>
      <trkpt lat="43.66452" lon="1.44872">
        <ele>178.528427</ele>
        <time>2022-04-29T13:07:55.071Z</time>
      </trkpt>
      <trkpt lat="43.66454" lon="1.44859">
        <ele>178.513883</ele>
        <time>2022-04-29T13:07:57.044Z</time>
      </trkpt>
      <trkpt lat="43.66457" lon="1.44848">
        <ele>178.499922</ele>
        <time>2022-04-29T13:07:59.069Z</time>
      </trkpt>
      <trkpt lat="43.66462" lon="1.44836">
        <ele>178.485606</ele>
        <time>2022-04-29T13:08:01.062Z</time>
      </trkpt>
      <trkpt lat="43.66466" lon="1.44824">
        <ele>178.470922</ele>
        <time>2022-04-29T13:08:03.079Z</time>
      </trkpt>
      <trkpt lat="43.6647" lon="1.44812">
        <ele>178.455698</ele>
        <time>2022-04-29T13:08:05.059Z</time>
      </trkpt>
      <trkpt lat="43.66475" lon="1.44801">
        <ele>178.440721</ele>
        <time>2022-04-29T13:08:07.066Z</time>
      </trkpt>
      <trkpt lat="43.66481" lon="1.4479">
        <ele>178.430048</ele>
        <time>2022-04-29T13:08:09.051Z</time>
      </trkpt>
      <trkpt lat="43.66486" lon="1.44779">
        <ele>178.419101</ele>
        <time>2022-04-29T13:08:11.074Z</time>
      </trkpt>
      <trkpt lat="43.66491" lon="1.44766">
        <ele>178.40793</ele>
        <time>2022-04-29T13:08:13.065Z</time>
      </trkpt>
      <trkpt lat="43.66495" lon="1.44754">
        <ele>178.396672</ele>
        <time>2022-04-29T13:08:15.058Z</time>
      </trkpt>
      <trkpt lat="43.665" lon="1.44741">
        <ele>178.38523</ele>
        <time>2022-04-29T13:08:17.076Z</time>
      </trkpt>
      <trkpt lat="43.66504" lon="1.44728">
        <ele>178.373715</ele>
        <time>2022-04-29T13:08:19.058Z</time>
      </trkpt>
      <trkpt lat="43.66508" lon="1.44716">
        <ele>178.362718</ele>
        <time>2022-04-29T13:08:21.070Z</time>
      </trkpt>
      <trkpt lat="43.66516" lon="1.44709">
        <ele>178.352288</ele>
        <time>2022-04-29T13:08:25.054Z</time>
      </trkpt>
      <trkpt lat="43.66525" lon="1.44714">
        <ele>178.341498</ele>
        <time>2022-04-29T13:08:29.057Z</time>
      </trkpt>
      <trkpt lat="43.66534" lon="1.44719">
        <ele>178.331012</ele>
        <time>2022-04-29T13:08:32.075Z</time>
      </trkpt>
      <trkpt lat="43.66543" lon="1.44726">
        <ele>178.319433</ele>
        <time>2022-04-29T13:08:35.060Z</time>
      </trkpt>
      <trkpt lat="43.66553" lon="1.44735">
        <ele>178.305736</ele>
        <time>2022-04-29T13:08:38.062Z</time>
      </trkpt>
      <trkpt lat="43.6656" lon="1.44745">
        <ele>178.295116</ele>
        <time>2022-04-29T13:08:40.062Z</time>
      </trkpt>
      <trkpt lat="43.66568" lon="1.44755">
        <ele>178.283593</ele>
        <time>2022-04-29T13:08:42.063Z</time>
      </trkpt>
      <trkpt lat="43.66576" lon="1.44766">
        <ele>178.271027</ele>
        <time>2022-04-29T13:08:44.078Z</time>
      </trkpt>
      <trkpt lat="43.66583" lon="1.44777">
        <ele>178.258134</ele>
        <time>2022-04-29T13:08:46.088Z</time>
      </trkpt>
      <trkpt lat="43.66591" lon="1.4479">
        <ele>178.244958</ele>
        <time>2022-04-29T13:08:48.084Z</time>
      </trkpt>
      <trkpt lat="43.66599" lon="1.44802">
        <ele>178.206972</ele>
        <time>2022-04-29T13:08:50.073Z</time>
      </trkpt>
      <trkpt lat="43.66607" lon="1.44815">
        <ele>178.152847</ele>
        <time>2022-04-29T13:08:52.078Z</time>
      </trkpt>
      <trkpt lat="43.66615" lon="1.44827">
        <ele>178.099812</ele>
        <time>2022-04-29T13:08:54.082Z</time>
      </trkpt>
      <trkpt lat="43.66622" lon="1.44839">
        <ele>178.048453</ele>
        <time>2022-04-29T13:08:56.117Z</time>
      </trkpt>
      <trkpt lat="43.6663" lon="1.44849">
        <ele>177.998042</ele>
        <time>2022-04-29T13:08:58.067Z</time>
      </trkpt>
      <trkpt lat="43.66641" lon="1.44855">
        <ele>177.946298</ele>
        <time>2022-04-29T13:09:00.069Z</time>
      </trkpt>
      <trkpt lat="43.66652" lon="1.44857">
        <ele>177.895073</ele>
        <time>2022-04-29T13:09:02.075Z</time>
      </trkpt>
      <trkpt lat="43.66664" lon="1.44857">
        <ele>177.843442</ele>
        <time>2022-04-29T13:09:04.081Z</time>
      </trkpt>
      <trkpt lat="43.66675" lon="1.44857">
        <ele>177.790008</ele>
        <time>2022-04-29T13:09:06.085Z</time>
      </trkpt>
      <trkpt lat="43.66687" lon="1.44853">
        <ele>177.737544</ele>
        <time>2022-04-29T13:09:08.079Z</time>
      </trkpt>
      <trkpt lat="43.66698" lon="1.44847">
        <ele>177.683997</ele>
        <time>2022-04-29T13:09:10.085Z</time>
      </trkpt>
      <trkpt lat="43.66708" lon="1.44839">
        <ele>177.630792</ele>
        <time>2022-04-29T13:09:12.091Z</time>
      </trkpt>
      <trkpt lat="43.66717" lon="1.4483">
        <ele>177.578642</ele>
        <time>2022-04-29T13:09:14.075Z</time>
      </trkpt>
      <trkpt lat="43.66727" lon="1.44821">
        <ele>177.526213</ele>
        <time>2022-04-29T13:09:16.080Z</time>
      </trkpt>
      <trkpt lat="43.66738" lon="1.44819">
        <ele>177.474091</ele>
        <time>2022-04-29T13:09:18.059Z</time>
      </trkpt>
      <trkpt lat="43.66748" lon="1.44826">
        <ele>177.425229</ele>
        <time>2022-04-29T13:09:20.064Z</time>
      </trkpt>
      <trkpt lat="43.66753" lon="1.4484">
        <ele>177.428463</ele>
        <time>2022-04-29T13:09:22.081Z</time>
      </trkpt>
      <trkpt lat="43.66755" lon="1.44855">
        <ele>177.431761</ele>
        <time>2022-04-29T13:09:24.076Z</time>
      </trkpt>
      <trkpt lat="43.66759" lon="1.44869">
        <ele>177.435077</ele>
        <time>2022-04-29T13:09:26.076Z</time>
      </trkpt>
      <trkpt lat="43.66767" lon="1.44881">
        <ele>177.438452</ele>
        <time>2022-04-29T13:09:28.068Z</time>
      </trkpt>
      <trkpt lat="43.66776" lon="1.4489">
        <ele>177.441837</ele>
        <time>2022-04-29T13:09:30.068Z</time>
      </trkpt>
      <trkpt lat="43.66786" lon="1.44898">
        <ele>177.445232</ele>
        <time>2022-04-29T13:09:32.097Z</time>
      </trkpt>
      <trkpt lat="43.66796" lon="1.44905">
        <ele>177.448603</ele>
        <time>2022-04-29T13:09:34.078Z</time>
      </trkpt>
      <trkpt lat="43.66807" lon="1.44911">
        <ele>177.451954</ele>
        <time>2022-04-29T13:09:36.092Z</time>
      </trkpt>
      <trkpt lat="43.66818" lon="1.44915">
        <ele>177.455397</ele>
        <time>2022-04-29T13:09:38.074Z</time>
      </trkpt>
      <trkpt lat="43.6683" lon="1.44919">
        <ele>177.458926</ele>
        <time>2022-04-29T13:09:40.061Z</time>
      </trkpt>
      <trkpt lat="43.66841" lon="1.44922">
        <ele>177.462336</ele>
        <time>2022-04-29T13:09:42.080Z</time>
      </trkpt>
      <trkpt lat="43.66852" lon="1.44925">
        <ele>177.465804</ele>
        <time>2022-04-29T13:09:44.075Z</time>
      </trkpt>
      <trkpt lat="43.66864" lon="1.44927">
        <ele>177.469257</ele>
        <time>2022-04-29T13:09:46.052Z</time>
      </trkpt>
      <trkpt lat="43.66875" lon="1.4493">
        <ele>177.4727</ele>
        <time>2022-04-29T13:09:48.067Z</time>
      </trkpt>
      <trkpt lat="43.66887" lon="1.44934">
        <ele>177.476095</ele>
        <time>2022-04-29T13:09:50.091Z</time>
      </trkpt>
      <trkpt lat="43.66898" lon="1.44937">
        <ele>177.492613</ele>
        <time>2022-04-29T13:09:52.064Z</time>
      </trkpt>
      <trkpt lat="43.66908" lon="1.4494">
        <ele>177.538336</ele>
        <time>2022-04-29T13:09:54.068Z</time>
      </trkpt>
      <trkpt lat="43.66919" lon="1.44946">
        <ele>177.584583</ele>
        <time>2022-04-29T13:09:56.083Z</time>
      </trkpt>
      <trkpt lat="43.66927" lon="1.44957">
        <ele>177.632207</ele>
        <time>2022-04-29T13:09:58.098Z</time>
      </trkpt>
      <trkpt lat="43.66933" lon="1.44971">
        <ele>177.679841</ele>
        <time>2022-04-29T13:10:00.099Z</time>
      </trkpt>
      <trkpt lat="43.66938" lon="1.44985">
        <ele>177.728283</ele>
        <time>2022-04-29T13:10:02.078Z</time>
      </trkpt>
      <trkpt lat="43.66943" lon="1.45">
        <ele>177.77777</ele>
        <time>2022-04-29T13:10:04.075Z</time>
      </trkpt>
      <trkpt lat="43.66949" lon="1.45015">
        <ele>177.826657</ele>
        <time>2022-04-29T13:10:06.069Z</time>
      </trkpt>
      <trkpt lat="43.66955" lon="1.45029">
        <ele>177.875281</ele>
        <time>2022-04-29T13:10:08.112Z</time>
      </trkpt>
      <trkpt lat="43.6696" lon="1.45043">
        <ele>177.923579</ele>
        <time>2022-04-29T13:10:10.091Z</time>
      </trkpt>
      <trkpt lat="43.66967" lon="1.45056">
        <ele>177.971316</ele>
        <time>2022-04-29T13:10:12.079Z</time>
      </trkpt>
      <trkpt lat="43.66974" lon="1.45069">
        <ele>178.019587</ele>
        <time>2022-04-29T13:10:14.074Z</time>
      </trkpt>
      <trkpt lat="43.66981" lon="1.45082">
        <ele>178.066608</ele>
        <time>2022-04-29T13:10:16.070Z</time>
      </trkpt>
      <trkpt lat="43.66987" lon="1.45094">
        <ele>178.111916</ele>
        <time>2022-04-29T13:10:18.111Z</time>
      </trkpt>
      <trkpt lat="43.66993" lon="1.45106">
        <ele>178.156738</ele>
        <time>2022-04-29T13:10:20.087Z</time>
      </trkpt>
      <trkpt lat="43.66999" lon="1.45119">
        <ele>178.202346</ele>
        <time>2022-04-29T13:10:22.094Z</time>
      </trkpt>
      <trkpt lat="43.67005" lon="1.45132">
        <ele>178.262378</ele>
        <time>2022-04-29T13:10:24.069Z</time>
      </trkpt>
      <trkpt lat="43.6701" lon="1.45145">
        <ele>178.333843</ele>
        <time>2022-04-29T13:10:26.090Z</time>
      </trkpt>
      <trkpt lat="43.67015" lon="1.45157">
        <ele>178.404686</ele>
        <time>2022-04-29T13:10:28.076Z</time>
      </trkpt>
      <trkpt lat="43.67025" lon="1.45162">
        <ele>178.475357</ele>
        <time>2022-04-29T13:10:30.078Z</time>
      </trkpt>
      <trkpt lat="43.67035" lon="1.45156">
        <ele>178.546178</ele>
        <time>2022-04-29T13:10:32.062Z</time>
      </trkpt>
      <trkpt lat="43.67044" lon="1.45149">
        <ele>178.617565</ele>
        <time>2022-04-29T13:10:34.066Z</time>
      </trkpt>
      <trkpt lat="43.67054" lon="1.45142">
        <ele>178.689381</ele>
        <time>2022-04-29T13:10:36.071Z</time>
      </trkpt>
      <trkpt lat="43.67065" lon="1.45141">
        <ele>178.761451</ele>
        <time>2022-04-29T13:10:38.082Z</time>
      </trkpt>
      <trkpt lat="43.67072" lon="1.45149">
        <ele>178.823076</ele>
        <time>2022-04-29T13:10:40.074Z</time>
      </trkpt>
      <trkpt lat="43.67078" lon="1.4516">
        <ele>178.888935</ele>
        <time>2022-04-29T13:10:42.077Z</time>
      </trkpt>
      <trkpt lat="43.67091" lon="1.45157">
        <ele>178.974384</ele>
        <time>2022-04-29T13:10:45.065Z</time>
      </trkpt>
      <trkpt lat="43.67101" lon="1.45152">
        <ele>179.045843</ele>
        <time>2022-04-29T13:10:48.062Z</time>
      </trkpt>
      <trkpt lat="43.67111" lon="1.45148">
        <ele>179.114478</ele>
        <time>2022-04-29T13:10:51.068Z</time>
      </trkpt>
      <trkpt lat="43.67122" lon="1.45142">
        <ele>179.191758</ele>
        <time>2022-04-29T13:10:54.069Z</time>
      </trkpt>
      <trkpt lat="43.67133" lon="1.45134">
        <ele>179.27484</ele>
        <time>2022-04-29T13:10:57.065Z</time>
      </trkpt>
      <trkpt lat="43.67145" lon="1.45137">
        <ele>179.359268</ele>
        <time>2022-04-29T13:11:00.063Z</time>
      </trkpt>
      <trkpt lat="43.67151" lon="1.45148">
        <ele>179.421225</ele>
        <time>2022-04-29T13:11:02.054Z</time>
      </trkpt>
      <trkpt lat="43.6716" lon="1.45146">
        <ele>179.478176</ele>
        <time>2022-04-29T13:11:04.072Z</time>
      </trkpt>
      <trkpt lat="43.6717" lon="1.45141">
        <ele>179.538697</ele>
        <time>2022-04-29T13:11:06.066Z</time>
      </trkpt>
      <trkpt lat="43.67179" lon="1.45135">
        <ele>179.60007</ele>
        <time>2022-04-29T13:11:08.073Z</time>
      </trkpt>
      <trkpt lat="43.67188" lon="1.4513">
        <ele>179.660539</ele>
        <time>2022-04-29T13:11:10.074Z</time>
      </trkpt>
      <trkpt lat="43.67196" lon="1.45122">
        <ele>179.718387</ele>
        <time>2022-04-29T13:11:12.075Z</time>
      </trkpt>
      <trkpt lat="43.67208" lon="1.4512">
        <ele>179.793754</ele>
        <time>2022-04-29T13:11:15.044Z</time>
      </trkpt>
      <trkpt lat="43.67214" lon="1.45134">
        <ele>179.86333</ele>
        <time>2022-04-29T13:11:18.091Z</time>
      </trkpt>
      <trkpt lat="43.67217" lon="1.45146">
        <ele>179.921191</ele>
        <time>2022-04-29T13:11:21.077Z</time>
      </trkpt>
      <trkpt lat="43.6722" lon="1.45158">
        <ele>179.976481</ele>
        <time>2022-04-29T13:11:24.063Z</time>
      </trkpt>
      <trkpt lat="43.67223" lon="1.45174">
        <ele>180.045314</ele>
        <time>2022-04-29T13:11:27.075Z</time>
      </trkpt>
      <trkpt lat="43.67227" lon="1.4519">
        <ele>180.122078</ele>
        <time>2022-04-29T13:11:30.101Z</time>
      </trkpt>
      <trkpt lat="43.6723" lon="1.45202">
        <ele>180.178116</ele>
        <time>2022-04-29T13:11:32.076Z</time>
      </trkpt>
      <trkpt lat="43.67233" lon="1.45215">
        <ele>180.235585</ele>
        <time>2022-04-29T13:11:34.080Z</time>
      </trkpt>
      <trkpt lat="43.67236" lon="1.45228">
        <ele>180.294074</ele>
        <time>2022-04-29T13:11:36.049Z</time>
      </trkpt>
      <trkpt lat="43.67239" lon="1.4524">
        <ele>180.352346</ele>
        <time>2022-04-29T13:11:38.069Z</time>
      </trkpt>
      <trkpt lat="43.67242" lon="1.45252">
        <ele>180.406952</ele>
        <time>2022-04-29T13:11:40.055Z</time>
      </trkpt>
      <trkpt lat="43.67245" lon="1.45269">
        <ele>180.482495</ele>
        <time>2022-04-29T13:11:43.078Z</time>
      </trkpt>
      <trkpt lat="43.6725" lon="1.45282">
        <ele>180.49914</ele>
        <time>2022-04-29T13:11:46.050Z</time>
      </trkpt>
      <trkpt lat="43.67257" lon="1.45291">
        <ele>180.490474</ele>
        <time>2022-04-29T13:11:49.066Z</time>
      </trkpt>
      <trkpt lat="43.67263" lon="1.45303">
        <ele>180.481416</ele>
        <time>2022-04-29T13:11:52.073Z</time>
      </trkpt>
      <trkpt lat="43.67269" lon="1.45312">
        <ele>180.47289</ele>
        <time>2022-04-29T13:11:55.067Z</time>
      </trkpt>
      <trkpt lat="43.67279" lon="1.45313">
        <ele>180.4641</ele>
        <time>2022-04-29T13:11:58.066Z</time>
      </trkpt>
      <trkpt lat="43.6729" lon="1.45306">
        <ele>180.453051</ele>
        <time>2022-04-29T13:12:01.074Z</time>
      </trkpt>
      <trkpt lat="43.67303" lon="1.45298">
        <ele>180.441086</ele>
        <time>2022-04-29T13:12:04.067Z</time>
      </trkpt>
      <trkpt lat="43.67312" lon="1.45294">
        <ele>180.43244</ele>
        <time>2022-04-29T13:12:06.072Z</time>
      </trkpt>
      <trkpt lat="43.67322" lon="1.45292">
        <ele>180.423086</ele>
        <time>2022-04-29T13:12:08.063Z</time>
      </trkpt>
      <trkpt lat="43.67333" lon="1.45294">
        <ele>180.4135</ele>
        <time>2022-04-29T13:12:10.076Z</time>
      </trkpt>
      <trkpt lat="43.67344" lon="1.45297">
        <ele>180.403646</ele>
        <time>2022-04-29T13:12:12.052Z</time>
      </trkpt>
      <trkpt lat="43.67355" lon="1.453">
        <ele>180.393826</ele>
        <time>2022-04-29T13:12:14.072Z</time>
      </trkpt>
      <trkpt lat="43.67366" lon="1.45302">
        <ele>180.384056</ele>
        <time>2022-04-29T13:12:16.081Z</time>
      </trkpt>
      <trkpt lat="43.67376" lon="1.45299">
        <ele>180.374913</ele>
        <time>2022-04-29T13:12:18.073Z</time>
      </trkpt>
      <trkpt lat="43.67385" lon="1.45293">
        <ele>180.365556</ele>
        <time>2022-04-29T13:12:20.066Z</time>
      </trkpt>
      <trkpt lat="43.67396" lon="1.45291">
        <ele>180.356381</ele>
        <time>2022-04-29T13:12:22.062Z</time>
      </trkpt>
      <trkpt lat="43.67406" lon="1.45292">
        <ele>180.347532</ele>
        <time>2022-04-29T13:12:24.056Z</time>
      </trkpt>
      <trkpt lat="43.67414" lon="1.45288">
        <ele>180.390402</ele>
        <time>2022-04-29T13:12:26.057Z</time>
      </trkpt>
      <trkpt lat="43.67423" lon="1.45284">
        <ele>180.450567</ele>
        <time>2022-04-29T13:12:28.070Z</time>
      </trkpt>
      <trkpt lat="43.67431" lon="1.4529">
        <ele>180.510795</ele>
        <time>2022-04-29T13:12:30.048Z</time>
      </trkpt>
      <trkpt lat="43.67438" lon="1.45301">
        <ele>180.574796</ele>
        <time>2022-04-29T13:12:32.077Z</time>
      </trkpt>
      <trkpt lat="43.67443" lon="1.45313">
        <ele>180.64007</ele>
        <time>2022-04-29T13:12:34.088Z</time>
      </trkpt>
      <trkpt lat="43.67449" lon="1.45324">
        <ele>180.705418</ele>
        <time>2022-04-29T13:12:36.075Z</time>
      </trkpt>
      <trkpt lat="43.67456" lon="1.45335">
        <ele>180.769836</ele>
        <time>2022-04-29T13:12:38.040Z</time>
      </trkpt>
      <trkpt lat="43.67459" lon="1.45347">
        <ele>180.833715</ele>
        <time>2022-04-29T13:12:40.065Z</time>
      </trkpt>
      <trkpt lat="43.67464" lon="1.4536">
        <ele>180.898794</ele>
        <time>2022-04-29T13:12:42.071Z</time>
      </trkpt>
      <trkpt lat="43.67471" lon="1.4537">
        <ele>180.963708</ele>
        <time>2022-04-29T13:12:44.067Z</time>
      </trkpt>
      <trkpt lat="43.67479" lon="1.45379">
        <ele>181.029474</ele>
        <time>2022-04-29T13:12:46.074Z</time>
      </trkpt>
      <trkpt lat="43.67488" lon="1.45385">
        <ele>181.095229</ele>
        <time>2022-04-29T13:12:48.091Z</time>
      </trkpt>
      <trkpt lat="43.67498" lon="1.45386">
        <ele>181.158384</ele>
        <time>2022-04-29T13:12:50.075Z</time>
      </trkpt>
      <trkpt lat="43.67506" lon="1.45377">
        <ele>181.228371</ele>
        <time>2022-04-29T13:12:52.077Z</time>
      </trkpt>
      <trkpt lat="43.67514" lon="1.45367">
        <ele>181.29804</ele>
        <time>2022-04-29T13:12:54.073Z</time>
      </trkpt>
      <trkpt lat="43.67522" lon="1.45357">
        <ele>181.365706</ele>
        <time>2022-04-29T13:12:56.088Z</time>
      </trkpt>
      <trkpt lat="43.67531" lon="1.45349">
        <ele>181.433665</ele>
        <time>2022-04-29T13:12:58.071Z</time>
      </trkpt>
      <trkpt lat="43.6754" lon="1.45343">
        <ele>181.500033</ele>
        <time>2022-04-29T13:13:00.071Z</time>
      </trkpt>
      <trkpt lat="43.6755" lon="1.45344">
        <ele>181.478487</ele>
        <time>2022-04-29T13:13:02.091Z</time>
      </trkpt>
      <trkpt lat="43.67562" lon="1.45339">
        <ele>181.443111</ele>
        <time>2022-04-29T13:13:05.076Z</time>
      </trkpt>
      <trkpt lat="43.67573" lon="1.45331">
        <ele>181.407266</ele>
        <time>2022-04-29T13:13:08.072Z</time>
      </trkpt>
      <trkpt lat="43.67585" lon="1.45324">
        <ele>181.370732</ele>
        <time>2022-04-29T13:13:11.084Z</time>
      </trkpt>
      <trkpt lat="43.67597" lon="1.45318">
        <ele>181.33448</ele>
        <time>2022-04-29T13:13:14.072Z</time>
      </trkpt>
      <trkpt lat="43.67609" lon="1.45315">
        <ele>181.297844</ele>
        <time>2022-04-29T13:13:17.071Z</time>
      </trkpt>
      <trkpt lat="43.67623" lon="1.45313">
        <ele>181.259526</ele>
        <time>2022-04-29T13:13:20.058Z</time>
      </trkpt>
      <trkpt lat="43.67632" lon="1.45313">
        <ele>181.233338</ele>
        <time>2022-04-29T13:13:22.070Z</time>
      </trkpt>
      <trkpt lat="43.67641" lon="1.45313">
        <ele>181.207438</ele>
        <time>2022-04-29T13:13:24.070Z</time>
      </trkpt>
      <trkpt lat="43.67654" lon="1.45311">
        <ele>181.171122</ele>
        <time>2022-04-29T13:13:27.076Z</time>
      </trkpt>
      <trkpt lat="43.67666" lon="1.45317">
        <ele>181.134242</ele>
        <time>2022-04-29T13:13:30.058Z</time>
      </trkpt>
      <trkpt lat="43.67676" lon="1.45319">
        <ele>181.106861</ele>
        <time>2022-04-29T13:13:32.084Z</time>
      </trkpt>
      <trkpt lat="43.67686" lon="1.45321">
        <ele>181.078723</ele>
        <time>2022-04-29T13:13:34.064Z</time>
      </trkpt>
      <trkpt lat="43.67695" lon="1.45322">
        <ele>181.051996</ele>
        <time>2022-04-29T13:13:36.083Z</time>
      </trkpt>
      <trkpt lat="43.67707" lon="1.45328">
        <ele>181.016746</ele>
        <time>2022-04-29T13:13:39.070Z</time>
      </trkpt>
      <trkpt lat="43.67715" lon="1.45333">
        <ele>181.000331</ele>
        <time>2022-04-29T13:13:41.071Z</time>
      </trkpt>
      <trkpt lat="43.67725" lon="1.4534">
        <ele>181.084508</ele>
        <time>2022-04-29T13:13:43.071Z</time>
      </trkpt>
      <trkpt lat="43.67735" lon="1.45348">
        <ele>181.170578</ele>
        <time>2022-04-29T13:13:45.070Z</time>
      </trkpt>
      <trkpt lat="43.67745" lon="1.45355">
        <ele>181.258303</ele>
        <time>2022-04-29T13:13:47.068Z</time>
      </trkpt>
      <trkpt lat="43.67755" lon="1.45362">
        <ele>181.345942</ele>
        <time>2022-04-29T13:13:49.069Z</time>
      </trkpt>
      <trkpt lat="43.67765" lon="1.45369">
        <ele>181.431468</ele>
        <time>2022-04-29T13:13:51.103Z</time>
      </trkpt>
      <trkpt lat="43.67775" lon="1.45377">
        <ele>181.520273</ele>
        <time>2022-04-29T13:13:53.065Z</time>
      </trkpt>
      <trkpt lat="43.67784" lon="1.45385">
        <ele>181.60607</ele>
        <time>2022-04-29T13:13:55.081Z</time>
      </trkpt>
      <trkpt lat="43.67794" lon="1.45393">
        <ele>181.692824</ele>
        <time>2022-04-29T13:13:57.114Z</time>
      </trkpt>
      <trkpt lat="43.67803" lon="1.45397">
        <ele>181.77039</ele>
        <time>2022-04-29T13:13:59.075Z</time>
      </trkpt>
      <trkpt lat="43.67814" lon="1.45407">
        <ele>181.870407</ele>
        <time>2022-04-29T13:14:02.044Z</time>
      </trkpt>
      <trkpt lat="43.67824" lon="1.45418">
        <ele>181.967681</ele>
        <time>2022-04-29T13:14:05.081Z</time>
      </trkpt>
      <trkpt lat="43.67836" lon="1.45426">
        <ele>182.06888</ele>
        <time>2022-04-29T13:14:08.066Z</time>
      </trkpt>
      <trkpt lat="43.67847" lon="1.45433">
        <ele>182.166108</ele>
        <time>2022-04-29T13:14:11.076Z</time>
      </trkpt>
      <trkpt lat="43.67859" lon="1.45431">
        <ele>182.257111</ele>
        <time>2022-04-29T13:14:14.071Z</time>
      </trkpt>
      <trkpt lat="43.6787" lon="1.45422">
        <ele>182.353719</ele>
        <time>2022-04-29T13:14:17.067Z</time>
      </trkpt>
      <trkpt lat="43.67881" lon="1.45413">
        <ele>182.397909</ele>
        <time>2022-04-29T13:14:20.080Z</time>
      </trkpt>
      <trkpt lat="43.67888" lon="1.45407">
        <ele>182.414597</ele>
        <time>2022-04-29T13:14:22.117Z</time>
      </trkpt>
      <trkpt lat="43.67897" lon="1.454">
        <ele>182.432049</ele>
        <time>2022-04-29T13:14:24.077Z</time>
      </trkpt>
      <trkpt lat="43.67906" lon="1.45394">
        <ele>182.450456</ele>
        <time>2022-04-29T13:14:26.080Z</time>
      </trkpt>
      <trkpt lat="43.67914" lon="1.45387">
        <ele>182.468704</ele>
        <time>2022-04-29T13:14:28.085Z</time>
      </trkpt>
      <trkpt lat="43.67923" lon="1.45384">
        <ele>182.485489</ele>
        <time>2022-04-29T13:14:30.073Z</time>
      </trkpt>
      <trkpt lat="43.67936" lon="1.45384">
        <ele>182.507908</ele>
        <time>2022-04-29T13:14:33.057Z</time>
      </trkpt>
      <trkpt lat="43.67949" lon="1.45377">
        <ele>182.533847</ele>
        <time>2022-04-29T13:14:36.081Z</time>
      </trkpt>
      <trkpt lat="43.6796" lon="1.45372">
        <ele>182.55453</ele>
        <time>2022-04-29T13:14:38.074Z</time>
      </trkpt>
      <trkpt lat="43.67969" lon="1.45366">
        <ele>182.573589</ele>
        <time>2022-04-29T13:14:40.081Z</time>
      </trkpt>
      <trkpt lat="43.67978" lon="1.45358">
        <ele>182.592641</ele>
        <time>2022-04-29T13:14:42.093Z</time>
      </trkpt>
      <trkpt lat="43.67987" lon="1.45351">
        <ele>182.611387</ele>
        <time>2022-04-29T13:14:44.069Z</time>
      </trkpt>
      <trkpt lat="43.67996" lon="1.45344">
        <ele>182.629551</ele>
        <time>2022-04-29T13:14:46.076Z</time>
      </trkpt>
      <trkpt lat="43.68004" lon="1.45339">
        <ele>182.646878</ele>
        <time>2022-04-29T13:14:48.069Z</time>
      </trkpt>
      <trkpt lat="43.68013" lon="1.45333">
        <ele>182.664233</ele>
        <time>2022-04-29T13:14:50.076Z</time>
      </trkpt>
      <trkpt lat="43.68021" lon="1.45326">
        <ele>182.681937</ele>
        <time>2022-04-29T13:14:52.076Z</time>
      </trkpt>
      <trkpt lat="43.6803" lon="1.4532">
        <ele>182.699961</ele>
        <time>2022-04-29T13:14:54.072Z</time>
      </trkpt>
      <trkpt lat="43.68038" lon="1.45313">
        <ele>182.708288</ele>
        <time>2022-04-29T13:14:56.094Z</time>
      </trkpt>
      <trkpt lat="43.68046" lon="1.45306">
        <ele>182.706897</ele>
        <time>2022-04-29T13:14:58.099Z</time>
      </trkpt>
      <trkpt lat="43.68054" lon="1.45298">
        <ele>182.705517</ele>
        <time>2022-04-29T13:15:00.095Z</time>
      </trkpt>
      <trkpt lat="43.68063" lon="1.45291">
        <ele>182.704107</ele>
        <time>2022-04-29T13:15:02.098Z</time>
      </trkpt>
      <trkpt lat="43.68071" lon="1.45284">
        <ele>182.70271</ele>
        <time>2022-04-29T13:15:04.075Z</time>
      </trkpt>
      <trkpt lat="43.68079" lon="1.45276">
        <ele>182.701265</ele>
        <time>2022-04-29T13:15:06.080Z</time>
      </trkpt>
      <trkpt lat="43.68087" lon="1.45269">
        <ele>182.699791</ele>
        <time>2022-04-29T13:15:08.100Z</time>
      </trkpt>
      <trkpt lat="43.68096" lon="1.45261">
        <ele>182.698278</ele>
        <time>2022-04-29T13:15:10.075Z</time>
      </trkpt>
      <trkpt lat="43.68105" lon="1.45254">
        <ele>182.696815</ele>
        <time>2022-04-29T13:15:12.076Z</time>
      </trkpt>
      <trkpt lat="43.68113" lon="1.45246">
        <ele>182.695359</ele>
        <time>2022-04-29T13:15:14.080Z</time>
      </trkpt>
      <trkpt lat="43.68122" lon="1.45238">
        <ele>182.693866</ele>
        <time>2022-04-29T13:15:16.072Z</time>
      </trkpt>
      <trkpt lat="43.6813" lon="1.4523">
        <ele>182.692386</ele>
        <time>2022-04-29T13:15:18.077Z</time>
      </trkpt>
      <trkpt lat="43.68139" lon="1.45222">
        <ele>182.690911</ele>
        <time>2022-04-29T13:15:20.098Z</time>
      </trkpt>
      <trkpt lat="43.68147" lon="1.45214">
        <ele>182.689449</ele>
        <time>2022-04-29T13:15:22.104Z</time>
      </trkpt>
      <trkpt lat="43.68155" lon="1.45206">
        <ele>182.687974</ele>
        <time>2022-04-29T13:15:24.078Z</time>
      </trkpt>
      <trkpt lat="43.68167" lon="1.45213">
        <ele>182.686159</ele>
        <time>2022-04-29T13:15:27.059Z</time>
      </trkpt>
      <trkpt lat="43.6817" lon="1.45227">
        <ele>182.684626</ele>
        <time>2022-04-29T13:15:29.067Z</time>
      </trkpt>
      <trkpt lat="43.68173" lon="1.4524">
        <ele>182.683116</ele>
        <time>2022-04-29T13:15:31.074Z</time>
      </trkpt>
      <trkpt lat="43.68177" lon="1.45254">
        <ele>182.780204</ele>
        <time>2022-04-29T13:15:33.100Z</time>
      </trkpt>
      <trkpt lat="43.68181" lon="1.45268">
        <ele>182.894534</ele>
        <time>2022-04-29T13:15:35.066Z</time>
      </trkpt>
      <trkpt lat="43.68184" lon="1.45282">
        <ele>183.013451</ele>
        <time>2022-04-29T13:15:37.066Z</time>
      </trkpt>
      <trkpt lat="43.68187" lon="1.45296">
        <ele>183.133637</ele>
        <time>2022-04-29T13:15:39.081Z</time>
      </trkpt>
      <trkpt lat="43.68191" lon="1.45311">
        <ele>183.257536</ele>
        <time>2022-04-29T13:15:41.081Z</time>
      </trkpt>
      <trkpt lat="43.68195" lon="1.45326">
        <ele>183.37925</ele>
        <time>2022-04-29T13:15:43.093Z</time>
      </trkpt>
      <trkpt lat="43.68198" lon="1.45341">
        <ele>183.503208</ele>
        <time>2022-04-29T13:15:45.088Z</time>
      </trkpt>
      <trkpt lat="43.68202" lon="1.45356">
        <ele>183.624923</ele>
        <time>2022-04-29T13:15:47.088Z</time>
      </trkpt>
      <trkpt lat="43.68205" lon="1.4537">
        <ele>183.744383</ele>
        <time>2022-04-29T13:15:49.072Z</time>
      </trkpt>
      <trkpt lat="43.68209" lon="1.45384">
        <ele>183.859443</ele>
        <time>2022-04-29T13:15:51.091Z</time>
      </trkpt>
      <trkpt lat="43.68213" lon="1.45398">
        <ele>183.979259</ele>
        <time>2022-04-29T13:15:53.082Z</time>
      </trkpt>
      <trkpt lat="43.68216" lon="1.45412">
        <ele>184.09881</ele>
        <time>2022-04-29T13:15:55.089Z</time>
      </trkpt>
      <trkpt lat="43.6822" lon="1.45427">
        <ele>184.217893</ele>
        <time>2022-04-29T13:15:57.070Z</time>
      </trkpt>
      <trkpt lat="43.68224" lon="1.4544">
        <ele>184.331434</ele>
        <time>2022-04-29T13:15:59.079Z</time>
      </trkpt>
      <trkpt lat="43.68229" lon="1.45455">
        <ele>184.463215</ele>
        <time>2022-04-29T13:16:01.058Z</time>
      </trkpt>
      <trkpt lat="43.68233" lon="1.4547">
        <ele>184.58979</ele>
        <time>2022-04-29T13:16:03.069Z</time>
      </trkpt>
      <trkpt lat="43.68237" lon="1.45484">
        <ele>184.71785</ele>
        <time>2022-04-29T13:16:05.080Z</time>
      </trkpt>
      <trkpt lat="43.68242" lon="1.45499">
        <ele>184.858285</ele>
        <time>2022-04-29T13:16:07.076Z</time>
      </trkpt>
      <trkpt lat="43.68246" lon="1.45514">
        <ele>184.998457</ele>
        <time>2022-04-29T13:16:09.084Z</time>
      </trkpt>
      <trkpt lat="43.6825" lon="1.45529">
        <ele>185.135743</ele>
        <time>2022-04-29T13:16:11.072Z</time>
      </trkpt>
      <trkpt lat="43.68254" lon="1.45543">
        <ele>185.272615</ele>
        <time>2022-04-29T13:16:13.075Z</time>
      </trkpt>
      <trkpt lat="43.68258" lon="1.45558">
        <ele>185.407013</ele>
        <time>2022-04-29T13:16:15.084Z</time>
      </trkpt>
      <trkpt lat="43.68261" lon="1.45573">
        <ele>185.546875</ele>
        <time>2022-04-29T13:16:17.068Z</time>
      </trkpt>
      <trkpt lat="43.68264" lon="1.45588">
        <ele>185.683027</ele>
        <time>2022-04-29T13:16:19.080Z</time>
      </trkpt>
      <trkpt lat="43.68268" lon="1.45603">
        <ele>185.823013</ele>
        <time>2022-04-29T13:16:21.095Z</time>
      </trkpt>
      <trkpt lat="43.68271" lon="1.45619">
        <ele>185.964859</ele>
        <time>2022-04-29T13:16:23.104Z</time>
      </trkpt>
      <trkpt lat="43.68273" lon="1.45634">
        <ele>186.104953</ele>
        <time>2022-04-29T13:16:25.088Z</time>
      </trkpt>
      <trkpt lat="43.68275" lon="1.4565">
        <ele>186.243655</ele>
        <time>2022-04-29T13:16:27.082Z</time>
      </trkpt>
      <trkpt lat="43.68277" lon="1.45666">
        <ele>186.385112</ele>
        <time>2022-04-29T13:16:29.072Z</time>
      </trkpt>
      <trkpt lat="43.68278" lon="1.45681">
        <ele>186.520792</ele>
        <time>2022-04-29T13:16:31.077Z</time>
      </trkpt>
      <trkpt lat="43.68278" lon="1.45697">
        <ele>186.660219</ele>
        <time>2022-04-29T13:16:33.070Z</time>
      </trkpt>
      <trkpt lat="43.68277" lon="1.45713">
        <ele>186.798304</ele>
        <time>2022-04-29T13:16:35.082Z</time>
      </trkpt>
      <trkpt lat="43.68276" lon="1.45728">
        <ele>187.092688</ele>
        <time>2022-04-29T13:16:37.072Z</time>
      </trkpt>
      <trkpt lat="43.68275" lon="1.45743">
        <ele>187.409974</ele>
        <time>2022-04-29T13:16:39.071Z</time>
      </trkpt>
      <trkpt lat="43.68274" lon="1.45758">
        <ele>187.718237</ele>
        <time>2022-04-29T13:16:41.074Z</time>
      </trkpt>
      <trkpt lat="43.68273" lon="1.45771">
        <ele>188.0089</ele>
        <time>2022-04-29T13:16:43.077Z</time>
      </trkpt>
      <trkpt lat="43.68273" lon="1.45785">
        <ele>188.294981</ele>
        <time>2022-04-29T13:16:45.122Z</time>
      </trkpt>
      <trkpt lat="43.68272" lon="1.45799">
        <ele>188.599961</ele>
        <time>2022-04-29T13:16:47.082Z</time>
      </trkpt>
      <trkpt lat="43.68271" lon="1.45814">
        <ele>188.905613</ele>
        <time>2022-04-29T13:16:49.077Z</time>
      </trkpt>
      <trkpt lat="43.68271" lon="1.45828">
        <ele>189.200498</ele>
        <time>2022-04-29T13:16:51.079Z</time>
      </trkpt>
      <trkpt lat="43.6827" lon="1.45842">
        <ele>189.510606</ele>
        <time>2022-04-29T13:16:53.081Z</time>
      </trkpt>
      <trkpt lat="43.68269" lon="1.45856">
        <ele>189.795162</ele>
        <time>2022-04-29T13:16:55.109Z</time>
      </trkpt>
      <trkpt lat="43.68268" lon="1.45869">
        <ele>190.077866</ele>
        <time>2022-04-29T13:16:57.084Z</time>
      </trkpt>
      <trkpt lat="43.68267" lon="1.45886">
        <ele>190.434013</ele>
        <time>2022-04-29T13:17:00.098Z</time>
      </trkpt>
      <trkpt lat="43.68267" lon="1.45899">
        <ele>190.716035</ele>
        <time>2022-04-29T13:17:04.085Z</time>
      </trkpt>
      <trkpt lat="43.68267" lon="1.45915">
        <ele>191.05722</ele>
        <time>2022-04-29T13:17:07.077Z</time>
      </trkpt>
      <trkpt lat="43.68266" lon="1.45928">
        <ele>191.328681</ele>
        <time>2022-04-29T13:17:09.090Z</time>
      </trkpt>
      <trkpt lat="43.68265" lon="1.45942">
        <ele>191.640771</ele>
        <time>2022-04-29T13:17:11.078Z</time>
      </trkpt>
      <trkpt lat="43.68263" lon="1.45958">
        <ele>191.973987</ele>
        <time>2022-04-29T13:17:13.074Z</time>
      </trkpt>
      <trkpt lat="43.68261" lon="1.45972">
        <ele>192.286835</ele>
        <time>2022-04-29T13:17:15.078Z</time>
      </trkpt>
      <trkpt lat="43.68261" lon="1.4599">
        <ele>192.662897</ele>
        <time>2022-04-29T13:17:18.092Z</time>
      </trkpt>
      <trkpt lat="43.68265" lon="1.46005">
        <ele>193.01143</ele>
        <time>2022-04-29T13:17:22.072Z</time>
      </trkpt>
      <trkpt lat="43.68269" lon="1.46019">
        <ele>193.33561</ele>
        <time>2022-04-29T13:17:25.081Z</time>
      </trkpt>
      <trkpt lat="43.68272" lon="1.46031">
        <ele>193.624884</ele>
        <time>2022-04-29T13:17:27.064Z</time>
      </trkpt>
      <trkpt lat="43.68275" lon="1.46045">
        <ele>193.940166</ele>
        <time>2022-04-29T13:17:29.079Z</time>
      </trkpt>
      <trkpt lat="43.68277" lon="1.4606">
        <ele>194.259448</ele>
        <time>2022-04-29T13:17:31.095Z</time>
      </trkpt>
      <trkpt lat="43.68278" lon="1.46075">
        <ele>194.59288</ele>
        <time>2022-04-29T13:17:33.052Z</time>
      </trkpt>
      <trkpt lat="43.6828" lon="1.4609">
        <ele>194.923762</ele>
        <time>2022-04-29T13:17:35.076Z</time>
      </trkpt>
      <trkpt lat="43.68279" lon="1.46105">
        <ele>195.250283</ele>
        <time>2022-04-29T13:17:37.042Z</time>
      </trkpt>
      <trkpt lat="43.68281" lon="1.4612">
        <ele>195.575102</ele>
        <time>2022-04-29T13:17:39.069Z</time>
      </trkpt>
      <trkpt lat="43.68286" lon="1.46132">
        <ele>195.891268</ele>
        <time>2022-04-29T13:17:41.064Z</time>
      </trkpt>
      <trkpt lat="43.68294" lon="1.46142">
        <ele>196.201414</ele>
        <time>2022-04-29T13:17:43.076Z</time>
      </trkpt>
      <trkpt lat="43.68302" lon="1.46153">
        <ele>196.532596</ele>
        <time>2022-04-29T13:17:45.086Z</time>
      </trkpt>
      <trkpt lat="43.68309" lon="1.46167">
        <ele>196.911266</ele>
        <time>2022-04-29T13:17:47.068Z</time>
      </trkpt>
      <trkpt lat="43.68317" lon="1.46182">
        <ele>197.321891</ele>
        <time>2022-04-29T13:17:49.091Z</time>
      </trkpt>
      <trkpt lat="43.68326" lon="1.46198">
        <ele>197.395902</ele>
        <time>2022-04-29T13:17:51.080Z</time>
      </trkpt>
      <trkpt lat="43.68336" lon="1.46215">
        <ele>197.236487</ele>
        <time>2022-04-29T13:17:53.071Z</time>
      </trkpt>
      <trkpt lat="43.68345" lon="1.46228">
        <ele>197.103591</ele>
        <time>2022-04-29T13:17:55.087Z</time>
      </trkpt>
      <trkpt lat="43.68352" lon="1.46237">
        <ele>197.008995</ele>
        <time>2022-04-29T13:17:58.099Z</time>
      </trkpt>
      <trkpt lat="43.68358" lon="1.46246">
        <ele>196.914408</ele>
        <time>2022-04-29T13:18:02.068Z</time>
      </trkpt>
      <trkpt lat="43.68367" lon="1.46252">
        <ele>196.81469</ele>
        <time>2022-04-29T13:18:07.062Z</time>
      </trkpt>
      <trkpt lat="43.68384" lon="1.46238">
        <ele>196.618624</ele>
        <time>2022-04-29T13:18:42.078Z</time>
      </trkpt>
      <trkpt lat="43.68393" lon="1.46241">
        <ele>196.523124</ele>
        <time>2022-04-29T13:18:46.050Z</time>
      </trkpt>
      <trkpt lat="43.68402" lon="1.46243">
        <ele>196.428035</ele>
        <time>2022-04-29T13:18:49.047Z</time>
      </trkpt>
      <trkpt lat="43.68412" lon="1.46244">
        <ele>196.332836</ele>
        <time>2022-04-29T13:18:55.057Z</time>
      </trkpt>
      <trkpt lat="43.6842" lon="1.46249">
        <ele>196.240348</ele>
        <time>2022-04-29T13:19:00.065Z</time>
      </trkpt>
      <trkpt lat="43.68432" lon="1.4625">
        <ele>196.122922</ele>
        <time>2022-04-29T13:19:06.065Z</time>
      </trkpt>
      <trkpt lat="43.68442" lon="1.46245">
        <ele>196.010724</ele>
        <time>2022-04-29T13:19:09.085Z</time>
      </trkpt>
      <trkpt lat="43.68453" lon="1.46236">
        <ele>195.884444</ele>
        <time>2022-04-29T13:19:12.076Z</time>
      </trkpt>
      <trkpt lat="43.68463" lon="1.46243">
        <ele>195.770667</ele>
        <time>2022-04-29T13:19:15.075Z</time>
      </trkpt>
      <trkpt lat="43.6847" lon="1.46255">
        <ele>195.677898</ele>
        <time>2022-04-29T13:19:18.065Z</time>
      </trkpt>
      <trkpt lat="43.68477" lon="1.46265">
        <ele>195.739092</ele>
        <time>2022-04-29T13:19:21.069Z</time>
      </trkpt>
      <trkpt lat="43.68486" lon="1.46271">
        <ele>195.800333</ele>
        <time>2022-04-29T13:19:24.068Z</time>
      </trkpt>
      <trkpt lat="43.68496" lon="1.46275">
        <ele>195.86066</ele>
        <time>2022-04-29T13:19:27.080Z</time>
      </trkpt>
      <trkpt lat="43.68507" lon="1.46275">
        <ele>195.926346</ele>
        <time>2022-04-29T13:19:30.067Z</time>
      </trkpt>
      <trkpt lat="43.68519" lon="1.46274">
        <ele>195.997696</ele>
        <time>2022-04-29T13:19:33.050Z</time>
      </trkpt>
      <trkpt lat="43.68531" lon="1.46268">
        <ele>196.073354</ele>
        <time>2022-04-29T13:19:36.057Z</time>
      </trkpt>
      <trkpt lat="43.68543" lon="1.46266">
        <ele>196.147833</ele>
        <time>2022-04-29T13:19:39.055Z</time>
      </trkpt>
      <trkpt lat="43.68555" lon="1.46268">
        <ele>196.220202</ele>
        <time>2022-04-29T13:19:42.072Z</time>
      </trkpt>
      <trkpt lat="43.68571" lon="1.46261">
        <ele>196.321322</ele>
        <time>2022-04-29T13:20:02.068Z</time>
      </trkpt>
      <trkpt lat="43.6858" lon="1.46264">
        <ele>196.380266</ele>
        <time>2022-04-29T13:20:12.075Z</time>
      </trkpt>
      <trkpt lat="43.68593" lon="1.46274">
        <ele>196.467893</ele>
        <time>2022-04-29T13:20:31.090Z</time>
      </trkpt>
      <trkpt lat="43.68604" lon="1.46279">
        <ele>196.536431</ele>
        <time>2022-04-29T13:20:34.076Z</time>
      </trkpt>
      <trkpt lat="43.68615" lon="1.4628">
        <ele>196.604631</ele>
        <time>2022-04-29T13:20:37.079Z</time>
      </trkpt>
      <trkpt lat="43.68627" lon="1.46279">
        <ele>196.675148</ele>
        <time>2022-04-29T13:20:41.068Z</time>
      </trkpt>
      <trkpt lat="43.68635" lon="1.46286">
        <ele>196.734682</ele>
        <time>2022-04-29T13:20:45.059Z</time>
      </trkpt>
      <trkpt lat="43.68643" lon="1.46294">
        <ele>196.865451</ele>
        <time>2022-04-29T13:20:49.080Z</time>
      </trkpt>
      <trkpt lat="43.68663" lon="1.46305">
        <ele>197.235082</ele>
        <time>2022-04-29T13:21:19.072Z</time>
      </trkpt>
      <trkpt lat="43.68674" lon="1.46308">
        <ele>197.430755</ele>
        <time>2022-04-29T13:21:23.078Z</time>
      </trkpt>
      <trkpt lat="43.68685" lon="1.46322">
        <ele>197.689848</ele>
        <time>2022-04-29T13:21:59.064Z</time>
      </trkpt>
      <trkpt lat="43.68693" lon="1.46328">
        <ele>197.848138</ele>
        <time>2022-04-29T13:22:12.073Z</time>
      </trkpt>
      <trkpt lat="43.68704" lon="1.4633">
        <ele>198.044989</ele>
        <time>2022-04-29T13:22:16.065Z</time>
      </trkpt>
      <trkpt lat="43.68715" lon="1.46331">
        <ele>198.230446</ele>
        <time>2022-04-29T13:22:19.058Z</time>
      </trkpt>
      <trkpt lat="43.68725" lon="1.46335">
        <ele>198.408416</ele>
        <time>2022-04-29T13:22:22.057Z</time>
      </trkpt>
      <trkpt lat="43.68734" lon="1.46339">
        <ele>198.581257</ele>
        <time>2022-04-29T13:22:25.059Z</time>
      </trkpt>
      <trkpt lat="43.68743" lon="1.46343">
        <ele>198.751825</ele>
        <time>2022-04-29T13:22:28.069Z</time>
      </trkpt>
      <trkpt lat="43.68753" lon="1.46346">
        <ele>198.915892</ele>
        <time>2022-04-29T13:22:31.076Z</time>
      </trkpt>
      <trkpt lat="43.68765" lon="1.4635">
        <ele>199.129794</ele>
        <time>2022-04-29T13:22:35.096Z</time>
      </trkpt>
      <trkpt lat="43.68776" lon="1.46355">
        <ele>199.34052</ele>
        <time>2022-04-29T13:22:38.082Z</time>
      </trkpt>
      <trkpt lat="43.68787" lon="1.4636">
        <ele>199.547544</ele>
        <time>2022-04-29T13:22:41.073Z</time>
      </trkpt>
      <trkpt lat="43.68798" lon="1.46364">
        <ele>199.741264</ele>
        <time>2022-04-29T13:22:44.084Z</time>
      </trkpt>
      <trkpt lat="43.68807" lon="1.46365">
        <ele>199.921187</ele>
        <time>2022-04-29T13:22:47.074Z</time>
      </trkpt>
      <trkpt lat="43.68822" lon="1.46365">
        <ele>200.696288</ele>
        <time>2022-04-29T13:23:26.104Z</time>
      </trkpt>
      <trkpt lat="43.68831" lon="1.46369">
        <ele>201.236897</ele>
        <time>2022-04-29T13:23:29.081Z</time>
      </trkpt>
      <trkpt lat="43.6884" lon="1.46376">
        <ele>201.758895</ele>
        <time>2022-04-29T13:23:32.075Z</time>
      </trkpt>
      <trkpt lat="43.68849" lon="1.46381">
        <ele>202.29341</ele>
        <time>2022-04-29T13:23:36.075Z</time>
      </trkpt>
      <trkpt lat="43.68859" lon="1.46384">
        <ele>202.820109</ele>
        <time>2022-04-29T13:23:41.075Z</time>
      </trkpt>
      <trkpt lat="43.6887" lon="1.46387">
        <ele>203.41591</ele>
        <time>2022-04-29T13:23:46.086Z</time>
      </trkpt>
      <trkpt lat="43.68874" lon="1.46399">
        <ele>203.910954</ele>
        <time>2022-04-29T13:23:55.076Z</time>
      </trkpt>
      <trkpt lat="43.68877" lon="1.46411">
        <ele>204.398432</ele>
        <time>2022-04-29T13:24:03.056Z</time>
      </trkpt>
      <trkpt lat="43.68889" lon="1.46411">
        <ele>205.041175</ele>
        <time>2022-04-29T13:24:10.069Z</time>
      </trkpt>
      <trkpt lat="43.68898" lon="1.46414">
        <ele>205.544737</ele>
        <time>2022-04-29T13:24:16.087Z</time>
      </trkpt>
      <trkpt lat="43.68908" lon="1.46419">
        <ele>206.090536</ele>
        <time>2022-04-29T13:24:21.063Z</time>
      </trkpt>
      <trkpt lat="43.68919" lon="1.46424">
        <ele>206.687455</ele>
        <time>2022-04-29T13:24:33.065Z</time>
      </trkpt>
      <trkpt lat="43.68925" lon="1.46435">
        <ele>207.233053</ele>
        <time>2022-04-29T13:24:50.056Z</time>
      </trkpt>
      <trkpt lat="43.68933" lon="1.46448">
        <ele>207.850514</ele>
        <time>2022-04-29T13:24:55.065Z</time>
      </trkpt>
      <trkpt lat="43.68939" lon="1.46459">
        <ele>208.420267</ele>
        <time>2022-04-29T13:24:59.069Z</time>
      </trkpt>
      <trkpt lat="43.68948" lon="1.46466">
        <ele>208.974017</ele>
        <time>2022-04-29T13:25:04.073Z</time>
      </trkpt>
      <trkpt lat="43.68958" lon="1.46467">
        <ele>209.508737</ele>
        <time>2022-04-29T13:25:08.049Z</time>
      </trkpt>
      <trkpt lat="43.6897" lon="1.46469">
        <ele>210.216034</ele>
        <time>2022-04-29T13:25:12.113Z</time>
      </trkpt>
      <trkpt lat="43.68979" lon="1.46472">
        <ele>210.776879</ele>
        <time>2022-04-29T13:25:15.070Z</time>
      </trkpt>
      <trkpt lat="43.68988" lon="1.46478">
        <ele>211.378356</ele>
        <time>2022-04-29T13:25:18.060Z</time>
      </trkpt>
      <trkpt lat="43.68996" lon="1.46484">
        <ele>211.922842</ele>
        <time>2022-04-29T13:25:21.068Z</time>
      </trkpt>
      <trkpt lat="43.69005" lon="1.46487">
        <ele>212.496394</ele>
        <time>2022-04-29T13:25:24.082Z</time>
      </trkpt>
      <trkpt lat="43.69014" lon="1.46492">
        <ele>213.079541</ele>
        <time>2022-04-29T13:25:27.067Z</time>
      </trkpt>
      <trkpt lat="43.69021" lon="1.46502">
        <ele>213.677161</ele>
        <time>2022-04-29T13:25:30.057Z</time>
      </trkpt>
      <trkpt lat="43.69015" lon="1.46513">
        <ele>214.299611</ele>
        <time>2022-04-29T13:25:35.078Z</time>
      </trkpt>
      <trkpt lat="43.69009" lon="1.46526">
        <ele>214.972696</ele>
        <time>2022-04-29T13:25:38.092Z</time>
      </trkpt>
      <trkpt lat="43.69002" lon="1.46539">
        <ele>215.669857</ele>
        <time>2022-04-29T13:25:42.066Z</time>
      </trkpt>
      <trkpt lat="43.68997" lon="1.46551">
        <ele>216.297865</ele>
        <time>2022-04-29T13:25:46.069Z</time>
      </trkpt>
      <trkpt lat="43.68991" lon="1.46566">
        <ele>217.037408</ele>
        <time>2022-04-29T13:25:50.083Z</time>
      </trkpt>
      <trkpt lat="43.68985" lon="1.46579">
        <ele>217.706084</ele>
        <time>2022-04-29T13:25:53.081Z</time>
      </trkpt>
      <trkpt lat="43.68979" lon="1.46589">
        <ele>218.256582</ele>
        <time>2022-04-29T13:25:56.062Z</time>
      </trkpt>
      <trkpt lat="43.68969" lon="1.46593">
        <ele>218.903656</ele>
        <time>2022-04-29T13:26:00.060Z</time>
      </trkpt>
      <trkpt lat="43.6896" lon="1.46584">
        <ele>219.534212</ele>
        <time>2022-04-29T13:26:03.044Z</time>
      </trkpt>
      <trkpt lat="43.68951" lon="1.46594">
        <ele>220.266709</ele>
        <time>2022-04-29T13:26:09.068Z</time>
      </trkpt>
      <trkpt lat="43.68951" lon="1.46609">
        <ele>219.814175</ele>
        <time>2022-04-29T13:26:13.060Z</time>
      </trkpt>
      <trkpt lat="43.68952" lon="1.46623">
        <ele>219.360717</ele>
        <time>2022-04-29T13:26:16.062Z</time>
      </trkpt>
      <trkpt lat="43.68954" lon="1.46638">
        <ele>218.838502</ele>
        <time>2022-04-29T13:26:19.060Z</time>
      </trkpt>
      <trkpt lat="43.68963" lon="1.46646">
        <ele>218.366084</ele>
        <time>2022-04-29T13:26:23.075Z</time>
      </trkpt>
      <trkpt lat="43.68972" lon="1.46649">
        <ele>217.934838</ele>
        <time>2022-04-29T13:26:26.070Z</time>
      </trkpt>
      <trkpt lat="43.68981" lon="1.4664">
        <ele>217.446855</ele>
        <time>2022-04-29T13:26:30.051Z</time>
      </trkpt>
      <trkpt lat="43.6899" lon="1.46635">
        <ele>216.992333</ele>
        <time>2022-04-29T13:26:34.066Z</time>
      </trkpt>
      <trkpt lat="43.69" lon="1.46625">
        <ele>216.424187</ele>
        <time>2022-04-29T13:26:37.098Z</time>
      </trkpt>
      <trkpt lat="43.69009" lon="1.46615">
        <ele>215.923935</ele>
        <time>2022-04-29T13:26:39.115Z</time>
      </trkpt>
      <trkpt lat="43.69016" lon="1.46606">
        <ele>215.47223</ele>
        <time>2022-04-29T13:26:41.085Z</time>
      </trkpt>
      <trkpt lat="43.69024" lon="1.46595">
        <ele>214.958323</ele>
        <time>2022-04-29T13:26:43.084Z</time>
      </trkpt>
      <trkpt lat="43.69033" lon="1.46584">
        <ele>214.392131</ele>
        <time>2022-04-29T13:26:45.093Z</time>
      </trkpt>
      <trkpt lat="43.69043" lon="1.4657">
        <ele>213.748171</ele>
        <time>2022-04-29T13:26:47.089Z</time>
      </trkpt>
      <trkpt lat="43.69053" lon="1.46558">
        <ele>213.1524</ele>
        <time>2022-04-29T13:26:49.081Z</time>
      </trkpt>
      <trkpt lat="43.69063" lon="1.46562">
        <ele>212.669115</ele>
        <time>2022-04-29T13:27:00.062Z</time>
      </trkpt>
      <trkpt lat="43.6907" lon="1.4657">
        <ele>212.251212</ele>
        <time>2022-04-29T13:27:03.056Z</time>
      </trkpt>
      <trkpt lat="43.69078" lon="1.46575">
        <ele>211.917192</ele>
        <time>2022-04-29T13:27:07.084Z</time>
      </trkpt>
      <trkpt lat="43.69089" lon="1.46572">
        <ele>211.578391</ele>
        <time>2022-04-29T13:27:12.051Z</time>
      </trkpt>
      <trkpt lat="43.69098" lon="1.46576">
        <ele>211.253218</ele>
        <time>2022-04-29T13:27:16.069Z</time>
      </trkpt>
      <trkpt lat="43.69106" lon="1.46586">
        <ele>210.926704</ele>
        <time>2022-04-29T13:27:20.075Z</time>
      </trkpt>
      <trkpt lat="43.69118" lon="1.46583">
        <ele>210.554602</ele>
        <time>2022-04-29T13:27:24.089Z</time>
      </trkpt>
      <trkpt lat="43.69128" lon="1.46587">
        <ele>210.233916</ele>
        <time>2022-04-29T13:27:27.060Z</time>
      </trkpt>
      <trkpt lat="43.69132" lon="1.46599">
        <ele>209.920208</ele>
        <time>2022-04-29T13:27:30.108Z</time>
      </trkpt>
      <trkpt lat="43.69135" lon="1.46612">
        <ele>209.629137</ele>
        <time>2022-04-29T13:27:33.055Z</time>
      </trkpt>
      <trkpt lat="43.69132" lon="1.46597">
        <ele>209.296484</ele>
        <time>2022-04-29T13:28:04.087Z</time>
      </trkpt>
      <trkpt lat="43.69126" lon="1.46585">
        <ele>208.951962</ele>
        <time>2022-04-29T13:28:08.048Z</time>
      </trkpt>
      <trkpt lat="43.69116" lon="1.46583">
        <ele>208.621106</ele>
        <time>2022-04-29T13:28:11.052Z</time>
      </trkpt>
      <trkpt lat="43.69108" lon="1.46593">
        <ele>208.285411</ele>
        <time>2022-04-29T13:28:14.041Z</time>
      </trkpt>
      <trkpt lat="43.69105" lon="1.46607">
        <ele>207.962116</ele>
        <time>2022-04-29T13:28:18.055Z</time>
      </trkpt>
      <trkpt lat="43.69103" lon="1.46622">
        <ele>207.600134</ele>
        <time>2022-04-29T13:28:22.073Z</time>
      </trkpt>
      <trkpt lat="43.69106" lon="1.46607">
        <ele>207.238119</ele>
        <time>2022-04-29T13:28:39.076Z</time>
      </trkpt>
      <trkpt lat="43.6911" lon="1.46592">
        <ele>206.87982</ele>
        <time>2022-04-29T13:28:42.060Z</time>
      </trkpt>
      <trkpt lat="43.69118" lon="1.46586">
        <ele>206.580363</ele>
        <time>2022-04-29T13:28:44.068Z</time>
      </trkpt>
      <trkpt lat="43.69129" lon="1.4659">
        <ele>206.840642</ele>
        <time>2022-04-29T13:28:47.060Z</time>
      </trkpt>
      <trkpt lat="43.69133" lon="1.46603">
        <ele>207.390558</ele>
        <time>2022-04-29T13:28:50.074Z</time>
      </trkpt>
      <trkpt lat="43.69135" lon="1.46615">
        <ele>207.885078</ele>
        <time>2022-04-29T13:28:53.096Z</time>
      </trkpt>
      <trkpt lat="43.69141" lon="1.46635">
        <ele>208.734023</ele>
        <time>2022-04-29T13:29:15.077Z</time>
      </trkpt>
      <trkpt lat="43.69143" lon="1.46648">
        <ele>209.234448</ele>
        <time>2022-04-29T13:29:18.059Z</time>
      </trkpt>
      <trkpt lat="43.69146" lon="1.46661">
        <ele>209.756482</ele>
        <time>2022-04-29T13:29:21.050Z</time>
      </trkpt>
      <trkpt lat="43.69149" lon="1.46676">
        <ele>210.342685</ele>
        <time>2022-04-29T13:29:24.067Z</time>
      </trkpt>
      <trkpt lat="43.69152" lon="1.4669">
        <ele>210.914467</ele>
        <time>2022-04-29T13:29:27.068Z</time>
      </trkpt>
      <trkpt lat="43.69155" lon="1.46704">
        <ele>211.472471</ele>
        <time>2022-04-29T13:29:30.077Z</time>
      </trkpt>
      <trkpt lat="43.69158" lon="1.46718">
        <ele>212.047074</ele>
        <time>2022-04-29T13:29:33.057Z</time>
      </trkpt>
      <trkpt lat="43.69161" lon="1.46731">
        <ele>212.581743</ele>
        <time>2022-04-29T13:29:36.068Z</time>
      </trkpt>
      <trkpt lat="43.69162" lon="1.46745">
        <ele>213.107861</ele>
        <time>2022-04-29T13:29:39.068Z</time>
      </trkpt>
      <trkpt lat="43.69163" lon="1.46758">
        <ele>213.619163</ele>
        <time>2022-04-29T13:29:42.077Z</time>
      </trkpt>
      <trkpt lat="43.69167" lon="1.46772">
        <ele>214.193766</ele>
        <time>2022-04-29T13:29:46.044Z</time>
      </trkpt>
      <trkpt lat="43.69175" lon="1.46781">
        <ele>214.744944</ele>
        <time>2022-04-29T13:29:50.061Z</time>
      </trkpt>
      <trkpt lat="43.69185" lon="1.46784">
        <ele>215.302781</ele>
        <time>2022-04-29T13:29:54.062Z</time>
      </trkpt>
      <trkpt lat="43.69195" lon="1.46784">
        <ele>215.836069</ele>
        <time>2022-04-29T13:29:58.046Z</time>
      </trkpt>
      <trkpt lat="43.69206" lon="1.46781">
        <ele>216.743963</ele>
        <time>2022-04-29T13:30:03.051Z</time>
      </trkpt>
      <trkpt lat="43.69215" lon="1.46773">
        <ele>217.800885</ele>
        <time>2022-04-29T13:30:08.053Z</time>
      </trkpt>
      <trkpt lat="43.69225" lon="1.46774">
        <ele>218.837692</ele>
        <time>2022-04-29T13:30:13.047Z</time>
      </trkpt>
      <trkpt lat="43.69234" lon="1.46783">
        <ele>219.896769</ele>
        <time>2022-04-29T13:30:18.075Z</time>
      </trkpt>
      <trkpt lat="43.69242" lon="1.46792">
        <ele>220.923914</ele>
        <time>2022-04-29T13:30:23.057Z</time>
      </trkpt>
      <trkpt lat="43.6925" lon="1.46803">
        <ele>222.002953</ele>
        <time>2022-04-29T13:30:28.059Z</time>
      </trkpt>
      <trkpt lat="43.69257" lon="1.46813">
        <ele>223.03437</ele>
        <time>2022-04-29T13:30:33.059Z</time>
      </trkpt>
      <trkpt lat="43.69265" lon="1.46823">
        <ele>224.082042</ele>
        <time>2022-04-29T13:30:38.072Z</time>
      </trkpt>
      <trkpt lat="43.69275" lon="1.46826">
        <ele>225.134441</ele>
        <time>2022-04-29T13:30:43.058Z</time>
      </trkpt>
      <trkpt lat="43.69286" lon="1.46826">
        <ele>226.152885</ele>
        <time>2022-04-29T13:30:48.046Z</time>
      </trkpt>
      <trkpt lat="43.69291" lon="1.46815">
        <ele>227.107465</ele>
        <time>2022-04-29T13:30:54.050Z</time>
      </trkpt>
      <trkpt lat="43.69292" lon="1.468">
        <ele>228.158445</ele>
        <time>2022-04-29T13:30:59.082Z</time>
      </trkpt>
      <trkpt lat="43.69292" lon="1.46785">
        <ele>229.208914</ele>
        <time>2022-04-29T13:31:04.038Z</time>
      </trkpt>
      <trkpt lat="43.69293" lon="1.46771">
        <ele>230.273643</ele>
        <time>2022-04-29T13:31:09.065Z</time>
      </trkpt>
      <trkpt lat="43.69292" lon="1.46756">
        <ele>231.288272</ele>
        <time>2022-04-29T13:31:13.059Z</time>
      </trkpt>
      <trkpt lat="43.69291" lon="1.46743">
        <ele>232.228567</ele>
        <time>2022-04-29T13:31:18.042Z</time>
      </trkpt>
      <trkpt lat="43.69281" lon="1.46736">
        <ele>233.340679</ele>
        <time>2022-04-29T13:31:29.065Z</time>
      </trkpt>
      <trkpt lat="43.69263" lon="1.4673">
        <ele>232.191684</ele>
        <time>2022-04-29T13:31:59.079Z</time>
      </trkpt>
      <trkpt lat="43.69252" lon="1.46731">
        <ele>230.903045</ele>
        <time>2022-04-29T13:32:04.071Z</time>
      </trkpt>
      <trkpt lat="43.69245" lon="1.46741">
        <ele>229.713371</ele>
        <time>2022-04-29T13:32:10.066Z</time>
      </trkpt>
      <trkpt lat="43.69235" lon="1.46738">
        <ele>228.496905</ele>
        <time>2022-04-29T13:32:15.045Z</time>
      </trkpt>
      <trkpt lat="43.69235" lon="1.46726">
        <ele>227.416295</ele>
        <time>2022-04-29T13:32:27.075Z</time>
      </trkpt>
      <trkpt lat="43.69228" lon="1.46717">
        <ele>226.293627</ele>
        <time>2022-04-29T13:32:32.044Z</time>
      </trkpt>
      <trkpt lat="43.6922" lon="1.46709">
        <ele>225.142254</ele>
        <time>2022-04-29T13:32:37.050Z</time>
      </trkpt>
      <trkpt lat="43.6922" lon="1.46696">
        <ele>224.027067</ele>
        <time>2022-04-29T13:32:42.056Z</time>
      </trkpt>
      <trkpt lat="43.69219" lon="1.46682">
        <ele>222.767945</ele>
        <time>2022-04-29T13:32:49.060Z</time>
      </trkpt>
      <trkpt lat="43.6922" lon="1.46668">
        <ele>221.524825</ele>
        <time>2022-04-29T13:32:53.051Z</time>
      </trkpt>
      <trkpt lat="43.69219" lon="1.46655">
        <ele>220.429093</ele>
        <time>2022-04-29T13:32:56.046Z</time>
      </trkpt>
      <trkpt lat="43.69214" lon="1.46643">
        <ele>219.178944</ele>
        <time>2022-04-29T13:33:01.043Z</time>
      </trkpt>
      <trkpt lat="43.69203" lon="1.46645">
        <ele>217.9302</ele>
        <time>2022-04-29T13:33:05.047Z</time>
      </trkpt>
      <trkpt lat="43.6919" lon="1.46645">
        <ele>216.375635</ele>
        <time>2022-04-29T13:33:07.054Z</time>
      </trkpt>
      <trkpt lat="43.69173" lon="1.46644">
        <ele>214.293628</ele>
        <time>2022-04-29T13:33:09.072Z</time>
      </trkpt>
      <trkpt lat="43.69164" lon="1.46643">
        <ele>213.153907</ele>
        <time>2022-04-29T13:33:10.062Z</time>
      </trkpt>
      <trkpt lat="43.6915" lon="1.46649">
        <ele>212.212996</ele>
        <time>2022-04-29T13:33:12.062Z</time>
      </trkpt>
      <trkpt lat="43.69146" lon="1.46664">
        <ele>212.068288</ele>
        <time>2022-04-29T13:33:14.042Z</time>
      </trkpt>
      <trkpt lat="43.69147" lon="1.46677">
        <ele>211.94555</ele>
        <time>2022-04-29T13:33:16.065Z</time>
      </trkpt>
      <trkpt lat="43.6915" lon="1.46692">
        <ele>211.80093</ele>
        <time>2022-04-29T13:33:19.086Z</time>
      </trkpt>
      <trkpt lat="43.69154" lon="1.46705">
        <ele>211.670952</ele>
        <time>2022-04-29T13:33:22.054Z</time>
      </trkpt>
      <trkpt lat="43.69158" lon="1.46719">
        <ele>211.538799</ele>
        <time>2022-04-29T13:33:25.072Z</time>
      </trkpt>
      <trkpt lat="43.6916" lon="1.46732">
        <ele>211.411863</ele>
        <time>2022-04-29T13:33:29.060Z</time>
      </trkpt>
      <trkpt lat="43.69162" lon="1.46746">
        <ele>211.28198</ele>
        <time>2022-04-29T13:33:34.051Z</time>
      </trkpt>
      <trkpt lat="43.69163" lon="1.46761">
        <ele>211.143195</ele>
        <time>2022-04-29T13:33:38.068Z</time>
      </trkpt>
      <trkpt lat="43.69162" lon="1.46777">
        <ele>210.993397</ele>
        <time>2022-04-29T13:33:42.097Z</time>
      </trkpt>
      <trkpt lat="43.69162" lon="1.46792">
        <ele>210.854277</ele>
        <time>2022-04-29T13:33:45.046Z</time>
      </trkpt>
      <trkpt lat="43.69161" lon="1.46808">
        <ele>210.705676</ele>
        <time>2022-04-29T13:33:48.057Z</time>
      </trkpt>
      <trkpt lat="43.6916" lon="1.46823">
        <ele>210.566633</ele>
        <time>2022-04-29T13:33:51.066Z</time>
      </trkpt>
      <trkpt lat="43.69159" lon="1.46837">
        <ele>210.43642</ele>
        <time>2022-04-29T13:33:54.079Z</time>
      </trkpt>
      <trkpt lat="43.69157" lon="1.4685">
        <ele>210.314868</ele>
        <time>2022-04-29T13:33:57.066Z</time>
      </trkpt>
      <trkpt lat="43.69153" lon="1.46863">
        <ele>210.188718</ele>
        <time>2022-04-29T13:34:00.073Z</time>
      </trkpt>
      <trkpt lat="43.69148" lon="1.46877">
        <ele>210.045672</ele>
        <time>2022-04-29T13:34:03.056Z</time>
      </trkpt>
      <trkpt lat="43.69143" lon="1.46892">
        <ele>210.109166</ele>
        <time>2022-04-29T13:34:06.060Z</time>
      </trkpt>
      <trkpt lat="43.69138" lon="1.46906">
        <ele>210.235028</ele>
        <time>2022-04-29T13:34:09.067Z</time>
      </trkpt>
      <trkpt lat="43.69133" lon="1.4692">
        <ele>210.347438</ele>
        <time>2022-04-29T13:34:12.049Z</time>
      </trkpt>
      <trkpt lat="43.6913" lon="1.46933">
        <ele>210.451117</ele>
        <time>2022-04-29T13:34:15.067Z</time>
      </trkpt>
      <trkpt lat="43.69128" lon="1.46945">
        <ele>210.546827</ele>
        <time>2022-04-29T13:34:18.053Z</time>
      </trkpt>
      <trkpt lat="43.69127" lon="1.46958">
        <ele>210.651591</ele>
        <time>2022-04-29T13:34:21.043Z</time>
      </trkpt>
      <trkpt lat="43.69125" lon="1.46972">
        <ele>210.757309</ele>
        <time>2022-04-29T13:34:24.072Z</time>
      </trkpt>
      <trkpt lat="43.69122" lon="1.46986">
        <ele>210.873387</ele>
        <time>2022-04-29T13:34:27.071Z</time>
      </trkpt>
      <trkpt lat="43.69119" lon="1.47003">
        <ele>211.003216</ele>
        <time>2022-04-29T13:34:30.068Z</time>
      </trkpt>
      <trkpt lat="43.69117" lon="1.47019">
        <ele>211.131297</ele>
        <time>2022-04-29T13:34:33.082Z</time>
      </trkpt>
      <trkpt lat="43.69114" lon="1.47035">
        <ele>211.25705</ele>
        <time>2022-04-29T13:34:36.061Z</time>
      </trkpt>
      <trkpt lat="43.69112" lon="1.4705">
        <ele>211.376002</ele>
        <time>2022-04-29T13:34:39.042Z</time>
      </trkpt>
      <trkpt lat="43.69109" lon="1.47064">
        <ele>211.486965</ele>
        <time>2022-04-29T13:34:42.056Z</time>
      </trkpt>
      <trkpt lat="43.69105" lon="1.47077">
        <ele>211.59794</ele>
        <time>2022-04-29T13:34:45.074Z</time>
      </trkpt>
      <trkpt lat="43.69104" lon="1.4709">
        <ele>211.695339</ele>
        <time>2022-04-29T13:34:48.056Z</time>
      </trkpt>
      <trkpt lat="43.69106" lon="1.47103">
        <ele>211.8022</ele>
        <time>2022-04-29T13:34:53.060Z</time>
      </trkpt>
      <trkpt lat="43.69103" lon="1.47117">
        <ele>211.908678</ele>
        <time>2022-04-29T13:34:57.059Z</time>
      </trkpt>
      <trkpt lat="43.69099" lon="1.47131">
        <ele>212.018782</ele>
        <time>2022-04-29T13:35:00.062Z</time>
      </trkpt>
      <trkpt lat="43.69093" lon="1.47144">
        <ele>212.138278</ele>
        <time>2022-04-29T13:35:03.044Z</time>
      </trkpt>
      <trkpt lat="43.69088" lon="1.4716">
        <ele>212.260461</ele>
        <time>2022-04-29T13:35:06.055Z</time>
      </trkpt>
      <trkpt lat="43.69081" lon="1.47173">
        <ele>212.381475</ele>
        <time>2022-04-29T13:35:09.046Z</time>
      </trkpt>
      <trkpt lat="43.69075" lon="1.47187">
        <ele>212.499819</ele>
        <time>2022-04-29T13:35:12.060Z</time>
      </trkpt>
      <trkpt lat="43.6907" lon="1.472">
        <ele>212.609163</ele>
        <time>2022-04-29T13:35:15.051Z</time>
      </trkpt>
      <trkpt lat="43.69065" lon="1.47213">
        <ele>212.71561</ele>
        <time>2022-04-29T13:35:18.046Z</time>
      </trkpt>
      <trkpt lat="43.6906" lon="1.47226">
        <ele>212.824144</ele>
        <time>2022-04-29T13:35:21.082Z</time>
      </trkpt>
      <trkpt lat="43.69059" lon="1.47241">
        <ele>212.932502</ele>
        <time>2022-04-29T13:35:24.053Z</time>
      </trkpt>
      <trkpt lat="43.69058" lon="1.47255">
        <ele>213.035436</ele>
        <time>2022-04-29T13:35:27.057Z</time>
      </trkpt>
      <trkpt lat="43.69057" lon="1.47269">
        <ele>213.137462</ele>
        <time>2022-04-29T13:35:30.060Z</time>
      </trkpt>
      <trkpt lat="43.69057" lon="1.47282">
        <ele>213.233397</ele>
        <time>2022-04-29T13:35:33.049Z</time>
      </trkpt>
      <trkpt lat="43.69057" lon="1.47295">
        <ele>213.326343</ele>
        <time>2022-04-29T13:35:36.051Z</time>
      </trkpt>
      <trkpt lat="43.69057" lon="1.47311">
        <ele>213.448008</ele>
        <time>2022-04-29T13:35:40.048Z</time>
      </trkpt>
      <trkpt lat="43.69058" lon="1.47324">
        <ele>213.540223</ele>
        <time>2022-04-29T13:35:43.049Z</time>
      </trkpt>
      <trkpt lat="43.69059" lon="1.4734">
        <ele>213.656916</ele>
        <time>2022-04-29T13:35:47.051Z</time>
      </trkpt>
      <trkpt lat="43.6906" lon="1.47355">
        <ele>213.785569</ele>
        <time>2022-04-29T13:35:51.064Z</time>
      </trkpt>
      <trkpt lat="43.6906" lon="1.47369">
        <ele>213.943517</ele>
        <time>2022-04-29T13:35:55.054Z</time>
      </trkpt>
      <trkpt lat="43.69061" lon="1.47382">
        <ele>214.088171</ele>
        <time>2022-04-29T13:35:59.063Z</time>
      </trkpt>
      <trkpt lat="43.69064" lon="1.47413">
        <ele>214.44053</ele>
        <time>2022-04-29T13:36:23.056Z</time>
      </trkpt>
      <trkpt lat="43.69069" lon="1.47425">
        <ele>214.59119</ele>
        <time>2022-04-29T13:36:28.061Z</time>
      </trkpt>
      <trkpt lat="43.69075" lon="1.47434">
        <ele>214.731483</ele>
        <time>2022-04-29T13:36:31.063Z</time>
      </trkpt>
      <trkpt lat="43.6908" lon="1.47448">
        <ele>214.90406</ele>
        <time>2022-04-29T13:36:35.057Z</time>
      </trkpt>
      <trkpt lat="43.69083" lon="1.47465">
        <ele>215.101504</ele>
        <time>2022-04-29T13:36:39.074Z</time>
      </trkpt>
      <trkpt lat="43.69081" lon="1.47482">
        <ele>215.291619</ele>
        <time>2022-04-29T13:36:42.051Z</time>
      </trkpt>
      <trkpt lat="43.6908" lon="1.47499">
        <ele>215.488646</ele>
        <time>2022-04-29T13:36:45.064Z</time>
      </trkpt>
      <trkpt lat="43.69083" lon="1.47517">
        <ele>215.692675</ele>
        <time>2022-04-29T13:36:48.068Z</time>
      </trkpt>
      <trkpt lat="43.69083" lon="1.4753">
        <ele>215.836108</ele>
        <time>2022-04-29T13:36:50.044Z</time>
      </trkpt>
      <trkpt lat="43.69077" lon="1.47543">
        <ele>216.012629</ele>
        <time>2022-04-29T13:36:54.074Z</time>
      </trkpt>
      <trkpt lat="43.69073" lon="1.47555">
        <ele>216.161141</ele>
        <time>2022-04-29T13:36:57.056Z</time>
      </trkpt>
      <trkpt lat="43.69074" lon="1.47572">
        <ele>216.343724</ele>
        <time>2022-04-29T13:37:01.053Z</time>
      </trkpt>
      <trkpt lat="43.69074" lon="1.47587">
        <ele>216.511721</ele>
        <time>2022-04-29T13:37:04.062Z</time>
      </trkpt>
      <trkpt lat="43.69071" lon="1.47602">
        <ele>216.88922</ele>
        <time>2022-04-29T13:37:15.046Z</time>
      </trkpt>
      <trkpt lat="43.69063" lon="1.47622">
        <ele>217.469734</ele>
        <time>2022-04-29T13:37:31.060Z</time>
      </trkpt>
      <trkpt lat="43.69063" lon="1.47638">
        <ele>217.855328</ele>
        <time>2022-04-29T13:37:37.061Z</time>
      </trkpt>
      <trkpt lat="43.69061" lon="1.47652">
        <ele>218.207054</ele>
        <time>2022-04-29T13:37:42.063Z</time>
      </trkpt>
      <trkpt lat="43.69061" lon="1.4767">
        <ele>218.667798</ele>
        <time>2022-04-29T13:37:46.046Z</time>
      </trkpt>
      <trkpt lat="43.69064" lon="1.47683">
        <ele>219.000684</ele>
        <time>2022-04-29T13:37:50.049Z</time>
      </trkpt>
      <trkpt lat="43.69068" lon="1.47696">
        <ele>219.365306</ele>
        <time>2022-04-29T13:37:53.072Z</time>
      </trkpt>
      <trkpt lat="43.69075" lon="1.47709">
        <ele>219.769482</ele>
        <time>2022-04-29T13:37:56.065Z</time>
      </trkpt>
      <trkpt lat="43.69079" lon="1.47722">
        <ele>220.122236</ele>
        <time>2022-04-29T13:37:58.052Z</time>
      </trkpt>
      <trkpt lat="43.69083" lon="1.47735">
        <ele>220.45896</ele>
        <time>2022-04-29T13:38:02.039Z</time>
      </trkpt>
      <trkpt lat="43.69077" lon="1.47749">
        <ele>220.870945</ele>
        <time>2022-04-29T13:38:06.073Z</time>
      </trkpt>
      <trkpt lat="43.69073" lon="1.47763">
        <ele>221.248347</ele>
        <time>2022-04-29T13:38:09.053Z</time>
      </trkpt>
      <trkpt lat="43.69073" lon="1.47776">
        <ele>221.564503</ele>
        <time>2022-04-29T13:38:12.065Z</time>
      </trkpt>
      <trkpt lat="43.69075" lon="1.47788">
        <ele>221.888629</ele>
        <time>2022-04-29T13:38:15.077Z</time>
      </trkpt>
      <trkpt lat="43.69071" lon="1.47803">
        <ele>222.283262</ele>
        <time>2022-04-29T13:38:18.067Z</time>
      </trkpt>
      <trkpt lat="43.69064" lon="1.47816">
        <ele>222.685011</ele>
        <time>2022-04-29T13:38:21.060Z</time>
      </trkpt>
      <trkpt lat="43.69061" lon="1.4783">
        <ele>222.848366</ele>
        <time>2022-04-29T13:38:24.055Z</time>
      </trkpt>
      <trkpt lat="43.69058" lon="1.47843">
        <ele>222.950517</ele>
        <time>2022-04-29T13:38:27.053Z</time>
      </trkpt>
      <trkpt lat="43.69056" lon="1.47857">
        <ele>223.063775</ele>
        <time>2022-04-29T13:38:30.065Z</time>
      </trkpt>
      <trkpt lat="43.69051" lon="1.4787">
        <ele>223.173235</ele>
        <time>2022-04-29T13:38:33.057Z</time>
      </trkpt>
      <trkpt lat="43.69047" lon="1.47885">
        <ele>223.301381</ele>
        <time>2022-04-29T13:38:36.058Z</time>
      </trkpt>
      <trkpt lat="43.69042" lon="1.47901">
        <ele>223.435287</ele>
        <time>2022-04-29T13:38:39.068Z</time>
      </trkpt>
      <trkpt lat="43.6904" lon="1.47916">
        <ele>223.547444</ele>
        <time>2022-04-29T13:38:43.046Z</time>
      </trkpt>
      <trkpt lat="43.69046" lon="1.47925">
        <ele>223.64385</ele>
        <time>2022-04-29T13:38:46.061Z</time>
      </trkpt>
      <trkpt lat="43.69049" lon="1.47939">
        <ele>223.758039</ele>
        <time>2022-04-29T13:38:49.055Z</time>
      </trkpt>
      <trkpt lat="43.69051" lon="1.47953">
        <ele>223.867899</ele>
        <time>2022-04-29T13:38:56.055Z</time>
      </trkpt>
      <trkpt lat="43.69045" lon="1.47973">
        <ele>224.034861</ele>
        <time>2022-04-29T13:39:40.069Z</time>
      </trkpt>
      <trkpt lat="43.69043" lon="1.47988">
        <ele>224.147638</ele>
        <time>2022-04-29T13:39:45.041Z</time>
      </trkpt>
      <trkpt lat="43.69037" lon="1.47999">
        <ele>224.257478</ele>
        <time>2022-04-29T13:39:49.044Z</time>
      </trkpt>
      <trkpt lat="43.69035" lon="1.48013">
        <ele>224.366583</ele>
        <time>2022-04-29T13:39:55.055Z</time>
      </trkpt>
      <trkpt lat="43.69033" lon="1.48029">
        <ele>224.485749</ele>
        <time>2022-04-29T13:40:05.071Z</time>
      </trkpt>
      <trkpt lat="43.69041" lon="1.48022">
        <ele>224.588852</ele>
        <time>2022-04-29T13:40:16.051Z</time>
      </trkpt>
      <trkpt lat="43.6905" lon="1.48012">
        <ele>224.787609</ele>
        <time>2022-04-29T13:40:19.046Z</time>
      </trkpt>
      <trkpt lat="43.69061" lon="1.48005">
        <ele>225.278923</ele>
        <time>2022-04-29T13:40:22.059Z</time>
      </trkpt>
      <trkpt lat="43.69074" lon="1.48003">
        <ele>225.76538</ele>
        <time>2022-04-29T13:40:25.070Z</time>
      </trkpt>
      <trkpt lat="43.69084" lon="1.47997">
        <ele>226.193508</ele>
        <time>2022-04-29T13:40:28.072Z</time>
      </trkpt>
      <trkpt lat="43.69094" lon="1.47993">
        <ele>226.604327</ele>
        <time>2022-04-29T13:40:31.044Z</time>
      </trkpt>
      <trkpt lat="43.69105" lon="1.47989">
        <ele>227.045122</ele>
        <time>2022-04-29T13:40:34.053Z</time>
      </trkpt>
      <trkpt lat="43.69116" lon="1.47985">
        <ele>227.49635</ele>
        <time>2022-04-29T13:40:37.071Z</time>
      </trkpt>
      <trkpt lat="43.69127" lon="1.47988">
        <ele>227.917686</ele>
        <time>2022-04-29T13:40:41.071Z</time>
      </trkpt>
      <trkpt lat="43.69134" lon="1.47996">
        <ele>228.265423</ele>
        <time>2022-04-29T13:40:44.064Z</time>
      </trkpt>
      <trkpt lat="43.69143" lon="1.48006">
        <ele>228.729246</ele>
        <time>2022-04-29T13:40:47.061Z</time>
      </trkpt>
      <trkpt lat="43.69151" lon="1.48012">
        <ele>229.088842</ele>
        <time>2022-04-29T13:40:50.067Z</time>
      </trkpt>
      <trkpt lat="43.69158" lon="1.48002">
        <ele>229.464199</ele>
        <time>2022-04-29T13:40:52.035Z</time>
      </trkpt>
      <trkpt lat="43.69167" lon="1.47989">
        <ele>229.985558</ele>
        <time>2022-04-29T13:40:54.054Z</time>
      </trkpt>
      <trkpt lat="43.69176" lon="1.47981">
        <ele>230.385825</ele>
        <time>2022-04-29T13:40:56.067Z</time>
      </trkpt>
      <trkpt lat="43.69188" lon="1.47987">
        <ele>230.861015</ele>
        <time>2022-04-29T13:40:59.064Z</time>
      </trkpt>
      <trkpt lat="43.692" lon="1.47992">
        <ele>231.363879</ele>
        <time>2022-04-29T13:41:02.048Z</time>
      </trkpt>
      <trkpt lat="43.69211" lon="1.47997">
        <ele>231.757742</ele>
        <time>2022-04-29T13:41:05.064Z</time>
      </trkpt>
      <trkpt lat="43.6922" lon="1.48001">
        <ele>232.038341</ele>
        <time>2022-04-29T13:41:08.053Z</time>
      </trkpt>
      <trkpt lat="43.69231" lon="1.48004">
        <ele>232.323033</ele>
        <time>2022-04-29T13:41:11.067Z</time>
      </trkpt>
      <trkpt lat="43.69243" lon="1.48">
        <ele>232.673224</ele>
        <time>2022-04-29T13:41:14.053Z</time>
      </trkpt>
      <trkpt lat="43.69253" lon="1.47995">
        <ele>232.964947</ele>
        <time>2022-04-29T13:41:16.044Z</time>
      </trkpt>
      <trkpt lat="43.69264" lon="1.47989">
        <ele>233.303129</ele>
        <time>2022-04-29T13:41:18.064Z</time>
      </trkpt>
      <trkpt lat="43.69274" lon="1.47977">
        <ele>233.650873</ele>
        <time>2022-04-29T13:41:20.033Z</time>
      </trkpt>
      <trkpt lat="43.69278" lon="1.4796">
        <ele>234.000218</ele>
        <time>2022-04-29T13:41:22.055Z</time>
      </trkpt>
      <trkpt lat="43.69278" lon="1.47942">
        <ele>234.367085</ele>
        <time>2022-04-29T13:41:24.058Z</time>
      </trkpt>
      <trkpt lat="43.6928" lon="1.47925">
        <ele>234.702625</ele>
        <time>2022-04-29T13:41:26.054Z</time>
      </trkpt>
      <trkpt lat="43.69281" lon="1.47912">
        <ele>234.969591</ele>
        <time>2022-04-29T13:41:28.047Z</time>
      </trkpt>
      <trkpt lat="43.69285" lon="1.47894">
        <ele>235.336858</ele>
        <time>2022-04-29T13:41:31.049Z</time>
      </trkpt>
      <trkpt lat="43.69292" lon="1.47879">
        <ele>235.693174</ele>
        <time>2022-04-29T13:41:34.057Z</time>
      </trkpt>
      <trkpt lat="43.69299" lon="1.47865">
        <ele>236.03536</ele>
        <time>2022-04-29T13:41:37.054Z</time>
      </trkpt>
      <trkpt lat="43.69307" lon="1.47852">
        <ele>236.373601</ele>
        <time>2022-04-29T13:41:40.055Z</time>
      </trkpt>
      <trkpt lat="43.69314" lon="1.47838">
        <ele>236.773881</ele>
        <time>2022-04-29T13:41:43.056Z</time>
      </trkpt>
      <trkpt lat="43.69321" lon="1.47824">
        <ele>237.293483</ele>
        <time>2022-04-29T13:41:46.079Z</time>
      </trkpt>
      <trkpt lat="43.69327" lon="1.4781">
        <ele>237.806467</ele>
        <time>2022-04-29T13:41:49.064Z</time>
      </trkpt>
      <trkpt lat="43.69335" lon="1.47796">
        <ele>238.315944</ele>
        <time>2022-04-29T13:41:52.057Z</time>
      </trkpt>
      <trkpt lat="43.69341" lon="1.47784">
        <ele>238.770821</ele>
        <time>2022-04-29T13:41:55.056Z</time>
      </trkpt>
      <trkpt lat="43.69351" lon="1.47778">
        <ele>239.254158</ele>
        <time>2022-04-29T13:41:58.058Z</time>
      </trkpt>
      <trkpt lat="43.69361" lon="1.47778">
        <ele>239.67402</ele>
        <time>2022-04-29T13:42:00.075Z</time>
      </trkpt>
      <trkpt lat="43.69371" lon="1.47778">
        <ele>240.106773</ele>
        <time>2022-04-29T13:42:02.078Z</time>
      </trkpt>
      <trkpt lat="43.69382" lon="1.47777">
        <ele>240.565064</ele>
        <time>2022-04-29T13:42:04.076Z</time>
      </trkpt>
      <trkpt lat="43.69393" lon="1.47776">
        <ele>241.044431</ele>
        <time>2022-04-29T13:42:06.083Z</time>
      </trkpt>
      <trkpt lat="43.69404" lon="1.47776">
        <ele>241.481249</ele>
        <time>2022-04-29T13:42:08.058Z</time>
      </trkpt>
      <trkpt lat="43.69413" lon="1.47776">
        <ele>241.8629</ele>
        <time>2022-04-29T13:42:10.058Z</time>
      </trkpt>
      <trkpt lat="43.69424" lon="1.47779">
        <ele>242.344424</ele>
        <time>2022-04-29T13:42:13.088Z</time>
      </trkpt>
      <trkpt lat="43.69435" lon="1.47778">
        <ele>242.798365</ele>
        <time>2022-04-29T13:42:16.069Z</time>
      </trkpt>
      <trkpt lat="43.69443" lon="1.47765">
        <ele>243.324939</ele>
        <time>2022-04-29T13:42:19.080Z</time>
      </trkpt>
      <trkpt lat="43.69448" lon="1.47754">
        <ele>243.720178</ele>
        <time>2022-04-29T13:42:21.045Z</time>
      </trkpt>
      <trkpt lat="43.69453" lon="1.47743">
        <ele>244.128228</ele>
        <time>2022-04-29T13:42:23.057Z</time>
      </trkpt>
      <trkpt lat="43.69458" lon="1.47732">
        <ele>244.567972</ele>
        <time>2022-04-29T13:42:25.066Z</time>
      </trkpt>
      <trkpt lat="43.69464" lon="1.47717">
        <ele>245.157081</ele>
        <time>2022-04-29T13:42:28.069Z</time>
      </trkpt>
      <trkpt lat="43.69473" lon="1.47688">
        <ele>246.264201</ele>
        <time>2022-04-29T13:45:24.060Z</time>
      </trkpt>
      <trkpt lat="43.69479" lon="1.47673">
        <ele>246.879331</ele>
        <time>2022-04-29T13:45:27.077Z</time>
      </trkpt>
      <trkpt lat="43.69483" lon="1.47656">
        <ele>247.476157</ele>
        <time>2022-04-29T13:45:30.055Z</time>
      </trkpt>
      <trkpt lat="43.69485" lon="1.47642">
        <ele>248.007451</ele>
        <time>2022-04-29T13:45:33.042Z</time>
      </trkpt>
      <trkpt lat="43.69487" lon="1.47628">
        <ele>248.489747</ele>
        <time>2022-04-29T13:45:36.066Z</time>
      </trkpt>
      <trkpt lat="43.69489" lon="1.47612">
        <ele>249.072479</ele>
        <time>2022-04-29T13:45:39.079Z</time>
      </trkpt>
      <trkpt lat="43.69493" lon="1.47594">
        <ele>249.709467</ele>
        <time>2022-04-29T13:45:42.070Z</time>
      </trkpt>
      <trkpt lat="43.69498" lon="1.4758">
        <ele>250.242784</ele>
        <time>2022-04-29T13:45:45.065Z</time>
      </trkpt>
      <trkpt lat="43.69504" lon="1.47568">
        <ele>250.777892</ele>
        <time>2022-04-29T13:45:48.048Z</time>
      </trkpt>
      <trkpt lat="43.69512" lon="1.47557">
        <ele>251.307789</ele>
        <time>2022-04-29T13:45:51.054Z</time>
      </trkpt>
      <trkpt lat="43.69518" lon="1.47545">
        <ele>251.834957</ele>
        <time>2022-04-29T13:45:54.058Z</time>
      </trkpt>
      <trkpt lat="43.69526" lon="1.47534">
        <ele>252.353337</ele>
        <time>2022-04-29T13:45:57.044Z</time>
      </trkpt>
      <trkpt lat="43.69533" lon="1.47524">
        <ele>252.838789</ele>
        <time>2022-04-29T13:46:00.054Z</time>
      </trkpt>
      <trkpt lat="43.69539" lon="1.47514">
        <ele>253.097916</ele>
        <time>2022-04-29T13:46:04.059Z</time>
      </trkpt>
      <trkpt lat="43.69547" lon="1.47519">
        <ele>253.304258</ele>
        <time>2022-04-29T13:46:09.061Z</time>
      </trkpt>
      <trkpt lat="43.69555" lon="1.47527">
        <ele>253.529964</ele>
        <time>2022-04-29T13:46:12.056Z</time>
      </trkpt>
      <trkpt lat="43.69564" lon="1.47536">
        <ele>253.792406</ele>
        <time>2022-04-29T13:46:15.073Z</time>
      </trkpt>
      <trkpt lat="43.69572" lon="1.47548">
        <ele>254.064281</ele>
        <time>2022-04-29T13:46:18.073Z</time>
      </trkpt>
      <trkpt lat="43.69577" lon="1.47565">
        <ele>254.36714</ele>
        <time>2022-04-29T13:46:21.059Z</time>
      </trkpt>
      <trkpt lat="43.69579" lon="1.47577">
        <ele>254.584414</ele>
        <time>2022-04-29T13:46:23.050Z</time>
      </trkpt>
      <trkpt lat="43.6958" lon="1.4759">
        <ele>254.802041</ele>
        <time>2022-04-29T13:46:25.059Z</time>
      </trkpt>
      <trkpt lat="43.69583" lon="1.47604">
        <ele>255.035514</ele>
        <time>2022-04-29T13:46:27.072Z</time>
      </trkpt>
      <trkpt lat="43.69588" lon="1.47617">
        <ele>255.272116</ele>
        <time>2022-04-29T13:46:29.059Z</time>
      </trkpt>
      <trkpt lat="43.69593" lon="1.47629">
        <ele>255.513356</ele>
        <time>2022-04-29T13:46:31.065Z</time>
      </trkpt>
      <trkpt lat="43.69597" lon="1.47642">
        <ele>255.747269</ele>
        <time>2022-04-29T13:46:33.068Z</time>
      </trkpt>
      <trkpt lat="43.69602" lon="1.47654">
        <ele>255.983754</ele>
        <time>2022-04-29T13:46:35.069Z</time>
      </trkpt>
      <trkpt lat="43.69607" lon="1.47666">
        <ele>256.216564</ele>
        <time>2022-04-29T13:46:37.057Z</time>
      </trkpt>
      <trkpt lat="43.69612" lon="1.47678">
        <ele>256.447253</ele>
        <time>2022-04-29T13:46:39.061Z</time>
      </trkpt>
      <trkpt lat="43.69617" lon="1.4769">
        <ele>256.672464</ele>
        <time>2022-04-29T13:46:41.065Z</time>
      </trkpt>
      <trkpt lat="43.69622" lon="1.47702">
        <ele>256.901446</ele>
        <time>2022-04-29T13:46:43.055Z</time>
      </trkpt>
      <trkpt lat="43.69627" lon="1.47713">
        <ele>257.067981</ele>
        <time>2022-04-29T13:46:45.055Z</time>
      </trkpt>
      <trkpt lat="43.69632" lon="1.47724">
        <ele>257.064547</ele>
        <time>2022-04-29T13:46:47.051Z</time>
      </trkpt>
      <trkpt lat="43.69637" lon="1.47736">
        <ele>257.060845</ele>
        <time>2022-04-29T13:46:49.078Z</time>
      </trkpt>
      <trkpt lat="43.69639" lon="1.4775">
        <ele>257.057101</ele>
        <time>2022-04-29T13:46:52.065Z</time>
      </trkpt>
      <trkpt lat="43.6964" lon="1.47763">
        <ele>257.05367</ele>
        <time>2022-04-29T13:47:04.064Z</time>
      </trkpt>
      <trkpt lat="43.6965" lon="1.47767">
        <ele>257.05006</ele>
        <time>2022-04-29T13:47:07.046Z</time>
      </trkpt>
      <trkpt lat="43.69659" lon="1.47778">
        <ele>257.045425</ele>
        <time>2022-04-29T13:47:10.049Z</time>
      </trkpt>
      <trkpt lat="43.69667" lon="1.47787">
        <ele>257.041826</ele>
        <time>2022-04-29T13:47:12.071Z</time>
      </trkpt>
      <trkpt lat="43.69675" lon="1.47797">
        <ele>257.037901</ele>
        <time>2022-04-29T13:47:14.075Z</time>
      </trkpt>
      <trkpt lat="43.69684" lon="1.47806">
        <ele>257.033791</ele>
        <time>2022-04-29T13:47:16.054Z</time>
      </trkpt>
      <trkpt lat="43.69692" lon="1.47815">
        <ele>257.029785</ele>
        <time>2022-04-29T13:47:18.051Z</time>
      </trkpt>
      <trkpt lat="43.69701" lon="1.47824">
        <ele>257.02586</ele>
        <time>2022-04-29T13:47:20.062Z</time>
      </trkpt>
      <trkpt lat="43.6971" lon="1.4783">
        <ele>257.021958</ele>
        <time>2022-04-29T13:47:22.048Z</time>
      </trkpt>
      <trkpt lat="43.69721" lon="1.47833">
        <ele>257.018041</ele>
        <time>2022-04-29T13:47:24.047Z</time>
      </trkpt>
      <trkpt lat="43.69731" lon="1.47838">
        <ele>257.014135</ele>
        <time>2022-04-29T13:47:26.057Z</time>
      </trkpt>
      <trkpt lat="43.69741" lon="1.47839">
        <ele>257.010256</ele>
        <time>2022-04-29T13:47:28.053Z</time>
      </trkpt>
      <trkpt lat="43.69752" lon="1.47838">
        <ele>257.00616</ele>
        <time>2022-04-29T13:47:30.065Z</time>
      </trkpt>
      <trkpt lat="43.69764" lon="1.47836">
        <ele>256.924749</ele>
        <time>2022-04-29T13:47:32.052Z</time>
      </trkpt>
      <trkpt lat="43.69776" lon="1.47833">
        <ele>256.438709</ele>
        <time>2022-04-29T13:47:34.068Z</time>
      </trkpt>
      <trkpt lat="43.69787" lon="1.47828">
        <ele>255.956709</ele>
        <time>2022-04-29T13:47:36.048Z</time>
      </trkpt>
      <trkpt lat="43.69798" lon="1.47824">
        <ele>255.486513</ele>
        <time>2022-04-29T13:47:38.056Z</time>
      </trkpt>
      <trkpt lat="43.69809" lon="1.47819">
        <ele>254.997428</ele>
        <time>2022-04-29T13:47:40.064Z</time>
      </trkpt>
      <trkpt lat="43.69821" lon="1.47814">
        <ele>254.484564</ele>
        <time>2022-04-29T13:47:42.064Z</time>
      </trkpt>
      <trkpt lat="43.69834" lon="1.47809">
        <ele>253.948658</ele>
        <time>2022-04-29T13:47:44.058Z</time>
      </trkpt>
      <trkpt lat="43.69846" lon="1.47804">
        <ele>253.415291</ele>
        <time>2022-04-29T13:47:46.060Z</time>
      </trkpt>
      <trkpt lat="43.6986" lon="1.478">
        <ele>252.864374</ele>
        <time>2022-04-29T13:47:48.080Z</time>
      </trkpt>
      <trkpt lat="43.69873" lon="1.47795">
        <ele>252.297848</ele>
        <time>2022-04-29T13:47:50.049Z</time>
      </trkpt>
      <trkpt lat="43.69884" lon="1.47783">
        <ele>251.703383</ele>
        <time>2022-04-29T13:47:52.049Z</time>
      </trkpt>
      <trkpt lat="43.69895" lon="1.47769">
        <ele>251.099683</ele>
        <time>2022-04-29T13:47:54.046Z</time>
      </trkpt>
      <trkpt lat="43.69906" lon="1.47754">
        <ele>250.470982</ele>
        <time>2022-04-29T13:47:56.073Z</time>
      </trkpt>
      <trkpt lat="43.69916" lon="1.47738">
        <ele>249.847092</ele>
        <time>2022-04-29T13:47:58.052Z</time>
      </trkpt>
      <trkpt lat="43.69927" lon="1.47722">
        <ele>249.179697</ele>
        <time>2022-04-29T13:48:00.096Z</time>
      </trkpt>
      <trkpt lat="43.69939" lon="1.47707">
        <ele>248.472286</ele>
        <time>2022-04-29T13:48:02.053Z</time>
      </trkpt>
      <trkpt lat="43.69952" lon="1.4769">
        <ele>247.715387</ele>
        <time>2022-04-29T13:48:04.059Z</time>
      </trkpt>
      <trkpt lat="43.69958" lon="1.47681">
        <ele>247.327055</ele>
        <time>2022-04-29T13:48:05.059Z</time>
      </trkpt>
      <trkpt lat="43.69965" lon="1.47672">
        <ele>246.940573</ele>
        <time>2022-04-29T13:48:06.060Z</time>
      </trkpt>
      <trkpt lat="43.69978" lon="1.47657">
        <ele>246.203497</ele>
        <time>2022-04-29T13:48:08.061Z</time>
      </trkpt>
      <trkpt lat="43.6999" lon="1.47642">
        <ele>245.483012</ele>
        <time>2022-04-29T13:48:10.054Z</time>
      </trkpt>
      <trkpt lat="43.70005" lon="1.47631">
        <ele>244.777708</ele>
        <time>2022-04-29T13:48:12.069Z</time>
      </trkpt>
      <trkpt lat="43.7002" lon="1.47623">
        <ele>244.071409</ele>
        <time>2022-04-29T13:48:14.042Z</time>
      </trkpt>
      <trkpt lat="43.70037" lon="1.4762">
        <ele>243.355033</ele>
        <time>2022-04-29T13:48:16.083Z</time>
      </trkpt>
      <trkpt lat="43.70054" lon="1.47619">
        <ele>242.644097</ele>
        <time>2022-04-29T13:48:18.051Z</time>
      </trkpt>
      <trkpt lat="43.7007" lon="1.47622">
        <ele>241.936774</ele>
        <time>2022-04-29T13:48:20.066Z</time>
      </trkpt>
      <trkpt lat="43.70086" lon="1.47626">
        <ele>241.860427</ele>
        <time>2022-04-29T13:48:22.070Z</time>
      </trkpt>
      <trkpt lat="43.70102" lon="1.4763">
        <ele>241.793019</ele>
        <time>2022-04-29T13:48:24.076Z</time>
      </trkpt>
      <trkpt lat="43.70118" lon="1.47631">
        <ele>241.727526</ele>
        <time>2022-04-29T13:48:26.072Z</time>
      </trkpt>
      <trkpt lat="43.70134" lon="1.47627">
        <ele>241.661757</ele>
        <time>2022-04-29T13:48:28.082Z</time>
      </trkpt>
      <trkpt lat="43.70148" lon="1.47621">
        <ele>241.597798</ele>
        <time>2022-04-29T13:48:30.058Z</time>
      </trkpt>
      <trkpt lat="43.70162" lon="1.47614">
        <ele>241.537515</ele>
        <time>2022-04-29T13:48:32.065Z</time>
      </trkpt>
      <trkpt lat="43.70175" lon="1.47608">
        <ele>241.479585</ele>
        <time>2022-04-29T13:48:34.057Z</time>
      </trkpt>
      <trkpt lat="43.70189" lon="1.47605">
        <ele>241.423365</ele>
        <time>2022-04-29T13:48:36.081Z</time>
      </trkpt>
      <trkpt lat="43.70202" lon="1.47608">
        <ele>241.368828</ele>
        <time>2022-04-29T13:48:38.059Z</time>
      </trkpt>
      <trkpt lat="43.70213" lon="1.47615">
        <ele>241.317551</ele>
        <time>2022-04-29T13:48:40.048Z</time>
      </trkpt>
      <trkpt lat="43.70223" lon="1.47623">
        <ele>241.268103</ele>
        <time>2022-04-29T13:48:42.058Z</time>
      </trkpt>
      <trkpt lat="43.70234" lon="1.47632">
        <ele>241.217963</ele>
        <time>2022-04-29T13:48:44.064Z</time>
      </trkpt>
      <trkpt lat="43.70244" lon="1.47641">
        <ele>241.088088</ele>
        <time>2022-04-29T13:48:46.066Z</time>
      </trkpt>
      <trkpt lat="43.70255" lon="1.47649">
        <ele>240.764982</ele>
        <time>2022-04-29T13:48:48.055Z</time>
      </trkpt>
      <trkpt lat="43.70266" lon="1.47658">
        <ele>240.44056</ele>
        <time>2022-04-29T13:48:50.084Z</time>
      </trkpt>
      <trkpt lat="43.70278" lon="1.47665">
        <ele>240.113468</ele>
        <time>2022-04-29T13:48:52.080Z</time>
      </trkpt>
      <trkpt lat="43.7029" lon="1.47672">
        <ele>239.786377</ele>
        <time>2022-04-29T13:48:54.064Z</time>
      </trkpt>
      <trkpt lat="43.70301" lon="1.47679">
        <ele>239.456939</ele>
        <time>2022-04-29T13:48:56.061Z</time>
      </trkpt>
      <trkpt lat="43.70314" lon="1.47687">
        <ele>239.115896</ele>
        <time>2022-04-29T13:48:58.066Z</time>
      </trkpt>
      <trkpt lat="43.70327" lon="1.47694">
        <ele>238.74651</ele>
        <time>2022-04-29T13:49:00.054Z</time>
      </trkpt>
      <trkpt lat="43.70342" lon="1.477">
        <ele>238.346754</ele>
        <time>2022-04-29T13:49:02.058Z</time>
      </trkpt>
      <trkpt lat="43.70358" lon="1.47707">
        <ele>237.924544</ele>
        <time>2022-04-29T13:49:04.047Z</time>
      </trkpt>
      <trkpt lat="43.70373" lon="1.47716">
        <ele>237.497969</ele>
        <time>2022-04-29T13:49:06.055Z</time>
      </trkpt>
      <trkpt lat="43.70389" lon="1.47724">
        <ele>237.072028</ele>
        <time>2022-04-29T13:49:08.055Z</time>
      </trkpt>
      <trkpt lat="43.70404" lon="1.47731">
        <ele>236.653432</ele>
        <time>2022-04-29T13:49:10.063Z</time>
      </trkpt>
      <trkpt lat="43.70419" lon="1.47738">
        <ele>236.383428</ele>
        <time>2022-04-29T13:49:12.057Z</time>
      </trkpt>
      <trkpt lat="43.70434" lon="1.47745">
        <ele>236.153162</ele>
        <time>2022-04-29T13:49:14.067Z</time>
      </trkpt>
      <trkpt lat="43.70449" lon="1.47752">
        <ele>235.92803</ele>
        <time>2022-04-29T13:49:16.059Z</time>
      </trkpt>
      <trkpt lat="43.70463" lon="1.47759">
        <ele>235.711448</ele>
        <time>2022-04-29T13:49:18.077Z</time>
      </trkpt>
      <trkpt lat="43.70476" lon="1.47766">
        <ele>235.502352</ele>
        <time>2022-04-29T13:49:20.056Z</time>
      </trkpt>
      <trkpt lat="43.7049" lon="1.47769">
        <ele>235.298187</ele>
        <time>2022-04-29T13:49:22.074Z</time>
      </trkpt>
      <trkpt lat="43.70503" lon="1.47772">
        <ele>235.09811</ele>
        <time>2022-04-29T13:49:24.065Z</time>
      </trkpt>
      <trkpt lat="43.70517" lon="1.47774">
        <ele>234.899492</ele>
        <time>2022-04-29T13:49:26.089Z</time>
      </trkpt>
      <trkpt lat="43.7053" lon="1.47776">
        <ele>234.70032</ele>
        <time>2022-04-29T13:49:28.076Z</time>
      </trkpt>
      <trkpt lat="43.70543" lon="1.47778">
        <ele>234.502085</ele>
        <time>2022-04-29T13:49:30.076Z</time>
      </trkpt>
      <trkpt lat="43.70557" lon="1.4778">
        <ele>234.305647</ele>
        <time>2022-04-29T13:49:32.061Z</time>
      </trkpt>
      <trkpt lat="43.7057" lon="1.47782">
        <ele>234.106283</ele>
        <time>2022-04-29T13:49:34.058Z</time>
      </trkpt>
      <trkpt lat="43.70584" lon="1.47784">
        <ele>233.918674</ele>
        <time>2022-04-29T13:49:36.072Z</time>
      </trkpt>
      <trkpt lat="43.70598" lon="1.47785">
        <ele>233.816182</ele>
        <time>2022-04-29T13:49:38.083Z</time>
      </trkpt>
      <trkpt lat="43.70612" lon="1.47788">
        <ele>233.714186</ele>
        <time>2022-04-29T13:49:40.069Z</time>
      </trkpt>
      <trkpt lat="43.70626" lon="1.4779">
        <ele>233.61199</ele>
        <time>2022-04-29T13:49:42.096Z</time>
      </trkpt>
      <trkpt lat="43.70639" lon="1.47793">
        <ele>233.511011</ele>
        <time>2022-04-29T13:49:44.073Z</time>
      </trkpt>
      <trkpt lat="43.70653" lon="1.47796">
        <ele>233.412273</ele>
        <time>2022-04-29T13:49:46.068Z</time>
      </trkpt>
      <trkpt lat="43.70666" lon="1.47799">
        <ele>233.314407</ele>
        <time>2022-04-29T13:49:48.065Z</time>
      </trkpt>
      <trkpt lat="43.70679" lon="1.47801">
        <ele>233.218549</ele>
        <time>2022-04-29T13:49:50.080Z</time>
      </trkpt>
      <trkpt lat="43.70692" lon="1.47804">
        <ele>233.127172</ele>
        <time>2022-04-29T13:49:52.066Z</time>
      </trkpt>
      <trkpt lat="43.70704" lon="1.47807">
        <ele>233.03823</ele>
        <time>2022-04-29T13:49:54.068Z</time>
      </trkpt>
      <trkpt lat="43.70716" lon="1.47811">
        <ele>232.947827</ele>
        <time>2022-04-29T13:49:56.066Z</time>
      </trkpt>
      <trkpt lat="43.70728" lon="1.47817">
        <ele>232.855901</ele>
        <time>2022-04-29T13:49:58.066Z</time>
      </trkpt>
      <trkpt lat="43.70739" lon="1.47823">
        <ele>232.766845</ele>
        <time>2022-04-29T13:50:00.073Z</time>
      </trkpt>
      <trkpt lat="43.7075" lon="1.47829">
        <ele>232.680303</ele>
        <time>2022-04-29T13:50:02.070Z</time>
      </trkpt>
      <trkpt lat="43.70761" lon="1.47835">
        <ele>232.546208</ele>
        <time>2022-04-29T13:50:04.065Z</time>
      </trkpt>
      <trkpt lat="43.70772" lon="1.47841">
        <ele>232.311927</ele>
        <time>2022-04-29T13:50:06.069Z</time>
      </trkpt>
      <trkpt lat="43.70783" lon="1.47847">
        <ele>232.077335</ele>
        <time>2022-04-29T13:50:08.043Z</time>
      </trkpt>
      <trkpt lat="43.70795" lon="1.47852">
        <ele>231.838662</ele>
        <time>2022-04-29T13:50:10.085Z</time>
      </trkpt>
      <trkpt lat="43.70807" lon="1.47857">
        <ele>231.591786</ele>
        <time>2022-04-29T13:50:12.060Z</time>
      </trkpt>
      <trkpt lat="43.7082" lon="1.47862">
        <ele>231.344151</ele>
        <time>2022-04-29T13:50:14.039Z</time>
      </trkpt>
      <trkpt lat="43.70833" lon="1.47862">
        <ele>231.085279</ele>
        <time>2022-04-29T13:50:16.055Z</time>
      </trkpt>
      <trkpt lat="43.70845" lon="1.47855">
        <ele>230.822541</ele>
        <time>2022-04-29T13:50:18.065Z</time>
      </trkpt>
      <trkpt lat="43.70857" lon="1.47844">
        <ele>230.547926</ele>
        <time>2022-04-29T13:50:20.050Z</time>
      </trkpt>
      <trkpt lat="43.70868" lon="1.47833">
        <ele>230.285383</ele>
        <time>2022-04-29T13:50:22.056Z</time>
      </trkpt>
      <trkpt lat="43.70879" lon="1.47823">
        <ele>230.031662</ele>
        <time>2022-04-29T13:50:24.058Z</time>
      </trkpt>
      <trkpt lat="43.7089" lon="1.47815">
        <ele>229.78502</ele>
        <time>2022-04-29T13:50:26.062Z</time>
      </trkpt>
      <trkpt lat="43.70903" lon="1.47808">
        <ele>229.512188</ele>
        <time>2022-04-29T13:50:28.058Z</time>
      </trkpt>
      <trkpt lat="43.70917" lon="1.47802">
        <ele>229.226271</ele>
        <time>2022-04-29T13:50:30.069Z</time>
      </trkpt>
      <trkpt lat="43.70932" lon="1.47801">
        <ele>229.05031</ele>
        <time>2022-04-29T13:50:32.040Z</time>
      </trkpt>
      <trkpt lat="43.70946" lon="1.47801">
        <ele>228.941468</ele>
        <time>2022-04-29T13:50:34.048Z</time>
      </trkpt>
      <trkpt lat="43.70959" lon="1.47803">
        <ele>228.83293</ele>
        <time>2022-04-29T13:50:36.053Z</time>
      </trkpt>
      <trkpt lat="43.70973" lon="1.47806">
        <ele>228.723929</ele>
        <time>2022-04-29T13:50:38.052Z</time>
      </trkpt>
      <trkpt lat="43.70986" lon="1.47812">
        <ele>228.613983</ele>
        <time>2022-04-29T13:50:40.040Z</time>
      </trkpt>
      <trkpt lat="43.70998" lon="1.47821">
        <ele>228.507393</ele>
        <time>2022-04-29T13:50:42.057Z</time>
      </trkpt>
      <trkpt lat="43.7101" lon="1.47829">
        <ele>228.404288</ele>
        <time>2022-04-29T13:50:44.052Z</time>
      </trkpt>
      <trkpt lat="43.71022" lon="1.47833">
        <ele>228.304763</ele>
        <time>2022-04-29T13:50:46.067Z</time>
      </trkpt>
      <trkpt lat="43.71033" lon="1.47838">
        <ele>228.209589</ele>
        <time>2022-04-29T13:50:48.058Z</time>
      </trkpt>
      <trkpt lat="43.71043" lon="1.47847">
        <ele>228.116497</ele>
        <time>2022-04-29T13:50:50.058Z</time>
      </trkpt>
      <trkpt lat="43.71052" lon="1.47858">
        <ele>228.019393</ele>
        <time>2022-04-29T13:50:52.067Z</time>
      </trkpt>
      <trkpt lat="43.71062" lon="1.47869">
        <ele>227.920657</ele>
        <time>2022-04-29T13:50:54.061Z</time>
      </trkpt>
      <trkpt lat="43.71072" lon="1.47879">
        <ele>227.823685</ele>
        <time>2022-04-29T13:50:56.070Z</time>
      </trkpt>
      <trkpt lat="43.71083" lon="1.47888">
        <ele>227.726385</ele>
        <time>2022-04-29T13:50:58.097Z</time>
      </trkpt>
      <trkpt lat="43.71093" lon="1.47896">
        <ele>227.556391</ele>
        <time>2022-04-29T13:51:00.078Z</time>
      </trkpt>
      <trkpt lat="43.71104" lon="1.47905">
        <ele>227.364543</ele>
        <time>2022-04-29T13:51:02.062Z</time>
      </trkpt>
      <trkpt lat="43.71114" lon="1.47913">
        <ele>227.177308</ele>
        <time>2022-04-29T13:51:04.068Z</time>
      </trkpt>
      <trkpt lat="43.71125" lon="1.47922">
        <ele>226.990073</ele>
        <time>2022-04-29T13:51:06.058Z</time>
      </trkpt>
      <trkpt lat="43.71135" lon="1.47929">
        <ele>226.798415</ele>
        <time>2022-04-29T13:51:08.066Z</time>
      </trkpt>
      <trkpt lat="43.71147" lon="1.47936">
        <ele>226.601644</ele>
        <time>2022-04-29T13:51:10.069Z</time>
      </trkpt>
      <trkpt lat="43.7116" lon="1.47939">
        <ele>226.401616</ele>
        <time>2022-04-29T13:51:12.053Z</time>
      </trkpt>
      <trkpt lat="43.71172" lon="1.47935">
        <ele>226.198463</ele>
        <time>2022-04-29T13:51:14.056Z</time>
      </trkpt>
      <trkpt lat="43.71184" lon="1.47926">
        <ele>225.991765</ele>
        <time>2022-04-29T13:51:16.051Z</time>
      </trkpt>
      <trkpt lat="43.71193" lon="1.47913">
        <ele>225.784572</ele>
        <time>2022-04-29T13:51:18.066Z</time>
      </trkpt>
      <trkpt lat="43.71203" lon="1.47901">
        <ele>225.580835</ele>
        <time>2022-04-29T13:51:20.055Z</time>
      </trkpt>
      <trkpt lat="43.71212" lon="1.47889">
        <ele>225.377417</ele>
        <time>2022-04-29T13:51:22.062Z</time>
      </trkpt>
      <trkpt lat="43.71219" lon="1.47872">
        <ele>225.168066</ele>
        <time>2022-04-29T13:51:24.068Z</time>
      </trkpt>
      <trkpt lat="43.71224" lon="1.47855">
        <ele>224.947692</ele>
        <time>2022-04-29T13:51:26.053Z</time>
      </trkpt>
      <trkpt lat="43.71229" lon="1.47836">
        <ele>224.69091</ele>
        <time>2022-04-29T13:51:28.060Z</time>
      </trkpt>
      <trkpt lat="43.71234" lon="1.47817">
        <ele>224.421822</ele>
        <time>2022-04-29T13:51:30.061Z</time>
      </trkpt>
      <trkpt lat="43.71239" lon="1.47799">
        <ele>224.155803</ele>
        <time>2022-04-29T13:51:32.069Z</time>
      </trkpt>
      <trkpt lat="43.71245" lon="1.47782">
        <ele>223.897461</ele>
        <time>2022-04-29T13:51:34.080Z</time>
      </trkpt>
      <trkpt lat="43.71253" lon="1.47766">
        <ele>223.636642</ele>
        <time>2022-04-29T13:51:36.067Z</time>
      </trkpt>
      <trkpt lat="43.71261" lon="1.4775">
        <ele>223.371702</ele>
        <time>2022-04-29T13:51:38.070Z</time>
      </trkpt>
      <trkpt lat="43.71268" lon="1.47733">
        <ele>223.106135</ele>
        <time>2022-04-29T13:51:40.066Z</time>
      </trkpt>
      <trkpt lat="43.71274" lon="1.47716">
        <ele>222.849608</ele>
        <time>2022-04-29T13:51:42.056Z</time>
      </trkpt>
      <trkpt lat="43.71281" lon="1.47701">
        <ele>222.604119</ele>
        <time>2022-04-29T13:51:44.050Z</time>
      </trkpt>
      <trkpt lat="43.71285" lon="1.47689">
        <ele>222.426829</ele>
        <time>2022-04-29T13:51:46.069Z</time>
      </trkpt>
      <trkpt lat="43.71295" lon="1.47684">
        <ele>222.23138</ele>
        <time>2022-04-29T13:51:51.062Z</time>
      </trkpt>
      <trkpt lat="43.71305" lon="1.47692">
        <ele>222.022958</ele>
        <time>2022-04-29T13:51:55.054Z</time>
      </trkpt>
      <trkpt lat="43.71318" lon="1.47694">
        <ele>221.774922</ele>
        <time>2022-04-29T13:51:58.053Z</time>
      </trkpt>
      <trkpt lat="43.71327" lon="1.47703">
        <ele>221.566667</ele>
        <time>2022-04-29T13:52:00.070Z</time>
      </trkpt>
      <trkpt lat="43.71336" lon="1.47712">
        <ele>221.636718</ele>
        <time>2022-04-29T13:52:02.055Z</time>
      </trkpt>
      <trkpt lat="43.71346" lon="1.47721">
        <ele>221.823468</ele>
        <time>2022-04-29T13:52:04.063Z</time>
      </trkpt>
      <trkpt lat="43.71356" lon="1.4773">
        <ele>222.009538</ele>
        <time>2022-04-29T13:52:06.059Z</time>
      </trkpt>
      <trkpt lat="43.71366" lon="1.47739">
        <ele>222.195655</ele>
        <time>2022-04-29T13:52:08.050Z</time>
      </trkpt>
      <trkpt lat="43.71375" lon="1.47748">
        <ele>222.373893</ele>
        <time>2022-04-29T13:52:10.054Z</time>
      </trkpt>
      <trkpt lat="43.71384" lon="1.47756">
        <ele>222.545593</ele>
        <time>2022-04-29T13:52:12.058Z</time>
      </trkpt>
      <trkpt lat="43.71392" lon="1.47764">
        <ele>222.708167</ele>
        <time>2022-04-29T13:52:14.096Z</time>
      </trkpt>
      <trkpt lat="43.71401" lon="1.47772">
        <ele>222.870092</ele>
        <time>2022-04-29T13:52:16.133Z</time>
      </trkpt>
      <trkpt lat="43.71409" lon="1.4778">
        <ele>223.03004</ele>
        <time>2022-04-29T13:52:18.070Z</time>
      </trkpt>
      <trkpt lat="43.7142" lon="1.4779">
        <ele>223.233734</ele>
        <time>2022-04-29T13:52:21.083Z</time>
      </trkpt>
      <trkpt lat="43.71428" lon="1.47798">
        <ele>223.38716</ele>
        <time>2022-04-29T13:52:25.049Z</time>
      </trkpt>
      <trkpt lat="43.71438" lon="1.47808">
        <ele>223.596845</ele>
        <time>2022-04-29T13:52:29.052Z</time>
      </trkpt>
      <trkpt lat="43.71449" lon="1.47818">
        <ele>223.801852</ele>
        <time>2022-04-29T13:52:32.042Z</time>
      </trkpt>
      <trkpt lat="43.71458" lon="1.47826">
        <ele>223.977828</ele>
        <time>2022-04-29T13:52:35.058Z</time>
      </trkpt>
      <trkpt lat="43.71466" lon="1.47834">
        <ele>224.133211</ele>
        <time>2022-04-29T13:52:39.048Z</time>
      </trkpt>
      <trkpt lat="43.71477" lon="1.47844">
        <ele>224.333699</ele>
        <time>2022-04-29T13:52:42.057Z</time>
      </trkpt>
      <trkpt lat="43.71484" lon="1.47852">
        <ele>224.37811</ele>
        <time>2022-04-29T13:52:44.072Z</time>
      </trkpt>
      <trkpt lat="43.71494" lon="1.47863">
        <ele>224.403269</ele>
        <time>2022-04-29T13:52:47.073Z</time>
      </trkpt>
      <trkpt lat="43.71506" lon="1.47873">
        <ele>224.429876</ele>
        <time>2022-04-29T13:52:50.077Z</time>
      </trkpt>
      <trkpt lat="43.71514" lon="1.4788">
        <ele>224.448525</ele>
        <time>2022-04-29T13:52:52.075Z</time>
      </trkpt>
      <trkpt lat="43.71524" lon="1.4789">
        <ele>224.473355</ele>
        <time>2022-04-29T13:52:55.067Z</time>
      </trkpt>
      <trkpt lat="43.71534" lon="1.47901">
        <ele>224.49751</ele>
        <time>2022-04-29T13:52:58.074Z</time>
      </trkpt>
      <trkpt lat="43.71544" lon="1.47904">
        <ele>224.51817</ele>
        <time>2022-04-29T13:53:01.067Z</time>
      </trkpt>
      <trkpt lat="43.71553" lon="1.47897">
        <ele>224.53862</ele>
        <time>2022-04-29T13:53:04.073Z</time>
      </trkpt>
      <trkpt lat="43.71561" lon="1.47884">
        <ele>224.56232</ele>
        <time>2022-04-29T13:53:07.057Z</time>
      </trkpt>
      <trkpt lat="43.71568" lon="1.4787">
        <ele>224.586937</ele>
        <time>2022-04-29T13:53:10.081Z</time>
      </trkpt>
      <trkpt lat="43.71576" lon="1.47856">
        <ele>224.611441</ele>
        <time>2022-04-29T13:53:13.051Z</time>
      </trkpt>
      <trkpt lat="43.71585" lon="1.47843">
        <ele>224.638053</ele>
        <time>2022-04-29T13:53:16.056Z</time>
      </trkpt>
      <trkpt lat="43.71592" lon="1.47833">
        <ele>224.657691</ele>
        <time>2022-04-29T13:53:18.084Z</time>
      </trkpt>
      <trkpt lat="43.716" lon="1.47822">
        <ele>224.678888</ele>
        <time>2022-04-29T13:53:20.065Z</time>
      </trkpt>
      <trkpt lat="43.71608" lon="1.4781">
        <ele>224.702258</ele>
        <time>2022-04-29T13:53:22.059Z</time>
      </trkpt>
      <trkpt lat="43.71614" lon="1.47797">
        <ele>224.636687</ele>
        <time>2022-04-29T13:53:24.054Z</time>
      </trkpt>
      <trkpt lat="43.71622" lon="1.47782">
        <ele>224.385935</ele>
        <time>2022-04-29T13:53:27.043Z</time>
      </trkpt>
      <trkpt lat="43.71628" lon="1.47772">
        <ele>224.21056</ele>
        <time>2022-04-29T13:53:29.059Z</time>
      </trkpt>
      <trkpt lat="43.71636" lon="1.47763">
        <ele>224.029051</ele>
        <time>2022-04-29T13:53:31.050Z</time>
      </trkpt>
      <trkpt lat="43.71643" lon="1.47752">
        <ele>223.841176</ele>
        <time>2022-04-29T13:53:33.070Z</time>
      </trkpt>
      <trkpt lat="43.7165" lon="1.47742">
        <ele>223.649396</ele>
        <time>2022-04-29T13:53:35.057Z</time>
      </trkpt>
      <trkpt lat="43.71657" lon="1.47731">
        <ele>223.45663</ele>
        <time>2022-04-29T13:53:37.075Z</time>
      </trkpt>
      <trkpt lat="43.71663" lon="1.4772">
        <ele>223.265443</ele>
        <time>2022-04-29T13:53:39.084Z</time>
      </trkpt>
      <trkpt lat="43.7167" lon="1.47705">
        <ele>223.04225</ele>
        <time>2022-04-29T13:53:42.068Z</time>
      </trkpt>
      <trkpt lat="43.71679" lon="1.47696">
        <ele>222.842761</ele>
        <time>2022-04-29T13:53:46.072Z</time>
      </trkpt>
      <trkpt lat="43.71687" lon="1.47683">
        <ele>222.614436</ele>
        <time>2022-04-29T13:53:49.068Z</time>
      </trkpt>
      <trkpt lat="43.71695" lon="1.47671">
        <ele>222.391723</ele>
        <time>2022-04-29T13:53:52.064Z</time>
      </trkpt>
      <trkpt lat="43.71703" lon="1.47659">
        <ele>222.176391</ele>
        <time>2022-04-29T13:53:55.080Z</time>
      </trkpt>
      <trkpt lat="43.71711" lon="1.47647">
        <ele>221.965237</ele>
        <time>2022-04-29T13:53:58.075Z</time>
      </trkpt>
      <trkpt lat="43.71719" lon="1.47633">
        <ele>221.733936</ele>
        <time>2022-04-29T13:54:01.070Z</time>
      </trkpt>
      <trkpt lat="43.71729" lon="1.47621">
        <ele>221.49056</ele>
        <time>2022-04-29T13:54:04.074Z</time>
      </trkpt>
      <trkpt lat="43.71738" lon="1.47608">
        <ele>221.229343</ele>
        <time>2022-04-29T13:54:07.074Z</time>
      </trkpt>
      <trkpt lat="43.71746" lon="1.47593">
        <ele>220.94479</ele>
        <time>2022-04-29T13:54:10.088Z</time>
      </trkpt>
      <trkpt lat="43.71752" lon="1.47584">
        <ele>220.751431</ele>
        <time>2022-04-29T13:54:12.094Z</time>
      </trkpt>
      <trkpt lat="43.71757" lon="1.47573">
        <ele>220.553083</ele>
        <time>2022-04-29T13:54:14.086Z</time>
      </trkpt>
      <trkpt lat="43.71763" lon="1.47563">
        <ele>220.359288</ele>
        <time>2022-04-29T13:54:16.086Z</time>
      </trkpt>
      <trkpt lat="43.71769" lon="1.47554">
        <ele>220.16705</ele>
        <time>2022-04-29T13:54:18.091Z</time>
      </trkpt>
      <trkpt lat="43.71775" lon="1.47544">
        <ele>219.973256</ele>
        <time>2022-04-29T13:54:20.102Z</time>
      </trkpt>
      <trkpt lat="43.71782" lon="1.47535">
        <ele>219.77118</ele>
        <time>2022-04-29T13:54:22.081Z</time>
      </trkpt>
      <trkpt lat="43.71789" lon="1.47525">
        <ele>219.556289</ele>
        <time>2022-04-29T13:54:24.096Z</time>
      </trkpt>
      <trkpt lat="43.71796" lon="1.47514">
        <ele>219.339068</ele>
        <time>2022-04-29T13:54:26.073Z</time>
      </trkpt>
      <trkpt lat="43.71803" lon="1.47503">
        <ele>219.111319</ele>
        <time>2022-04-29T13:54:28.080Z</time>
      </trkpt>
      <trkpt lat="43.71811" lon="1.47491">
        <ele>218.877619</ele>
        <time>2022-04-29T13:54:30.086Z</time>
      </trkpt>
      <trkpt lat="43.71818" lon="1.47479">
        <ele>218.634266</ele>
        <time>2022-04-29T13:54:32.090Z</time>
      </trkpt>
      <trkpt lat="43.71826" lon="1.47467">
        <ele>218.387331</ele>
        <time>2022-04-29T13:54:34.085Z</time>
      </trkpt>
      <trkpt lat="43.71835" lon="1.47458">
        <ele>218.151487</ele>
        <time>2022-04-29T13:54:36.071Z</time>
      </trkpt>
      <trkpt lat="43.71843" lon="1.47446">
        <ele>217.912182</ele>
        <time>2022-04-29T13:54:38.085Z</time>
      </trkpt>
      <trkpt lat="43.7185" lon="1.47434">
        <ele>217.667227</ele>
        <time>2022-04-29T13:54:40.061Z</time>
      </trkpt>
      <trkpt lat="43.71858" lon="1.47421">
        <ele>217.461391</ele>
        <time>2022-04-29T13:54:42.091Z</time>
      </trkpt>
      <trkpt lat="43.71866" lon="1.47409">
        <ele>217.258736</ele>
        <time>2022-04-29T13:54:44.072Z</time>
      </trkpt>
      <trkpt lat="43.71874" lon="1.47396">
        <ele>217.054994</ele>
        <time>2022-04-29T13:54:46.059Z</time>
      </trkpt>
      <trkpt lat="43.71882" lon="1.47383">
        <ele>216.848653</ele>
        <time>2022-04-29T13:54:48.083Z</time>
      </trkpt>
      <trkpt lat="43.7189" lon="1.47369">
        <ele>216.639251</ele>
        <time>2022-04-29T13:54:50.076Z</time>
      </trkpt>
      <trkpt lat="43.71899" lon="1.47357">
        <ele>216.428837</ele>
        <time>2022-04-29T13:54:52.079Z</time>
      </trkpt>
      <trkpt lat="43.71907" lon="1.47344">
        <ele>216.222901</ele>
        <time>2022-04-29T13:54:54.080Z</time>
      </trkpt>
      <trkpt lat="43.71914" lon="1.47332">
        <ele>216.042139</ele>
        <time>2022-04-29T13:54:56.060Z</time>
      </trkpt>
      <trkpt lat="43.7192" lon="1.47321">
        <ele>215.869292</ele>
        <time>2022-04-29T13:54:59.049Z</time>
      </trkpt>
      <trkpt lat="43.71927" lon="1.47311">
        <ele>215.708895</ele>
        <time>2022-04-29T13:55:02.064Z</time>
      </trkpt>
      <trkpt lat="43.71933" lon="1.473">
        <ele>215.541057</ele>
        <time>2022-04-29T13:55:05.083Z</time>
      </trkpt>
      <trkpt lat="43.71939" lon="1.47289">
        <ele>215.374606</ele>
        <time>2022-04-29T13:55:08.057Z</time>
      </trkpt>
      <trkpt lat="43.71946" lon="1.47279">
        <ele>215.19972</ele>
        <time>2022-04-29T13:55:12.065Z</time>
      </trkpt>
      <trkpt lat="43.71939" lon="1.47277">
        <ele>210.056562</ele>
        <time>2022-04-29T13:57:26.099Z</time>
      </trkpt>
      <trkpt lat="43.71933" lon="1.47266">
        <ele>209.834884</ele>
        <time>2022-04-29T13:57:35.076Z</time>
      </trkpt>
      <trkpt lat="43.71925" lon="1.47258">
        <ele>209.624157</ele>
        <time>2022-04-29T13:57:45.050Z</time>
      </trkpt>
      <trkpt lat="43.71923" lon="1.47245">
        <ele>209.33531</ele>
        <time>2022-04-29T13:57:51.073Z</time>
      </trkpt>
      <trkpt lat="43.71927" lon="1.47232">
        <ele>209.018075</ele>
        <time>2022-04-29T13:57:54.063Z</time>
      </trkpt>
      <trkpt lat="43.71931" lon="1.47216">
        <ele>208.613459</ele>
        <time>2022-04-29T13:57:58.077Z</time>
      </trkpt>
      <trkpt lat="43.71937" lon="1.47204">
        <ele>208.289648</ele>
        <time>2022-04-29T13:58:01.067Z</time>
      </trkpt>
      <trkpt lat="43.71941" lon="1.47193">
        <ele>208.002109</ele>
        <time>2022-04-29T13:58:03.070Z</time>
      </trkpt>
      <trkpt lat="43.7195" lon="1.47179">
        <ele>207.600308</ele>
        <time>2022-04-29T13:58:06.095Z</time>
      </trkpt>
      <trkpt lat="43.7196" lon="1.47168">
        <ele>207.178413</ele>
        <time>2022-04-29T13:58:09.065Z</time>
      </trkpt>
      <trkpt lat="43.7197" lon="1.47156">
        <ele>206.763802</ele>
        <time>2022-04-29T13:58:12.053Z</time>
      </trkpt>
      <trkpt lat="43.71979" lon="1.47145">
        <ele>206.381277</ele>
        <time>2022-04-29T13:58:15.075Z</time>
      </trkpt>
      <trkpt lat="43.71988" lon="1.47132">
        <ele>205.991327</ele>
        <time>2022-04-29T13:58:18.049Z</time>
      </trkpt>
      <trkpt lat="43.71996" lon="1.47123">
        <ele>205.660029</ele>
        <time>2022-04-29T13:58:21.067Z</time>
      </trkpt>
      <trkpt lat="43.72004" lon="1.47114">
        <ele>205.319604</ele>
        <time>2022-04-29T13:58:25.069Z</time>
      </trkpt>
      <trkpt lat="43.72014" lon="1.47106">
        <ele>204.964346</ele>
        <time>2022-04-29T13:58:45.119Z</time>
      </trkpt>
      <trkpt lat="43.72026" lon="1.47098">
        <ele>204.552556</ele>
        <time>2022-04-29T13:58:48.070Z</time>
      </trkpt>
      <trkpt lat="43.72037" lon="1.47083">
        <ele>204.059669</ele>
        <time>2022-04-29T13:58:51.076Z</time>
      </trkpt>
      <trkpt lat="43.72047" lon="1.47071">
        <ele>203.716575</ele>
        <time>2022-04-29T13:58:53.092Z</time>
      </trkpt>
      <trkpt lat="43.72056" lon="1.47058">
        <ele>203.417214</ele>
        <time>2022-04-29T13:58:55.089Z</time>
      </trkpt>
      <trkpt lat="43.72064" lon="1.47049">
        <ele>203.182217</ele>
        <time>2022-04-29T13:58:57.073Z</time>
      </trkpt>
      <trkpt lat="43.72074" lon="1.47041">
        <ele>202.906039</ele>
        <time>2022-04-29T13:59:00.047Z</time>
      </trkpt>
      <trkpt lat="43.72085" lon="1.47027">
        <ele>202.55715</ele>
        <time>2022-04-29T13:59:04.076Z</time>
      </trkpt>
      <trkpt lat="43.72095" lon="1.47017">
        <ele>202.271434</ele>
        <time>2022-04-29T13:59:06.075Z</time>
      </trkpt>
      <trkpt lat="43.72105" lon="1.47008">
        <ele>201.98614</ele>
        <time>2022-04-29T13:59:08.059Z</time>
      </trkpt>
      <trkpt lat="43.72116" lon="1.47">
        <ele>201.706264</ele>
        <time>2022-04-29T13:59:10.073Z</time>
      </trkpt>
      <trkpt lat="43.72125" lon="1.46992">
        <ele>201.44711</ele>
        <time>2022-04-29T13:59:12.081Z</time>
      </trkpt>
      <trkpt lat="43.72135" lon="1.46985">
        <ele>201.188824</ele>
        <time>2022-04-29T13:59:14.053Z</time>
      </trkpt>
      <trkpt lat="43.72143" lon="1.46977">
        <ele>200.948922</ele>
        <time>2022-04-29T13:59:16.074Z</time>
      </trkpt>
      <trkpt lat="43.72153" lon="1.46969">
        <ele>200.677585</ele>
        <time>2022-04-29T13:59:18.081Z</time>
      </trkpt>
      <trkpt lat="43.72164" lon="1.46959">
        <ele>200.388056</ele>
        <time>2022-04-29T13:59:20.078Z</time>
      </trkpt>
      <trkpt lat="43.72174" lon="1.4695">
        <ele>200.102443</ele>
        <time>2022-04-29T13:59:22.075Z</time>
      </trkpt>
      <trkpt lat="43.72183" lon="1.4694">
        <ele>199.823133</ele>
        <time>2022-04-29T13:59:24.069Z</time>
      </trkpt>
      <trkpt lat="43.72193" lon="1.46931">
        <ele>199.630766</ele>
        <time>2022-04-29T13:59:26.064Z</time>
      </trkpt>
      <trkpt lat="43.72203" lon="1.46923">
        <ele>199.486376</ele>
        <time>2022-04-29T13:59:28.063Z</time>
      </trkpt>
      <trkpt lat="43.72213" lon="1.46914">
        <ele>199.344206</ele>
        <time>2022-04-29T13:59:30.077Z</time>
      </trkpt>
      <trkpt lat="43.72224" lon="1.46906">
        <ele>199.195353</ele>
        <time>2022-04-29T13:59:32.084Z</time>
      </trkpt>
      <trkpt lat="43.72234" lon="1.46897">
        <ele>199.047221</ele>
        <time>2022-04-29T13:59:34.058Z</time>
      </trkpt>
      <trkpt lat="43.72245" lon="1.4689">
        <ele>198.901629</ele>
        <time>2022-04-29T13:59:36.071Z</time>
      </trkpt>
      <trkpt lat="43.72255" lon="1.46881">
        <ele>198.756641</ele>
        <time>2022-04-29T13:59:38.072Z</time>
      </trkpt>
      <trkpt lat="43.72265" lon="1.46871">
        <ele>198.605684</ele>
        <time>2022-04-29T13:59:40.070Z</time>
      </trkpt>
      <trkpt lat="43.72276" lon="1.46861">
        <ele>198.452745</ele>
        <time>2022-04-29T13:59:42.069Z</time>
      </trkpt>
      <trkpt lat="43.72286" lon="1.46851">
        <ele>198.308278</ele>
        <time>2022-04-29T13:59:44.072Z</time>
      </trkpt>
      <trkpt lat="43.72296" lon="1.46843">
        <ele>198.156003</ele>
        <time>2022-04-29T13:59:46.064Z</time>
      </trkpt>
      <trkpt lat="43.72307" lon="1.46835">
        <ele>198.011636</ele>
        <time>2022-04-29T13:59:48.080Z</time>
      </trkpt>
      <trkpt lat="43.72318" lon="1.46828">
        <ele>197.864583</ele>
        <time>2022-04-29T13:59:50.076Z</time>
      </trkpt>
      <trkpt lat="43.72329" lon="1.46822">
        <ele>197.72003</ele>
        <time>2022-04-29T13:59:52.084Z</time>
      </trkpt>
      <trkpt lat="43.7234" lon="1.46817">
        <ele>197.57516</ele>
        <time>2022-04-29T13:59:54.091Z</time>
      </trkpt>
      <trkpt lat="43.72351" lon="1.4681">
        <ele>197.854755</ele>
        <time>2022-04-29T13:59:56.118Z</time>
      </trkpt>
      <trkpt lat="43.72361" lon="1.46804">
        <ele>198.223092</ele>
        <time>2022-04-29T13:59:58.069Z</time>
      </trkpt>
      <trkpt lat="43.72371" lon="1.46799">
        <ele>198.579161</ele>
        <time>2022-04-29T14:00:00.073Z</time>
      </trkpt>
      <trkpt lat="43.72382" lon="1.46794">
        <ele>198.966414</ele>
        <time>2022-04-29T14:00:02.069Z</time>
      </trkpt>
      <trkpt lat="43.72392" lon="1.46788">
        <ele>199.34599</ele>
        <time>2022-04-29T14:00:04.078Z</time>
      </trkpt>
      <trkpt lat="43.72399" lon="1.46776">
        <ele>199.729945</ele>
        <time>2022-04-29T14:00:07.065Z</time>
      </trkpt>
      <trkpt lat="43.72396" lon="1.46746">
        <ele>200.492528</ele>
        <time>2022-04-29T14:00:29.070Z</time>
      </trkpt>
      <trkpt lat="43.72266" lon="1.46842">
        <ele>148.2</ele>
      </trkpt>
      <trkpt lat="43.72183" lon="1.4691">
        <ele>150.4</ele>
      </trkpt>
      <trkpt lat="43.72152" lon="1.46945">
        <ele>150.1</ele>
      </trkpt>
      <trkpt lat="43.72132" lon="1.4697">
        <ele>149.1</ele>
      </trkpt>
      <trkpt lat="43.72118" lon="1.46978">
        <ele>150.1</ele>
      </trkpt>
      <trkpt lat="43.7211" lon="1.46978">
        <ele>150.8</ele>
      </trkpt>
      <trkpt lat="43.72074" lon="1.47">
        <ele>151.4</ele>
      </trkpt>
      <trkpt lat="43.72029" lon="1.47017">
        <ele>155.4</ele>
      </trkpt>
      <trkpt lat="43.72007" lon="1.47014">
        <ele>156.7</ele>
      </trkpt>
      <trkpt lat="43.7202" lon="1.46946">
        <ele>160.5</ele>
      </trkpt>
      <trkpt lat="43.72022" lon="1.46947">
        <ele>160.4</ele>
      </trkpt>
      <trkpt lat="43.72028" lon="1.46948">
        <ele>160</ele>
      </trkpt>
      <trkpt lat="43.72063" lon="1.4693">
        <ele>159.9</ele>
      </trkpt>
      <trkpt lat="43.72102" lon="1.46928">
        <ele>158.9</ele>
      </trkpt>
      <trkpt lat="43.72111" lon="1.46934">
        <ele>158.4</ele>
      </trkpt>
      <trkpt lat="43.72154" lon="1.46876">
        <ele>157.2</ele>
      </trkpt>
      <trkpt lat="43.72212" lon="1.46806">
        <ele>156.7</ele>
      </trkpt>
      <trkpt lat="43.72247" lon="1.46788">
        <ele>155.5</ele>
      </trkpt>
      <trkpt lat="43.72291" lon="1.46747">
        <ele>154.7</ele>
      </trkpt>
      <trkpt lat="43.72323" lon="1.4668">
        <ele>203.734709</ele>
        <time>2022-04-29T14:00:57.082Z</time>
      </trkpt>
      <trkpt lat="43.72315" lon="1.46674">
        <ele>204.385088</ele>
        <time>2022-04-29T14:01:00.077Z</time>
      </trkpt>
      <trkpt lat="43.72307" lon="1.46667">
        <ele>205.106241</ele>
        <time>2022-04-29T14:01:04.067Z</time>
      </trkpt>
      <trkpt lat="43.72298" lon="1.46659">
        <ele>205.846035</ele>
        <time>2022-04-29T14:01:07.067Z</time>
      </trkpt>
      <trkpt lat="43.7229" lon="1.46653">
        <ele>206.49702</ele>
        <time>2022-04-29T14:01:10.069Z</time>
      </trkpt>
      <trkpt lat="43.72281" lon="1.46645">
        <ele>207.292917</ele>
        <time>2022-04-29T14:01:14.071Z</time>
      </trkpt>
      <trkpt lat="43.7227" lon="1.4664">
        <ele>208.080931</ele>
        <time>2022-04-29T14:01:18.078Z</time>
      </trkpt>
      <trkpt lat="43.72261" lon="1.46634">
        <ele>208.836958</ele>
        <time>2022-04-29T14:01:21.084Z</time>
      </trkpt>
      <trkpt lat="43.7225" lon="1.46627">
        <ele>209.717447</ele>
        <time>2022-04-29T14:01:24.074Z</time>
      </trkpt>
      <trkpt lat="43.72239" lon="1.46621">
        <ele>210.544952</ele>
        <time>2022-04-29T14:01:27.064Z</time>
      </trkpt>
      <trkpt lat="43.72227" lon="1.46617">
        <ele>211.416036</ele>
        <time>2022-04-29T14:01:30.086Z</time>
      </trkpt>
      <trkpt lat="43.72217" lon="1.46614">
        <ele>212.193155</ele>
        <time>2022-04-29T14:01:33.088Z</time>
      </trkpt>
      <trkpt lat="43.72205" lon="1.46611">
        <ele>213.038913</ele>
        <time>2022-04-29T14:01:36.077Z</time>
      </trkpt>
      <trkpt lat="43.72195" lon="1.46608">
        <ele>213.839475</ele>
        <time>2022-04-29T14:01:39.088Z</time>
      </trkpt>
      <trkpt lat="43.72184" lon="1.46605">
        <ele>214.631828</ele>
        <time>2022-04-29T14:01:42.083Z</time>
      </trkpt>
      <trkpt lat="43.72173" lon="1.46603">
        <ele>215.427802</ele>
        <time>2022-04-29T14:01:45.071Z</time>
      </trkpt>
      <trkpt lat="43.72166" lon="1.46594">
        <ele>216.145193</ele>
        <time>2022-04-29T14:01:49.074Z</time>
      </trkpt>
      <trkpt lat="43.72168" lon="1.46581">
        <ele>216.592982</ele>
        <time>2022-04-29T14:01:51.072Z</time>
      </trkpt>
      <trkpt lat="43.72172" lon="1.46568">
        <ele>216.199212</ele>
        <time>2022-04-29T14:01:53.060Z</time>
      </trkpt>
      <trkpt lat="43.72178" lon="1.46554">
        <ele>215.781241</ele>
        <time>2022-04-29T14:01:55.077Z</time>
      </trkpt>
      <trkpt lat="43.72184" lon="1.46541">
        <ele>215.348206</ele>
        <time>2022-04-29T14:01:57.066Z</time>
      </trkpt>
      <trkpt lat="43.72191" lon="1.46527">
        <ele>214.891539</ele>
        <time>2022-04-29T14:01:59.095Z</time>
      </trkpt>
      <trkpt lat="43.72198" lon="1.46512">
        <ele>214.408084</ele>
        <time>2022-04-29T14:02:01.095Z</time>
      </trkpt>
      <trkpt lat="43.72205" lon="1.46497">
        <ele>213.926138</ele>
        <time>2022-04-29T14:02:03.069Z</time>
      </trkpt>
      <trkpt lat="43.72211" lon="1.46483">
        <ele>213.485973</ele>
        <time>2022-04-29T14:02:05.075Z</time>
      </trkpt>
      <trkpt lat="43.72224" lon="1.46479">
        <ele>212.989862</ele>
        <time>2022-04-29T14:02:08.078Z</time>
      </trkpt>
      <trkpt lat="43.72234" lon="1.46484">
        <ele>212.590195</ele>
        <time>2022-04-29T14:02:10.069Z</time>
      </trkpt>
      <trkpt lat="43.72245" lon="1.46493">
        <ele>212.12291</ele>
        <time>2022-04-29T14:02:12.086Z</time>
      </trkpt>
      <trkpt lat="43.72253" lon="1.465">
        <ele>211.751348</ele>
        <time>2022-04-29T14:02:14.057Z</time>
      </trkpt>
      <trkpt lat="43.72262" lon="1.46505">
        <ele>211.403215</ele>
        <time>2022-04-29T14:02:16.059Z</time>
      </trkpt>
      <trkpt lat="43.72272" lon="1.46517">
        <ele>210.904882</ele>
        <time>2022-04-29T14:02:19.040Z</time>
      </trkpt>
      <trkpt lat="43.7228" lon="1.46526">
        <ele>210.499955</ele>
        <time>2022-04-29T14:02:21.084Z</time>
      </trkpt>
      <trkpt lat="43.72288" lon="1.46534">
        <ele>210.133136</ele>
        <time>2022-04-29T14:02:23.081Z</time>
      </trkpt>
      <trkpt lat="43.72299" lon="1.46542">
        <ele>209.647041</ele>
        <time>2022-04-29T14:02:25.070Z</time>
      </trkpt>
      <trkpt lat="43.72312" lon="1.46551">
        <ele>209.037685</ele>
        <time>2022-04-29T14:02:27.052Z</time>
      </trkpt>
      <trkpt lat="43.72322" lon="1.46563">
        <ele>208.46353</ele>
        <time>2022-04-29T14:02:29.069Z</time>
      </trkpt>
      <trkpt lat="43.72332" lon="1.46567">
        <ele>208.018683</ele>
        <time>2022-04-29T14:02:32.063Z</time>
      </trkpt>
      <trkpt lat="43.72345" lon="1.46566">
        <ele>207.489065</ele>
        <time>2022-04-29T14:02:35.077Z</time>
      </trkpt>
      <trkpt lat="43.72353" lon="1.46553">
        <ele>206.957701</ele>
        <time>2022-04-29T14:02:38.070Z</time>
      </trkpt>
      <trkpt lat="43.72358" lon="1.46538">
        <ele>206.458492</ele>
        <time>2022-04-29T14:02:41.054Z</time>
      </trkpt>
      <trkpt lat="43.72361" lon="1.46526">
        <ele>206.059863</ele>
        <time>2022-04-29T14:02:43.062Z</time>
      </trkpt>
      <trkpt lat="43.72364" lon="1.46495">
        <ele>205.10579</ele>
        <time>2022-04-29T14:03:18.068Z</time>
      </trkpt>
      <trkpt lat="43.72364" lon="1.46479">
        <ele>204.60393</ele>
        <time>2022-04-29T14:03:22.062Z</time>
      </trkpt>
      <trkpt lat="43.72362" lon="1.46467">
        <ele>204.219148</ele>
        <time>2022-04-29T14:03:26.047Z</time>
      </trkpt>
      <trkpt lat="43.72363" lon="1.46451">
        <ele>203.726898</ele>
        <time>2022-04-29T14:03:30.042Z</time>
      </trkpt>
      <trkpt lat="43.72361" lon="1.46436">
        <ele>203.263783</ele>
        <time>2022-04-29T14:03:35.048Z</time>
      </trkpt>
      <trkpt lat="43.72359" lon="1.46423">
        <ele>202.868537</ele>
        <time>2022-04-29T14:03:38.043Z</time>
      </trkpt>
      <trkpt lat="43.72355" lon="1.46408">
        <ele>202.381971</ele>
        <time>2022-04-29T14:03:42.069Z</time>
      </trkpt>
      <trkpt lat="43.7235" lon="1.46396">
        <ele>202.387897</ele>
        <time>2022-04-29T14:03:45.059Z</time>
      </trkpt>
      <trkpt lat="43.72346" lon="1.46385">
        <ele>202.471791</ele>
        <time>2022-04-29T14:03:48.068Z</time>
      </trkpt>
      <trkpt lat="43.72343" lon="1.46373">
        <ele>202.557813</ele>
        <time>2022-04-29T14:03:51.042Z</time>
      </trkpt>
      <trkpt lat="43.72342" lon="1.46358">
        <ele>202.654749</ele>
        <time>2022-04-29T14:03:54.065Z</time>
      </trkpt>
      <trkpt lat="43.7234" lon="1.46342">
        <ele>202.76533</ele>
        <time>2022-04-29T14:03:58.063Z</time>
      </trkpt>
      <trkpt lat="43.72339" lon="1.46326">
        <ele>202.871282</ele>
        <time>2022-04-29T14:04:01.065Z</time>
      </trkpt>
      <trkpt lat="43.72336" lon="1.46308">
        <ele>202.98889</ele>
        <time>2022-04-29T14:04:04.046Z</time>
      </trkpt>
      <trkpt lat="43.72333" lon="1.46295">
        <ele>203.08613</ele>
        <time>2022-04-29T14:04:07.067Z</time>
      </trkpt>
      <trkpt lat="43.72325" lon="1.46283">
        <ele>203.190928</ele>
        <time>2022-04-29T14:04:11.055Z</time>
      </trkpt>
      <trkpt lat="43.72319" lon="1.4627">
        <ele>203.293426</ele>
        <time>2022-04-29T14:04:15.088Z</time>
      </trkpt>
      <trkpt lat="43.72315" lon="1.46253">
        <ele>203.411609</ele>
        <time>2022-04-29T14:04:29.073Z</time>
      </trkpt>
      <trkpt lat="43.72313" lon="1.46237">
        <ele>203.521692</ele>
        <time>2022-04-29T14:04:32.054Z</time>
      </trkpt>
      <trkpt lat="43.72313" lon="1.46223">
        <ele>203.610786</ele>
        <time>2022-04-29T14:04:35.057Z</time>
      </trkpt>
      <trkpt lat="43.72313" lon="1.46207">
        <ele>203.719196</ele>
        <time>2022-04-29T14:04:38.063Z</time>
      </trkpt>
      <trkpt lat="43.72314" lon="1.46192">
        <ele>203.820407</ele>
        <time>2022-04-29T14:04:41.055Z</time>
      </trkpt>
      <trkpt lat="43.72314" lon="1.46179">
        <ele>203.903598</ele>
        <time>2022-04-29T14:04:45.056Z</time>
      </trkpt>
      <trkpt lat="43.72316" lon="1.46162">
        <ele>203.969554</ele>
        <time>2022-04-29T14:04:50.051Z</time>
      </trkpt>
      <trkpt lat="43.72316" lon="1.46148">
        <ele>203.975443</ele>
        <time>2022-04-29T14:04:54.049Z</time>
      </trkpt>
      <trkpt lat="43.72315" lon="1.46134">
        <ele>203.981384</ele>
        <time>2022-04-29T14:04:57.052Z</time>
      </trkpt>
      <trkpt lat="43.72315" lon="1.4612">
        <ele>203.987283</ele>
        <time>2022-04-29T14:05:00.058Z</time>
      </trkpt>
      <trkpt lat="43.72314" lon="1.46107">
        <ele>203.99284</ele>
        <time>2022-04-29T14:05:02.053Z</time>
      </trkpt>
      <trkpt lat="43.72314" lon="1.46092">
        <ele>203.999402</ele>
        <time>2022-04-29T14:05:04.055Z</time>
      </trkpt>
      <trkpt lat="43.72312" lon="1.46078">
        <ele>204.005169</ele>
        <time>2022-04-29T14:05:06.048Z</time>
      </trkpt>
      <trkpt lat="43.72311" lon="1.46064">
        <ele>204.011109</ele>
        <time>2022-04-29T14:05:08.049Z</time>
      </trkpt>
      <trkpt lat="43.72308" lon="1.4605">
        <ele>204.017204</ele>
        <time>2022-04-29T14:05:10.072Z</time>
      </trkpt>
      <trkpt lat="43.72305" lon="1.46037">
        <ele>204.023066</ele>
        <time>2022-04-29T14:05:12.055Z</time>
      </trkpt>
      <trkpt lat="43.72301" lon="1.46026">
        <ele>204.028383</ele>
        <time>2022-04-29T14:05:14.067Z</time>
      </trkpt>
      <trkpt lat="43.72297" lon="1.46012">
        <ele>204.034515</ele>
        <time>2022-04-29T14:05:16.074Z</time>
      </trkpt>
      <trkpt lat="43.72295" lon="1.45997">
        <ele>204.040972</ele>
        <time>2022-04-29T14:05:19.074Z</time>
      </trkpt>
      <trkpt lat="43.72293" lon="1.45984">
        <ele>204.046719</ele>
        <time>2022-04-29T14:05:22.060Z</time>
      </trkpt>
      <trkpt lat="43.7229" lon="1.4597">
        <ele>204.052626</ele>
        <time>2022-04-29T14:05:25.089Z</time>
      </trkpt>
      <trkpt lat="43.72284" lon="1.45956">
        <ele>204.059407</ele>
        <time>2022-04-29T14:05:27.049Z</time>
      </trkpt>
      <trkpt lat="43.72278" lon="1.45946">
        <ele>204.064899</ele>
        <time>2022-04-29T14:05:29.047Z</time>
      </trkpt>
      <trkpt lat="43.72268" lon="1.45936">
        <ele>204.161806</ele>
        <time>2022-04-29T14:05:32.055Z</time>
      </trkpt>
      <trkpt lat="43.72255" lon="1.45926">
        <ele>204.89197</ele>
        <time>2022-04-29T14:05:40.046Z</time>
      </trkpt>
      <trkpt lat="43.72256" lon="1.45913">
        <ele>205.331469</ele>
        <time>2022-04-29T14:05:48.036Z</time>
      </trkpt>
      <trkpt lat="43.72242" lon="1.45922">
        <ele>206.106102</ele>
        <time>2022-04-29T14:06:24.050Z</time>
      </trkpt>
      <trkpt lat="43.72233" lon="1.45928">
        <ele>206.58477</ele>
        <time>2022-04-29T14:06:27.055Z</time>
      </trkpt>
      <trkpt lat="43.72225" lon="1.45932">
        <ele>207.034582</ele>
        <time>2022-04-29T14:06:30.057Z</time>
      </trkpt>
      <trkpt lat="43.72224" lon="1.45926">
        <ele>210.89436</ele>
        <time>2022-04-29T14:09:48.055Z</time>
      </trkpt>
      <trkpt lat="43.72204" lon="1.45838">
        <ele>211.778751</ele>
        <time>2022-04-29T14:10:30.055Z</time>
      </trkpt>
      <trkpt lat="43.72196" lon="1.45828">
        <ele>211.885413</ele>
        <time>2022-04-29T14:10:34.052Z</time>
      </trkpt>
      <trkpt lat="43.7219" lon="1.45816">
        <ele>211.989138</ele>
        <time>2022-04-29T14:10:37.049Z</time>
      </trkpt>
      <trkpt lat="43.72182" lon="1.45807">
        <ele>212.08661</ele>
        <time>2022-04-29T14:10:40.055Z</time>
      </trkpt>
      <trkpt lat="43.72176" lon="1.45796">
        <ele>212.210711</ele>
        <time>2022-04-29T14:10:44.073Z</time>
      </trkpt>
      <trkpt lat="43.72173" lon="1.45781">
        <ele>212.658688</ele>
        <time>2022-04-29T14:10:48.077Z</time>
      </trkpt>
      <trkpt lat="43.72169" lon="1.45769">
        <ele>213.031578</ele>
        <time>2022-04-29T14:11:06.065Z</time>
      </trkpt>
      <trkpt lat="43.72166" lon="1.45743">
        <ele>213.817123</ele>
        <time>2022-04-29T14:11:48.056Z</time>
      </trkpt>
      <trkpt lat="43.72165" lon="1.4573">
        <ele>214.209967</ele>
        <time>2022-04-29T14:11:52.073Z</time>
      </trkpt>
      <trkpt lat="43.72162" lon="1.45715">
        <ele>214.646933</ele>
        <time>2022-04-29T14:11:56.059Z</time>
      </trkpt>
      <trkpt lat="43.72158" lon="1.45702">
        <ele>215.059591</ele>
        <time>2022-04-29T14:12:00.063Z</time>
      </trkpt>
      <trkpt lat="43.72159" lon="1.45688">
        <ele>215.462364</ele>
        <time>2022-04-29T14:12:04.056Z</time>
      </trkpt>
      <trkpt lat="43.72158" lon="1.45675">
        <ele>215.872285</ele>
        <time>2022-04-29T14:12:08.053Z</time>
      </trkpt>
      <trkpt lat="43.72153" lon="1.45661">
        <ele>216.310883</ele>
        <time>2022-04-29T14:12:12.054Z</time>
      </trkpt>
      <trkpt lat="43.72143" lon="1.45649">
        <ele>216.846149</ele>
        <time>2022-04-29T14:12:15.064Z</time>
      </trkpt>
      <trkpt lat="43.72137" lon="1.45636">
        <ele>217.308738</ele>
        <time>2022-04-29T14:12:18.068Z</time>
      </trkpt>
      <trkpt lat="43.72134" lon="1.45622">
        <ele>217.726865</ele>
        <time>2022-04-29T14:12:21.054Z</time>
      </trkpt>
      <trkpt lat="43.72139" lon="1.45611">
        <ele>218.116933</ele>
        <time>2022-04-29T14:12:26.061Z</time>
      </trkpt>
      <trkpt lat="43.72144" lon="1.45596">
        <ele>218.606055</ele>
        <time>2022-04-29T14:12:30.062Z</time>
      </trkpt>
      <trkpt lat="43.72141" lon="1.45584">
        <ele>218.993873</ele>
        <time>2022-04-29T14:12:42.071Z</time>
      </trkpt>
      <trkpt lat="43.72134" lon="1.45571">
        <ele>219.469574</ele>
        <time>2022-04-29T14:12:49.060Z</time>
      </trkpt>
      <trkpt lat="43.72132" lon="1.45554">
        <ele>219.44235</ele>
        <time>2022-04-29T14:12:53.082Z</time>
      </trkpt>
      <trkpt lat="43.7213" lon="1.45542">
        <ele>219.404476</ele>
        <time>2022-04-29T14:12:56.060Z</time>
      </trkpt>
      <trkpt lat="43.72126" lon="1.45529">
        <ele>219.362713</ele>
        <time>2022-04-29T14:13:00.045Z</time>
      </trkpt>
      <trkpt lat="43.72122" lon="1.45518">
        <ele>219.324505</ele>
        <time>2022-04-29T14:13:03.049Z</time>
      </trkpt>
      <trkpt lat="43.72119" lon="1.45505">
        <ele>219.284433</ele>
        <time>2022-04-29T14:13:06.046Z</time>
      </trkpt>
      <trkpt lat="43.72114" lon="1.45495">
        <ele>219.245724</ele>
        <time>2022-04-29T14:13:10.061Z</time>
      </trkpt>
      <trkpt lat="43.72107" lon="1.45486">
        <ele>219.205919</ele>
        <time>2022-04-29T14:13:14.062Z</time>
      </trkpt>
      <trkpt lat="43.72101" lon="1.45474">
        <ele>219.161888</ele>
        <time>2022-04-29T14:13:18.064Z</time>
      </trkpt>
      <trkpt lat="43.72092" lon="1.45469">
        <ele>219.119444</ele>
        <time>2022-04-29T14:13:24.041Z</time>
      </trkpt>
      <trkpt lat="43.72082" lon="1.45465">
        <ele>219.076818</ele>
        <time>2022-04-29T14:13:30.065Z</time>
      </trkpt>
      <trkpt lat="43.72076" lon="1.45453">
        <ele>219.033026</ele>
        <time>2022-04-29T14:13:33.091Z</time>
      </trkpt>
      <trkpt lat="43.72067" lon="1.45447">
        <ele>218.993074</ele>
        <time>2022-04-29T14:13:36.050Z</time>
      </trkpt>
      <trkpt lat="43.72058" lon="1.45445">
        <ele>218.952946</ele>
        <time>2022-04-29T14:13:40.045Z</time>
      </trkpt>
      <trkpt lat="43.72048" lon="1.4545">
        <ele>218.909217</ele>
        <time>2022-04-29T14:13:46.070Z</time>
      </trkpt>
      <trkpt lat="43.72039" lon="1.45445">
        <ele>218.870604</ele>
        <time>2022-04-29T14:13:49.064Z</time>
      </trkpt>
      <trkpt lat="43.72031" lon="1.45436">
        <ele>218.829734</ele>
        <time>2022-04-29T14:13:53.067Z</time>
      </trkpt>
      <trkpt lat="43.72029" lon="1.45424">
        <ele>218.7904</ele>
        <time>2022-04-29T14:13:59.055Z</time>
      </trkpt>
      <trkpt lat="43.72021" lon="1.45416">
        <ele>218.750387</ele>
        <time>2022-04-29T14:14:07.060Z</time>
      </trkpt>
      <trkpt lat="43.72011" lon="1.45413">
        <ele>218.625195</ele>
        <time>2022-04-29T14:14:13.060Z</time>
      </trkpt>
      <trkpt lat="43.72" lon="1.45414">
        <ele>218.445505</ele>
        <time>2022-04-29T14:14:17.049Z</time>
      </trkpt>
      <trkpt lat="43.71989" lon="1.45416">
        <ele>218.265815</ele>
        <time>2022-04-29T14:14:21.070Z</time>
      </trkpt>
      <trkpt lat="43.71978" lon="1.45417">
        <ele>218.089504</ele>
        <time>2022-04-29T14:14:25.069Z</time>
      </trkpt>
      <trkpt lat="43.71967" lon="1.45418">
        <ele>217.92133</ele>
        <time>2022-04-29T14:14:29.055Z</time>
      </trkpt>
      <trkpt lat="43.71957" lon="1.45423">
        <ele>217.75143</ele>
        <time>2022-04-29T14:14:34.066Z</time>
      </trkpt>
      <trkpt lat="43.71948" lon="1.45428">
        <ele>217.588799</ele>
        <time>2022-04-29T14:14:38.103Z</time>
      </trkpt>
      <trkpt lat="43.71938" lon="1.4543">
        <ele>217.435424</ele>
        <time>2022-04-29T14:14:43.081Z</time>
      </trkpt>
      <trkpt lat="43.7193" lon="1.45434">
        <ele>217.290451</ele>
        <time>2022-04-29T14:14:47.069Z</time>
      </trkpt>
      <trkpt lat="43.71921" lon="1.45437">
        <ele>217.145633</ele>
        <time>2022-04-29T14:14:50.073Z</time>
      </trkpt>
      <trkpt lat="43.71911" lon="1.45437">
        <ele>216.988974</ele>
        <time>2022-04-29T14:14:53.063Z</time>
      </trkpt>
      <trkpt lat="43.71901" lon="1.45443">
        <ele>216.815266</ele>
        <time>2022-04-29T14:14:58.060Z</time>
      </trkpt>
      <trkpt lat="43.71894" lon="1.45452">
        <ele>216.656915</ele>
        <time>2022-04-29T14:15:02.069Z</time>
      </trkpt>
      <trkpt lat="43.71883" lon="1.45458">
        <ele>216.476</ele>
        <time>2022-04-29T14:15:06.074Z</time>
      </trkpt>
      <trkpt lat="43.71876" lon="1.45469">
        <ele>216.303714</ele>
        <time>2022-04-29T14:15:10.069Z</time>
      </trkpt>
      <trkpt lat="43.71868" lon="1.4548">
        <ele>216.126866</ele>
        <time>2022-04-29T14:15:13.082Z</time>
      </trkpt>
      <trkpt lat="43.71865" lon="1.45491">
        <ele>215.981824</ele>
        <time>2022-04-29T14:15:16.059Z</time>
      </trkpt>
      <trkpt lat="43.71861" lon="1.45505">
        <ele>215.978424</ele>
        <time>2022-04-29T14:15:20.058Z</time>
      </trkpt>
      <trkpt lat="43.71852" lon="1.45512">
        <ele>216.322761</ele>
        <time>2022-04-29T14:15:25.063Z</time>
      </trkpt>
      <trkpt lat="43.71843" lon="1.45515">
        <ele>216.63705</ele>
        <time>2022-04-29T14:15:28.072Z</time>
      </trkpt>
      <trkpt lat="43.71823" lon="1.4551">
        <ele>217.343461</ele>
        <time>2022-04-29T14:15:48.100Z</time>
      </trkpt>
      <trkpt lat="43.71813" lon="1.45514">
        <ele>217.704807</ele>
        <time>2022-04-29T14:15:54.060Z</time>
      </trkpt>
      <trkpt lat="43.71805" lon="1.45507">
        <ele>218.040597</ele>
        <time>2022-04-29T14:15:59.068Z</time>
      </trkpt>
      <trkpt lat="43.71797" lon="1.45497">
        <ele>218.418375</ele>
        <time>2022-04-29T14:16:03.064Z</time>
      </trkpt>
      <trkpt lat="43.71789" lon="1.45491">
        <ele>218.730638</ele>
        <time>2022-04-29T14:16:15.065Z</time>
      </trkpt>
      <trkpt lat="43.71788" lon="1.45478">
        <ele>219.047976</ele>
        <time>2022-04-29T14:16:22.078Z</time>
      </trkpt>
      <trkpt lat="43.71787" lon="1.45462">
        <ele>219.474374</ele>
        <time>2022-04-29T14:16:27.082Z</time>
      </trkpt>
      <trkpt lat="43.71793" lon="1.45449">
        <ele>219.854651</ele>
        <time>2022-04-29T14:16:32.073Z</time>
      </trkpt>
      <trkpt lat="43.718" lon="1.45437">
        <ele>220.22489</ele>
        <time>2022-04-29T14:16:37.082Z</time>
      </trkpt>
      <trkpt lat="43.71801" lon="1.45425">
        <ele>220.544005</ele>
        <time>2022-04-29T14:16:41.077Z</time>
      </trkpt>
      <trkpt lat="43.71804" lon="1.4541">
        <ele>220.924871</ele>
        <time>2022-04-29T14:16:46.078Z</time>
      </trkpt>
      <trkpt lat="43.71806" lon="1.45398">
        <ele>221.246842</ele>
        <time>2022-04-29T14:16:50.065Z</time>
      </trkpt>
      <trkpt lat="43.71811" lon="1.45386">
        <ele>221.582934</ele>
        <time>2022-04-29T14:16:54.053Z</time>
      </trkpt>
      <trkpt lat="43.71817" lon="1.45375">
        <ele>221.928658</ele>
        <time>2022-04-29T14:16:58.077Z</time>
      </trkpt>
      <trkpt lat="43.71825" lon="1.45365">
        <ele>221.864895</ele>
        <time>2022-04-29T14:17:03.081Z</time>
      </trkpt>
      <trkpt lat="43.7183" lon="1.45354">
        <ele>221.500855</ele>
        <time>2022-04-29T14:17:09.067Z</time>
      </trkpt>
      <trkpt lat="43.71832" lon="1.45341">
        <ele>221.110394</ele>
        <time>2022-04-29T14:17:15.069Z</time>
      </trkpt>
      <trkpt lat="43.7183" lon="1.45328">
        <ele>220.736385</ele>
        <time>2022-04-29T14:17:22.068Z</time>
      </trkpt>
      <trkpt lat="43.71839" lon="1.45321">
        <ele>220.32623</ele>
        <time>2022-04-29T14:17:31.057Z</time>
      </trkpt>
      <trkpt lat="43.71847" lon="1.45312">
        <ele>219.942</ele>
        <time>2022-04-29T14:17:37.085Z</time>
      </trkpt>
      <trkpt lat="43.71856" lon="1.45306">
        <ele>219.535592</ele>
        <time>2022-04-29T14:19:10.072Z</time>
      </trkpt>
      <trkpt lat="43.71871" lon="1.4531">
        <ele>218.931574</ele>
        <time>2022-04-29T14:21:35.053Z</time>
      </trkpt>
      <trkpt lat="43.71876" lon="1.45323">
        <ele>218.501522</ele>
        <time>2022-04-29T14:21:40.076Z</time>
      </trkpt>
      <trkpt lat="43.71882" lon="1.45334">
        <ele>218.119857</ele>
        <time>2022-04-29T14:21:44.060Z</time>
      </trkpt>
      <trkpt lat="43.71887" lon="1.45346">
        <ele>217.701213</ele>
        <time>2022-04-29T14:21:50.097Z</time>
      </trkpt>
      <trkpt lat="43.71891" lon="1.45359">
        <ele>217.316833</ele>
        <time>2022-04-29T14:21:56.094Z</time>
      </trkpt>
      <trkpt lat="43.71895" lon="1.4537">
        <ele>216.947358</ele>
        <time>2022-04-29T14:22:00.063Z</time>
      </trkpt>
      <trkpt lat="43.71902" lon="1.45382">
        <ele>216.511727</ele>
        <time>2022-04-29T14:22:04.068Z</time>
      </trkpt>
      <trkpt lat="43.71911" lon="1.45387">
        <ele>216.15362</ele>
        <time>2022-04-29T14:22:09.059Z</time>
      </trkpt>
      <trkpt lat="43.71928" lon="1.454">
        <ele>215.379213</ele>
        <time>2022-04-29T14:24:30.086Z</time>
      </trkpt>
      <trkpt lat="43.71937" lon="1.454">
        <ele>215.021872</ele>
        <time>2022-04-29T14:24:35.078Z</time>
      </trkpt>
      <trkpt lat="43.71945" lon="1.45398">
        <ele>215.229716</ele>
        <time>2022-04-29T14:24:38.097Z</time>
      </trkpt>
      <trkpt lat="43.71957" lon="1.45393">
        <ele>215.61976</ele>
        <time>2022-04-29T14:24:42.060Z</time>
      </trkpt>
      <trkpt lat="43.71966" lon="1.45389">
        <ele>215.94763</ele>
        <time>2022-04-29T14:24:46.073Z</time>
      </trkpt>
      <trkpt lat="43.71975" lon="1.45385">
        <ele>216.274485</ele>
        <time>2022-04-29T14:24:50.085Z</time>
      </trkpt>
      <trkpt lat="43.71985" lon="1.4538">
        <ele>216.6321</ele>
        <time>2022-04-29T14:24:55.073Z</time>
      </trkpt>
      <trkpt lat="43.71996" lon="1.45374">
        <ele>217.007669</ele>
        <time>2022-04-29T14:25:00.093Z</time>
      </trkpt>
      <trkpt lat="43.72003" lon="1.45366">
        <ele>217.330075</ele>
        <time>2022-04-29T14:25:04.065Z</time>
      </trkpt>
      <trkpt lat="43.72009" lon="1.45355">
        <ele>217.639313</ele>
        <time>2022-04-29T14:25:08.066Z</time>
      </trkpt>
      <trkpt lat="43.72011" lon="1.45343">
        <ele>217.950835</ele>
        <time>2022-04-29T14:25:13.060Z</time>
      </trkpt>
      <trkpt lat="43.72012" lon="1.45329">
        <ele>218.27972</ele>
        <time>2022-04-29T14:25:18.078Z</time>
      </trkpt>
      <trkpt lat="43.72013" lon="1.45316">
        <ele>218.603386</ele>
        <time>2022-04-29T14:25:22.097Z</time>
      </trkpt>
      <trkpt lat="43.72014" lon="1.45301">
        <ele>218.948967</ele>
        <time>2022-04-29T14:25:28.090Z</time>
      </trkpt>
      <trkpt lat="43.72011" lon="1.45288">
        <ele>219.288129</ele>
        <time>2022-04-29T14:25:32.075Z</time>
      </trkpt>
      <trkpt lat="43.72013" lon="1.45274">
        <ele>219.637487</ele>
        <time>2022-04-29T14:25:37.038Z</time>
      </trkpt>
      <trkpt lat="43.72016" lon="1.45257">
        <ele>220.048584</ele>
        <time>2022-04-29T14:25:41.071Z</time>
      </trkpt>
      <trkpt lat="43.72019" lon="1.45245">
        <ele>220.35978</ele>
        <time>2022-04-29T14:25:44.063Z</time>
      </trkpt>
      <trkpt lat="43.72028" lon="1.45241">
        <ele>220.659767</ele>
        <time>2022-04-29T14:25:48.064Z</time>
      </trkpt>
      <trkpt lat="43.72037" lon="1.45245">
        <ele>220.947846</ele>
        <time>2022-04-29T14:25:51.079Z</time>
      </trkpt>
      <trkpt lat="43.72047" lon="1.45247">
        <ele>220.473228</ele>
        <time>2022-04-29T14:25:54.071Z</time>
      </trkpt>
      <trkpt lat="43.72057" lon="1.45251">
        <ele>219.970609</ele>
        <time>2022-04-29T14:25:59.071Z</time>
      </trkpt>
      <trkpt lat="43.72066" lon="1.45257">
        <ele>219.458808</ele>
        <time>2022-04-29T14:26:12.121Z</time>
      </trkpt>
      <trkpt lat="43.72073" lon="1.45268">
        <ele>218.941706</ele>
        <time>2022-04-29T14:26:16.072Z</time>
      </trkpt>
      <trkpt lat="43.72078" lon="1.45282">
        <ele>218.378099</ele>
        <time>2022-04-29T14:26:20.073Z</time>
      </trkpt>
      <trkpt lat="43.72079" lon="1.45295">
        <ele>217.923665</ele>
        <time>2022-04-29T14:26:23.075Z</time>
      </trkpt>
      <trkpt lat="43.72079" lon="1.45311">
        <ele>217.332432</ele>
        <time>2022-04-29T14:26:27.087Z</time>
      </trkpt>
      <trkpt lat="43.7208" lon="1.45324">
        <ele>216.864372</ele>
        <time>2022-04-29T14:26:31.086Z</time>
      </trkpt>
      <trkpt lat="43.72082" lon="1.4534">
        <ele>216.296653</ele>
        <time>2022-04-29T14:26:36.065Z</time>
      </trkpt>
      <trkpt lat="43.72085" lon="1.45353">
        <ele>215.810709</ele>
        <time>2022-04-29T14:26:40.099Z</time>
      </trkpt>
      <trkpt lat="43.72094" lon="1.45353">
        <ele>215.362086</ele>
        <time>2022-04-29T14:26:45.081Z</time>
      </trkpt>
      <trkpt lat="43.72104" lon="1.4536">
        <ele>214.793469</ele>
        <time>2022-04-29T14:26:50.082Z</time>
      </trkpt>
      <trkpt lat="43.72111" lon="1.4537">
        <ele>214.330974</ele>
        <time>2022-04-29T14:26:53.075Z</time>
      </trkpt>
      <trkpt lat="43.7212" lon="1.4538">
        <ele>213.736481</ele>
        <time>2022-04-29T14:26:57.092Z</time>
      </trkpt>
      <trkpt lat="43.72131" lon="1.45385">
        <ele>213.177</ele>
        <time>2022-04-29T14:27:01.082Z</time>
      </trkpt>
      <trkpt lat="43.7214" lon="1.45387">
        <ele>212.724534</ele>
        <time>2022-04-29T14:27:05.065Z</time>
      </trkpt>
      <trkpt lat="43.72149" lon="1.45391">
        <ele>212.245917</ele>
        <time>2022-04-29T14:27:09.067Z</time>
      </trkpt>
      <trkpt lat="43.72158" lon="1.45397">
        <ele>212.001333</ele>
        <time>2022-04-29T14:27:13.068Z</time>
      </trkpt>
      <trkpt lat="43.72167" lon="1.45409">
        <ele>211.803377</ele>
        <time>2022-04-29T14:27:17.072Z</time>
      </trkpt>
      <trkpt lat="43.72173" lon="1.45422">
        <ele>211.629333</ele>
        <time>2022-04-29T14:27:21.076Z</time>
      </trkpt>
      <trkpt lat="43.72176" lon="1.45436">
        <ele>211.459053</ele>
        <time>2022-04-29T14:27:27.079Z</time>
      </trkpt>
      <trkpt lat="43.72179" lon="1.45448">
        <ele>211.305148</ele>
        <time>2022-04-29T14:27:31.061Z</time>
      </trkpt>
      <trkpt lat="43.72184" lon="1.45463">
        <ele>211.11975</ele>
        <time>2022-04-29T14:27:35.086Z</time>
      </trkpt>
      <trkpt lat="43.72187" lon="1.45475">
        <ele>210.974295</ele>
        <time>2022-04-29T14:27:38.077Z</time>
      </trkpt>
      <trkpt lat="43.72186" lon="1.45489">
        <ele>210.813136</ele>
        <time>2022-04-29T14:27:52.070Z</time>
      </trkpt>
      <trkpt lat="43.72188" lon="1.45501">
        <ele>210.667211</ele>
        <time>2022-04-29T14:27:55.059Z</time>
      </trkpt>
      <trkpt lat="43.72191" lon="1.45515">
        <ele>210.49582</ele>
        <time>2022-04-29T14:27:59.080Z</time>
      </trkpt>
      <trkpt lat="43.72192" lon="1.45529">
        <ele>210.335527</ele>
        <time>2022-04-29T14:28:03.050Z</time>
      </trkpt>
      <trkpt lat="43.72194" lon="1.45543">
        <ele>210.170419</ele>
        <time>2022-04-29T14:28:07.056Z</time>
      </trkpt>
      <trkpt lat="43.72198" lon="1.45557">
        <ele>209.99419</ele>
        <time>2022-04-29T14:28:11.067Z</time>
      </trkpt>
      <trkpt lat="43.72196" lon="1.45571">
        <ele>209.824472</ele>
        <time>2022-04-29T14:28:15.096Z</time>
      </trkpt>
      <trkpt lat="43.72195" lon="1.45585">
        <ele>209.666693</ele>
        <time>2022-04-29T14:28:19.074Z</time>
      </trkpt>
      <trkpt lat="43.72194" lon="1.45599">
        <ele>209.499592</ele>
        <time>2022-04-29T14:28:23.078Z</time>
      </trkpt>
      <trkpt lat="43.72195" lon="1.45613">
        <ele>209.342204</ele>
        <time>2022-04-29T14:28:33.061Z</time>
      </trkpt>
      <trkpt lat="43.72196" lon="1.45625">
        <ele>209.22291</ele>
        <time>2022-04-29T14:28:36.083Z</time>
      </trkpt>
      <trkpt lat="43.72197" lon="1.4564">
        <ele>209.172492</ele>
        <time>2022-04-29T14:28:39.102Z</time>
      </trkpt>
      <trkpt lat="43.72194" lon="1.45654">
        <ele>209.12249</ele>
        <time>2022-04-29T14:28:43.076Z</time>
      </trkpt>
      <trkpt lat="43.72195" lon="1.45669">
        <ele>209.072127</ele>
        <time>2022-04-29T14:28:47.073Z</time>
      </trkpt>
      <trkpt lat="43.72199" lon="1.45684">
        <ele>209.018677</ele>
        <time>2022-04-29T14:28:52.067Z</time>
      </trkpt>
      <trkpt lat="43.72201" lon="1.45698">
        <ele>208.968314</ele>
        <time>2022-04-29T14:28:56.065Z</time>
      </trkpt>
      <trkpt lat="43.72202" lon="1.45711">
        <ele>208.922492</ele>
        <time>2022-04-29T14:29:01.070Z</time>
      </trkpt>
      <trkpt lat="43.72205" lon="1.45728">
        <ele>208.865445</ele>
        <time>2022-04-29T14:29:05.073Z</time>
      </trkpt>
      <trkpt lat="43.72208" lon="1.4574">
        <ele>208.818823</ele>
        <time>2022-04-29T14:29:07.064Z</time>
      </trkpt>
      <trkpt lat="43.72212" lon="1.45754">
        <ele>208.767714</ele>
        <time>2022-04-29T14:29:10.070Z</time>
      </trkpt>
      <trkpt lat="43.72216" lon="1.4577">
        <ele>208.712868</ele>
        <time>2022-04-29T14:29:13.074Z</time>
      </trkpt>
      <trkpt lat="43.72214" lon="1.45782">
        <ele>208.669227</ele>
        <time>2022-04-29T14:29:17.067Z</time>
      </trkpt>
      <trkpt lat="43.72214" lon="1.45797">
        <ele>208.617961</ele>
        <time>2022-04-29T14:29:21.055Z</time>
      </trkpt>
      <trkpt lat="43.72217" lon="1.4581">
        <ele>208.571225</ele>
        <time>2022-04-29T14:29:28.093Z</time>
      </trkpt>
      <trkpt lat="43.72224" lon="1.45822">
        <ele>208.519578</ele>
        <time>2022-04-29T14:29:32.076Z</time>
      </trkpt>
      <trkpt lat="43.72229" lon="1.45833">
        <ele>208.47332</ele>
        <time>2022-04-29T14:29:36.086Z</time>
      </trkpt>
      <trkpt lat="43.7223" lon="1.45847">
        <ele>208.426307</ele>
        <time>2022-04-29T14:29:41.084Z</time>
      </trkpt>
      <trkpt lat="43.72229" lon="1.45859">
        <ele>208.38434</ele>
        <time>2022-04-29T14:29:45.077Z</time>
      </trkpt>
      <trkpt lat="43.7223" lon="1.45872">
        <ele>208.389242</ele>
        <time>2022-04-29T14:29:49.090Z</time>
      </trkpt>
      <trkpt lat="43.72236" lon="1.45883">
        <ele>208.394122</ele>
        <time>2022-04-29T14:29:54.061Z</time>
      </trkpt>
      <trkpt lat="43.72244" lon="1.45892">
        <ele>208.399568</ele>
        <time>2022-04-29T14:29:59.087Z</time>
      </trkpt>
      <trkpt lat="43.7225" lon="1.45902">
        <ele>208.404271</ele>
        <time>2022-04-29T14:30:05.070Z</time>
      </trkpt>
      <trkpt lat="43.72259" lon="1.45906">
        <ele>208.408959</ele>
        <time>2022-04-29T14:30:19.102Z</time>
      </trkpt>
      <trkpt lat="43.72269" lon="1.4591">
        <ele>208.414051</ele>
        <time>2022-04-29T14:30:26.073Z</time>
      </trkpt>
      <trkpt lat="43.72276" lon="1.4592">
        <ele>208.419323</ele>
        <time>2022-04-29T14:30:31.074Z</time>
      </trkpt>
      <trkpt lat="43.72285" lon="1.45928">
        <ele>208.424817</ele>
        <time>2022-04-29T14:30:35.058Z</time>
      </trkpt>
      <trkpt lat="43.72293" lon="1.45935">
        <ele>208.429512</ele>
        <time>2022-04-29T14:30:39.087Z</time>
      </trkpt>
      <trkpt lat="43.72303" lon="1.45931">
        <ele>208.434666</ele>
        <time>2022-04-29T14:30:45.049Z</time>
      </trkpt>
      <trkpt lat="43.72314" lon="1.45942">
        <ele>208.413217</ele>
        <time>2022-04-29T14:31:44.057Z</time>
      </trkpt>
      <trkpt lat="43.72322" lon="1.45952">
        <ele>208.264552</ele>
        <time>2022-04-29T14:31:50.038Z</time>
      </trkpt>
      <trkpt lat="43.72329" lon="1.45966">
        <ele>208.091916</ele>
        <time>2022-04-29T14:31:54.067Z</time>
      </trkpt>
      <trkpt lat="43.72334" lon="1.45978">
        <ele>207.954759</ele>
        <time>2022-04-29T14:31:59.058Z</time>
      </trkpt>
      <trkpt lat="43.72331" lon="1.45992">
        <ele>207.813525</ele>
        <time>2022-04-29T14:32:03.071Z</time>
      </trkpt>
      <trkpt lat="43.72325" lon="1.46004">
        <ele>207.66028</ele>
        <time>2022-04-29T14:32:06.051Z</time>
      </trkpt>
      <trkpt lat="43.72323" lon="1.46017">
        <ele>207.535814</ele>
        <time>2022-04-29T14:32:11.073Z</time>
      </trkpt>
      <trkpt lat="43.72322" lon="1.46031">
        <ele>207.388726</ele>
        <time>2022-04-29T14:32:16.057Z</time>
      </trkpt>
      <trkpt lat="43.72322" lon="1.46045">
        <ele>207.247945</ele>
        <time>2022-04-29T14:32:20.058Z</time>
      </trkpt>
      <trkpt lat="43.72322" lon="1.46058">
        <ele>207.118453</ele>
        <time>2022-04-29T14:32:23.063Z</time>
      </trkpt>
      <trkpt lat="43.72326" lon="1.46074">
        <ele>206.946533</ele>
        <time>2022-04-29T14:32:27.063Z</time>
      </trkpt>
      <trkpt lat="43.72328" lon="1.46086">
        <ele>206.818998</ele>
        <time>2022-04-29T14:32:30.064Z</time>
      </trkpt>
      <trkpt lat="43.72333" lon="1.46124">
        <ele>206.430778</ele>
        <time>2022-04-29T14:33:06.082Z</time>
      </trkpt>
      <trkpt lat="43.72338" lon="1.46136">
        <ele>206.299271</ele>
        <time>2022-04-29T14:33:09.076Z</time>
      </trkpt>
      <trkpt lat="43.7234" lon="1.46149">
        <ele>206.167118</ele>
        <time>2022-04-29T14:33:12.090Z</time>
      </trkpt>
      <trkpt lat="43.72343" lon="1.46161">
        <ele>206.041979</ele>
        <time>2022-04-29T14:33:14.052Z</time>
      </trkpt>
      <trkpt lat="43.7235" lon="1.46174">
        <ele>205.917967</ele>
        <time>2022-04-29T14:33:17.054Z</time>
      </trkpt>
      <trkpt lat="43.72354" lon="1.46186">
        <ele>205.835612</ele>
        <time>2022-04-29T14:33:20.055Z</time>
      </trkpt>
      <trkpt lat="43.72352" lon="1.46202">
        <ele>205.74138</ele>
        <time>2022-04-29T14:33:23.055Z</time>
      </trkpt>
      <trkpt lat="43.72348" lon="1.46217">
        <ele>205.649033</ele>
        <time>2022-04-29T14:33:25.064Z</time>
      </trkpt>
      <trkpt lat="43.72352" lon="1.46234">
        <ele>205.541495</ele>
        <time>2022-04-29T14:33:28.053Z</time>
      </trkpt>
      <trkpt lat="43.72358" lon="1.46246">
        <ele>205.459078</ele>
        <time>2022-04-29T14:33:30.050Z</time>
      </trkpt>
      <trkpt lat="43.72366" lon="1.46254">
        <ele>205.377305</ele>
        <time>2022-04-29T14:33:35.056Z</time>
      </trkpt>
      <trkpt lat="43.72373" lon="1.46264">
        <ele>205.292462</ele>
        <time>2022-04-29T14:33:40.055Z</time>
      </trkpt>
      <trkpt lat="43.72377" lon="1.46276">
        <ele>205.215965</ele>
        <time>2022-04-29T14:33:44.097Z</time>
      </trkpt>
      <trkpt lat="43.72379" lon="1.46293">
        <ele>205.1152</ele>
        <time>2022-04-29T14:33:47.076Z</time>
      </trkpt>
      <trkpt lat="43.72383" lon="1.46308">
        <ele>205.017081</ele>
        <time>2022-04-29T14:33:49.060Z</time>
      </trkpt>
      <trkpt lat="43.72385" lon="1.46322">
        <ele>204.933039</ele>
        <time>2022-04-29T14:33:51.050Z</time>
      </trkpt>
      <trkpt lat="43.72388" lon="1.46335">
        <ele>204.850207</ele>
        <time>2022-04-29T14:33:53.052Z</time>
      </trkpt>
      <trkpt lat="43.7239" lon="1.46355">
        <ele>204.73471</ele>
        <time>2022-04-29T14:33:56.075Z</time>
      </trkpt>
      <trkpt lat="43.72393" lon="1.4637">
        <ele>204.63954</ele>
        <time>2022-04-29T14:33:58.058Z</time>
      </trkpt>
      <trkpt lat="43.72396" lon="1.46388">
        <ele>204.53469</ele>
        <time>2022-04-29T14:34:00.055Z</time>
      </trkpt>
      <trkpt lat="43.72399" lon="1.46403">
        <ele>204.735502</ele>
        <time>2022-04-29T14:34:03.062Z</time>
      </trkpt>
      <trkpt lat="43.724" lon="1.46418">
        <ele>205.043909</ele>
        <time>2022-04-29T14:34:06.057Z</time>
      </trkpt>
      <trkpt lat="43.72402" lon="1.46432">
        <ele>205.34454</ele>
        <time>2022-04-29T14:34:10.050Z</time>
      </trkpt>
      <trkpt lat="43.72401" lon="1.46451">
        <ele>205.738139</ele>
        <time>2022-04-29T14:34:11.063Z</time>
      </trkpt>
      <trkpt lat="43.72405" lon="1.46464">
        <ele>206.030984</ele>
        <time>2022-04-29T14:34:13.051Z</time>
      </trkpt>
      <trkpt lat="43.72405" lon="1.4648">
        <ele>206.365546</ele>
        <time>2022-04-29T14:34:16.113Z</time>
      </trkpt>
      <trkpt lat="43.72405" lon="1.46497">
        <ele>206.729927</ele>
        <time>2022-04-29T14:34:18.054Z</time>
      </trkpt>
      <trkpt lat="43.72406" lon="1.46511">
        <ele>207.021181</ele>
        <time>2022-04-29T14:34:20.071Z</time>
      </trkpt>
      <trkpt lat="43.72409" lon="1.46526">
        <ele>207.337959</ele>
        <time>2022-04-29T14:34:23.060Z</time>
      </trkpt>
      <trkpt lat="43.72413" lon="1.46542">
        <ele>207.698497</ele>
        <time>2022-04-29T14:34:26.066Z</time>
      </trkpt>
      <trkpt lat="43.72417" lon="1.46554">
        <ele>207.976887</ele>
        <time>2022-04-29T14:34:29.062Z</time>
      </trkpt>
      <trkpt lat="43.72421" lon="1.46567">
        <ele>208.270231</ele>
        <time>2022-04-29T14:34:32.051Z</time>
      </trkpt>
      <trkpt lat="43.72425" lon="1.4658">
        <ele>208.560807</ele>
        <time>2022-04-29T14:34:36.056Z</time>
      </trkpt>
      <trkpt lat="43.72435" lon="1.46586">
        <ele>208.875011</ele>
        <time>2022-04-29T14:34:40.053Z</time>
      </trkpt>
      <trkpt lat="43.7244" lon="1.466">
        <ele>209.202661</ele>
        <time>2022-04-29T14:34:45.071Z</time>
      </trkpt>
      <trkpt lat="43.72446" lon="1.46612">
        <ele>209.499143</ele>
        <time>2022-04-29T14:34:49.064Z</time>
      </trkpt>
      <trkpt lat="43.72454" lon="1.46623">
        <ele>209.906092</ele>
        <time>2022-04-29T14:34:54.083Z</time>
      </trkpt>
      <trkpt lat="43.72454" lon="1.46638">
        <ele>210.466937</ele>
        <time>2022-04-29T14:34:57.063Z</time>
      </trkpt>
      <trkpt lat="43.72458" lon="1.46653">
        <ele>211.090539</ele>
        <time>2022-04-29T14:35:00.053Z</time>
      </trkpt>
      <trkpt lat="43.7246" lon="1.46668">
        <ele>211.65569</ele>
        <time>2022-04-29T14:35:02.075Z</time>
      </trkpt>
      <trkpt lat="43.72466" lon="1.46682">
        <ele>212.262798</ele>
        <time>2022-04-29T14:35:04.057Z</time>
      </trkpt>
      <trkpt lat="43.72475" lon="1.46686">
        <ele>212.730841</ele>
        <time>2022-04-29T14:35:06.060Z</time>
      </trkpt>
      <trkpt lat="43.72488" lon="1.46685">
        <ele>213.382814</ele>
        <time>2022-04-29T14:35:09.081Z</time>
      </trkpt>
      <trkpt lat="43.72497" lon="1.46686">
        <ele>213.864995</ele>
        <time>2022-04-29T14:35:13.071Z</time>
      </trkpt>
      <trkpt lat="43.7251" lon="1.46682">
        <ele>214.551383</ele>
        <time>2022-04-29T14:35:17.065Z</time>
      </trkpt>
      <trkpt lat="43.72519" lon="1.46674">
        <ele>215.108759</ele>
        <time>2022-04-29T14:35:19.064Z</time>
      </trkpt>
      <trkpt lat="43.72524" lon="1.46662">
        <ele>215.633905</ele>
        <time>2022-04-29T14:35:23.059Z</time>
      </trkpt>
      <trkpt lat="43.72533" lon="1.46657">
        <ele>216.112416</ele>
        <time>2022-04-29T14:35:27.062Z</time>
      </trkpt>
      <trkpt lat="43.72543" lon="1.46648">
        <ele>216.722095</ele>
        <time>2022-04-29T14:35:31.064Z</time>
      </trkpt>
      <trkpt lat="43.72547" lon="1.46637">
        <ele>217.193155</ele>
        <time>2022-04-29T14:35:35.062Z</time>
      </trkpt>
      <trkpt lat="43.72548" lon="1.46624">
        <ele>217.684617</ele>
        <time>2022-04-29T14:35:39.063Z</time>
      </trkpt>
      <trkpt lat="43.72553" lon="1.46612">
        <ele>218.203192</ele>
        <time>2022-04-29T14:35:44.062Z</time>
      </trkpt>
      <trkpt lat="43.72546" lon="1.46599">
        <ele>218.796731</ele>
        <time>2022-04-29T14:35:48.053Z</time>
      </trkpt>
      <trkpt lat="43.72542" lon="1.46587">
        <ele>219.109219</ele>
        <time>2022-04-29T14:35:52.044Z</time>
      </trkpt>
      <trkpt lat="43.72533" lon="1.46581">
        <ele>219.315867</ele>
        <time>2022-04-29T14:35:56.052Z</time>
      </trkpt>
      <trkpt lat="43.72523" lon="1.46574">
        <ele>219.534322</ele>
        <time>2022-04-29T14:36:00.056Z</time>
      </trkpt>
      <trkpt lat="43.72512" lon="1.46574">
        <ele>219.763934</ele>
        <time>2022-04-29T14:36:05.073Z</time>
      </trkpt>
      <trkpt lat="43.725" lon="1.46571">
        <ele>220.01031</ele>
        <time>2022-04-29T14:36:08.053Z</time>
      </trkpt>
      <trkpt lat="43.72493" lon="1.46558">
        <ele>220.239743</ele>
        <time>2022-04-29T14:36:11.058Z</time>
      </trkpt>
      <trkpt lat="43.7248" lon="1.46539">
        <ele>220.630313</ele>
        <time>2022-04-29T14:39:16.076Z</time>
      </trkpt>
      <trkpt lat="43.72474" lon="1.46524">
        <ele>220.891562</ele>
        <time>2022-04-29T14:39:19.054Z</time>
      </trkpt>
      <trkpt lat="43.72471" lon="1.46507">
        <ele>221.152751</ele>
        <time>2022-04-29T14:39:21.062Z</time>
      </trkpt>
      <trkpt lat="43.7247" lon="1.4649">
        <ele>221.398897</ele>
        <time>2022-04-29T14:39:23.065Z</time>
      </trkpt>
      <trkpt lat="43.72467" lon="1.46477">
        <ele>221.601633</ele>
        <time>2022-04-29T14:39:25.049Z</time>
      </trkpt>
      <trkpt lat="43.72461" lon="1.46468">
        <ele>221.788803</ele>
        <time>2022-04-29T14:39:27.059Z</time>
      </trkpt>
      <trkpt lat="43.7246" lon="1.46453">
        <ele>222.006934</ele>
        <time>2022-04-29T14:39:30.063Z</time>
      </trkpt>
      <trkpt lat="43.72463" lon="1.46439">
        <ele>222.220174</ele>
        <time>2022-04-29T14:39:32.057Z</time>
      </trkpt>
      <trkpt lat="43.72463" lon="1.46425">
        <ele>222.426146</ele>
        <time>2022-04-29T14:39:34.053Z</time>
      </trkpt>
      <trkpt lat="43.72463" lon="1.46413">
        <ele>222.614701</ele>
        <time>2022-04-29T14:39:36.074Z</time>
      </trkpt>
      <trkpt lat="43.72459" lon="1.46399">
        <ele>222.975162</ele>
        <time>2022-04-29T14:39:39.055Z</time>
      </trkpt>
      <trkpt lat="43.72454" lon="1.46385">
        <ele>223.406946</ele>
        <time>2022-04-29T14:39:41.065Z</time>
      </trkpt>
      <trkpt lat="43.72452" lon="1.46371">
        <ele>223.777773</ele>
        <time>2022-04-29T14:39:43.057Z</time>
      </trkpt>
      <trkpt lat="43.72454" lon="1.46354">
        <ele>224.238559</ele>
        <time>2022-04-29T14:39:46.060Z</time>
      </trkpt>
      <trkpt lat="43.72453" lon="1.46338">
        <ele>224.681008</ele>
        <time>2022-04-29T14:39:49.068Z</time>
      </trkpt>
      <trkpt lat="43.7245" lon="1.46321">
        <ele>225.161091</ele>
        <time>2022-04-29T14:39:52.059Z</time>
      </trkpt>
      <trkpt lat="43.72444" lon="1.46307">
        <ele>225.591877</ele>
        <time>2022-04-29T14:39:55.049Z</time>
      </trkpt>
      <trkpt lat="43.72437" lon="1.46296">
        <ele>225.989923</ele>
        <time>2022-04-29T14:39:57.054Z</time>
      </trkpt>
      <trkpt lat="43.7243" lon="1.46283">
        <ele>226.426907</ele>
        <time>2022-04-29T14:39:59.075Z</time>
      </trkpt>
      <trkpt lat="43.72426" lon="1.46269">
        <ele>226.830523</ele>
        <time>2022-04-29T14:40:01.070Z</time>
      </trkpt>
      <trkpt lat="43.72425" lon="1.46253">
        <ele>227.252354</ele>
        <time>2022-04-29T14:40:03.048Z</time>
      </trkpt>
      <trkpt lat="43.72421" lon="1.46238">
        <ele>227.688974</ele>
        <time>2022-04-29T14:40:06.060Z</time>
      </trkpt>
      <trkpt lat="43.7242" lon="1.46222">
        <ele>228.119514</ele>
        <time>2022-04-29T14:40:09.063Z</time>
      </trkpt>
      <trkpt lat="43.72421" lon="1.46209">
        <ele>228.465038</ele>
        <time>2022-04-29T14:40:12.053Z</time>
      </trkpt>
      <trkpt lat="43.7243" lon="1.46219">
        <ele>228.916483</ele>
        <time>2022-04-29T14:40:20.057Z</time>
      </trkpt>
      <trkpt lat="43.72436" lon="1.4623">
        <ele>229.25948</ele>
        <time>2022-04-29T14:40:23.059Z</time>
      </trkpt>
      <trkpt lat="43.72442" lon="1.46243">
        <ele>229.533602</ele>
        <time>2022-04-29T14:40:26.073Z</time>
      </trkpt>
      <trkpt lat="43.72449" lon="1.46256">
        <ele>229.760563</ele>
        <time>2022-04-29T14:40:30.053Z</time>
      </trkpt>
      <trkpt lat="43.72453" lon="1.46268">
        <ele>229.941051</ele>
        <time>2022-04-29T14:40:33.070Z</time>
      </trkpt>
      <trkpt lat="43.72458" lon="1.46282">
        <ele>230.167067</ele>
        <time>2022-04-29T14:40:36.083Z</time>
      </trkpt>
      <trkpt lat="43.72464" lon="1.46294">
        <ele>230.368881</ele>
        <time>2022-04-29T14:40:38.068Z</time>
      </trkpt>
      <trkpt lat="43.7247" lon="1.46306">
        <ele>230.590118</ele>
        <time>2022-04-29T14:40:41.077Z</time>
      </trkpt>
      <trkpt lat="43.72476" lon="1.46318">
        <ele>230.785138</ele>
        <time>2022-04-29T14:40:45.082Z</time>
      </trkpt>
      <trkpt lat="43.72482" lon="1.4633">
        <ele>231.000654</ele>
        <time>2022-04-29T14:40:50.043Z</time>
      </trkpt>
      <trkpt lat="43.72489" lon="1.46341">
        <ele>231.200504</ele>
        <time>2022-04-29T14:40:57.072Z</time>
      </trkpt>
      <trkpt lat="43.72491" lon="1.46356">
        <ele>231.409034</ele>
        <time>2022-04-29T14:41:03.075Z</time>
      </trkpt>
      <trkpt lat="43.72494" lon="1.46369">
        <ele>231.600151</ele>
        <time>2022-04-29T14:41:07.078Z</time>
      </trkpt>
      <trkpt lat="43.72495" lon="1.46385">
        <ele>231.833262</ele>
        <time>2022-04-29T14:41:11.087Z</time>
      </trkpt>
      <trkpt lat="43.72497" lon="1.464">
        <ele>232.054156</ele>
        <time>2022-04-29T14:41:16.071Z</time>
      </trkpt>
      <trkpt lat="43.72501" lon="1.46412">
        <ele>232.229138</ele>
        <time>2022-04-29T14:41:23.052Z</time>
      </trkpt>
      <trkpt lat="43.72504" lon="1.46427">
        <ele>232.45333</ele>
        <time>2022-04-29T14:41:27.083Z</time>
      </trkpt>
      <trkpt lat="43.72506" lon="1.46441">
        <ele>232.660939</ele>
        <time>2022-04-29T14:41:30.080Z</time>
      </trkpt>
      <trkpt lat="43.72505" lon="1.46456">
        <ele>232.867741</ele>
        <time>2022-04-29T14:41:33.064Z</time>
      </trkpt>
      <trkpt lat="43.72504" lon="1.4647">
        <ele>232.399416</ele>
        <time>2022-04-29T14:41:36.075Z</time>
      </trkpt>
      <trkpt lat="43.72502" lon="1.46485">
        <ele>231.871479</ele>
        <time>2022-04-29T14:41:39.045Z</time>
      </trkpt>
      <trkpt lat="43.725" lon="1.465">
        <ele>231.317739</ele>
        <time>2022-04-29T14:41:42.100Z</time>
      </trkpt>
      <trkpt lat="43.725" lon="1.46516">
        <ele>230.720641</ele>
        <time>2022-04-29T14:41:46.089Z</time>
      </trkpt>
      <trkpt lat="43.72506" lon="1.46533">
        <ele>230.066463</ele>
        <time>2022-04-29T14:41:49.068Z</time>
      </trkpt>
      <trkpt lat="43.72513" lon="1.46543">
        <ele>229.549991</ele>
        <time>2022-04-29T14:41:52.062Z</time>
      </trkpt>
      <trkpt lat="43.72525" lon="1.46548">
        <ele>228.933667</ele>
        <time>2022-04-29T14:41:55.069Z</time>
      </trkpt>
      <trkpt lat="43.72535" lon="1.46552">
        <ele>228.394561</ele>
        <time>2022-04-29T14:41:58.062Z</time>
      </trkpt>
      <trkpt lat="43.72548" lon="1.46552">
        <ele>227.778455</ele>
        <time>2022-04-29T14:42:01.072Z</time>
      </trkpt>
      <trkpt lat="43.72557" lon="1.46555">
        <ele>227.304367</ele>
        <time>2022-04-29T14:42:03.055Z</time>
      </trkpt>
      <trkpt lat="43.72566" lon="1.46558">
        <ele>226.824553</ele>
        <time>2022-04-29T14:42:05.061Z</time>
      </trkpt>
      <trkpt lat="43.72578" lon="1.46559">
        <ele>226.213677</ele>
        <time>2022-04-29T14:42:08.054Z</time>
      </trkpt>
      <trkpt lat="43.72589" lon="1.46562">
        <ele>225.67123</ele>
        <time>2022-04-29T14:42:12.043Z</time>
      </trkpt>
      <trkpt lat="43.72598" lon="1.46565">
        <ele>225.183848</ele>
        <time>2022-04-29T14:42:17.075Z</time>
      </trkpt>
      <trkpt lat="43.72596" lon="1.46585">
        <ele>224.475271</ele>
        <time>2022-04-29T14:42:34.062Z</time>
      </trkpt>
      <trkpt lat="43.7259" lon="1.46595">
        <ele>223.975891</ele>
        <time>2022-04-29T14:42:38.059Z</time>
      </trkpt>
      <trkpt lat="43.72584" lon="1.46606">
        <ele>223.53749</ele>
        <time>2022-04-29T14:42:41.055Z</time>
      </trkpt>
      <trkpt lat="43.72579" lon="1.4662">
        <ele>223.027051</ele>
        <time>2022-04-29T14:42:45.059Z</time>
      </trkpt>
      <trkpt lat="43.72573" lon="1.46634">
        <ele>222.510928</ele>
        <time>2022-04-29T14:42:49.052Z</time>
      </trkpt>
      <trkpt lat="43.72567" lon="1.46647">
        <ele>222.026003</ele>
        <time>2022-04-29T14:42:54.053Z</time>
      </trkpt>
      <trkpt lat="43.72561" lon="1.46658">
        <ele>221.580143</ele>
        <time>2022-04-29T14:42:58.053Z</time>
      </trkpt>
      <trkpt lat="43.72567" lon="1.46668">
        <ele>221.149784</ele>
        <time>2022-04-29T14:43:04.049Z</time>
      </trkpt>
      <trkpt lat="43.72577" lon="1.46666">
        <ele>220.706814</ele>
        <time>2022-04-29T14:43:07.046Z</time>
      </trkpt>
      <trkpt lat="43.72587" lon="1.46666">
        <ele>220.234839</ele>
        <time>2022-04-29T14:43:10.064Z</time>
      </trkpt>
      <trkpt lat="43.72597" lon="1.46664">
        <ele>219.799648</ele>
        <time>2022-04-29T14:43:13.057Z</time>
      </trkpt>
      <trkpt lat="43.72609" lon="1.46666">
        <ele>219.276025</ele>
        <time>2022-04-29T14:43:16.066Z</time>
      </trkpt>
      <trkpt lat="43.72619" lon="1.4667">
        <ele>218.791026</ele>
        <time>2022-04-29T14:43:20.051Z</time>
      </trkpt>
      <trkpt lat="43.72631" lon="1.46677">
        <ele>218.233993</ele>
        <time>2022-04-29T14:43:23.060Z</time>
      </trkpt>
      <trkpt lat="43.72639" lon="1.46682">
        <ele>217.804166</ele>
        <time>2022-04-29T14:43:25.053Z</time>
      </trkpt>
      <trkpt lat="43.7265" lon="1.46688">
        <ele>217.307993</ele>
        <time>2022-04-29T14:43:28.041Z</time>
      </trkpt>
      <trkpt lat="43.72659" lon="1.46693">
        <ele>216.872596</ele>
        <time>2022-04-29T14:43:33.057Z</time>
      </trkpt>
      <trkpt lat="43.7267" lon="1.46693">
        <ele>216.387348</ele>
        <time>2022-04-29T14:43:39.045Z</time>
      </trkpt>
      <trkpt lat="43.7268" lon="1.46692">
        <ele>215.937239</ele>
        <time>2022-04-29T14:43:42.070Z</time>
      </trkpt>
      <trkpt lat="43.72691" lon="1.46693">
        <ele>216.356094</ele>
        <time>2022-04-29T14:43:45.058Z</time>
      </trkpt>
      <trkpt lat="43.727" lon="1.46696">
        <ele>216.861825</ele>
        <time>2022-04-29T14:43:48.086Z</time>
      </trkpt>
      <trkpt lat="43.7271" lon="1.467">
        <ele>217.343161</ele>
        <time>2022-04-29T14:43:51.052Z</time>
      </trkpt>
      <trkpt lat="43.72721" lon="1.46708">
        <ele>217.973011</ele>
        <time>2022-04-29T14:43:55.057Z</time>
      </trkpt>
      <trkpt lat="43.7273" lon="1.46712">
        <ele>218.466997</ele>
        <time>2022-04-29T14:43:59.057Z</time>
      </trkpt>
      <trkpt lat="43.7274" lon="1.46713">
        <ele>218.96543</ele>
        <time>2022-04-29T14:44:03.055Z</time>
      </trkpt>
      <trkpt lat="43.72751" lon="1.46714">
        <ele>219.534774</ele>
        <time>2022-04-29T14:44:07.050Z</time>
      </trkpt>
      <trkpt lat="43.7276" lon="1.4672">
        <ele>220.066259</ele>
        <time>2022-04-29T14:44:12.049Z</time>
      </trkpt>
      <trkpt lat="43.72769" lon="1.46728">
        <ele>220.583804</ele>
        <time>2022-04-29T14:44:17.048Z</time>
      </trkpt>
      <trkpt lat="43.7278" lon="1.46732">
        <ele>169.5</ele>
        <time>2022-04-29T14:44:21.046Z</time>
      </trkpt>
      <trkpt lat="43.72786" lon="1.46732">
        <ele>169.9</ele>
        <time>2022-04-29T14:44:27.071Z</time>
      </trkpt>
      <trkpt lat="43.72796" lon="1.46727">
        <ele>171.1</ele>
      </trkpt>
      <trkpt lat="43.72826" lon="1.46691">
        <ele>173.1</ele>
      </trkpt>
      <trkpt lat="43.72853" lon="1.4668">
        <ele>173.2</ele>
      </trkpt>
      <trkpt lat="43.72877" lon="1.46654">
        <ele>172.7</ele>
      </trkpt>
      <trkpt lat="43.72909" lon="1.46675">
        <ele>172.3</ele>
      </trkpt>
      <trkpt lat="43.72922" lon="1.46704">
        <ele>171.8</ele>
      </trkpt>
      <trkpt lat="43.72952" lon="1.46739">
        <ele>169.9</ele>
      </trkpt>
      <trkpt lat="43.73" lon="1.46762">
        <ele>166</ele>
      </trkpt>
      <trkpt lat="43.7307" lon="1.46834">
        <ele>155</ele>
      </trkpt>
      <trkpt lat="43.73078" lon="1.46847">
        <ele>152.8</ele>
      </trkpt>
      <trkpt lat="43.73081" lon="1.46871">
        <ele>151</ele>
      </trkpt>
      <trkpt lat="43.73055" lon="1.46874">
        <ele>154.6</ele>
      </trkpt>
      <trkpt lat="43.73033" lon="1.46855">
        <ele>158.9</ele>
      </trkpt>
      <trkpt lat="43.73021" lon="1.46854">
        <ele>160.3</ele>
      </trkpt>
      <trkpt lat="43.72991" lon="1.46869">
        <ele>161.9</ele>
      </trkpt>
      <trkpt lat="43.7298" lon="1.46871">
        <ele>162.6</ele>
      </trkpt>
      <trkpt lat="43.72977" lon="1.46867">
        <ele>163.2</ele>
      </trkpt>
      <trkpt lat="43.72976" lon="1.46859">
        <ele>163.9</ele>
      </trkpt>
      <trkpt lat="43.72982" lon="1.46841">
        <ele>164.7</ele>
      </trkpt>
      <trkpt lat="43.72979" lon="1.46829">
        <ele>165.6</ele>
      </trkpt>
      <trkpt lat="43.72974" lon="1.46814">
        <ele>166.6</ele>
      </trkpt>
      <trkpt lat="43.72965" lon="1.46808">
        <ele>167.4</ele>
      </trkpt>
      <trkpt lat="43.72923" lon="1.46793">
        <ele>170.1</ele>
      </trkpt>
      <trkpt lat="43.72915" lon="1.46785">
        <ele>170.8</ele>
      </trkpt>
      <trkpt lat="43.729" lon="1.46762">
        <ele>171.6</ele>
      </trkpt>
      <trkpt lat="43.72887" lon="1.46759">
        <ele>171.7</ele>
      </trkpt>
      <trkpt lat="43.72867" lon="1.46766">
        <ele>171.9</ele>
      </trkpt>
      <trkpt lat="43.72852" lon="1.46782">
        <ele>171.5</ele>
      </trkpt>
      <trkpt lat="43.72838" lon="1.4679">
        <ele>170.3</ele>
      </trkpt>
      <trkpt lat="43.72828" lon="1.46793">
        <ele>169.5</ele>
      </trkpt>
      <trkpt lat="43.72815" lon="1.46805">
        <ele>167.7</ele>
        <time>2022-04-29T14:52:25.071Z</time>
      </trkpt>
      <trkpt lat="43.72822" lon="1.46817">
        <ele>223.700042</ele>
        <time>2022-04-29T14:52:27.077Z</time>
      </trkpt>
      <trkpt lat="43.7283" lon="1.4683">
        <ele>223.340294</ele>
        <time>2022-04-29T14:52:30.052Z</time>
      </trkpt>
      <trkpt lat="43.72836" lon="1.46844">
        <ele>222.97655</ele>
        <time>2022-04-29T14:52:33.060Z</time>
      </trkpt>
      <trkpt lat="43.7284" lon="1.46858">
        <ele>222.663234</ele>
        <time>2022-04-29T14:52:37.052Z</time>
      </trkpt>
      <trkpt lat="43.72842" lon="1.46873">
        <ele>222.327071</ele>
        <time>2022-04-29T14:52:40.036Z</time>
      </trkpt>
      <trkpt lat="43.72847" lon="1.46886">
        <ele>222.008389</ele>
        <time>2022-04-29T14:52:44.076Z</time>
      </trkpt>
      <trkpt lat="43.72852" lon="1.46898">
        <ele>221.696768</ele>
        <time>2022-04-29T14:52:49.075Z</time>
      </trkpt>
      <trkpt lat="43.72855" lon="1.4691">
        <ele>221.419888</ele>
        <time>2022-04-29T14:52:55.072Z</time>
      </trkpt>
      <trkpt lat="43.72876" lon="1.46923">
        <ele>220.743393</ele>
        <time>2022-04-29T14:53:19.062Z</time>
      </trkpt>
      <trkpt lat="43.72886" lon="1.46927">
        <ele>220.431143</ele>
        <time>2022-04-29T14:53:23.058Z</time>
      </trkpt>
      <trkpt lat="43.72895" lon="1.4693">
        <ele>220.155005</ele>
        <time>2022-04-29T14:53:26.087Z</time>
      </trkpt>
      <trkpt lat="43.72907" lon="1.46934">
        <ele>219.769084</ele>
        <time>2022-04-29T14:53:29.050Z</time>
      </trkpt>
      <trkpt lat="43.72914" lon="1.46942">
        <ele>219.34944</ele>
        <time>2022-04-29T14:53:32.057Z</time>
      </trkpt>
      <trkpt lat="43.72925" lon="1.46946">
        <ele>218.713136</ele>
        <time>2022-04-29T14:53:35.051Z</time>
      </trkpt>
      <trkpt lat="43.72936" lon="1.46947">
        <ele>218.097426</ele>
        <time>2022-04-29T14:53:38.051Z</time>
      </trkpt>
      <trkpt lat="43.72946" lon="1.46948">
        <ele>217.506706</ele>
        <time>2022-04-29T14:53:41.050Z</time>
      </trkpt>
      <trkpt lat="43.72957" lon="1.46949">
        <ele>216.89079</ele>
        <time>2022-04-29T14:53:44.055Z</time>
      </trkpt>
      <trkpt lat="43.72966" lon="1.46957">
        <ele>216.29344</ele>
        <time>2022-04-29T14:53:48.064Z</time>
      </trkpt>
      <trkpt lat="43.72971" lon="1.46969">
        <ele>215.714694</ele>
        <time>2022-04-29T14:53:51.062Z</time>
      </trkpt>
      <trkpt lat="43.72978" lon="1.46978">
        <ele>215.174284</ele>
        <time>2022-04-29T14:53:54.046Z</time>
      </trkpt>
      <trkpt lat="43.72983" lon="1.46988">
        <ele>214.660148</ele>
        <time>2022-04-29T14:54:05.055Z</time>
      </trkpt>
      <trkpt lat="43.72993" lon="1.46982">
        <ele>214.075808</ele>
        <time>2022-04-29T14:54:14.063Z</time>
      </trkpt>
      <trkpt lat="43.72992" lon="1.4699">
        <ele>210.723988</ele>
        <time>2022-04-29T14:57:37.062Z</time>
      </trkpt>
      <trkpt lat="43.72985" lon="1.46999">
        <ele>210.798616</ele>
        <time>2022-04-29T14:57:40.065Z</time>
      </trkpt>
      <trkpt lat="43.72977" lon="1.47008">
        <ele>210.886549</ele>
        <time>2022-04-29T14:57:44.065Z</time>
      </trkpt>
      <trkpt lat="43.72967" lon="1.47011">
        <ele>210.96682</ele>
        <time>2022-04-29T14:57:49.074Z</time>
      </trkpt>
      <trkpt lat="43.72956" lon="1.47008">
        <ele>211.062987</ele>
        <time>2022-04-29T14:57:54.054Z</time>
      </trkpt>
      <trkpt lat="43.72947" lon="1.47006">
        <ele>211.139557</ele>
        <time>2022-04-29T14:57:58.060Z</time>
      </trkpt>
      <trkpt lat="43.72936" lon="1.46996">
        <ele>211.248826</ele>
        <time>2022-04-29T14:58:02.062Z</time>
      </trkpt>
      <trkpt lat="43.72926" lon="1.46988">
        <ele>211.338048</ele>
        <time>2022-04-29T14:58:06.070Z</time>
      </trkpt>
      <trkpt lat="43.72915" lon="1.46995">
        <ele>211.439435</ele>
        <time>2022-04-29T14:58:12.068Z</time>
      </trkpt>
      <trkpt lat="43.72906" lon="1.47003">
        <ele>211.527933</ele>
        <time>2022-04-29T14:58:16.063Z</time>
      </trkpt>
      <trkpt lat="43.72897" lon="1.47011">
        <ele>211.613795</ele>
        <time>2022-04-29T14:58:20.062Z</time>
      </trkpt>
      <trkpt lat="43.72885" lon="1.47019">
        <ele>211.725108</ele>
        <time>2022-04-29T14:58:40.059Z</time>
      </trkpt>
      <trkpt lat="43.72893" lon="1.47028">
        <ele>211.806433</ele>
        <time>2022-04-29T14:58:44.071Z</time>
      </trkpt>
      <trkpt lat="43.72899" lon="1.47041">
        <ele>211.899033</ele>
        <time>2022-04-29T14:58:47.064Z</time>
      </trkpt>
      <trkpt lat="43.72906" lon="1.47052">
        <ele>211.986704</ele>
        <time>2022-04-29T14:58:49.076Z</time>
      </trkpt>
      <trkpt lat="43.72911" lon="1.47064">
        <ele>211.894</ele>
        <time>2022-04-29T14:58:51.070Z</time>
      </trkpt>
      <trkpt lat="43.72916" lon="1.47078">
        <ele>211.137858</ele>
        <time>2022-04-29T14:58:53.074Z</time>
      </trkpt>
      <trkpt lat="43.72919" lon="1.47092">
        <ele>210.432213</ele>
        <time>2022-04-29T14:58:57.084Z</time>
      </trkpt>
      <trkpt lat="43.72922" lon="1.47104">
        <ele>209.806781</ele>
        <time>2022-04-29T14:59:01.072Z</time>
      </trkpt>
      <trkpt lat="43.72927" lon="1.47116">
        <ele>209.15286</ele>
        <time>2022-04-29T14:59:04.079Z</time>
      </trkpt>
      <trkpt lat="43.72932" lon="1.47127">
        <ele>208.548071</ele>
        <time>2022-04-29T14:59:06.085Z</time>
      </trkpt>
      <trkpt lat="43.72929" lon="1.47139">
        <ele>207.945177</ele>
        <time>2022-04-29T14:59:11.072Z</time>
      </trkpt>
      <trkpt lat="43.72919" lon="1.47144">
        <ele>207.254812</ele>
        <time>2022-04-29T14:59:22.093Z</time>
      </trkpt>
      <trkpt lat="43.72907" lon="1.47147">
        <ele>206.452396</ele>
        <time>2022-04-29T14:59:26.071Z</time>
      </trkpt>
      <trkpt lat="43.72897" lon="1.47154">
        <ele>205.709118</ele>
        <time>2022-04-29T14:59:30.074Z</time>
      </trkpt>
      <trkpt lat="43.72891" lon="1.47163">
        <ele>205.120089</ele>
        <time>2022-04-29T14:59:33.080Z</time>
      </trkpt>
      <trkpt lat="43.72883" lon="1.47169">
        <ele>204.471667</ele>
        <time>2022-04-29T14:59:55.046Z</time>
      </trkpt>
      <trkpt lat="43.72874" lon="1.47175">
        <ele>203.84085</ele>
        <time>2022-04-29T14:59:59.061Z</time>
      </trkpt>
      <trkpt lat="43.72865" lon="1.4717">
        <ele>203.213598</ele>
        <time>2022-04-29T15:00:03.048Z</time>
      </trkpt>
      <trkpt lat="43.72857" lon="1.47163">
        <ele>202.581745</ele>
        <time>2022-04-29T15:00:08.071Z</time>
      </trkpt>
      <trkpt lat="43.72843" lon="1.4715">
        <ele>201.439082</ele>
        <time>2022-04-29T15:01:57.076Z</time>
      </trkpt>
      <trkpt lat="43.72833" lon="1.47141">
        <ele>200.674055</ele>
        <time>2022-04-29T15:02:01.045Z</time>
      </trkpt>
      <trkpt lat="43.72824" lon="1.47132">
        <ele>200.402555</ele>
        <time>2022-04-29T15:02:05.092Z</time>
      </trkpt>
      <trkpt lat="43.72816" lon="1.47124">
        <ele>200.987126</ele>
        <time>2022-04-29T15:02:08.086Z</time>
      </trkpt>
      <trkpt lat="43.72808" lon="1.47117">
        <ele>201.554254</ele>
        <time>2022-04-29T15:02:11.063Z</time>
      </trkpt>
      <trkpt lat="43.72799" lon="1.47108">
        <ele>202.240797</ele>
        <time>2022-04-29T15:02:15.084Z</time>
      </trkpt>
      <trkpt lat="43.72791" lon="1.471">
        <ele>202.835457</ele>
        <time>2022-04-29T15:02:19.067Z</time>
      </trkpt>
      <trkpt lat="43.72782" lon="1.47091">
        <ele>203.492284</ele>
        <time>2022-04-29T15:02:24.082Z</time>
      </trkpt>
      <trkpt lat="43.72773" lon="1.47095">
        <ele>204.099455</ele>
        <time>2022-04-29T15:02:30.067Z</time>
      </trkpt>
      <trkpt lat="43.72763" lon="1.47103">
        <ele>204.754422</ele>
        <time>2022-04-29T15:02:35.065Z</time>
      </trkpt>
      <trkpt lat="43.72753" lon="1.47111">
        <ele>205.447937</ele>
        <time>2022-04-29T15:02:40.067Z</time>
      </trkpt>
      <trkpt lat="43.72744" lon="1.47114">
        <ele>206.002875</ele>
        <time>2022-04-29T15:02:43.071Z</time>
      </trkpt>
      <trkpt lat="43.72734" lon="1.47116">
        <ele>206.633462</ele>
        <time>2022-04-29T15:02:47.077Z</time>
      </trkpt>
      <trkpt lat="43.72725" lon="1.4711">
        <ele>207.273373</ele>
        <time>2022-04-29T15:02:51.065Z</time>
      </trkpt>
      <trkpt lat="43.72715" lon="1.47107">
        <ele>207.857484</ele>
        <time>2022-04-29T15:02:55.077Z</time>
      </trkpt>
      <trkpt lat="43.72706" lon="1.47115">
        <ele>208.478392</ele>
        <time>2022-04-29T15:03:00.054Z</time>
      </trkpt>
      <trkpt lat="43.72697" lon="1.47119">
        <ele>209.053454</ele>
        <time>2022-04-29T15:03:05.063Z</time>
      </trkpt>
      <trkpt lat="43.72688" lon="1.47113">
        <ele>209.658704</ele>
        <time>2022-04-29T15:03:11.081Z</time>
      </trkpt>
      <trkpt lat="43.7268" lon="1.47103">
        <ele>210.274258</ele>
        <time>2022-04-29T15:03:17.075Z</time>
      </trkpt>
      <trkpt lat="43.72673" lon="1.47093">
        <ele>210.909718</ele>
        <time>2022-04-29T15:03:22.062Z</time>
      </trkpt>
      <trkpt lat="43.72668" lon="1.47083">
        <ele>211.478876</ele>
        <time>2022-04-29T15:03:26.066Z</time>
      </trkpt>
      <trkpt lat="43.7266" lon="1.47075">
        <ele>212.073523</ele>
        <time>2022-04-29T15:03:31.093Z</time>
      </trkpt>
      <trkpt lat="43.72653" lon="1.47085">
        <ele>212.732077</ele>
        <time>2022-04-29T15:03:37.067Z</time>
      </trkpt>
      <trkpt lat="43.72643" lon="1.47089">
        <ele>213.36262</ele>
        <time>2022-04-29T15:03:43.064Z</time>
      </trkpt>
      <trkpt lat="43.72636" lon="1.47099">
        <ele>213.987338</ele>
        <time>2022-04-29T15:03:49.068Z</time>
      </trkpt>
      <trkpt lat="43.72627" lon="1.47107">
        <ele>214.632867</ele>
        <time>2022-04-29T15:03:53.061Z</time>
      </trkpt>
      <trkpt lat="43.7262" lon="1.47117">
        <ele>215.302829</ele>
        <time>2022-04-29T15:03:58.060Z</time>
      </trkpt>
      <trkpt lat="43.72612" lon="1.47124">
        <ele>215.893104</ele>
        <time>2022-04-29T15:04:01.073Z</time>
      </trkpt>
      <trkpt lat="43.72607" lon="1.47136">
        <ele>216.495666</ele>
        <time>2022-04-29T15:04:06.083Z</time>
      </trkpt>
      <trkpt lat="43.726" lon="1.47144">
        <ele>217.113148</ele>
        <time>2022-04-29T15:04:11.054Z</time>
      </trkpt>
      <trkpt lat="43.7259" lon="1.47151">
        <ele>217.820469</ele>
        <time>2022-04-29T15:04:16.084Z</time>
      </trkpt>
      <trkpt lat="43.72581" lon="1.47151">
        <ele>218.398262</ele>
        <time>2022-04-29T15:04:19.061Z</time>
      </trkpt>
      <trkpt lat="43.72573" lon="1.4716">
        <ele>219.017646</ele>
        <time>2022-04-29T15:04:23.093Z</time>
      </trkpt>
      <trkpt lat="43.72565" lon="1.47169">
        <ele>219.660226</ele>
        <time>2022-04-29T15:04:28.073Z</time>
      </trkpt>
      <trkpt lat="43.72562" lon="1.47181">
        <ele>220.260112</ele>
        <time>2022-04-29T15:04:33.072Z</time>
      </trkpt>
      <trkpt lat="43.72556" lon="1.47192">
        <ele>220.878123</ele>
        <time>2022-04-29T15:04:40.072Z</time>
      </trkpt>
      <trkpt lat="43.72552" lon="1.47205">
        <ele>221.527671</ele>
        <time>2022-04-29T15:04:49.076Z</time>
      </trkpt>
      <trkpt lat="43.72552" lon="1.4722">
        <ele>222.203834</ele>
        <time>2022-04-29T15:04:53.078Z</time>
      </trkpt>
      <trkpt lat="43.72552" lon="1.47235">
        <ele>222.681766</ele>
        <time>2022-04-29T15:04:57.054Z</time>
      </trkpt>
      <trkpt lat="43.72554" lon="1.47248">
        <ele>223.073555</ele>
        <time>2022-04-29T15:05:11.081Z</time>
      </trkpt>
      <trkpt lat="43.72557" lon="1.4726">
        <ele>223.474686</ele>
        <time>2022-04-29T15:05:16.076Z</time>
      </trkpt>
      <trkpt lat="43.72559" lon="1.47273">
        <ele>223.849424</ele>
        <time>2022-04-29T15:05:21.075Z</time>
      </trkpt>
      <trkpt lat="43.72561" lon="1.47286">
        <ele>224.250932</ele>
        <time>2022-04-29T15:05:27.074Z</time>
      </trkpt>
      <trkpt lat="43.72562" lon="1.473">
        <ele>224.688159</ele>
        <time>2022-04-29T15:05:32.068Z</time>
      </trkpt>
      <trkpt lat="43.72558" lon="1.47312">
        <ele>225.102593</ele>
        <time>2022-04-29T15:05:35.081Z</time>
      </trkpt>
      <trkpt lat="43.72546" lon="1.47314">
        <ele>225.601015</ele>
        <time>2022-04-29T15:05:39.084Z</time>
      </trkpt>
      <trkpt lat="43.72537" lon="1.47312">
        <ele>225.97391</ele>
        <time>2022-04-29T15:05:42.091Z</time>
      </trkpt>
      <trkpt lat="43.72527" lon="1.4731">
        <ele>226.40344</ele>
        <time>2022-04-29T15:05:45.110Z</time>
      </trkpt>
      <trkpt lat="43.72517" lon="1.47308">
        <ele>226.820637</ele>
        <time>2022-04-29T15:05:48.056Z</time>
      </trkpt>
      <trkpt lat="43.72507" lon="1.473">
        <ele>227.303498</ele>
        <time>2022-04-29T15:05:52.094Z</time>
      </trkpt>
      <trkpt lat="43.72499" lon="1.47288">
        <ele>227.776</ele>
        <time>2022-04-29T15:05:55.075Z</time>
      </trkpt>
      <trkpt lat="43.72492" lon="1.47277">
        <ele>228.233583</ele>
        <time>2022-04-29T15:05:58.086Z</time>
      </trkpt>
      <trkpt lat="43.72485" lon="1.47265">
        <ele>228.693442</ele>
        <time>2022-04-29T15:06:01.086Z</time>
      </trkpt>
      <trkpt lat="43.72477" lon="1.47256">
        <ele>229.115274</ele>
        <time>2022-04-29T15:06:04.090Z</time>
      </trkpt>
      <trkpt lat="43.7247" lon="1.47247">
        <ele>229.510941</ele>
        <time>2022-04-29T15:06:07.082Z</time>
      </trkpt>
      <trkpt lat="43.72463" lon="1.47237">
        <ele>229.819933</ele>
        <time>2022-04-29T15:06:10.075Z</time>
      </trkpt>
      <trkpt lat="43.72455" lon="1.47228">
        <ele>229.963003</ele>
        <time>2022-04-29T15:06:13.097Z</time>
      </trkpt>
      <trkpt lat="43.72448" lon="1.4722">
        <ele>230.097776</ele>
        <time>2022-04-29T15:06:16.093Z</time>
      </trkpt>
      <trkpt lat="43.72441" lon="1.47211">
        <ele>230.232068</ele>
        <time>2022-04-29T15:06:19.087Z</time>
      </trkpt>
      <trkpt lat="43.72435" lon="1.47202">
        <ele>230.366064</ele>
        <time>2022-04-29T15:06:22.076Z</time>
      </trkpt>
      <trkpt lat="43.72424" lon="1.47201">
        <ele>230.527169</ele>
        <time>2022-04-29T15:06:27.087Z</time>
      </trkpt>
      <trkpt lat="43.72416" lon="1.47211">
        <ele>230.683617</ele>
        <time>2022-04-29T15:06:30.079Z</time>
      </trkpt>
      <trkpt lat="43.72407" lon="1.47223">
        <ele>230.850052</ele>
        <time>2022-04-29T15:06:33.073Z</time>
      </trkpt>
      <trkpt lat="43.72401" lon="1.47232">
        <ele>230.98452</ele>
        <time>2022-04-29T15:06:36.079Z</time>
      </trkpt>
      <trkpt lat="43.72393" lon="1.47242">
        <ele>231.140265</ele>
        <time>2022-04-29T15:06:44.079Z</time>
      </trkpt>
      <trkpt lat="43.72383" lon="1.47251">
        <ele>231.31221</ele>
        <time>2022-04-29T15:06:48.111Z</time>
      </trkpt>
      <trkpt lat="43.72376" lon="1.47259">
        <ele>231.448927</ele>
        <time>2022-04-29T15:06:51.056Z</time>
      </trkpt>
      <trkpt lat="43.72367" lon="1.47268">
        <ele>231.603998</ele>
        <time>2022-04-29T15:06:54.084Z</time>
      </trkpt>
      <trkpt lat="43.72359" lon="1.47278">
        <ele>231.763116</ele>
        <time>2022-04-29T15:06:57.082Z</time>
      </trkpt>
      <trkpt lat="43.72349" lon="1.47288">
        <ele>231.9358</ele>
        <time>2022-04-29T15:07:00.096Z</time>
      </trkpt>
      <trkpt lat="43.7234" lon="1.47299">
        <ele>232.109515</ele>
        <time>2022-04-29T15:07:03.071Z</time>
      </trkpt>
      <trkpt lat="43.72331" lon="1.4731">
        <ele>232.286146</ele>
        <time>2022-04-29T15:07:06.078Z</time>
      </trkpt>
      <trkpt lat="43.72321" lon="1.47321">
        <ele>232.400902</ele>
        <time>2022-04-29T15:07:09.094Z</time>
      </trkpt>
      <trkpt lat="43.72312" lon="1.47331">
        <ele>232.479901</ele>
        <time>2022-04-29T15:07:12.091Z</time>
      </trkpt>
      <trkpt lat="43.72304" lon="1.47342">
        <ele>232.557739</ele>
        <time>2022-04-29T15:07:15.085Z</time>
      </trkpt>
      <trkpt lat="43.72296" lon="1.47351">
        <ele>232.629326</ele>
        <time>2022-04-29T15:07:18.096Z</time>
      </trkpt>
      <trkpt lat="43.72288" lon="1.4736">
        <ele>232.701082</ele>
        <time>2022-04-29T15:07:21.100Z</time>
      </trkpt>
      <trkpt lat="43.72279" lon="1.47369">
        <ele>232.775264</ele>
        <time>2022-04-29T15:07:24.089Z</time>
      </trkpt>
      <trkpt lat="43.72269" lon="1.47379">
        <ele>232.857696</ele>
        <time>2022-04-29T15:07:27.087Z</time>
      </trkpt>
      <trkpt lat="43.7226" lon="1.47389">
        <ele>232.938376</ele>
        <time>2022-04-29T15:07:30.074Z</time>
      </trkpt>
      <trkpt lat="43.72252" lon="1.474">
        <ele>233.01605</ele>
        <time>2022-04-29T15:07:33.067Z</time>
      </trkpt>
      <trkpt lat="43.72243" lon="1.47411">
        <ele>233.097463</ele>
        <time>2022-04-29T15:07:36.088Z</time>
      </trkpt>
      <trkpt lat="43.72234" lon="1.47421">
        <ele>233.177004</ele>
        <time>2022-04-29T15:07:39.089Z</time>
      </trkpt>
      <trkpt lat="43.72225" lon="1.47431">
        <ele>233.254177</ele>
        <time>2022-04-29T15:07:42.086Z</time>
      </trkpt>
      <trkpt lat="43.72216" lon="1.4744">
        <ele>233.330508</ele>
        <time>2022-04-29T15:07:45.085Z</time>
      </trkpt>
      <trkpt lat="43.72208" lon="1.47449">
        <ele>233.399877</ele>
        <time>2022-04-29T15:07:48.086Z</time>
      </trkpt>
      <trkpt lat="43.72199" lon="1.47457">
        <ele>233.47192</ele>
        <time>2022-04-29T15:07:51.074Z</time>
      </trkpt>
      <trkpt lat="43.72191" lon="1.47466">
        <ele>233.545976</ele>
        <time>2022-04-29T15:07:54.101Z</time>
      </trkpt>
      <trkpt lat="43.72182" lon="1.47476">
        <ele>233.68869</ele>
        <time>2022-04-29T15:07:57.091Z</time>
      </trkpt>
      <trkpt lat="43.72172" lon="1.47486">
        <ele>233.886549</ele>
        <time>2022-04-29T15:08:00.100Z</time>
      </trkpt>
      <trkpt lat="43.72162" lon="1.47496">
        <ele>234.091466</ele>
        <time>2022-04-29T15:08:03.068Z</time>
      </trkpt>
      <trkpt lat="43.72152" lon="1.47507">
        <ele>234.305586</ele>
        <time>2022-04-29T15:08:06.074Z</time>
      </trkpt>
      <trkpt lat="43.72144" lon="1.47515">
        <ele>234.458258</ele>
        <time>2022-04-29T15:08:08.106Z</time>
      </trkpt>
      <trkpt lat="43.72137" lon="1.47523">
        <ele>234.611666</ele>
        <time>2022-04-29T15:08:10.092Z</time>
      </trkpt>
      <trkpt lat="43.72129" lon="1.4753">
        <ele>234.766142</ele>
        <time>2022-04-29T15:08:12.079Z</time>
      </trkpt>
      <trkpt lat="43.72122" lon="1.47538">
        <ele>234.920586</ele>
        <time>2022-04-29T15:08:14.078Z</time>
      </trkpt>
      <trkpt lat="43.72114" lon="1.47545">
        <ele>235.073679</ele>
        <time>2022-04-29T15:08:16.085Z</time>
      </trkpt>
      <trkpt lat="43.72106" lon="1.47552">
        <ele>235.227446</ele>
        <time>2022-04-29T15:08:18.088Z</time>
      </trkpt>
      <trkpt lat="43.72099" lon="1.4756">
        <ele>235.382572</ele>
        <time>2022-04-29T15:08:20.115Z</time>
      </trkpt>
      <trkpt lat="43.72091" lon="1.47567">
        <ele>235.539898</ele>
        <time>2022-04-29T15:08:22.089Z</time>
      </trkpt>
      <trkpt lat="43.72083" lon="1.47574">
        <ele>235.696374</ele>
        <time>2022-04-29T15:08:24.092Z</time>
      </trkpt>
      <trkpt lat="43.72075" lon="1.47582">
        <ele>235.855622</ele>
        <time>2022-04-29T15:08:26.092Z</time>
      </trkpt>
      <trkpt lat="43.72066" lon="1.47589">
        <ele>236.01764</ele>
        <time>2022-04-29T15:08:28.087Z</time>
      </trkpt>
      <trkpt lat="43.72058" lon="1.47597">
        <ele>236.181602</ele>
        <time>2022-04-29T15:08:30.091Z</time>
      </trkpt>
      <trkpt lat="43.72049" lon="1.47604">
        <ele>236.352381</ele>
        <time>2022-04-29T15:08:32.089Z</time>
      </trkpt>
      <trkpt lat="43.7204" lon="1.47612">
        <ele>236.528604</ele>
        <time>2022-04-29T15:08:34.082Z</time>
      </trkpt>
      <trkpt lat="43.72032" lon="1.47621">
        <ele>236.553041</ele>
        <time>2022-04-29T15:08:36.083Z</time>
      </trkpt>
      <trkpt lat="43.72023" lon="1.47629">
        <ele>236.567491</ele>
        <time>2022-04-29T15:08:38.097Z</time>
      </trkpt>
      <trkpt lat="43.72014" lon="1.47637">
        <ele>236.58177</ele>
        <time>2022-04-29T15:08:40.095Z</time>
      </trkpt>
      <trkpt lat="43.72005" lon="1.47646">
        <ele>236.596051</ele>
        <time>2022-04-29T15:08:42.086Z</time>
      </trkpt>
      <trkpt lat="43.71997" lon="1.47655">
        <ele>236.609948</ele>
        <time>2022-04-29T15:08:44.068Z</time>
      </trkpt>
      <trkpt lat="43.71989" lon="1.47663">
        <ele>236.624061</ele>
        <time>2022-04-29T15:08:46.087Z</time>
      </trkpt>
      <trkpt lat="43.71979" lon="1.4767">
        <ele>236.638451</ele>
        <time>2022-04-29T15:08:48.076Z</time>
      </trkpt>
      <trkpt lat="43.7197" lon="1.47678">
        <ele>236.653189</ele>
        <time>2022-04-29T15:08:50.086Z</time>
      </trkpt>
      <trkpt lat="43.71961" lon="1.47687">
        <ele>236.667689</ele>
        <time>2022-04-29T15:08:52.064Z</time>
      </trkpt>
      <trkpt lat="43.71952" lon="1.47696">
        <ele>236.682251</ele>
        <time>2022-04-29T15:08:54.085Z</time>
      </trkpt>
      <trkpt lat="43.71944" lon="1.47704">
        <ele>236.696529</ele>
        <time>2022-04-29T15:08:56.096Z</time>
      </trkpt>
      <trkpt lat="43.71935" lon="1.47713">
        <ele>236.710976</ele>
        <time>2022-04-29T15:08:58.100Z</time>
      </trkpt>
      <trkpt lat="43.71927" lon="1.47722">
        <ele>236.725334</ele>
        <time>2022-04-29T15:09:00.081Z</time>
      </trkpt>
      <trkpt lat="43.71918" lon="1.47731">
        <ele>236.73977</ele>
        <time>2022-04-29T15:09:02.092Z</time>
      </trkpt>
      <trkpt lat="43.7191" lon="1.47741">
        <ele>236.75415</ele>
        <time>2022-04-29T15:09:04.086Z</time>
      </trkpt>
      <trkpt lat="43.71902" lon="1.4775">
        <ele>236.76842</ele>
        <time>2022-04-29T15:09:06.116Z</time>
      </trkpt>
      <trkpt lat="43.71894" lon="1.47759">
        <ele>236.783868</ele>
        <time>2022-04-29T15:09:08.096Z</time>
      </trkpt>
      <trkpt lat="43.71885" lon="1.47768">
        <ele>236.813034</ele>
        <time>2022-04-29T15:09:10.100Z</time>
      </trkpt>
      <trkpt lat="43.71878" lon="1.47779">
        <ele>236.842963</ele>
        <time>2022-04-29T15:09:12.101Z</time>
      </trkpt>
      <trkpt lat="43.71871" lon="1.47791">
        <ele>236.873763</ele>
        <time>2022-04-29T15:09:14.097Z</time>
      </trkpt>
      <trkpt lat="43.71863" lon="1.47802">
        <ele>236.904871</ele>
        <time>2022-04-29T15:09:16.109Z</time>
      </trkpt>
      <trkpt lat="43.71854" lon="1.47812">
        <ele>236.936125</ele>
        <time>2022-04-29T15:09:18.095Z</time>
      </trkpt>
      <trkpt lat="43.71846" lon="1.47822">
        <ele>236.967334</ele>
        <time>2022-04-29T15:09:20.094Z</time>
      </trkpt>
      <trkpt lat="43.71837" lon="1.47832">
        <ele>236.998493</ele>
        <time>2022-04-29T15:09:22.091Z</time>
      </trkpt>
      <trkpt lat="43.71829" lon="1.47843">
        <ele>237.029495</ele>
        <time>2022-04-29T15:09:24.087Z</time>
      </trkpt>
      <trkpt lat="43.71822" lon="1.47854">
        <ele>237.060069</ele>
        <time>2022-04-29T15:09:26.088Z</time>
      </trkpt>
      <trkpt lat="43.71814" lon="1.47865">
        <ele>237.090023</ele>
        <time>2022-04-29T15:09:28.078Z</time>
      </trkpt>
      <trkpt lat="43.71806" lon="1.47874">
        <ele>237.119783</ele>
        <time>2022-04-29T15:09:30.092Z</time>
      </trkpt>
      <trkpt lat="43.71798" lon="1.47884">
        <ele>237.14916</ele>
        <time>2022-04-29T15:09:32.079Z</time>
      </trkpt>
      <trkpt lat="43.7179" lon="1.47894">
        <ele>237.178297</ele>
        <time>2022-04-29T15:09:34.092Z</time>
      </trkpt>
      <trkpt lat="43.71783" lon="1.47904">
        <ele>237.207185</ele>
        <time>2022-04-29T15:09:36.088Z</time>
      </trkpt>
      <trkpt lat="43.71777" lon="1.47915">
        <ele>237.235618</ele>
        <time>2022-04-29T15:09:38.085Z</time>
      </trkpt>
      <trkpt lat="43.7177" lon="1.47926">
        <ele>237.263237</ele>
        <time>2022-04-29T15:09:40.073Z</time>
      </trkpt>
      <trkpt lat="43.71764" lon="1.47936">
        <ele>237.271186</ele>
        <time>2022-04-29T15:09:42.093Z</time>
      </trkpt>
      <trkpt lat="43.71757" lon="1.47946">
        <ele>237.249355</ele>
        <time>2022-04-29T15:09:44.088Z</time>
      </trkpt>
      <trkpt lat="43.7175" lon="1.47954">
        <ele>237.227855</ele>
        <time>2022-04-29T15:09:46.083Z</time>
      </trkpt>
      <trkpt lat="43.71743" lon="1.47963">
        <ele>237.20658</ele>
        <time>2022-04-29T15:09:48.082Z</time>
      </trkpt>
      <trkpt lat="43.71736" lon="1.47973">
        <ele>237.185149</ele>
        <time>2022-04-29T15:09:50.082Z</time>
      </trkpt>
      <trkpt lat="43.71731" lon="1.47984">
        <ele>237.16404</ele>
        <time>2022-04-29T15:09:52.081Z</time>
      </trkpt>
      <trkpt lat="43.71726" lon="1.47994">
        <ele>237.143394</ele>
        <time>2022-04-29T15:09:54.083Z</time>
      </trkpt>
      <trkpt lat="43.71721" lon="1.48005">
        <ele>237.122392</ele>
        <time>2022-04-29T15:09:56.088Z</time>
      </trkpt>
      <trkpt lat="43.71716" lon="1.48016">
        <ele>237.101696</ele>
        <time>2022-04-29T15:09:58.097Z</time>
      </trkpt>
      <trkpt lat="43.71712" lon="1.48028">
        <ele>237.081076</ele>
        <time>2022-04-29T15:10:00.094Z</time>
      </trkpt>
      <trkpt lat="43.71706" lon="1.48044">
        <ele>237.051632</ele>
        <time>2022-04-29T15:10:03.078Z</time>
      </trkpt>
      <trkpt lat="43.71701" lon="1.48061">
        <ele>237.02213</ele>
        <time>2022-04-29T15:10:06.086Z</time>
      </trkpt>
      <trkpt lat="43.71696" lon="1.48074">
        <ele>236.998738</ele>
        <time>2022-04-29T15:10:09.098Z</time>
      </trkpt>
      <trkpt lat="43.71685" lon="1.48072">
        <ele>236.974171</ele>
        <time>2022-04-29T15:10:16.076Z</time>
      </trkpt>
      <trkpt lat="43.71677" lon="1.48065">
        <ele>236.95409</ele>
        <time>2022-04-29T15:10:19.074Z</time>
      </trkpt>
      <trkpt lat="43.71669" lon="1.48059">
        <ele>236.932746</ele>
        <time>2022-04-29T15:10:22.099Z</time>
      </trkpt>
      <trkpt lat="43.71661" lon="1.48052">
        <ele>236.912145</ele>
        <time>2022-04-29T15:10:25.111Z</time>
      </trkpt>
      <trkpt lat="43.71653" lon="1.48047">
        <ele>236.89168</ele>
        <time>2022-04-29T15:10:28.085Z</time>
      </trkpt>
      <trkpt lat="43.71643" lon="1.48042">
        <ele>236.841144</ele>
        <time>2022-04-29T15:10:33.090Z</time>
      </trkpt>
      <trkpt lat="43.71633" lon="1.48046">
        <ele>236.74423</ele>
        <time>2022-04-29T15:10:41.083Z</time>
      </trkpt>
      <trkpt lat="43.71624" lon="1.48056">
        <ele>236.639641</ele>
        <time>2022-04-29T15:10:44.078Z</time>
      </trkpt>
      <trkpt lat="43.71613" lon="1.48062">
        <ele>236.535775</ele>
        <time>2022-04-29T15:10:47.069Z</time>
      </trkpt>
      <trkpt lat="43.71601" lon="1.48068">
        <ele>236.416574</ele>
        <time>2022-04-29T15:10:50.079Z</time>
      </trkpt>
      <trkpt lat="43.71591" lon="1.48071">
        <ele>236.326973</ele>
        <time>2022-04-29T15:10:52.071Z</time>
      </trkpt>
      <trkpt lat="43.71582" lon="1.48075">
        <ele>236.237349</ele>
        <time>2022-04-29T15:10:54.088Z</time>
      </trkpt>
      <trkpt lat="43.71573" lon="1.48081">
        <ele>236.14855</ele>
        <time>2022-04-29T15:10:56.063Z</time>
      </trkpt>
      <trkpt lat="43.71563" lon="1.48085">
        <ele>236.060522</ele>
        <time>2022-04-29T15:10:58.096Z</time>
      </trkpt>
      <trkpt lat="43.71552" lon="1.48088">
        <ele>235.959955</ele>
        <time>2022-04-29T15:11:00.089Z</time>
      </trkpt>
      <trkpt lat="43.71541" lon="1.48091">
        <ele>235.854335</ele>
        <time>2022-04-29T15:11:02.081Z</time>
      </trkpt>
      <trkpt lat="43.7153" lon="1.48093">
        <ele>235.749949</ele>
        <time>2022-04-29T15:11:04.088Z</time>
      </trkpt>
      <trkpt lat="43.71518" lon="1.48096">
        <ele>235.647558</ele>
        <time>2022-04-29T15:11:06.092Z</time>
      </trkpt>
      <trkpt lat="43.71507" lon="1.48098">
        <ele>235.543385</ele>
        <time>2022-04-29T15:11:08.078Z</time>
      </trkpt>
      <trkpt lat="43.71496" lon="1.481">
        <ele>235.440568</ele>
        <time>2022-04-29T15:11:10.112Z</time>
      </trkpt>
      <trkpt lat="43.71484" lon="1.48103">
        <ele>235.334981</ele>
        <time>2022-04-29T15:11:12.095Z</time>
      </trkpt>
      <trkpt lat="43.71472" lon="1.48104">
        <ele>235.296519</ele>
        <time>2022-04-29T15:11:14.097Z</time>
      </trkpt>
      <trkpt lat="43.71461" lon="1.48106">
        <ele>235.480945</ele>
        <time>2022-04-29T15:11:16.090Z</time>
      </trkpt>
      <trkpt lat="43.7145" lon="1.48108">
        <ele>235.656282</ele>
        <time>2022-04-29T15:11:18.091Z</time>
      </trkpt>
      <trkpt lat="43.71439" lon="1.4811">
        <ele>235.829888</ele>
        <time>2022-04-29T15:11:20.086Z</time>
      </trkpt>
      <trkpt lat="43.71429" lon="1.48112">
        <ele>236.000985</ele>
        <time>2022-04-29T15:11:22.093Z</time>
      </trkpt>
      <trkpt lat="43.71419" lon="1.48107">
        <ele>236.17128</ele>
        <time>2022-04-29T15:11:24.085Z</time>
      </trkpt>
      <trkpt lat="43.71407" lon="1.48116">
        <ele>236.377787</ele>
        <time>2022-04-29T15:11:27.090Z</time>
      </trkpt>
      <trkpt lat="43.71401" lon="1.48131">
        <ele>236.577745</ele>
        <time>2022-04-29T15:11:30.087Z</time>
      </trkpt>
      <trkpt lat="43.71397" lon="1.48143">
        <ele>236.736362</ele>
        <time>2022-04-29T15:11:32.063Z</time>
      </trkpt>
      <trkpt lat="43.71392" lon="1.48156">
        <ele>236.896287</ele>
        <time>2022-04-29T15:11:34.085Z</time>
      </trkpt>
      <trkpt lat="43.71389" lon="1.48168">
        <ele>237.049147</ele>
        <time>2022-04-29T15:11:36.091Z</time>
      </trkpt>
      <trkpt lat="43.71386" lon="1.48181">
        <ele>237.203649</ele>
        <time>2022-04-29T15:11:38.078Z</time>
      </trkpt>
      <trkpt lat="43.71382" lon="1.48193">
        <ele>237.357588</ele>
        <time>2022-04-29T15:11:40.092Z</time>
      </trkpt>
      <trkpt lat="43.71379" lon="1.48205">
        <ele>237.504601</ele>
        <time>2022-04-29T15:11:42.068Z</time>
      </trkpt>
      <trkpt lat="43.71376" lon="1.48217">
        <ele>237.652025</ele>
        <time>2022-04-29T15:11:44.112Z</time>
      </trkpt>
      <trkpt lat="43.71372" lon="1.48229">
        <ele>237.79753</ele>
        <time>2022-04-29T15:11:46.085Z</time>
      </trkpt>
      <trkpt lat="43.71369" lon="1.4824">
        <ele>237.945017</ele>
        <time>2022-04-29T15:11:48.077Z</time>
      </trkpt>
      <trkpt lat="43.71365" lon="1.48252">
        <ele>238.093912</ele>
        <time>2022-04-29T15:11:50.085Z</time>
      </trkpt>
      <trkpt lat="43.71359" lon="1.48269">
        <ele>238.285823</ele>
        <time>2022-04-29T15:11:53.116Z</time>
      </trkpt>
      <trkpt lat="43.71353" lon="1.48284">
        <ele>238.464939</ele>
        <time>2022-04-29T15:11:56.099Z</time>
      </trkpt>
      <trkpt lat="43.71346" lon="1.48298">
        <ele>238.642217</ele>
        <time>2022-04-29T15:11:59.092Z</time>
      </trkpt>
      <trkpt lat="43.71338" lon="1.48312">
        <ele>238.825348</ele>
        <time>2022-04-29T15:12:02.084Z</time>
      </trkpt>
      <trkpt lat="43.71329" lon="1.48326">
        <ele>239.015634</ele>
        <time>2022-04-29T15:12:05.088Z</time>
      </trkpt>
      <trkpt lat="43.71323" lon="1.48336">
        <ele>239.148825</ele>
        <time>2022-04-29T15:12:07.071Z</time>
      </trkpt>
      <trkpt lat="43.71317" lon="1.48345">
        <ele>239.285816</ele>
        <time>2022-04-29T15:12:09.084Z</time>
      </trkpt>
      <trkpt lat="43.7131" lon="1.48355">
        <ele>239.422806</ele>
        <time>2022-04-29T15:12:11.097Z</time>
      </trkpt>
      <trkpt lat="43.71304" lon="1.48366">
        <ele>239.564251</ele>
        <time>2022-04-29T15:12:13.099Z</time>
      </trkpt>
      <trkpt lat="43.71297" lon="1.48376">
        <ele>239.704886</ele>
        <time>2022-04-29T15:12:15.079Z</time>
      </trkpt>
      <trkpt lat="43.71291" lon="1.48387">
        <ele>239.84643</ele>
        <time>2022-04-29T15:12:17.112Z</time>
      </trkpt>
      <trkpt lat="43.71285" lon="1.48397">
        <ele>239.983888</ele>
        <time>2022-04-29T15:12:19.078Z</time>
      </trkpt>
      <trkpt lat="43.71278" lon="1.48407">
        <ele>240.121073</ele>
        <time>2022-04-29T15:12:21.101Z</time>
      </trkpt>
      <trkpt lat="43.71272" lon="1.48417">
        <ele>240.257744</ele>
        <time>2022-04-29T15:12:23.116Z</time>
      </trkpt>
      <trkpt lat="43.71266" lon="1.48427">
        <ele>240.395506</ele>
        <time>2022-04-29T15:12:25.081Z</time>
      </trkpt>
      <trkpt lat="43.71259" lon="1.48436">
        <ele>240.527948</ele>
        <time>2022-04-29T15:12:27.103Z</time>
      </trkpt>
      <trkpt lat="43.71253" lon="1.48446">
        <ele>240.66287</ele>
        <time>2022-04-29T15:12:29.071Z</time>
      </trkpt>
      <trkpt lat="43.71247" lon="1.48455">
        <ele>240.758147</ele>
        <time>2022-04-29T15:12:31.079Z</time>
      </trkpt>
      <trkpt lat="43.7124" lon="1.48465">
        <ele>240.843529</ele>
        <time>2022-04-29T15:12:33.081Z</time>
      </trkpt>
      <trkpt lat="43.71234" lon="1.48474">
        <ele>240.929879</ele>
        <time>2022-04-29T15:12:35.086Z</time>
      </trkpt>
      <trkpt lat="43.71227" lon="1.48483">
        <ele>241.017373</ele>
        <time>2022-04-29T15:12:37.101Z</time>
      </trkpt>
      <trkpt lat="43.7122" lon="1.48492">
        <ele>241.102576</ele>
        <time>2022-04-29T15:12:39.093Z</time>
      </trkpt>
      <trkpt lat="43.71214" lon="1.48501">
        <ele>241.188595</ele>
        <time>2022-04-29T15:12:41.089Z</time>
      </trkpt>
      <trkpt lat="43.71207" lon="1.48511">
        <ele>241.279458</ele>
        <time>2022-04-29T15:12:43.091Z</time>
      </trkpt>
      <trkpt lat="43.712" lon="1.4852">
        <ele>241.369308</ele>
        <time>2022-04-29T15:12:45.086Z</time>
      </trkpt>
      <trkpt lat="43.71193" lon="1.4853">
        <ele>241.45839</ele>
        <time>2022-04-29T15:12:47.116Z</time>
      </trkpt>
      <trkpt lat="43.71186" lon="1.48539">
        <ele>241.545884</ele>
        <time>2022-04-29T15:12:49.100Z</time>
      </trkpt>
      <trkpt lat="43.7118" lon="1.48548">
        <ele>241.631904</ele>
        <time>2022-04-29T15:12:51.093Z</time>
      </trkpt>
      <trkpt lat="43.71173" lon="1.48557">
        <ele>241.71521</ele>
        <time>2022-04-29T15:12:53.103Z</time>
      </trkpt>
      <trkpt lat="43.71163" lon="1.4857">
        <ele>241.837861</ele>
        <time>2022-04-29T15:12:56.085Z</time>
      </trkpt>
      <trkpt lat="43.71152" lon="1.48575">
        <ele>241.950908</ele>
        <time>2022-04-29T15:12:59.068Z</time>
      </trkpt>
      <trkpt lat="43.71141" lon="1.48564">
        <ele>242.071577</ele>
        <time>2022-04-29T15:13:02.087Z</time>
      </trkpt>
      <trkpt lat="43.71133" lon="1.48555">
        <ele>242.16517</ele>
        <time>2022-04-29T15:13:04.093Z</time>
      </trkpt>
      <trkpt lat="43.71125" lon="1.48545">
        <ele>242.267383</ele>
        <time>2022-04-29T15:13:06.074Z</time>
      </trkpt>
      <trkpt lat="43.71115" lon="1.48535">
        <ele>242.310094</ele>
        <time>2022-04-29T15:13:08.107Z</time>
      </trkpt>
      <trkpt lat="43.71106" lon="1.48525">
        <ele>242.197709</ele>
        <time>2022-04-29T15:13:10.087Z</time>
      </trkpt>
      <trkpt lat="43.71096" lon="1.48514">
        <ele>242.084206</ele>
        <time>2022-04-29T15:13:12.106Z</time>
      </trkpt>
      <trkpt lat="43.71086" lon="1.48503">
        <ele>241.971188</ele>
        <time>2022-04-29T15:13:14.105Z</time>
      </trkpt>
      <trkpt lat="43.71076" lon="1.48492">
        <ele>241.856214</ele>
        <time>2022-04-29T15:13:16.097Z</time>
      </trkpt>
      <trkpt lat="43.71067" lon="1.4848">
        <ele>241.744669</ele>
        <time>2022-04-29T15:13:18.088Z</time>
      </trkpt>
      <trkpt lat="43.71058" lon="1.4847">
        <ele>241.637502</ele>
        <time>2022-04-29T15:13:20.083Z</time>
      </trkpt>
      <trkpt lat="43.7105" lon="1.48459">
        <ele>241.533938</ele>
        <time>2022-04-29T15:13:22.080Z</time>
      </trkpt>
      <trkpt lat="43.71041" lon="1.4845">
        <ele>241.43497</ele>
        <time>2022-04-29T15:13:24.128Z</time>
      </trkpt>
      <trkpt lat="43.71032" lon="1.48443">
        <ele>241.338662</ele>
        <time>2022-04-29T15:13:26.088Z</time>
      </trkpt>
      <trkpt lat="43.71024" lon="1.48434">
        <ele>241.24629</ele>
        <time>2022-04-29T15:13:28.096Z</time>
      </trkpt>
      <trkpt lat="43.71014" lon="1.48425">
        <ele>241.140744</ele>
        <time>2022-04-29T15:13:31.089Z</time>
      </trkpt>
      <trkpt lat="43.71006" lon="1.48415">
        <ele>241.047538</ele>
        <time>2022-04-29T15:13:40.072Z</time>
      </trkpt>
      <trkpt lat="43.70998" lon="1.48406">
        <ele>240.949974</ele>
        <time>2022-04-29T15:13:44.072Z</time>
      </trkpt>
      <trkpt lat="43.7099" lon="1.48396">
        <ele>240.849069</ele>
        <time>2022-04-29T15:13:47.077Z</time>
      </trkpt>
      <trkpt lat="43.70982" lon="1.48388">
        <ele>240.764045</ele>
        <time>2022-04-29T15:13:49.101Z</time>
      </trkpt>
      <trkpt lat="43.70974" lon="1.48379">
        <ele>240.70877</ele>
        <time>2022-04-29T15:13:51.061Z</time>
      </trkpt>
      <trkpt lat="43.70964" lon="1.48369">
        <ele>240.700477</ele>
        <time>2022-04-29T15:13:53.088Z</time>
      </trkpt>
      <trkpt lat="43.70955" lon="1.48359">
        <ele>240.692041</ele>
        <time>2022-04-29T15:13:55.083Z</time>
      </trkpt>
      <trkpt lat="43.70945" lon="1.48349">
        <ele>240.68341</ele>
        <time>2022-04-29T15:13:57.098Z</time>
      </trkpt>
      <trkpt lat="43.70934" lon="1.4834">
        <ele>240.674661</ele>
        <time>2022-04-29T15:13:59.086Z</time>
      </trkpt>
      <trkpt lat="43.70923" lon="1.48332">
        <ele>240.665769</ele>
        <time>2022-04-29T15:14:01.097Z</time>
      </trkpt>
      <trkpt lat="43.70912" lon="1.48323">
        <ele>240.65679</ele>
        <time>2022-04-29T15:14:03.092Z</time>
      </trkpt>
      <trkpt lat="43.70901" lon="1.48315">
        <ele>240.647921</ele>
        <time>2022-04-29T15:14:05.081Z</time>
      </trkpt>
      <trkpt lat="43.7089" lon="1.48307">
        <ele>240.639083</ele>
        <time>2022-04-29T15:14:07.097Z</time>
      </trkpt>
      <trkpt lat="43.70879" lon="1.483">
        <ele>240.630307</ele>
        <time>2022-04-29T15:14:09.082Z</time>
      </trkpt>
      <trkpt lat="43.70868" lon="1.48292">
        <ele>240.621658</ele>
        <time>2022-04-29T15:14:11.077Z</time>
      </trkpt>
      <trkpt lat="43.70857" lon="1.48285">
        <ele>240.613164</ele>
        <time>2022-04-29T15:14:13.092Z</time>
      </trkpt>
      <trkpt lat="43.70846" lon="1.48277">
        <ele>240.604616</ele>
        <time>2022-04-29T15:14:15.098Z</time>
      </trkpt>
      <trkpt lat="43.70836" lon="1.48269">
        <ele>240.596203</ele>
        <time>2022-04-29T15:14:17.104Z</time>
      </trkpt>
      <trkpt lat="43.70825" lon="1.48262">
        <ele>240.587835</ele>
        <time>2022-04-29T15:14:19.087Z</time>
      </trkpt>
      <trkpt lat="43.70815" lon="1.48255">
        <ele>240.60665</ele>
        <time>2022-04-29T15:14:21.090Z</time>
      </trkpt>
      <trkpt lat="43.70804" lon="1.48248">
        <ele>240.636455</ele>
        <time>2022-04-29T15:14:23.103Z</time>
      </trkpt>
      <trkpt lat="43.70794" lon="1.4824">
        <ele>240.66632</ele>
        <time>2022-04-29T15:14:25.090Z</time>
      </trkpt>
      <trkpt lat="43.70783" lon="1.48233">
        <ele>240.696125</ele>
        <time>2022-04-29T15:14:27.085Z</time>
      </trkpt>
      <trkpt lat="43.70773" lon="1.48226">
        <ele>240.725307</ele>
        <time>2022-04-29T15:14:29.062Z</time>
      </trkpt>
      <trkpt lat="43.70762" lon="1.4822">
        <ele>240.754331</ele>
        <time>2022-04-29T15:14:31.095Z</time>
      </trkpt>
      <trkpt lat="43.70752" lon="1.48213">
        <ele>240.782741</ele>
        <time>2022-04-29T15:14:33.112Z</time>
      </trkpt>
      <trkpt lat="43.70741" lon="1.48207">
        <ele>240.81277</ele>
        <time>2022-04-29T15:14:35.083Z</time>
      </trkpt>
      <trkpt lat="43.70731" lon="1.482">
        <ele>240.842873</ele>
        <time>2022-04-29T15:14:37.101Z</time>
      </trkpt>
      <trkpt lat="43.7072" lon="1.48193">
        <ele>240.872902</ele>
        <time>2022-04-29T15:14:39.090Z</time>
      </trkpt>
      <trkpt lat="43.70709" lon="1.48187">
        <ele>240.90255</ele>
        <time>2022-04-29T15:14:41.086Z</time>
      </trkpt>
      <trkpt lat="43.70699" lon="1.4818">
        <ele>240.931347</ele>
        <time>2022-04-29T15:14:43.094Z</time>
      </trkpt>
      <trkpt lat="43.70689" lon="1.48172">
        <ele>240.96148</ele>
        <time>2022-04-29T15:14:45.090Z</time>
      </trkpt>
      <trkpt lat="43.70679" lon="1.48163">
        <ele>240.9915</ele>
        <time>2022-04-29T15:14:47.062Z</time>
      </trkpt>
      <trkpt lat="43.70669" lon="1.48153">
        <ele>241.021413</ele>
        <time>2022-04-29T15:14:49.098Z</time>
      </trkpt>
      <trkpt lat="43.7066" lon="1.48142">
        <ele>241.034017</ele>
        <time>2022-04-29T15:14:51.093Z</time>
      </trkpt>
      <trkpt lat="43.70653" lon="1.4813">
        <ele>241.005049</ele>
        <time>2022-04-29T15:14:53.081Z</time>
      </trkpt>
      <trkpt lat="43.70645" lon="1.48117">
        <ele>240.974014</ele>
        <time>2022-04-29T15:14:55.083Z</time>
      </trkpt>
      <trkpt lat="43.70637" lon="1.48103">
        <ele>240.943134</ele>
        <time>2022-04-29T15:14:57.093Z</time>
      </trkpt>
      <trkpt lat="43.7063" lon="1.48089">
        <ele>240.911711</ele>
        <time>2022-04-29T15:14:59.061Z</time>
      </trkpt>
      <trkpt lat="43.70622" lon="1.48076">
        <ele>240.881571</ele>
        <time>2022-04-29T15:15:01.084Z</time>
      </trkpt>
      <trkpt lat="43.70615" lon="1.48062">
        <ele>240.852025</ele>
        <time>2022-04-29T15:15:03.083Z</time>
      </trkpt>
      <trkpt lat="43.70608" lon="1.48049">
        <ele>240.82306</ele>
        <time>2022-04-29T15:15:05.082Z</time>
      </trkpt>
      <trkpt lat="43.70601" lon="1.48036">
        <ele>240.794809</ele>
        <time>2022-04-29T15:15:07.077Z</time>
      </trkpt>
      <trkpt lat="43.70595" lon="1.48023">
        <ele>240.766426</ele>
        <time>2022-04-29T15:15:09.108Z</time>
      </trkpt>
      <trkpt lat="43.70588" lon="1.48011">
        <ele>240.737747</ele>
        <time>2022-04-29T15:15:11.093Z</time>
      </trkpt>
      <trkpt lat="43.70581" lon="1.47998">
        <ele>240.70936</ele>
        <time>2022-04-29T15:15:13.095Z</time>
      </trkpt>
      <trkpt lat="43.70574" lon="1.47984">
        <ele>240.680214</ele>
        <time>2022-04-29T15:15:15.096Z</time>
      </trkpt>
      <trkpt lat="43.70568" lon="1.4797">
        <ele>240.6509</ele>
        <time>2022-04-29T15:15:17.102Z</time>
      </trkpt>
      <trkpt lat="43.70562" lon="1.47957">
        <ele>240.622053</ele>
        <time>2022-04-29T15:15:19.105Z</time>
      </trkpt>
      <trkpt lat="43.70555" lon="1.47944">
        <ele>240.615608</ele>
        <time>2022-04-29T15:15:21.092Z</time>
      </trkpt>
      <trkpt lat="43.70549" lon="1.4793">
        <ele>240.734807</ele>
        <time>2022-04-29T15:15:23.090Z</time>
      </trkpt>
      <trkpt lat="43.70543" lon="1.47916">
        <ele>240.852023</ele>
        <time>2022-04-29T15:15:25.084Z</time>
      </trkpt>
      <trkpt lat="43.70537" lon="1.47903">
        <ele>240.97049</ele>
        <time>2022-04-29T15:15:27.093Z</time>
      </trkpt>
      <trkpt lat="43.70531" lon="1.47889">
        <ele>241.08717</ele>
        <time>2022-04-29T15:15:29.088Z</time>
      </trkpt>
      <trkpt lat="43.70525" lon="1.47876">
        <ele>241.20343</ele>
        <time>2022-04-29T15:15:31.094Z</time>
      </trkpt>
      <trkpt lat="43.70519" lon="1.47863">
        <ele>241.316309</ele>
        <time>2022-04-29T15:15:33.099Z</time>
      </trkpt>
      <trkpt lat="43.70513" lon="1.4785">
        <ele>241.429869</ele>
        <time>2022-04-29T15:15:35.093Z</time>
      </trkpt>
      <trkpt lat="43.70508" lon="1.47836">
        <ele>241.543626</ele>
        <time>2022-04-29T15:15:37.095Z</time>
      </trkpt>
      <trkpt lat="43.70503" lon="1.47822">
        <ele>241.659259</ele>
        <time>2022-04-29T15:15:39.104Z</time>
      </trkpt>
      <trkpt lat="43.70498" lon="1.47808">
        <ele>241.772536</ele>
        <time>2022-04-29T15:15:41.082Z</time>
      </trkpt>
      <trkpt lat="43.70492" lon="1.47795">
        <ele>241.885491</ele>
        <time>2022-04-29T15:15:43.082Z</time>
      </trkpt>
      <trkpt lat="43.70486" lon="1.47782">
        <ele>242.000114</ele>
        <time>2022-04-29T15:15:45.098Z</time>
      </trkpt>
      <trkpt lat="43.70479" lon="1.47771">
        <ele>242.111981</ele>
        <time>2022-04-29T15:15:47.088Z</time>
      </trkpt>
      <trkpt lat="43.7047" lon="1.47762">
        <ele>242.223403</ele>
        <time>2022-04-29T15:15:49.089Z</time>
      </trkpt>
      <trkpt lat="43.70459" lon="1.47756">
        <ele>242.338106</ele>
        <time>2022-04-29T15:15:51.074Z</time>
      </trkpt>
      <trkpt lat="43.70449" lon="1.47751">
        <ele>242.494865</ele>
        <time>2022-04-29T15:15:53.084Z</time>
      </trkpt>
      <trkpt lat="43.70438" lon="1.47746">
        <ele>242.820827</ele>
        <time>2022-04-29T15:15:55.087Z</time>
      </trkpt>
      <trkpt lat="43.70428" lon="1.47741">
        <ele>243.145843</ele>
        <time>2022-04-29T15:15:57.070Z</time>
      </trkpt>
      <trkpt lat="43.70417" lon="1.47735">
        <ele>243.470166</ele>
        <time>2022-04-29T15:15:59.116Z</time>
      </trkpt>
      <trkpt lat="43.70406" lon="1.47731">
        <ele>243.792485</ele>
        <time>2022-04-29T15:16:01.116Z</time>
      </trkpt>
      <trkpt lat="43.70396" lon="1.47726">
        <ele>244.116128</ele>
        <time>2022-04-29T15:16:03.085Z</time>
      </trkpt>
      <trkpt lat="43.70385" lon="1.4772">
        <ele>244.432987</ele>
        <time>2022-04-29T15:16:05.089Z</time>
      </trkpt>
      <trkpt lat="43.70375" lon="1.47716">
        <ele>244.747717</ele>
        <time>2022-04-29T15:16:07.080Z</time>
      </trkpt>
      <trkpt lat="43.70365" lon="1.47711">
        <ele>245.053742</ele>
        <time>2022-04-29T15:16:09.089Z</time>
      </trkpt>
      <trkpt lat="43.70355" lon="1.47705">
        <ele>245.367101</ele>
        <time>2022-04-29T15:16:11.088Z</time>
      </trkpt>
      <trkpt lat="43.70345" lon="1.477">
        <ele>245.688697</ele>
        <time>2022-04-29T15:16:13.068Z</time>
      </trkpt>
      <trkpt lat="43.70334" lon="1.47696">
        <ele>246.007339</ele>
        <time>2022-04-29T15:16:15.084Z</time>
      </trkpt>
      <trkpt lat="43.70324" lon="1.4769">
        <ele>246.332177</ele>
        <time>2022-04-29T15:16:17.088Z</time>
      </trkpt>
      <trkpt lat="43.70313" lon="1.47684">
        <ele>246.658909</ele>
        <time>2022-04-29T15:16:19.082Z</time>
      </trkpt>
      <trkpt lat="43.70303" lon="1.47679">
        <ele>246.98296</ele>
        <time>2022-04-29T15:16:21.083Z</time>
      </trkpt>
      <trkpt lat="43.70293" lon="1.47673">
        <ele>247.295517</ele>
        <time>2022-04-29T15:16:23.089Z</time>
      </trkpt>
      <trkpt lat="43.70284" lon="1.47668">
        <ele>247.563513</ele>
        <time>2022-04-29T15:16:25.078Z</time>
      </trkpt>
      <trkpt lat="43.70274" lon="1.47663">
        <ele>247.630434</ele>
        <time>2022-04-29T15:16:29.098Z</time>
      </trkpt>
      <trkpt lat="43.70265" lon="1.47656">
        <ele>247.633475</ele>
        <time>2022-04-29T15:16:33.094Z</time>
      </trkpt>
      <trkpt lat="43.70256" lon="1.47648">
        <ele>247.636629</ele>
        <time>2022-04-29T15:16:36.092Z</time>
      </trkpt>
      <trkpt lat="43.70247" lon="1.47642">
        <ele>247.639446</ele>
        <time>2022-04-29T15:16:38.090Z</time>
      </trkpt>
      <trkpt lat="43.70237" lon="1.47633">
        <ele>247.642848</ele>
        <time>2022-04-29T15:16:40.082Z</time>
      </trkpt>
      <trkpt lat="43.70227" lon="1.47625">
        <ele>247.646348</ele>
        <time>2022-04-29T15:16:42.102Z</time>
      </trkpt>
      <trkpt lat="43.70215" lon="1.47616">
        <ele>247.650298</ele>
        <time>2022-04-29T15:16:44.104Z</time>
      </trkpt>
      <trkpt lat="43.70202" lon="1.47607">
        <ele>247.654471</ele>
        <time>2022-04-29T15:16:46.113Z</time>
      </trkpt>
      <trkpt lat="43.70188" lon="1.47603">
        <ele>247.658816</ele>
        <time>2022-04-29T15:16:48.095Z</time>
      </trkpt>
      <trkpt lat="43.70174" lon="1.47607">
        <ele>247.662938</ele>
        <time>2022-04-29T15:16:50.102Z</time>
      </trkpt>
      <trkpt lat="43.70161" lon="1.47613">
        <ele>247.666884</ele>
        <time>2022-04-29T15:16:52.087Z</time>
      </trkpt>
      <trkpt lat="43.7015" lon="1.47619">
        <ele>247.670559</ele>
        <time>2022-04-29T15:16:54.070Z</time>
      </trkpt>
      <trkpt lat="43.70138" lon="1.47624">
        <ele>247.674203</ele>
        <time>2022-04-29T15:16:56.094Z</time>
      </trkpt>
      <trkpt lat="43.70126" lon="1.47628">
        <ele>247.67769</ele>
        <time>2022-04-29T15:16:58.081Z</time>
      </trkpt>
      <trkpt lat="43.70114" lon="1.47628">
        <ele>247.751661</ele>
        <time>2022-04-29T15:17:00.098Z</time>
      </trkpt>
      <trkpt lat="43.70102" lon="1.47627">
        <ele>248.147482</ele>
        <time>2022-04-29T15:17:02.078Z</time>
      </trkpt>
      <trkpt lat="43.70091" lon="1.47625">
        <ele>248.53462</ele>
        <time>2022-04-29T15:17:04.092Z</time>
      </trkpt>
      <trkpt lat="43.70079" lon="1.47623">
        <ele>248.918075</ele>
        <time>2022-04-29T15:17:06.092Z</time>
      </trkpt>
      <trkpt lat="43.70068" lon="1.4762">
        <ele>249.311356</ele>
        <time>2022-04-29T15:17:08.096Z</time>
      </trkpt>
      <trkpt lat="43.70056" lon="1.47618">
        <ele>249.713098</ele>
        <time>2022-04-29T15:17:10.092Z</time>
      </trkpt>
      <trkpt lat="43.70044" lon="1.47618">
        <ele>250.108154</ele>
        <time>2022-04-29T15:17:12.092Z</time>
      </trkpt>
      <trkpt lat="43.70033" lon="1.47618">
        <ele>250.473422</ele>
        <time>2022-04-29T15:17:14.090Z</time>
      </trkpt>
      <trkpt lat="43.70021" lon="1.4762">
        <ele>250.85121</ele>
        <time>2022-04-29T15:17:16.098Z</time>
      </trkpt>
      <trkpt lat="43.7001" lon="1.47624">
        <ele>251.24017</ele>
        <time>2022-04-29T15:17:18.088Z</time>
      </trkpt>
      <trkpt lat="43.69999" lon="1.4763">
        <ele>251.618491</ele>
        <time>2022-04-29T15:17:20.105Z</time>
      </trkpt>
      <trkpt lat="43.6999" lon="1.47638">
        <ele>251.988</ele>
        <time>2022-04-29T15:17:22.099Z</time>
      </trkpt>
      <trkpt lat="43.69981" lon="1.47648">
        <ele>252.358861</ele>
        <time>2022-04-29T15:17:24.118Z</time>
      </trkpt>
      <trkpt lat="43.69973" lon="1.47658">
        <ele>252.730761</ele>
        <time>2022-04-29T15:17:26.098Z</time>
      </trkpt>
      <trkpt lat="43.69964" lon="1.47669">
        <ele>253.123576</ele>
        <time>2022-04-29T15:17:28.080Z</time>
      </trkpt>
      <trkpt lat="43.69956" lon="1.4768">
        <ele>253.495603</ele>
        <time>2022-04-29T15:17:30.095Z</time>
      </trkpt>
      <trkpt lat="43.69949" lon="1.4769">
        <ele>253.916</ele>
        <time>2022-04-29T15:17:32.106Z</time>
      </trkpt>
      <trkpt lat="43.69941" lon="1.47701">
        <ele>254.412895</ele>
        <time>2022-04-29T15:17:34.097Z</time>
      </trkpt>
      <trkpt lat="43.69933" lon="1.47711">
        <ele>254.899926</ele>
        <time>2022-04-29T15:17:36.078Z</time>
      </trkpt>
      <trkpt lat="43.69926" lon="1.47721">
        <ele>255.366575</ele>
        <time>2022-04-29T15:17:38.087Z</time>
      </trkpt>
      <trkpt lat="43.69919" lon="1.47732">
        <ele>255.853985</ele>
        <time>2022-04-29T15:17:40.092Z</time>
      </trkpt>
      <trkpt lat="43.69912" lon="1.47742">
        <ele>256.331026</ele>
        <time>2022-04-29T15:17:42.097Z</time>
      </trkpt>
      <trkpt lat="43.69904" lon="1.47752">
        <ele>256.812446</ele>
        <time>2022-04-29T15:17:44.083Z</time>
      </trkpt>
      <trkpt lat="43.69897" lon="1.47761">
        <ele>257.237575</ele>
        <time>2022-04-29T15:17:46.104Z</time>
      </trkpt>
      <trkpt lat="43.69886" lon="1.47768">
        <ele>257.790552</ele>
        <time>2022-04-29T15:17:49.078Z</time>
      </trkpt>
      <trkpt lat="43.69877" lon="1.47779">
        <ele>258.369957</ele>
        <time>2022-04-29T15:17:52.088Z</time>
      </trkpt>
      <trkpt lat="43.69871" lon="1.4779">
        <ele>258.816365</ele>
        <time>2022-04-29T15:17:54.085Z</time>
      </trkpt>
      <trkpt lat="43.69862" lon="1.47796">
        <ele>259.301229</ele>
        <time>2022-04-29T15:17:56.091Z</time>
      </trkpt>
      <trkpt lat="43.69852" lon="1.478">
        <ele>259.776486</ele>
        <time>2022-04-29T15:17:58.080Z</time>
      </trkpt>
      <trkpt lat="43.69841" lon="1.47804">
        <ele>260.27103</ele>
        <time>2022-04-29T15:18:00.100Z</time>
      </trkpt>
      <trkpt lat="43.69831" lon="1.47808">
        <ele>260.758612</ele>
        <time>2022-04-29T15:18:02.113Z</time>
      </trkpt>
      <trkpt lat="43.69821" lon="1.47812">
        <ele>261.262145</ele>
        <time>2022-04-29T15:18:04.079Z</time>
      </trkpt>
      <trkpt lat="43.6981" lon="1.47816">
        <ele>261.768204</ele>
        <time>2022-04-29T15:18:06.089Z</time>
      </trkpt>
      <trkpt lat="43.69799" lon="1.4782">
        <ele>261.980122</ele>
        <time>2022-04-29T15:18:08.107Z</time>
      </trkpt>
      <trkpt lat="43.69788" lon="1.47824">
        <ele>262.081212</ele>
        <time>2022-04-29T15:18:10.095Z</time>
      </trkpt>
      <trkpt lat="43.69778" lon="1.47828">
        <ele>262.181429</ele>
        <time>2022-04-29T15:18:12.096Z</time>
      </trkpt>
      <trkpt lat="43.69766" lon="1.47832">
        <ele>262.287396</ele>
        <time>2022-04-29T15:18:14.100Z</time>
      </trkpt>
      <trkpt lat="43.69755" lon="1.47834">
        <ele>262.389588</ele>
        <time>2022-04-29T15:18:16.094Z</time>
      </trkpt>
      <trkpt lat="43.69744" lon="1.47836">
        <ele>262.491695</ele>
        <time>2022-04-29T15:18:18.075Z</time>
      </trkpt>
      <trkpt lat="43.69732" lon="1.47837">
        <ele>262.595707</ele>
        <time>2022-04-29T15:18:20.100Z</time>
      </trkpt>
      <trkpt lat="43.69721" lon="1.47835">
        <ele>262.699692</ele>
        <time>2022-04-29T15:18:22.088Z</time>
      </trkpt>
      <trkpt lat="43.6971" lon="1.47829">
        <ele>262.806977</ele>
        <time>2022-04-29T15:18:24.083Z</time>
      </trkpt>
      <trkpt lat="43.697" lon="1.4782">
        <ele>262.91602</ele>
        <time>2022-04-29T15:18:26.091Z</time>
      </trkpt>
      <trkpt lat="43.6969" lon="1.4781">
        <ele>263.025077</ele>
        <time>2022-04-29T15:18:28.098Z</time>
      </trkpt>
      <trkpt lat="43.69681" lon="1.47799">
        <ele>263.13376</ele>
        <time>2022-04-29T15:18:30.083Z</time>
      </trkpt>
      <trkpt lat="43.69672" lon="1.47789">
        <ele>263.237305</ele>
        <time>2022-04-29T15:18:32.106Z</time>
      </trkpt>
      <trkpt lat="43.69663" lon="1.47779">
        <ele>263.337933</ele>
        <time>2022-04-29T15:18:34.088Z</time>
      </trkpt>
      <trkpt lat="43.69655" lon="1.4777">
        <ele>263.435343</ele>
        <time>2022-04-29T15:18:36.107Z</time>
      </trkpt>
      <trkpt lat="43.69647" lon="1.47759">
        <ele>263.517687</ele>
        <time>2022-04-29T15:18:39.110Z</time>
      </trkpt>
      <trkpt lat="43.6965" lon="1.47745">
        <ele>263.321971</ele>
        <time>2022-04-29T15:18:44.084Z</time>
      </trkpt>
      <trkpt lat="43.69641" lon="1.47735">
        <ele>263.110773</ele>
        <time>2022-04-29T15:18:47.102Z</time>
      </trkpt>
      <trkpt lat="43.69633" lon="1.47724">
        <ele>262.901326</ele>
        <time>2022-04-29T15:18:49.106Z</time>
      </trkpt>
      <trkpt lat="43.69627" lon="1.47709">
        <ele>262.676267</ele>
        <time>2022-04-29T15:18:51.067Z</time>
      </trkpt>
      <trkpt lat="43.69621" lon="1.47693">
        <ele>262.446438</ele>
        <time>2022-04-29T15:18:53.086Z</time>
      </trkpt>
      <trkpt lat="43.69615" lon="1.47678">
        <ele>262.207992</ele>
        <time>2022-04-29T15:18:55.086Z</time>
      </trkpt>
      <trkpt lat="43.69609" lon="1.47662">
        <ele>261.973538</ele>
        <time>2022-04-29T15:18:57.091Z</time>
      </trkpt>
      <trkpt lat="43.69602" lon="1.47646">
        <ele>261.732162</ele>
        <time>2022-04-29T15:18:59.088Z</time>
      </trkpt>
      <trkpt lat="43.69596" lon="1.4763">
        <ele>261.491381</ele>
        <time>2022-04-29T15:19:01.086Z</time>
      </trkpt>
      <trkpt lat="43.6959" lon="1.47614">
        <ele>261.251968</ele>
        <time>2022-04-29T15:19:03.084Z</time>
      </trkpt>
      <trkpt lat="43.69585" lon="1.47598">
        <ele>261.019748</ele>
        <time>2022-04-29T15:19:05.087Z</time>
      </trkpt>
      <trkpt lat="43.69583" lon="1.47582">
        <ele>260.796237</ele>
        <time>2022-04-29T15:19:07.070Z</time>
      </trkpt>
      <trkpt lat="43.69581" lon="1.47565">
        <ele>260.573313</ele>
        <time>2022-04-29T15:19:09.075Z</time>
      </trkpt>
      <trkpt lat="43.69577" lon="1.4755">
        <ele>260.363745</ele>
        <time>2022-04-29T15:19:11.083Z</time>
      </trkpt>
      <trkpt lat="43.69571" lon="1.47536">
        <ele>260.065218</ele>
        <time>2022-04-29T15:19:13.091Z</time>
      </trkpt>
      <trkpt lat="43.69561" lon="1.47525">
        <ele>259.631877</ele>
        <time>2022-04-29T15:19:15.079Z</time>
      </trkpt>
      <trkpt lat="43.69551" lon="1.47516">
        <ele>259.205009</ele>
        <time>2022-04-29T15:19:17.088Z</time>
      </trkpt>
      <trkpt lat="43.69541" lon="1.47508">
        <ele>258.833032</ele>
        <time>2022-04-29T15:19:19.091Z</time>
      </trkpt>
      <trkpt lat="43.6953" lon="1.47517">
        <ele>258.394138</ele>
        <time>2022-04-29T15:19:21.080Z</time>
      </trkpt>
      <trkpt lat="43.6952" lon="1.47532">
        <ele>257.869089</ele>
        <time>2022-04-29T15:19:23.082Z</time>
      </trkpt>
      <trkpt lat="43.6951" lon="1.47549">
        <ele>257.311329</ele>
        <time>2022-04-29T15:19:25.074Z</time>
      </trkpt>
      <trkpt lat="43.69499" lon="1.47566">
        <ele>256.757762</ele>
        <time>2022-04-29T15:19:27.097Z</time>
      </trkpt>
      <trkpt lat="43.6949" lon="1.47586">
        <ele>256.150114</ele>
        <time>2022-04-29T15:19:29.084Z</time>
      </trkpt>
      <trkpt lat="43.69487" lon="1.47608">
        <ele>255.581078</ele>
        <time>2022-04-29T15:19:31.076Z</time>
      </trkpt>
      <trkpt lat="43.69485" lon="1.47622">
        <ele>255.228382</ele>
        <time>2022-04-29T15:19:32.091Z</time>
      </trkpt>
      <trkpt lat="43.6948" lon="1.47645">
        <ele>254.622102</ele>
        <time>2022-04-29T15:19:34.091Z</time>
      </trkpt>
      <trkpt lat="43.69477" lon="1.4767">
        <ele>253.987659</ele>
        <time>2022-04-29T15:19:36.093Z</time>
      </trkpt>
      <trkpt lat="43.69472" lon="1.47682">
        <ele>253.682052</ele>
        <time>2022-04-29T15:19:37.082Z</time>
      </trkpt>
      <trkpt lat="43.69468" lon="1.47694">
        <ele>253.404813</ele>
        <time>2022-04-29T15:19:38.083Z</time>
      </trkpt>
      <trkpt lat="43.69464" lon="1.47706">
        <ele>253.123652</ele>
        <time>2022-04-29T15:19:39.089Z</time>
      </trkpt>
      <trkpt lat="43.69455" lon="1.47726">
        <ele>252.587765</ele>
        <time>2022-04-29T15:19:41.085Z</time>
      </trkpt>
      <trkpt lat="43.6945" lon="1.47738">
        <ele>252.304555</ele>
        <time>2022-04-29T15:19:42.080Z</time>
      </trkpt>
      <trkpt lat="43.69443" lon="1.47756">
        <ele>251.861951</ele>
        <time>2022-04-29T15:19:44.078Z</time>
      </trkpt>
      <trkpt lat="43.69438" lon="1.47768">
        <ele>251.547303</ele>
        <time>2022-04-29T15:19:46.097Z</time>
      </trkpt>
      <trkpt lat="43.69429" lon="1.47773">
        <ele>251.255436</ele>
        <time>2022-04-29T15:19:48.082Z</time>
      </trkpt>
      <trkpt lat="43.69419" lon="1.47774">
        <ele>250.945034</ele>
        <time>2022-04-29T15:19:50.061Z</time>
      </trkpt>
      <trkpt lat="43.69407" lon="1.47774">
        <ele>250.599252</ele>
        <time>2022-04-29T15:19:52.056Z</time>
      </trkpt>
      <trkpt lat="43.69396" lon="1.47774">
        <ele>250.268625</ele>
        <time>2022-04-29T15:19:54.086Z</time>
      </trkpt>
      <trkpt lat="43.69384" lon="1.47774">
        <ele>249.905003</ele>
        <time>2022-04-29T15:19:56.098Z</time>
      </trkpt>
      <trkpt lat="43.69372" lon="1.47775">
        <ele>249.549787</ele>
        <time>2022-04-29T15:19:58.106Z</time>
      </trkpt>
      <trkpt lat="43.6936" lon="1.47777">
        <ele>249.190941</ele>
        <time>2022-04-29T15:20:00.098Z</time>
      </trkpt>
      <trkpt lat="43.69348" lon="1.47778">
        <ele>248.829852</ele>
        <time>2022-04-29T15:20:02.091Z</time>
      </trkpt>
      <trkpt lat="43.69336" lon="1.47777">
        <ele>248.475293</ele>
        <time>2022-04-29T15:20:04.098Z</time>
      </trkpt>
      <trkpt lat="43.69324" lon="1.47779">
        <ele>248.155173</ele>
        <time>2022-04-29T15:20:06.111Z</time>
      </trkpt>
      <trkpt lat="43.69311" lon="1.47777">
        <ele>247.82091</ele>
        <time>2022-04-29T15:20:08.082Z</time>
      </trkpt>
      <trkpt lat="43.693" lon="1.47768">
        <ele>247.477322</ele>
        <time>2022-04-29T15:20:10.087Z</time>
      </trkpt>
      <trkpt lat="43.69289" lon="1.47756">
        <ele>247.099273</ele>
        <time>2022-04-29T15:20:12.086Z</time>
      </trkpt>
      <trkpt lat="43.69278" lon="1.47742">
        <ele>246.703403</ele>
        <time>2022-04-29T15:20:14.079Z</time>
      </trkpt>
      <trkpt lat="43.69266" lon="1.47728">
        <ele>246.300873</ele>
        <time>2022-04-29T15:20:16.098Z</time>
      </trkpt>
      <trkpt lat="43.69255" lon="1.47717">
        <ele>245.930759</ele>
        <time>2022-04-29T15:20:18.091Z</time>
      </trkpt>
      <trkpt lat="43.69245" lon="1.47707">
        <ele>245.603021</ele>
        <time>2022-04-29T15:20:20.110Z</time>
      </trkpt>
      <trkpt lat="43.69235" lon="1.47698">
        <ele>245.302353</ele>
        <time>2022-04-29T15:20:22.088Z</time>
      </trkpt>
      <trkpt lat="43.69226" lon="1.47692">
        <ele>245.041739</ele>
        <time>2022-04-29T15:20:24.091Z</time>
      </trkpt>
      <trkpt lat="43.69217" lon="1.47688">
        <ele>244.794509</ele>
        <time>2022-04-29T15:20:26.088Z</time>
      </trkpt>
      <trkpt lat="43.69209" lon="1.4768">
        <ele>244.52645</ele>
        <time>2022-04-29T15:20:28.091Z</time>
      </trkpt>
      <trkpt lat="43.69198" lon="1.4767">
        <ele>244.187852</ele>
        <time>2022-04-29T15:20:30.083Z</time>
      </trkpt>
      <trkpt lat="43.69186" lon="1.4766">
        <ele>243.79337</ele>
        <time>2022-04-29T15:20:32.091Z</time>
      </trkpt>
      <trkpt lat="43.69173" lon="1.47649">
        <ele>242.331385</ele>
        <time>2022-04-29T15:20:34.087Z</time>
      </trkpt>
      <trkpt lat="43.69161" lon="1.47635">
        <ele>240.763436</ele>
        <time>2022-04-29T15:20:36.098Z</time>
      </trkpt>
      <trkpt lat="43.69148" lon="1.47618">
        <ele>239.035639</ele>
        <time>2022-04-29T15:20:38.079Z</time>
      </trkpt>
      <trkpt lat="43.69142" lon="1.47606">
        <ele>238.020221</ele>
        <time>2022-04-29T15:20:39.097Z</time>
      </trkpt>
      <trkpt lat="43.69137" lon="1.47593">
        <ele>237.00637</ele>
        <time>2022-04-29T15:20:40.095Z</time>
      </trkpt>
      <trkpt lat="43.69132" lon="1.4758">
        <ele>235.969429</ele>
        <time>2022-04-29T15:20:41.086Z</time>
      </trkpt>
      <trkpt lat="43.69128" lon="1.47567">
        <ele>234.949572</ele>
        <time>2022-04-29T15:20:42.072Z</time>
      </trkpt>
      <trkpt lat="43.69124" lon="1.47553">
        <ele>233.962072</ele>
        <time>2022-04-29T15:20:43.067Z</time>
      </trkpt>
      <trkpt lat="43.69121" lon="1.4754">
        <ele>232.966728</ele>
        <time>2022-04-29T15:20:44.087Z</time>
      </trkpt>
      <trkpt lat="43.69118" lon="1.47527">
        <ele>231.991452</ele>
        <time>2022-04-29T15:20:45.060Z</time>
      </trkpt>
      <trkpt lat="43.69115" lon="1.47513">
        <ele>231.026563</ele>
        <time>2022-04-29T15:20:46.091Z</time>
      </trkpt>
      <trkpt lat="43.69112" lon="1.475">
        <ele>230.042246</ele>
        <time>2022-04-29T15:20:47.082Z</time>
      </trkpt>
      <trkpt lat="43.69109" lon="1.47487">
        <ele>229.061028</ele>
        <time>2022-04-29T15:20:48.081Z</time>
      </trkpt>
      <trkpt lat="43.69105" lon="1.47473">
        <ele>228.007267</ele>
        <time>2022-04-29T15:20:49.083Z</time>
      </trkpt>
      <trkpt lat="43.69101" lon="1.47459">
        <ele>226.97067</ele>
        <time>2022-04-29T15:20:50.091Z</time>
      </trkpt>
      <trkpt lat="43.69096" lon="1.47446">
        <ele>226.382176</ele>
        <time>2022-04-29T15:20:51.082Z</time>
      </trkpt>
      <trkpt lat="43.69091" lon="1.47433">
        <ele>226.333403</ele>
        <time>2022-04-29T15:20:52.094Z</time>
      </trkpt>
      <trkpt lat="43.69085" lon="1.4742">
        <ele>226.280198</ele>
        <time>2022-04-29T15:20:53.078Z</time>
      </trkpt>
      <trkpt lat="43.69078" lon="1.47408">
        <ele>226.230222</ele>
        <time>2022-04-29T15:20:54.080Z</time>
      </trkpt>
      <trkpt lat="43.69072" lon="1.47399">
        <ele>226.187329</ele>
        <time>2022-04-29T15:20:55.084Z</time>
      </trkpt>
      <trkpt lat="43.69066" lon="1.47389">
        <ele>226.143632</ele>
        <time>2022-04-29T15:20:56.080Z</time>
      </trkpt>
      <trkpt lat="43.69059" lon="1.47379">
        <ele>226.099686</ele>
        <time>2022-04-29T15:20:57.086Z</time>
      </trkpt>
      <trkpt lat="43.69053" lon="1.4737">
        <ele>226.058153</ele>
        <time>2022-04-29T15:20:58.095Z</time>
      </trkpt>
      <trkpt lat="43.69047" lon="1.4736">
        <ele>226.016064</ele>
        <time>2022-04-29T15:20:59.093Z</time>
      </trkpt>
      <trkpt lat="43.6904" lon="1.4734">
        <ele>225.938576</ele>
        <time>2022-04-29T15:21:01.085Z</time>
      </trkpt>
      <trkpt lat="43.69033" lon="1.4732">
        <ele>225.866326</ele>
        <time>2022-04-29T15:21:03.107Z</time>
      </trkpt>
      <trkpt lat="43.69026" lon="1.47305">
        <ele>225.805671</ele>
        <time>2022-04-29T15:21:05.088Z</time>
      </trkpt>
      <trkpt lat="43.69018" lon="1.47296">
        <ele>225.76072</ele>
        <time>2022-04-29T15:21:07.075Z</time>
      </trkpt>
      <trkpt lat="43.69007" lon="1.47303">
        <ele>225.700447</ele>
        <time>2022-04-29T15:21:10.089Z</time>
      </trkpt>
      <trkpt lat="43.69002" lon="1.47315">
        <ele>225.655103</ele>
        <time>2022-04-29T15:21:12.095Z</time>
      </trkpt>
      <trkpt lat="43.68995" lon="1.47331">
        <ele>225.594297</ele>
        <time>2022-04-29T15:21:15.084Z</time>
      </trkpt>
      <trkpt lat="43.68988" lon="1.47346">
        <ele>226.050744</ele>
        <time>2022-04-29T15:21:18.069Z</time>
      </trkpt>
      <trkpt lat="43.68981" lon="1.47361">
        <ele>226.762032</ele>
        <time>2022-04-29T15:21:21.110Z</time>
      </trkpt>
      <trkpt lat="43.68973" lon="1.47375">
        <ele>227.451048</ele>
        <time>2022-04-29T15:21:24.077Z</time>
      </trkpt>
      <trkpt lat="43.68965" lon="1.47389">
        <ele>228.165546</ele>
        <time>2022-04-29T15:21:27.091Z</time>
      </trkpt>
      <trkpt lat="43.68957" lon="1.47404">
        <ele>228.870622</ele>
        <time>2022-04-29T15:21:30.084Z</time>
      </trkpt>
      <trkpt lat="43.6895" lon="1.47416">
        <ele>229.49262</ele>
        <time>2022-04-29T15:21:33.106Z</time>
      </trkpt>
      <trkpt lat="43.68944" lon="1.47426">
        <ele>230.000898</ele>
        <time>2022-04-29T15:21:39.080Z</time>
      </trkpt>
      <trkpt lat="43.68935" lon="1.47428">
        <ele>230.508965</ele>
        <time>2022-04-29T15:21:45.107Z</time>
      </trkpt>
      <trkpt lat="43.6893" lon="1.47416">
        <ele>231.055911</ele>
        <time>2022-04-29T15:21:48.079Z</time>
      </trkpt>
      <trkpt lat="43.68923" lon="1.47408">
        <ele>231.573826</ele>
        <time>2022-04-29T15:21:51.083Z</time>
      </trkpt>
      <trkpt lat="43.68914" lon="1.47399">
        <ele>232.140639</ele>
        <time>2022-04-29T15:21:54.111Z</time>
      </trkpt>
      <trkpt lat="43.68905" lon="1.4739">
        <ele>232.737101</ele>
        <time>2022-04-29T15:21:57.097Z</time>
      </trkpt>
      <trkpt lat="43.68901" lon="1.47376">
        <ele>233.34972</ele>
        <time>2022-04-29T15:22:00.097Z</time>
      </trkpt>
      <trkpt lat="43.68903" lon="1.47358">
        <ele>234.074434</ele>
        <time>2022-04-29T15:22:03.099Z</time>
      </trkpt>
      <trkpt lat="43.68908" lon="1.47345">
        <ele>234.637181</ele>
        <time>2022-04-29T15:22:05.082Z</time>
      </trkpt>
      <trkpt lat="43.68914" lon="1.47332">
        <ele>235.249625</ele>
        <time>2022-04-29T15:22:07.081Z</time>
      </trkpt>
      <trkpt lat="43.6892" lon="1.4732">
        <ele>235.196114</ele>
        <time>2022-04-29T15:22:09.088Z</time>
      </trkpt>
      <trkpt lat="43.68926" lon="1.47306">
        <ele>234.89004</ele>
        <time>2022-04-29T15:22:11.099Z</time>
      </trkpt>
      <trkpt lat="43.68933" lon="1.47292">
        <ele>234.56702</ele>
        <time>2022-04-29T15:22:13.083Z</time>
      </trkpt>
      <trkpt lat="43.68938" lon="1.47276">
        <ele>234.236162</ele>
        <time>2022-04-29T15:22:15.097Z</time>
      </trkpt>
      <trkpt lat="43.68939" lon="1.47259">
        <ele>233.897983</ele>
        <time>2022-04-29T15:22:17.083Z</time>
      </trkpt>
      <trkpt lat="43.68934" lon="1.47242">
        <ele>233.551104</ele>
        <time>2022-04-29T15:22:19.085Z</time>
      </trkpt>
      <trkpt lat="43.68926" lon="1.47228">
        <ele>233.202161</ele>
        <time>2022-04-29T15:22:21.053Z</time>
      </trkpt>
      <trkpt lat="43.68915" lon="1.47217">
        <ele>232.85725</ele>
        <time>2022-04-29T15:22:23.060Z</time>
      </trkpt>
      <trkpt lat="43.68904" lon="1.47205">
        <ele>232.491686</ele>
        <time>2022-04-29T15:22:25.074Z</time>
      </trkpt>
      <trkpt lat="43.68892" lon="1.47193">
        <ele>232.095975</ele>
        <time>2022-04-29T15:22:27.069Z</time>
      </trkpt>
      <trkpt lat="43.6888" lon="1.47177">
        <ele>231.657721</ele>
        <time>2022-04-29T15:22:29.084Z</time>
      </trkpt>
      <trkpt lat="43.68867" lon="1.4716">
        <ele>231.180869</ele>
        <time>2022-04-29T15:22:31.063Z</time>
      </trkpt>
      <trkpt lat="43.6886" lon="1.47151">
        <ele>230.934591</ele>
        <time>2022-04-29T15:22:32.082Z</time>
      </trkpt>
      <trkpt lat="43.68846" lon="1.47137">
        <ele>231.032307</ele>
        <time>2022-04-29T15:22:34.077Z</time>
      </trkpt>
      <trkpt lat="43.68835" lon="1.47125">
        <ele>231.747097</ele>
        <time>2022-04-29T15:22:36.090Z</time>
      </trkpt>
      <trkpt lat="43.68826" lon="1.47115">
        <ele>232.318768</ele>
        <time>2022-04-29T15:22:38.083Z</time>
      </trkpt>
      <trkpt lat="43.68819" lon="1.47106">
        <ele>232.816483</ele>
        <time>2022-04-29T15:22:40.083Z</time>
      </trkpt>
      <trkpt lat="43.68814" lon="1.47095">
        <ele>233.288605</ele>
        <time>2022-04-29T15:22:42.073Z</time>
      </trkpt>
      <trkpt lat="43.68809" lon="1.47083">
        <ele>233.795054</ele>
        <time>2022-04-29T15:22:44.095Z</time>
      </trkpt>
      <trkpt lat="43.68803" lon="1.47072">
        <ele>234.312323</ele>
        <time>2022-04-29T15:22:46.097Z</time>
      </trkpt>
      <trkpt lat="43.68794" lon="1.47063">
        <ele>234.878829</ele>
        <time>2022-04-29T15:22:48.077Z</time>
      </trkpt>
      <trkpt lat="43.68785" lon="1.47053">
        <ele>235.483039</ele>
        <time>2022-04-29T15:22:50.092Z</time>
      </trkpt>
      <trkpt lat="43.68775" lon="1.47044">
        <ele>236.073911</ele>
        <time>2022-04-29T15:22:52.104Z</time>
      </trkpt>
      <trkpt lat="43.68765" lon="1.47036">
        <ele>236.654519</ele>
        <time>2022-04-29T15:22:54.105Z</time>
      </trkpt>
      <trkpt lat="43.68754" lon="1.47034">
        <ele>237.210685</ele>
        <time>2022-04-29T15:22:56.072Z</time>
      </trkpt>
      <trkpt lat="43.68745" lon="1.47042">
        <ele>237.77545</ele>
        <time>2022-04-29T15:22:58.092Z</time>
      </trkpt>
      <trkpt lat="43.68737" lon="1.47054">
        <ele>238.366001</ele>
        <time>2022-04-29T15:23:00.069Z</time>
      </trkpt>
      <trkpt lat="43.6873" lon="1.47066">
        <ele>238.934372</ele>
        <time>2022-04-29T15:23:02.100Z</time>
      </trkpt>
      <trkpt lat="43.68723" lon="1.47078">
        <ele>239.498939</ele>
        <time>2022-04-29T15:23:04.083Z</time>
      </trkpt>
      <trkpt lat="43.68716" lon="1.4709">
        <ele>240.008308</ele>
        <time>2022-04-29T15:23:06.092Z</time>
      </trkpt>
      <trkpt lat="43.68707" lon="1.471">
        <ele>240.423717</ele>
        <time>2022-04-29T15:23:08.088Z</time>
      </trkpt>
      <trkpt lat="43.68697" lon="1.47102">
        <ele>240.829048</ele>
        <time>2022-04-29T15:23:10.085Z</time>
      </trkpt>
      <trkpt lat="43.68687" lon="1.47096">
        <ele>241.231215</ele>
        <time>2022-04-29T15:23:12.084Z</time>
      </trkpt>
      <trkpt lat="43.68679" lon="1.47085">
        <ele>241.662183</ele>
        <time>2022-04-29T15:23:14.087Z</time>
      </trkpt>
      <trkpt lat="43.6867" lon="1.47074">
        <ele>242.095101</ele>
        <time>2022-04-29T15:23:16.100Z</time>
      </trkpt>
      <trkpt lat="43.68662" lon="1.47064">
        <ele>242.527923</ele>
        <time>2022-04-29T15:23:18.082Z</time>
      </trkpt>
      <trkpt lat="43.68653" lon="1.47053">
        <ele>242.963516</ele>
        <time>2022-04-29T15:23:20.092Z</time>
      </trkpt>
      <trkpt lat="43.68645" lon="1.47042">
        <ele>243.400364</ele>
        <time>2022-04-29T15:23:22.087Z</time>
      </trkpt>
      <trkpt lat="43.68637" lon="1.4703">
        <ele>243.838802</ele>
        <time>2022-04-29T15:23:24.086Z</time>
      </trkpt>
      <trkpt lat="43.68629" lon="1.47019">
        <ele>244.268489</ele>
        <time>2022-04-29T15:23:26.096Z</time>
      </trkpt>
      <trkpt lat="43.68621" lon="1.47008">
        <ele>244.699459</ele>
        <time>2022-04-29T15:23:28.087Z</time>
      </trkpt>
      <trkpt lat="43.68613" lon="1.46997">
        <ele>245.130994</ele>
        <time>2022-04-29T15:23:30.082Z</time>
      </trkpt>
      <trkpt lat="43.68605" lon="1.46985">
        <ele>245.560711</ele>
        <time>2022-04-29T15:23:32.104Z</time>
      </trkpt>
      <trkpt lat="43.68598" lon="1.46973">
        <ele>245.982423</ele>
        <time>2022-04-29T15:23:34.095Z</time>
      </trkpt>
      <trkpt lat="43.68589" lon="1.46963">
        <ele>246.406923</ele>
        <time>2022-04-29T15:23:36.092Z</time>
      </trkpt>
      <trkpt lat="43.68581" lon="1.46953">
        <ele>246.582434</ele>
        <time>2022-04-29T15:23:38.085Z</time>
      </trkpt>
      <trkpt lat="43.68572" lon="1.46944">
        <ele>246.511062</ele>
        <time>2022-04-29T15:23:40.077Z</time>
      </trkpt>
      <trkpt lat="43.68563" lon="1.46933">
        <ele>246.437355</ele>
        <time>2022-04-29T15:23:42.089Z</time>
      </trkpt>
      <trkpt lat="43.68555" lon="1.46921">
        <ele>246.36045</ele>
        <time>2022-04-29T15:23:44.095Z</time>
      </trkpt>
      <trkpt lat="43.6855" lon="1.46906">
        <ele>246.281324</ele>
        <time>2022-04-29T15:23:46.085Z</time>
      </trkpt>
      <trkpt lat="43.68551" lon="1.46886">
        <ele>246.191774</ele>
        <time>2022-04-29T15:23:48.092Z</time>
      </trkpt>
      <trkpt lat="43.68549" lon="1.46865">
        <ele>246.092521</ele>
        <time>2022-04-29T15:23:50.089Z</time>
      </trkpt>
      <trkpt lat="43.68541" lon="1.46848">
        <ele>245.994654</ele>
        <time>2022-04-29T15:23:52.088Z</time>
      </trkpt>
      <trkpt lat="43.68533" lon="1.46832">
        <ele>245.904453</ele>
        <time>2022-04-29T15:23:54.095Z</time>
      </trkpt>
      <trkpt lat="43.68525" lon="1.46817">
        <ele>245.818778</ele>
        <time>2022-04-29T15:23:56.104Z</time>
      </trkpt>
      <trkpt lat="43.68515" lon="1.46806">
        <ele>245.739515</ele>
        <time>2022-04-29T15:23:58.070Z</time>
      </trkpt>
      <trkpt lat="43.68504" lon="1.46799">
        <ele>245.659334</ele>
        <time>2022-04-29T15:24:00.093Z</time>
      </trkpt>
      <trkpt lat="43.6849" lon="1.46799">
        <ele>245.574004</ele>
        <time>2022-04-29T15:24:02.055Z</time>
      </trkpt>
      <trkpt lat="43.68477" lon="1.46802">
        <ele>245.486642</ele>
        <time>2022-04-29T15:24:04.100Z</time>
      </trkpt>
      <trkpt lat="43.68464" lon="1.46809">
        <ele>245.138766</ele>
        <time>2022-04-29T15:24:06.079Z</time>
      </trkpt>
      <trkpt lat="43.68454" lon="1.46821">
        <ele>244.724453</ele>
        <time>2022-04-29T15:24:08.070Z</time>
      </trkpt>
      <trkpt lat="43.68446" lon="1.46834">
        <ele>244.335576</ele>
        <time>2022-04-29T15:24:10.069Z</time>
      </trkpt>
      <trkpt lat="43.68438" lon="1.46846">
        <ele>243.965336</ele>
        <time>2022-04-29T15:24:12.086Z</time>
      </trkpt>
      <trkpt lat="43.68432" lon="1.46858">
        <ele>243.626615</ele>
        <time>2022-04-29T15:24:14.080Z</time>
      </trkpt>
      <trkpt lat="43.68423" lon="1.46866">
        <ele>243.288827</ele>
        <time>2022-04-29T15:24:17.097Z</time>
      </trkpt>
      <trkpt lat="43.68416" lon="1.46857">
        <ele>242.968289</ele>
        <time>2022-04-29T15:24:19.062Z</time>
      </trkpt>
      <trkpt lat="43.68407" lon="1.46845">
        <ele>242.584019</ele>
        <time>2022-04-29T15:24:21.099Z</time>
      </trkpt>
      <trkpt lat="43.68397" lon="1.46832">
        <ele>242.16983</ele>
        <time>2022-04-29T15:24:23.076Z</time>
      </trkpt>
      <trkpt lat="43.68387" lon="1.46819">
        <ele>241.718536</ele>
        <time>2022-04-29T15:24:25.071Z</time>
      </trkpt>
      <trkpt lat="43.68376" lon="1.46804">
        <ele>241.237284</ele>
        <time>2022-04-29T15:24:27.102Z</time>
      </trkpt>
      <trkpt lat="43.68365" lon="1.46788">
        <ele>240.716555</ele>
        <time>2022-04-29T15:24:29.116Z</time>
      </trkpt>
      <trkpt lat="43.68352" lon="1.4677">
        <ele>240.160193</ele>
        <time>2022-04-29T15:24:31.105Z</time>
      </trkpt>
      <trkpt lat="43.68346" lon="1.46762">
        <ele>239.873508</ele>
        <time>2022-04-29T15:24:32.085Z</time>
      </trkpt>
      <trkpt lat="43.6834" lon="1.46752">
        <ele>239.374931</ele>
        <time>2022-04-29T15:24:33.105Z</time>
      </trkpt>
      <trkpt lat="43.68333" lon="1.46743">
        <ele>238.774456</ele>
        <time>2022-04-29T15:24:34.100Z</time>
      </trkpt>
      <trkpt lat="43.68327" lon="1.46734">
        <ele>238.179678</ele>
        <time>2022-04-29T15:24:35.092Z</time>
      </trkpt>
      <trkpt lat="43.68315" lon="1.46717">
        <ele>237.022136</ele>
        <time>2022-04-29T15:24:37.114Z</time>
      </trkpt>
      <trkpt lat="43.68302" lon="1.46701">
        <ele>235.879032</ele>
        <time>2022-04-29T15:24:39.107Z</time>
      </trkpt>
      <trkpt lat="43.68291" lon="1.46686">
        <ele>234.877772</ele>
        <time>2022-04-29T15:24:41.113Z</time>
      </trkpt>
      <trkpt lat="43.68284" lon="1.46672">
        <ele>234.067848</ele>
        <time>2022-04-29T15:24:43.068Z</time>
      </trkpt>
      <trkpt lat="43.68288" lon="1.46654">
        <ele>233.155151</ele>
        <time>2022-04-29T15:24:45.082Z</time>
      </trkpt>
      <trkpt lat="43.68293" lon="1.46635">
        <ele>232.206466</ele>
        <time>2022-04-29T15:24:47.084Z</time>
      </trkpt>
      <trkpt lat="43.68298" lon="1.46616">
        <ele>231.204331</ele>
        <time>2022-04-29T15:24:49.096Z</time>
      </trkpt>
      <trkpt lat="43.68304" lon="1.46595">
        <ele>230.141418</ele>
        <time>2022-04-29T15:24:51.090Z</time>
      </trkpt>
      <trkpt lat="43.68311" lon="1.46574">
        <ele>229.050082</ele>
        <time>2022-04-29T15:24:53.082Z</time>
      </trkpt>
      <trkpt lat="43.6832" lon="1.46554">
        <ele>227.96212</ele>
        <time>2022-04-29T15:24:55.076Z</time>
      </trkpt>
      <trkpt lat="43.6833" lon="1.46535">
        <ele>226.32515</ele>
        <time>2022-04-29T15:24:57.084Z</time>
      </trkpt>
      <trkpt lat="43.68341" lon="1.46516">
        <ele>224.632675</ele>
        <time>2022-04-29T15:24:59.083Z</time>
      </trkpt>
      <trkpt lat="43.6835" lon="1.46498">
        <ele>223.114243</ele>
        <time>2022-04-29T15:25:01.085Z</time>
      </trkpt>
      <trkpt lat="43.68351" lon="1.46483">
        <ele>222.089274</ele>
        <time>2022-04-29T15:25:03.061Z</time>
      </trkpt>
      <trkpt lat="43.68342" lon="1.46474">
        <ele>221.018208</ele>
        <time>2022-04-29T15:25:06.075Z</time>
      </trkpt>
      <trkpt lat="43.68333" lon="1.46466">
        <ele>220.024219</ele>
        <time>2022-04-29T15:25:11.100Z</time>
      </trkpt>
      <trkpt lat="43.68321" lon="1.4646">
        <ele>218.749563</ele>
        <time>2022-04-29T15:25:15.071Z</time>
      </trkpt>
      <trkpt lat="43.68309" lon="1.46451">
        <ele>217.496858</ele>
        <time>2022-04-29T15:25:17.075Z</time>
      </trkpt>
      <trkpt lat="43.68293" lon="1.46442">
        <ele>215.875135</ele>
        <time>2022-04-29T15:25:19.094Z</time>
      </trkpt>
      <trkpt lat="43.68285" lon="1.46437">
        <ele>214.974939</ele>
        <time>2022-04-29T15:25:20.080Z</time>
      </trkpt>
      <trkpt lat="43.68275" lon="1.46432">
        <ele>213.957167</ele>
        <time>2022-04-29T15:25:21.089Z</time>
      </trkpt>
      <trkpt lat="43.68265" lon="1.46426">
        <ele>212.958436</ele>
        <time>2022-04-29T15:25:22.093Z</time>
      </trkpt>
      <trkpt lat="43.68255" lon="1.46422">
        <ele>211.915219</ele>
        <time>2022-04-29T15:25:23.103Z</time>
      </trkpt>
      <trkpt lat="43.68244" lon="1.46418">
        <ele>210.872001</ele>
        <time>2022-04-29T15:25:24.077Z</time>
      </trkpt>
      <trkpt lat="43.68234" lon="1.46412">
        <ele>210.731611</ele>
        <time>2022-04-29T15:25:25.090Z</time>
      </trkpt>
      <trkpt lat="43.68225" lon="1.46406">
        <ele>210.642006</ele>
        <time>2022-04-29T15:25:26.084Z</time>
      </trkpt>
      <trkpt lat="43.68216" lon="1.46401">
        <ele>210.558139</ele>
        <time>2022-04-29T15:25:27.085Z</time>
      </trkpt>
      <trkpt lat="43.68201" lon="1.46392">
        <ele>210.415578</ele>
        <time>2022-04-29T15:25:29.081Z</time>
      </trkpt>
      <trkpt lat="43.6819" lon="1.46383">
        <ele>210.303027</ele>
        <time>2022-04-29T15:25:31.076Z</time>
      </trkpt>
      <trkpt lat="43.68186" lon="1.46371">
        <ele>210.222867</ele>
        <time>2022-04-29T15:25:33.100Z</time>
      </trkpt>
      <trkpt lat="43.68195" lon="1.46357">
        <ele>210.106897</ele>
        <time>2022-04-29T15:25:36.074Z</time>
      </trkpt>
      <trkpt lat="43.68202" lon="1.46348">
        <ele>210.019707</ele>
        <time>2022-04-29T15:25:38.091Z</time>
      </trkpt>
      <trkpt lat="43.68211" lon="1.46337">
        <ele>209.920223</ele>
        <time>2022-04-29T15:25:40.080Z</time>
      </trkpt>
      <trkpt lat="43.68219" lon="1.46325">
        <ele>209.813421</ele>
        <time>2022-04-29T15:25:42.092Z</time>
      </trkpt>
      <trkpt lat="43.68228" lon="1.46312">
        <ele>209.705817</ele>
        <time>2022-04-29T15:25:44.116Z</time>
      </trkpt>
      <trkpt lat="43.68234" lon="1.46297">
        <ele>209.600589</ele>
        <time>2022-04-29T15:25:46.079Z</time>
      </trkpt>
      <trkpt lat="43.68241" lon="1.46283">
        <ele>209.495086</ele>
        <time>2022-04-29T15:25:48.078Z</time>
      </trkpt>
      <trkpt lat="43.68247" lon="1.46269">
        <ele>209.388674</ele>
        <time>2022-04-29T15:25:50.110Z</time>
      </trkpt>
      <trkpt lat="43.68252" lon="1.46253">
        <ele>209.282492</ele>
        <time>2022-04-29T15:25:52.115Z</time>
      </trkpt>
      <trkpt lat="43.68257" lon="1.46238">
        <ele>208.880354</ele>
        <time>2022-04-29T15:25:54.107Z</time>
      </trkpt>
      <trkpt lat="43.68261" lon="1.46223">
        <ele>208.39238</ele>
        <time>2022-04-29T15:25:56.097Z</time>
      </trkpt>
      <trkpt lat="43.68266" lon="1.46208">
        <ele>207.918213</ele>
        <time>2022-04-29T15:25:58.079Z</time>
      </trkpt>
      <trkpt lat="43.68271" lon="1.46193">
        <ele>207.450911</ele>
        <time>2022-04-29T15:26:00.101Z</time>
      </trkpt>
      <trkpt lat="43.68275" lon="1.46178">
        <ele>206.979745</ele>
        <time>2022-04-29T15:26:02.115Z</time>
      </trkpt>
      <trkpt lat="43.68279" lon="1.46164">
        <ele>206.541456</ele>
        <time>2022-04-29T15:26:04.075Z</time>
      </trkpt>
      <trkpt lat="43.68282" lon="1.46149">
        <ele>206.082245</ele>
        <time>2022-04-29T15:26:06.089Z</time>
      </trkpt>
      <trkpt lat="43.68282" lon="1.46134">
        <ele>205.669896</ele>
        <time>2022-04-29T15:26:08.101Z</time>
      </trkpt>
      <trkpt lat="43.68282" lon="1.46121">
        <ele>205.274536</ele>
        <time>2022-04-29T15:26:10.109Z</time>
      </trkpt>
      <trkpt lat="43.6828" lon="1.46107">
        <ele>204.852412</ele>
        <time>2022-04-29T15:26:12.096Z</time>
      </trkpt>
      <trkpt lat="43.68279" lon="1.46091">
        <ele>204.385787</ele>
        <time>2022-04-29T15:26:14.073Z</time>
      </trkpt>
      <trkpt lat="43.68279" lon="1.46073">
        <ele>203.863175</ele>
        <time>2022-04-29T15:26:16.088Z</time>
      </trkpt>
      <trkpt lat="43.68278" lon="1.46053">
        <ele>203.307466</ele>
        <time>2022-04-29T15:26:18.083Z</time>
      </trkpt>
      <trkpt lat="43.68274" lon="1.46035">
        <ele>202.752988</ele>
        <time>2022-04-29T15:26:20.088Z</time>
      </trkpt>
      <trkpt lat="43.68269" lon="1.46017">
        <ele>202.189888</ele>
        <time>2022-04-29T15:26:22.090Z</time>
      </trkpt>
      <trkpt lat="43.68264" lon="1.45997">
        <ele>201.655646</ele>
        <time>2022-04-29T15:26:24.088Z</time>
      </trkpt>
      <trkpt lat="43.68263" lon="1.45975">
        <ele>201.111634</ele>
        <time>2022-04-29T15:26:26.075Z</time>
      </trkpt>
      <trkpt lat="43.68265" lon="1.45953">
        <ele>200.574277</ele>
        <time>2022-04-29T15:26:28.086Z</time>
      </trkpt>
      <trkpt lat="43.68267" lon="1.45931">
        <ele>200.058665</ele>
        <time>2022-04-29T15:26:30.059Z</time>
      </trkpt>
      <trkpt lat="43.68268" lon="1.45915">
        <ele>199.667645</ele>
        <time>2022-04-29T15:26:32.088Z</time>
      </trkpt>
      <trkpt lat="43.68269" lon="1.45902">
        <ele>199.331546</ele>
        <time>2022-04-29T15:26:35.084Z</time>
      </trkpt>
      <trkpt lat="43.68269" lon="1.45887">
        <ele>198.969848</ele>
        <time>2022-04-29T15:26:40.083Z</time>
      </trkpt>
      <trkpt lat="43.68269" lon="1.4587">
        <ele>198.572816</ele>
        <time>2022-04-29T15:26:43.073Z</time>
      </trkpt>
      <trkpt lat="43.6827" lon="1.45852">
        <ele>198.135217</ele>
        <time>2022-04-29T15:26:46.097Z</time>
      </trkpt>
      <trkpt lat="43.68271" lon="1.45838">
        <ele>197.797375</ele>
        <time>2022-04-29T15:26:48.083Z</time>
      </trkpt>
      <trkpt lat="43.68272" lon="1.45822">
        <ele>197.409332</ele>
        <time>2022-04-29T15:26:50.083Z</time>
      </trkpt>
      <trkpt lat="43.68272" lon="1.45806">
        <ele>197.006345</ele>
        <time>2022-04-29T15:26:52.123Z</time>
      </trkpt>
      <trkpt lat="43.68273" lon="1.45789">
        <ele>196.601387</ele>
        <time>2022-04-29T15:26:54.104Z</time>
      </trkpt>
      <trkpt lat="43.68274" lon="1.45773">
        <ele>196.208697</ele>
        <time>2022-04-29T15:26:56.096Z</time>
      </trkpt>
      <trkpt lat="43.68275" lon="1.45757">
        <ele>195.940084</ele>
        <time>2022-04-29T15:26:58.097Z</time>
      </trkpt>
      <trkpt lat="43.68276" lon="1.45739">
        <ele>195.770949</ele>
        <time>2022-04-29T15:27:00.111Z</time>
      </trkpt>
      <trkpt lat="43.68277" lon="1.45721">
        <ele>195.596059</ele>
        <time>2022-04-29T15:27:02.090Z</time>
      </trkpt>
      <trkpt lat="43.68278" lon="1.45703">
        <ele>195.415513</ele>
        <time>2022-04-29T15:27:04.075Z</time>
      </trkpt>
      <trkpt lat="43.68278" lon="1.45684">
        <ele>195.235381</ele>
        <time>2022-04-29T15:27:06.085Z</time>
      </trkpt>
      <trkpt lat="43.68277" lon="1.45665">
        <ele>195.056757</ele>
        <time>2022-04-29T15:27:08.070Z</time>
      </trkpt>
      <trkpt lat="43.68275" lon="1.45647">
        <ele>194.879886</ele>
        <time>2022-04-29T15:27:10.093Z</time>
      </trkpt>
      <trkpt lat="43.68273" lon="1.45629">
        <ele>194.705784</ele>
        <time>2022-04-29T15:27:12.070Z</time>
      </trkpt>
      <trkpt lat="43.6827" lon="1.45612">
        <ele>194.529496</ele>
        <time>2022-04-29T15:27:14.112Z</time>
      </trkpt>
      <trkpt lat="43.68266" lon="1.45594">
        <ele>194.357088</ele>
        <time>2022-04-29T15:27:16.098Z</time>
      </trkpt>
      <trkpt lat="43.68263" lon="1.45578">
        <ele>194.187072</ele>
        <time>2022-04-29T15:27:18.103Z</time>
      </trkpt>
      <trkpt lat="43.68259" lon="1.45561">
        <ele>194.020206</ele>
        <time>2022-04-29T15:27:20.107Z</time>
      </trkpt>
      <trkpt lat="43.68255" lon="1.45545">
        <ele>193.857139</ele>
        <time>2022-04-29T15:27:22.090Z</time>
      </trkpt>
      <trkpt lat="43.68251" lon="1.45529">
        <ele>193.692315</ele>
        <time>2022-04-29T15:27:24.103Z</time>
      </trkpt>
      <trkpt lat="43.68247" lon="1.45512">
        <ele>193.554942</ele>
        <time>2022-04-29T15:27:26.118Z</time>
      </trkpt>
      <trkpt lat="43.68242" lon="1.45496">
        <ele>193.438833</ele>
        <time>2022-04-29T15:27:28.115Z</time>
      </trkpt>
      <trkpt lat="43.68238" lon="1.4548">
        <ele>193.320372</ele>
        <time>2022-04-29T15:27:30.087Z</time>
      </trkpt>
      <trkpt lat="43.68233" lon="1.45464">
        <ele>193.202533</ele>
        <time>2022-04-29T15:27:32.093Z</time>
      </trkpt>
      <trkpt lat="43.68228" lon="1.45448">
        <ele>193.087903</ele>
        <time>2022-04-29T15:27:34.092Z</time>
      </trkpt>
      <trkpt lat="43.68223" lon="1.45434">
        <ele>192.977697</ele>
        <time>2022-04-29T15:27:36.099Z</time>
      </trkpt>
      <trkpt lat="43.68219" lon="1.45419">
        <ele>192.872997</ele>
        <time>2022-04-29T15:27:38.085Z</time>
      </trkpt>
      <trkpt lat="43.68216" lon="1.45405">
        <ele>192.773578</ele>
        <time>2022-04-29T15:27:40.105Z</time>
      </trkpt>
      <trkpt lat="43.68213" lon="1.45391">
        <ele>192.672668</ele>
        <time>2022-04-29T15:27:42.098Z</time>
      </trkpt>
      <trkpt lat="43.68209" lon="1.45377">
        <ele>192.576867</ele>
        <time>2022-04-29T15:27:44.101Z</time>
      </trkpt>
      <trkpt lat="43.68205" lon="1.45363">
        <ele>192.471494</ele>
        <time>2022-04-29T15:27:46.073Z</time>
      </trkpt>
      <trkpt lat="43.68201" lon="1.45348">
        <ele>192.361092</ele>
        <time>2022-04-29T15:27:48.093Z</time>
      </trkpt>
      <trkpt lat="43.68197" lon="1.45332">
        <ele>192.248796</ele>
        <time>2022-04-29T15:27:50.079Z</time>
      </trkpt>
      <trkpt lat="43.68193" lon="1.45316">
        <ele>192.132972</ele>
        <time>2022-04-29T15:27:52.103Z</time>
      </trkpt>
      <trkpt lat="43.68189" lon="1.45299">
        <ele>192.018427</ele>
        <time>2022-04-29T15:27:54.100Z</time>
      </trkpt>
      <trkpt lat="43.68185" lon="1.45283">
        <ele>191.953859</ele>
        <time>2022-04-29T15:27:56.097Z</time>
      </trkpt>
      <trkpt lat="43.68181" lon="1.45268">
        <ele>191.972369</ele>
        <time>2022-04-29T15:27:58.086Z</time>
      </trkpt>
      <trkpt lat="43.68176" lon="1.45254">
        <ele>191.99038</ele>
        <time>2022-04-29T15:28:00.092Z</time>
      </trkpt>
      <trkpt lat="43.68173" lon="1.45239">
        <ele>192.007871</ele>
        <time>2022-04-29T15:28:02.097Z</time>
      </trkpt>
      <trkpt lat="43.68169" lon="1.45224">
        <ele>192.025289</ele>
        <time>2022-04-29T15:28:04.108Z</time>
      </trkpt>
      <trkpt lat="43.68166" lon="1.45211">
        <ele>192.041558</ele>
        <time>2022-04-29T15:28:06.121Z</time>
      </trkpt>
      <trkpt lat="43.68157" lon="1.45203">
        <ele>192.057893</ele>
        <time>2022-04-29T15:28:09.087Z</time>
      </trkpt>
      <trkpt lat="43.68148" lon="1.45213">
        <ele>192.075828</ele>
        <time>2022-04-29T15:28:12.082Z</time>
      </trkpt>
      <trkpt lat="43.68138" lon="1.45223">
        <ele>192.0964</ele>
        <time>2022-04-29T15:28:15.107Z</time>
      </trkpt>
      <trkpt lat="43.6813" lon="1.45231">
        <ele>192.111026</ele>
        <time>2022-04-29T15:28:17.071Z</time>
      </trkpt>
      <trkpt lat="43.68121" lon="1.45239">
        <ele>192.127393</ele>
        <time>2022-04-29T15:28:19.086Z</time>
      </trkpt>
      <trkpt lat="43.68112" lon="1.45248">
        <ele>192.144537</ele>
        <time>2022-04-29T15:28:21.065Z</time>
      </trkpt>
      <trkpt lat="43.68103" lon="1.45256">
        <ele>192.162135</ele>
        <time>2022-04-29T15:28:23.083Z</time>
      </trkpt>
      <trkpt lat="43.68093" lon="1.45265">
        <ele>192.180577</ele>
        <time>2022-04-29T15:28:25.108Z</time>
      </trkpt>
      <trkpt lat="43.68083" lon="1.45274">
        <ele>192.199864</ele>
        <time>2022-04-29T15:28:27.092Z</time>
      </trkpt>
      <trkpt lat="43.68073" lon="1.45283">
        <ele>192.21902</ele>
        <time>2022-04-29T15:28:29.092Z</time>
      </trkpt>
      <trkpt lat="43.68062" lon="1.45293">
        <ele>192.225841</ele>
        <time>2022-04-29T15:28:31.085Z</time>
      </trkpt>
      <trkpt lat="43.68052" lon="1.45302">
        <ele>192.218005</ele>
        <time>2022-04-29T15:28:33.086Z</time>
      </trkpt>
      <trkpt lat="43.68041" lon="1.4531">
        <ele>192.209947</ele>
        <time>2022-04-29T15:28:35.101Z</time>
      </trkpt>
      <trkpt lat="43.6803" lon="1.45319">
        <ele>192.201899</ele>
        <time>2022-04-29T15:28:37.090Z</time>
      </trkpt>
      <trkpt lat="43.6802" lon="1.45328">
        <ele>192.193884</ele>
        <time>2022-04-29T15:28:39.083Z</time>
      </trkpt>
      <trkpt lat="43.6801" lon="1.45335">
        <ele>192.186831</ele>
        <time>2022-04-29T15:28:41.114Z</time>
      </trkpt>
      <trkpt lat="43.68001" lon="1.45341">
        <ele>192.180353</ele>
        <time>2022-04-29T15:28:43.091Z</time>
      </trkpt>
      <trkpt lat="43.67993" lon="1.45349">
        <ele>192.173683</ele>
        <time>2022-04-29T15:28:45.083Z</time>
      </trkpt>
      <trkpt lat="43.67983" lon="1.45355">
        <ele>192.166782</ele>
        <time>2022-04-29T15:28:47.080Z</time>
      </trkpt>
      <trkpt lat="43.67974" lon="1.45365">
        <ele>192.159573</ele>
        <time>2022-04-29T15:28:49.121Z</time>
      </trkpt>
      <trkpt lat="43.67965" lon="1.45372">
        <ele>192.152679</ele>
        <time>2022-04-29T15:28:51.074Z</time>
      </trkpt>
      <trkpt lat="43.67954" lon="1.45376">
        <ele>192.14566</ele>
        <time>2022-04-29T15:28:53.083Z</time>
      </trkpt>
      <trkpt lat="43.67943" lon="1.45381">
        <ele>192.137984</ele>
        <time>2022-04-29T15:28:55.084Z</time>
      </trkpt>
      <trkpt lat="43.67932" lon="1.45388">
        <ele>192.130163</ele>
        <time>2022-04-29T15:28:57.092Z</time>
      </trkpt>
      <trkpt lat="43.67922" lon="1.45395">
        <ele>192.122987</ele>
        <time>2022-04-29T15:28:59.105Z</time>
      </trkpt>
      <trkpt lat="43.67912" lon="1.45402">
        <ele>192.115844</ele>
        <time>2022-04-29T15:29:01.087Z</time>
      </trkpt>
      <trkpt lat="43.67902" lon="1.4541">
        <ele>192.07725</ele>
        <time>2022-04-29T15:29:03.082Z</time>
      </trkpt>
      <trkpt lat="43.67892" lon="1.45418">
        <ele>192.022186</ele>
        <time>2022-04-29T15:29:05.080Z</time>
      </trkpt>
      <trkpt lat="43.67883" lon="1.45427">
        <ele>191.96943</ele>
        <time>2022-04-29T15:29:07.095Z</time>
      </trkpt>
      <trkpt lat="43.67875" lon="1.45433">
        <ele>191.925205</ele>
        <time>2022-04-29T15:29:09.082Z</time>
      </trkpt>
      <trkpt lat="43.67865" lon="1.45429">
        <ele>191.874414</ele>
        <time>2022-04-29T15:29:14.091Z</time>
      </trkpt>
      <trkpt lat="43.67857" lon="1.45434">
        <ele>191.829326</ele>
        <time>2022-04-29T15:29:18.082Z</time>
      </trkpt>
      <trkpt lat="43.67847" lon="1.45434">
        <ele>191.783012</ele>
        <time>2022-04-29T15:29:21.080Z</time>
      </trkpt>
      <trkpt lat="43.67837" lon="1.45428">
        <ele>191.729915</ele>
        <time>2022-04-29T15:29:24.092Z</time>
      </trkpt>
      <trkpt lat="43.67827" lon="1.4542">
        <ele>191.67753</ele>
        <time>2022-04-29T15:29:27.093Z</time>
      </trkpt>
      <trkpt lat="43.67818" lon="1.45413">
        <ele>191.627523</ele>
        <time>2022-04-29T15:29:30.086Z</time>
      </trkpt>
      <trkpt lat="43.67809" lon="1.45402">
        <ele>191.568753</ele>
        <time>2022-04-29T15:29:33.066Z</time>
      </trkpt>
      <trkpt lat="43.67796" lon="1.45395">
        <ele>191.503774</ele>
        <time>2022-04-29T15:29:36.076Z</time>
      </trkpt>
      <trkpt lat="43.67788" lon="1.45388">
        <ele>191.45662</ele>
        <time>2022-04-29T15:29:38.086Z</time>
      </trkpt>
      <trkpt lat="43.67779" lon="1.4538">
        <ele>191.408398</ele>
        <time>2022-04-29T15:29:40.073Z</time>
      </trkpt>
      <trkpt lat="43.6777" lon="1.45373">
        <ele>191.358932</ele>
        <time>2022-04-29T15:29:42.087Z</time>
      </trkpt>
      <trkpt lat="43.67762" lon="1.45366">
        <ele>191.312009</ele>
        <time>2022-04-29T15:29:44.074Z</time>
      </trkpt>
      <trkpt lat="43.67754" lon="1.45359">
        <ele>191.267544</ele>
        <time>2022-04-29T15:29:46.093Z</time>
      </trkpt>
      <trkpt lat="43.67745" lon="1.45355">
        <ele>191.244575</ele>
        <time>2022-04-29T15:29:48.089Z</time>
      </trkpt>
      <trkpt lat="43.67737" lon="1.45348">
        <ele>191.227779</ele>
        <time>2022-04-29T15:29:50.079Z</time>
      </trkpt>
      <trkpt lat="43.67728" lon="1.45342">
        <ele>191.210683</ele>
        <time>2022-04-29T15:29:52.088Z</time>
      </trkpt>
      <trkpt lat="43.67719" lon="1.45335">
        <ele>191.193074</ele>
        <time>2022-04-29T15:29:54.130Z</time>
      </trkpt>
      <trkpt lat="43.6771" lon="1.45329">
        <ele>191.176142</ele>
        <time>2022-04-29T15:29:56.111Z</time>
      </trkpt>
      <trkpt lat="43.67701" lon="1.45326">
        <ele>191.159114</ele>
        <time>2022-04-29T15:29:58.077Z</time>
      </trkpt>
      <trkpt lat="43.6769" lon="1.45324">
        <ele>191.140853</ele>
        <time>2022-04-29T15:30:00.096Z</time>
      </trkpt>
      <trkpt lat="43.67681" lon="1.45319">
        <ele>191.123476</ele>
        <time>2022-04-29T15:30:02.094Z</time>
      </trkpt>
      <trkpt lat="43.67671" lon="1.45317">
        <ele>191.106764</ele>
        <time>2022-04-29T15:30:04.102Z</time>
      </trkpt>
      <trkpt lat="43.67661" lon="1.45316">
        <ele>191.089814</ele>
        <time>2022-04-29T15:30:06.080Z</time>
      </trkpt>
      <trkpt lat="43.67652" lon="1.4531">
        <ele>191.072991</ele>
        <time>2022-04-29T15:30:08.088Z</time>
      </trkpt>
      <trkpt lat="43.67643" lon="1.45308">
        <ele>191.055624</ele>
        <time>2022-04-29T15:30:10.076Z</time>
      </trkpt>
      <trkpt lat="43.67633" lon="1.45312">
        <ele>191.037881</ele>
        <time>2022-04-29T15:30:12.081Z</time>
      </trkpt>
      <trkpt lat="43.67622" lon="1.45313">
        <ele>191.019344</ele>
        <time>2022-04-29T15:30:14.099Z</time>
      </trkpt>
      <trkpt lat="43.6761" lon="1.45315">
        <ele>190.999088</ele>
        <time>2022-04-29T15:30:16.079Z</time>
      </trkpt>
      <trkpt lat="43.67598" lon="1.45317">
        <ele>190.977634</ele>
        <time>2022-04-29T15:30:18.084Z</time>
      </trkpt>
      <trkpt lat="43.67586" lon="1.45323">
        <ele>190.956387</ele>
        <time>2022-04-29T15:30:20.099Z</time>
      </trkpt>
      <trkpt lat="43.67575" lon="1.45329">
        <ele>190.928934</ele>
        <time>2022-04-29T15:30:22.084Z</time>
      </trkpt>
      <trkpt lat="43.67564" lon="1.45337">
        <ele>190.895884</ele>
        <time>2022-04-29T15:30:24.118Z</time>
      </trkpt>
      <trkpt lat="43.67554" lon="1.45345">
        <ele>190.864607</ele>
        <time>2022-04-29T15:30:26.078Z</time>
      </trkpt>
      <trkpt lat="43.67545" lon="1.45354">
        <ele>190.834193</ele>
        <time>2022-04-29T15:30:28.091Z</time>
      </trkpt>
      <trkpt lat="43.67535" lon="1.45361">
        <ele>190.803299</ele>
        <time>2022-04-29T15:30:30.087Z</time>
      </trkpt>
      <trkpt lat="43.67524" lon="1.45367">
        <ele>190.770243</ele>
        <time>2022-04-29T15:30:32.091Z</time>
      </trkpt>
      <trkpt lat="43.67513" lon="1.45371">
        <ele>190.739515</ele>
        <time>2022-04-29T15:30:34.091Z</time>
      </trkpt>
      <trkpt lat="43.67502" lon="1.4538">
        <ele>190.705966</ele>
        <time>2022-04-29T15:30:36.076Z</time>
      </trkpt>
      <trkpt lat="43.67492" lon="1.45387">
        <ele>190.674311</ele>
        <time>2022-04-29T15:30:38.056Z</time>
      </trkpt>
      <trkpt lat="43.67481" lon="1.45383">
        <ele>190.644734</ele>
        <time>2022-04-29T15:30:40.084Z</time>
      </trkpt>
      <trkpt lat="43.67471" lon="1.45373">
        <ele>190.612109</ele>
        <time>2022-04-29T15:30:42.094Z</time>
      </trkpt>
      <trkpt lat="43.67463" lon="1.45361">
        <ele>190.579068</ele>
        <time>2022-04-29T15:30:44.081Z</time>
      </trkpt>
      <trkpt lat="43.67457" lon="1.45346">
        <ele>190.546654</ele>
        <time>2022-04-29T15:30:46.097Z</time>
      </trkpt>
      <trkpt lat="43.67452" lon="1.45331">
        <ele>190.514336</ele>
        <time>2022-04-29T15:30:48.081Z</time>
      </trkpt>
      <trkpt lat="43.67447" lon="1.45316">
        <ele>190.48165</ele>
        <time>2022-04-29T15:30:50.084Z</time>
      </trkpt>
      <trkpt lat="43.67443" lon="1.45301">
        <ele>190.459039</ele>
        <time>2022-04-29T15:30:52.100Z</time>
      </trkpt>
      <trkpt lat="43.67438" lon="1.45286">
        <ele>190.465611</ele>
        <time>2022-04-29T15:30:54.075Z</time>
      </trkpt>
      <trkpt lat="43.67435" lon="1.45272">
        <ele>190.471738</ele>
        <time>2022-04-29T15:30:56.064Z</time>
      </trkpt>
      <trkpt lat="43.67427" lon="1.45264">
        <ele>190.477278</ele>
        <time>2022-04-29T15:30:58.078Z</time>
      </trkpt>
      <trkpt lat="43.67417" lon="1.45269">
        <ele>190.483061</ele>
        <time>2022-04-29T15:31:00.085Z</time>
      </trkpt>
      <trkpt lat="43.67407" lon="1.45277">
        <ele>190.48963</ele>
        <time>2022-04-29T15:31:02.087Z</time>
      </trkpt>
      <trkpt lat="43.67396" lon="1.45285">
        <ele>190.496695</ele>
        <time>2022-04-29T15:31:04.093Z</time>
      </trkpt>
      <trkpt lat="43.67385" lon="1.45292">
        <ele>190.503673</ele>
        <time>2022-04-29T15:31:06.098Z</time>
      </trkpt>
      <trkpt lat="43.67375" lon="1.45299">
        <ele>190.510201</ele>
        <time>2022-04-29T15:31:08.095Z</time>
      </trkpt>
      <trkpt lat="43.67364" lon="1.45302">
        <ele>190.516342</ele>
        <time>2022-04-29T15:31:10.099Z</time>
      </trkpt>
      <trkpt lat="43.67353" lon="1.453">
        <ele>190.522365</ele>
        <time>2022-04-29T15:31:12.092Z</time>
      </trkpt>
      <trkpt lat="43.67342" lon="1.45297">
        <ele>190.529065</ele>
        <time>2022-04-29T15:31:14.063Z</time>
      </trkpt>
      <trkpt lat="43.67331" lon="1.45295">
        <ele>190.535514</ele>
        <time>2022-04-29T15:31:16.081Z</time>
      </trkpt>
      <trkpt lat="43.67319" lon="1.45293">
        <ele>190.541878</ele>
        <time>2022-04-29T15:31:18.065Z</time>
      </trkpt>
      <trkpt lat="43.67309" lon="1.45297">
        <ele>190.548147</ele>
        <time>2022-04-29T15:31:20.078Z</time>
      </trkpt>
      <trkpt lat="43.67298" lon="1.45302">
        <ele>190.554395</ele>
        <time>2022-04-29T15:31:22.080Z</time>
      </trkpt>
      <trkpt lat="43.67288" lon="1.45308">
        <ele>190.536676</ele>
        <time>2022-04-29T15:31:24.091Z</time>
      </trkpt>
      <trkpt lat="43.67278" lon="1.45313">
        <ele>190.446919</ele>
        <time>2022-04-29T15:31:26.098Z</time>
      </trkpt>
      <trkpt lat="43.67268" lon="1.45311">
        <ele>190.354147</ele>
        <time>2022-04-29T15:31:29.075Z</time>
      </trkpt>
      <trkpt lat="43.67261" lon="1.45303">
        <ele>190.276295</ele>
        <time>2022-04-29T15:31:35.099Z</time>
      </trkpt>
      <trkpt lat="43.67256" lon="1.45287">
        <ele>190.171991</ele>
        <time>2022-04-29T15:31:39.096Z</time>
      </trkpt>
      <trkpt lat="43.6725" lon="1.45271">
        <ele>190.055962</ele>
        <time>2022-04-29T15:31:42.079Z</time>
      </trkpt>
      <trkpt lat="43.67243" lon="1.45258">
        <ele>189.955797</ele>
        <time>2022-04-29T15:31:44.097Z</time>
      </trkpt>
      <trkpt lat="43.67239" lon="1.45242">
        <ele>189.853689</ele>
        <time>2022-04-29T15:31:46.090Z</time>
      </trkpt>
      <trkpt lat="43.67235" lon="1.45227">
        <ele>189.750114</ele>
        <time>2022-04-29T15:31:48.095Z</time>
      </trkpt>
      <trkpt lat="43.67232" lon="1.45211">
        <ele>189.645885</ele>
        <time>2022-04-29T15:31:50.093Z</time>
      </trkpt>
      <trkpt lat="43.67228" lon="1.45195">
        <ele>189.541389</ele>
        <time>2022-04-29T15:31:52.083Z</time>
      </trkpt>
      <trkpt lat="43.67224" lon="1.45179">
        <ele>189.440315</ele>
        <time>2022-04-29T15:31:54.095Z</time>
      </trkpt>
      <trkpt lat="43.67221" lon="1.45165">
        <ele>189.347242</ele>
        <time>2022-04-29T15:31:56.093Z</time>
      </trkpt>
      <trkpt lat="43.67218" lon="1.45153">
        <ele>189.264781</ele>
        <time>2022-04-29T15:31:59.094Z</time>
      </trkpt>
      <trkpt lat="43.67216" lon="1.45139">
        <ele>189.179221</ele>
        <time>2022-04-29T15:32:02.086Z</time>
      </trkpt>
      <trkpt lat="43.67212" lon="1.45125">
        <ele>189.083269</ele>
        <time>2022-04-29T15:32:05.082Z</time>
      </trkpt>
      <trkpt lat="43.67203" lon="1.4512">
        <ele>189.002882</ele>
        <time>2022-04-29T15:32:08.086Z</time>
      </trkpt>
      <trkpt lat="43.67191" lon="1.45124">
        <ele>188.942607</ele>
        <time>2022-04-29T15:32:11.079Z</time>
      </trkpt>
      <trkpt lat="43.67183" lon="1.4513">
        <ele>188.893101</ele>
        <time>2022-04-29T15:32:13.081Z</time>
      </trkpt>
      <trkpt lat="43.67174" lon="1.45137">
        <ele>188.839431</ele>
        <time>2022-04-29T15:32:15.081Z</time>
      </trkpt>
      <trkpt lat="43.67164" lon="1.45144">
        <ele>188.782553</ele>
        <time>2022-04-29T15:32:17.079Z</time>
      </trkpt>
      <trkpt lat="43.67153" lon="1.4514">
        <ele>188.723529</ele>
        <time>2022-04-29T15:32:19.079Z</time>
      </trkpt>
      <trkpt lat="43.67143" lon="1.4513">
        <ele>188.661113</ele>
        <time>2022-04-29T15:32:21.078Z</time>
      </trkpt>
      <trkpt lat="43.67131" lon="1.45133">
        <ele>188.597656</ele>
        <time>2022-04-29T15:32:23.082Z</time>
      </trkpt>
      <trkpt lat="43.6712" lon="1.4514">
        <ele>188.532795</ele>
        <time>2022-04-29T15:32:25.086Z</time>
      </trkpt>
      <trkpt lat="43.67108" lon="1.45148">
        <ele>188.46801</ele>
        <time>2022-04-29T15:32:27.066Z</time>
      </trkpt>
      <trkpt lat="43.67098" lon="1.45154">
        <ele>188.410319</ele>
        <time>2022-04-29T15:32:29.094Z</time>
      </trkpt>
      <trkpt lat="43.67088" lon="1.4516">
        <ele>188.354998</ele>
        <time>2022-04-29T15:32:31.083Z</time>
      </trkpt>
      <trkpt lat="43.67078" lon="1.4516">
        <ele>188.299233</ele>
        <time>2022-04-29T15:32:33.080Z</time>
      </trkpt>
      <trkpt lat="43.67069" lon="1.4515">
        <ele>188.24305</ele>
        <time>2022-04-29T15:32:35.093Z</time>
      </trkpt>
      <trkpt lat="43.67061" lon="1.45138">
        <ele>188.179893</ele>
        <time>2022-04-29T15:32:37.065Z</time>
      </trkpt>
      <trkpt lat="43.6705" lon="1.45142">
        <ele>188.121177</ele>
        <time>2022-04-29T15:32:39.093Z</time>
      </trkpt>
      <trkpt lat="43.67041" lon="1.45149">
        <ele>188.08126</ele>
        <time>2022-04-29T15:32:41.085Z</time>
      </trkpt>
      <trkpt lat="43.67033" lon="1.45154">
        <ele>188.092362</ele>
        <time>2022-04-29T15:32:44.078Z</time>
      </trkpt>
      <trkpt lat="43.67022" lon="1.45161">
        <ele>188.107686</ele>
        <time>2022-04-29T15:32:48.081Z</time>
      </trkpt>
      <trkpt lat="43.67012" lon="1.45154">
        <ele>188.12133</ele>
        <time>2022-04-29T15:32:51.072Z</time>
      </trkpt>
      <trkpt lat="43.67008" lon="1.45138">
        <ele>188.135721</ele>
        <time>2022-04-29T15:32:54.091Z</time>
      </trkpt>
      <trkpt lat="43.67003" lon="1.45126">
        <ele>188.148173</ele>
        <time>2022-04-29T15:32:57.093Z</time>
      </trkpt>
      <trkpt lat="43.66998" lon="1.45115">
        <ele>188.160074</ele>
        <time>2022-04-29T15:33:00.082Z</time>
      </trkpt>
      <trkpt lat="43.66993" lon="1.45104">
        <ele>188.171091</ele>
        <time>2022-04-29T15:33:05.091Z</time>
      </trkpt>
      <trkpt lat="43.66986" lon="1.45092">
        <ele>188.184678</ele>
        <time>2022-04-29T15:33:10.077Z</time>
      </trkpt>
      <trkpt lat="43.66979" lon="1.45078">
        <ele>188.199261</ele>
        <time>2022-04-29T15:33:15.080Z</time>
      </trkpt>
      <trkpt lat="43.66973" lon="1.45066">
        <ele>188.212059</ele>
        <time>2022-04-29T15:33:19.088Z</time>
      </trkpt>
      <trkpt lat="43.66966" lon="1.45054">
        <ele>188.226217</ele>
        <time>2022-04-29T15:33:23.092Z</time>
      </trkpt>
      <trkpt lat="43.6696" lon="1.45043">
        <ele>188.238748</ele>
        <time>2022-04-29T15:33:26.080Z</time>
      </trkpt>
      <trkpt lat="43.66954" lon="1.45026">
        <ele>188.255388</ele>
        <time>2022-04-29T15:33:29.088Z</time>
      </trkpt>
      <trkpt lat="43.66949" lon="1.45012">
        <ele>188.268927</ele>
        <time>2022-04-29T15:33:31.083Z</time>
      </trkpt>
      <trkpt lat="43.66943" lon="1.44997">
        <ele>188.283507</ele>
        <time>2022-04-29T15:33:33.086Z</time>
      </trkpt>
      <trkpt lat="43.66938" lon="1.44982">
        <ele>188.298248</ele>
        <time>2022-04-29T15:33:35.101Z</time>
      </trkpt>
      <trkpt lat="43.66932" lon="1.44967">
        <ele>188.279754</ele>
        <time>2022-04-29T15:33:37.085Z</time>
      </trkpt>
      <trkpt lat="43.66925" lon="1.44954">
        <ele>188.261605</ele>
        <time>2022-04-29T15:33:39.073Z</time>
      </trkpt>
      <trkpt lat="43.66916" lon="1.44943">
        <ele>188.242973</ele>
        <time>2022-04-29T15:33:41.049Z</time>
      </trkpt>
      <trkpt lat="43.66904" lon="1.44937">
        <ele>188.224354</ele>
        <time>2022-04-29T15:33:43.063Z</time>
      </trkpt>
      <trkpt lat="43.66892" lon="1.44935">
        <ele>188.206032</ele>
        <time>2022-04-29T15:33:45.114Z</time>
      </trkpt>
      <trkpt lat="43.6688" lon="1.44932">
        <ele>188.187578</ele>
        <time>2022-04-29T15:33:47.090Z</time>
      </trkpt>
      <trkpt lat="43.66868" lon="1.44929">
        <ele>188.169087</ele>
        <time>2022-04-29T15:33:49.110Z</time>
      </trkpt>
      <trkpt lat="43.66856" lon="1.44926">
        <ele>188.150686</ele>
        <time>2022-04-29T15:33:51.079Z</time>
      </trkpt>
      <trkpt lat="43.66845" lon="1.44923">
        <ele>188.132716</ele>
        <time>2022-04-29T15:33:53.103Z</time>
      </trkpt>
      <trkpt lat="43.66833" lon="1.4492">
        <ele>188.114671</ele>
        <time>2022-04-29T15:33:55.071Z</time>
      </trkpt>
      <trkpt lat="43.66822" lon="1.44915">
        <ele>188.096559</ele>
        <time>2022-04-29T15:33:57.080Z</time>
      </trkpt>
      <trkpt lat="43.6681" lon="1.44911">
        <ele>188.078623</ele>
        <time>2022-04-29T15:33:59.085Z</time>
      </trkpt>
      <trkpt lat="43.66799" lon="1.44905">
        <ele>188.060403</ele>
        <time>2022-04-29T15:34:01.088Z</time>
      </trkpt>
      <trkpt lat="43.66788" lon="1.44899">
        <ele>188.042158</ele>
        <time>2022-04-29T15:34:03.081Z</time>
      </trkpt>
      <trkpt lat="43.66778" lon="1.4489">
        <ele>188.025412</ele>
        <time>2022-04-29T15:34:05.077Z</time>
      </trkpt>
      <trkpt lat="43.66768" lon="1.44881">
        <ele>188.026496</ele>
        <time>2022-04-29T15:34:07.091Z</time>
      </trkpt>
      <trkpt lat="43.6676" lon="1.44869">
        <ele>188.027572</ele>
        <time>2022-04-29T15:34:09.077Z</time>
      </trkpt>
      <trkpt lat="43.66755" lon="1.44854">
        <ele>188.028668</ele>
        <time>2022-04-29T15:34:11.064Z</time>
      </trkpt>
      <trkpt lat="43.66754" lon="1.44838">
        <ele>188.029706</ele>
        <time>2022-04-29T15:34:13.091Z</time>
      </trkpt>
      <trkpt lat="43.66748" lon="1.44824">
        <ele>188.030775</ele>
        <time>2022-04-29T15:34:15.085Z</time>
      </trkpt>
      <trkpt lat="43.66738" lon="1.44817">
        <ele>188.031848</ele>
        <time>2022-04-29T15:34:17.088Z</time>
      </trkpt>
      <trkpt lat="43.66726" lon="1.44821">
        <ele>188.032943</ele>
        <time>2022-04-29T15:34:19.079Z</time>
      </trkpt>
      <trkpt lat="43.66716" lon="1.4483">
        <ele>188.034062</ele>
        <time>2022-04-29T15:34:21.070Z</time>
      </trkpt>
      <trkpt lat="43.66706" lon="1.44839">
        <ele>188.035162</ele>
        <time>2022-04-29T15:34:23.104Z</time>
      </trkpt>
      <trkpt lat="43.66695" lon="1.44847">
        <ele>188.036276</ele>
        <time>2022-04-29T15:34:25.095Z</time>
      </trkpt>
      <trkpt lat="43.66684" lon="1.44852">
        <ele>188.037373</ele>
        <time>2022-04-29T15:34:27.092Z</time>
      </trkpt>
      <trkpt lat="43.66672" lon="1.44856">
        <ele>188.038479</ele>
        <time>2022-04-29T15:34:29.058Z</time>
      </trkpt>
      <trkpt lat="43.6666" lon="1.44857">
        <ele>188.039597</ele>
        <time>2022-04-29T15:34:31.101Z</time>
      </trkpt>
      <trkpt lat="43.66647" lon="1.44855">
        <ele>188.040709</ele>
        <time>2022-04-29T15:34:33.065Z</time>
      </trkpt>
      <trkpt lat="43.66636" lon="1.44852">
        <ele>188.041795</ele>
        <time>2022-04-29T15:34:35.094Z</time>
      </trkpt>
      <trkpt lat="43.66628" lon="1.44845">
        <ele>188.148728</ele>
        <time>2022-04-29T15:34:37.088Z</time>
      </trkpt>
      <trkpt lat="43.6662" lon="1.44835">
        <ele>188.272592</ele>
        <time>2022-04-29T15:34:40.072Z</time>
      </trkpt>
      <trkpt lat="43.66613" lon="1.44824">
        <ele>188.395149</ele>
        <time>2022-04-29T15:34:43.064Z</time>
      </trkpt>
      <trkpt lat="43.66605" lon="1.44812">
        <ele>188.540014</ele>
        <time>2022-04-29T15:34:47.103Z</time>
      </trkpt>
      <trkpt lat="43.66596" lon="1.44797">
        <ele>188.700026</ele>
        <time>2022-04-29T15:34:50.079Z</time>
      </trkpt>
      <trkpt lat="43.66588" lon="1.44786">
        <ele>188.825878</ele>
        <time>2022-04-29T15:34:52.080Z</time>
      </trkpt>
      <trkpt lat="43.66581" lon="1.44774">
        <ele>188.955158</ele>
        <time>2022-04-29T15:34:54.110Z</time>
      </trkpt>
      <trkpt lat="43.66574" lon="1.44763">
        <ele>189.08192</ele>
        <time>2022-04-29T15:34:56.085Z</time>
      </trkpt>
      <trkpt lat="43.66566" lon="1.44753">
        <ele>189.207287</ele>
        <time>2022-04-29T15:34:58.083Z</time>
      </trkpt>
      <trkpt lat="43.66558" lon="1.44743">
        <ele>189.326987</ele>
        <time>2022-04-29T15:35:00.101Z</time>
      </trkpt>
      <trkpt lat="43.66552" lon="1.44735">
        <ele>189.43132</ele>
        <time>2022-04-29T15:35:02.086Z</time>
      </trkpt>
      <trkpt lat="43.66542" lon="1.44726">
        <ele>189.573406</ele>
        <time>2022-04-29T15:35:05.088Z</time>
      </trkpt>
      <trkpt lat="43.66531" lon="1.4472">
        <ele>189.704076</ele>
        <time>2022-04-29T15:35:08.083Z</time>
      </trkpt>
      <trkpt lat="43.66522" lon="1.44714">
        <ele>189.817459</ele>
        <time>2022-04-29T15:35:11.072Z</time>
      </trkpt>
      <trkpt lat="43.66513" lon="1.44709">
        <ele>189.933586</ele>
        <time>2022-04-29T15:35:15.075Z</time>
      </trkpt>
      <trkpt lat="43.66507" lon="1.44719">
        <ele>190.04894</ele>
        <time>2022-04-29T15:35:22.082Z</time>
      </trkpt>
      <trkpt lat="43.66502" lon="1.44732">
        <ele>190.137285</ele>
        <time>2022-04-29T15:35:27.084Z</time>
      </trkpt>
      <trkpt lat="43.66498" lon="1.44745">
        <ele>190.156317</ele>
        <time>2022-04-29T15:35:34.070Z</time>
      </trkpt>
      <trkpt lat="43.66493" lon="1.44758">
        <ele>190.174346</ele>
        <time>2022-04-29T15:35:38.078Z</time>
      </trkpt>
      <trkpt lat="43.66488" lon="1.44771">
        <ele>190.19335</ele>
        <time>2022-04-29T15:35:41.092Z</time>
      </trkpt>
      <trkpt lat="43.66481" lon="1.44787">
        <ele>190.217891</ele>
        <time>2022-04-29T15:35:44.088Z</time>
      </trkpt>
      <trkpt lat="43.66475" lon="1.448">
        <ele>190.237129</ele>
        <time>2022-04-29T15:35:46.096Z</time>
      </trkpt>
      <trkpt lat="43.66468" lon="1.44813">
        <ele>190.257934</ele>
        <time>2022-04-29T15:35:48.104Z</time>
      </trkpt>
      <trkpt lat="43.66462" lon="1.44829">
        <ele>190.280422</ele>
        <time>2022-04-29T15:35:50.086Z</time>
      </trkpt>
      <trkpt lat="43.66457" lon="1.44845">
        <ele>190.303127</ele>
        <time>2022-04-29T15:35:52.099Z</time>
      </trkpt>
      <trkpt lat="43.66452" lon="1.44861">
        <ele>190.326401</ele>
        <time>2022-04-29T15:35:54.101Z</time>
      </trkpt>
      <trkpt lat="43.66449" lon="1.4488">
        <ele>190.349941</ele>
        <time>2022-04-29T15:35:56.099Z</time>
      </trkpt>
      <trkpt lat="43.66444" lon="1.44897">
        <ele>190.373941</ele>
        <time>2022-04-29T15:35:58.116Z</time>
      </trkpt>
      <trkpt lat="43.66436" lon="1.44913">
        <ele>190.398371</ele>
        <time>2022-04-29T15:36:00.087Z</time>
      </trkpt>
      <trkpt lat="43.6643" lon="1.44929">
        <ele>190.421885</ele>
        <time>2022-04-29T15:36:02.087Z</time>
      </trkpt>
      <trkpt lat="43.66426" lon="1.44946">
        <ele>190.444657</ele>
        <time>2022-04-29T15:36:04.097Z</time>
      </trkpt>
      <trkpt lat="43.6642" lon="1.44962">
        <ele>190.454972</ele>
        <time>2022-04-29T15:36:06.077Z</time>
      </trkpt>
      <trkpt lat="43.66415" lon="1.44979">
        <ele>190.461381</ele>
        <time>2022-04-29T15:36:08.100Z</time>
      </trkpt>
      <trkpt lat="43.66411" lon="1.44995">
        <ele>190.467823</ele>
        <time>2022-04-29T15:36:10.104Z</time>
      </trkpt>
      <trkpt lat="43.66404" lon="1.4501">
        <ele>190.4742</ele>
        <time>2022-04-29T15:36:12.075Z</time>
      </trkpt>
      <trkpt lat="43.66399" lon="1.45026">
        <ele>190.48016</ele>
        <time>2022-04-29T15:36:14.092Z</time>
      </trkpt>
      <trkpt lat="43.66395" lon="1.45041">
        <ele>190.486045</ele>
        <time>2022-04-29T15:36:16.078Z</time>
      </trkpt>
      <trkpt lat="43.66391" lon="1.45057">
        <ele>190.492064</ele>
        <time>2022-04-29T15:36:18.095Z</time>
      </trkpt>
      <trkpt lat="43.66388" lon="1.45073">
        <ele>190.497815</ele>
        <time>2022-04-29T15:36:20.105Z</time>
      </trkpt>
      <trkpt lat="43.66384" lon="1.45087">
        <ele>190.503499</ele>
        <time>2022-04-29T15:36:22.089Z</time>
      </trkpt>
      <trkpt lat="43.66378" lon="1.45101">
        <ele>190.509141</ele>
        <time>2022-04-29T15:36:24.074Z</time>
      </trkpt>
      <trkpt lat="43.66371" lon="1.45113">
        <ele>190.514779</ele>
        <time>2022-04-29T15:36:26.074Z</time>
      </trkpt>
      <trkpt lat="43.66363" lon="1.45124">
        <ele>190.520464</ele>
        <time>2022-04-29T15:36:28.083Z</time>
      </trkpt>
      <trkpt lat="43.66359" lon="1.45138">
        <ele>190.525724</ele>
        <time>2022-04-29T15:36:30.078Z</time>
      </trkpt>
      <trkpt lat="43.66359" lon="1.45156">
        <ele>190.532213</ele>
        <time>2022-04-29T15:36:33.078Z</time>
      </trkpt>
      <trkpt lat="43.66357" lon="1.45172">
        <ele>190.537948</ele>
        <time>2022-04-29T15:36:36.072Z</time>
      </trkpt>
      <trkpt lat="43.66359" lon="1.45188">
        <ele>190.517589</ele>
        <time>2022-04-29T15:36:38.102Z</time>
      </trkpt>
      <trkpt lat="43.66355" lon="1.452">
        <ele>190.496237</ele>
        <time>2022-04-29T15:36:40.085Z</time>
      </trkpt>
      <trkpt lat="43.66349" lon="1.45214">
        <ele>190.468118</ele>
        <time>2022-04-29T15:36:42.094Z</time>
      </trkpt>
      <trkpt lat="43.66343" lon="1.45226">
        <ele>190.444148</ele>
        <time>2022-04-29T15:36:44.072Z</time>
      </trkpt>
      <trkpt lat="43.66336" lon="1.45237">
        <ele>190.421533</ele>
        <time>2022-04-29T15:36:46.074Z</time>
      </trkpt>
      <trkpt lat="43.6633" lon="1.45246">
        <ele>190.400678</ele>
        <time>2022-04-29T15:36:48.062Z</time>
      </trkpt>
      <trkpt lat="43.66323" lon="1.45254">
        <ele>190.380184</ele>
        <time>2022-04-29T15:36:50.094Z</time>
      </trkpt>
      <trkpt lat="43.66314" lon="1.45262">
        <ele>190.355741</ele>
        <time>2022-04-29T15:36:52.086Z</time>
      </trkpt>
      <trkpt lat="43.66307" lon="1.45272">
        <ele>190.332349</ele>
        <time>2022-04-29T15:36:54.082Z</time>
      </trkpt>
      <trkpt lat="43.66298" lon="1.45282">
        <ele>190.305051</ele>
        <time>2022-04-29T15:36:56.099Z</time>
      </trkpt>
      <trkpt lat="43.66288" lon="1.4529">
        <ele>190.27964</ele>
        <time>2022-04-29T15:36:58.067Z</time>
      </trkpt>
      <trkpt lat="43.66277" lon="1.45299">
        <ele>190.250012</ele>
        <time>2022-04-29T15:37:00.079Z</time>
      </trkpt>
      <trkpt lat="43.66274" lon="1.45312">
        <ele>190.227847</ele>
        <time>2022-04-29T15:37:02.093Z</time>
      </trkpt>
      <trkpt lat="43.66272" lon="1.45329">
        <ele>190.199633</ele>
        <time>2022-04-29T15:37:04.084Z</time>
      </trkpt>
      <trkpt lat="43.66269" lon="1.45345">
        <ele>190.171355</ele>
        <time>2022-04-29T15:37:06.100Z</time>
      </trkpt>
      <trkpt lat="43.66274" lon="1.45362">
        <ele>190.14188</ele>
        <time>2022-04-29T15:37:08.085Z</time>
      </trkpt>
      <trkpt lat="43.66277" lon="1.45378">
        <ele>190.105544</ele>
        <time>2022-04-29T15:37:10.067Z</time>
      </trkpt>
      <trkpt lat="43.66274" lon="1.45395">
        <ele>190.062766</ele>
        <time>2022-04-29T15:37:12.076Z</time>
      </trkpt>
      <trkpt lat="43.66269" lon="1.45411">
        <ele>190.017044</ele>
        <time>2022-04-29T15:37:14.089Z</time>
      </trkpt>
      <trkpt lat="43.66265" lon="1.45428">
        <ele>189.971137</ele>
        <time>2022-04-29T15:37:16.091Z</time>
      </trkpt>
      <trkpt lat="43.66261" lon="1.45444">
        <ele>189.92691</ele>
        <time>2022-04-29T15:37:18.084Z</time>
      </trkpt>
      <trkpt lat="43.66257" lon="1.4546">
        <ele>189.882588</ele>
        <time>2022-04-29T15:37:20.087Z</time>
      </trkpt>
      <trkpt lat="43.66253" lon="1.45476">
        <ele>189.839234</ele>
        <time>2022-04-29T15:37:22.107Z</time>
      </trkpt>
      <trkpt lat="43.66248" lon="1.45491">
        <ele>189.797455</ele>
        <time>2022-04-29T15:37:24.070Z</time>
      </trkpt>
      <trkpt lat="43.66245" lon="1.45505">
        <ele>189.759934</ele>
        <time>2022-04-29T15:37:26.089Z</time>
      </trkpt>
      <trkpt lat="43.66241" lon="1.45517">
        <ele>189.725631</ele>
        <time>2022-04-29T15:37:28.091Z</time>
      </trkpt>
      <trkpt lat="43.66237" lon="1.45531">
        <ele>189.686211</ele>
        <time>2022-04-29T15:37:31.103Z</time>
      </trkpt>
      <trkpt lat="43.66234" lon="1.45545">
        <ele>189.647411</ele>
        <time>2022-04-29T15:37:35.075Z</time>
      </trkpt>
      <trkpt lat="43.66228" lon="1.45561">
        <ele>189.602283</ele>
        <time>2022-04-29T15:37:38.091Z</time>
      </trkpt>
      <trkpt lat="43.66224" lon="1.45576">
        <ele>189.559283</ele>
        <time>2022-04-29T15:37:40.083Z</time>
      </trkpt>
      <trkpt lat="43.66219" lon="1.45593">
        <ele>189.513937</ele>
        <time>2022-04-29T15:37:42.111Z</time>
      </trkpt>
      <trkpt lat="43.66215" lon="1.45608">
        <ele>189.491651</ele>
        <time>2022-04-29T15:37:44.084Z</time>
      </trkpt>
      <trkpt lat="43.66209" lon="1.45624">
        <ele>189.506945</ele>
        <time>2022-04-29T15:37:46.124Z</time>
      </trkpt>
      <trkpt lat="43.662" lon="1.45632">
        <ele>189.520531</ele>
        <time>2022-04-29T15:37:48.088Z</time>
      </trkpt>
      <trkpt lat="43.66189" lon="1.45626">
        <ele>189.534436</ele>
        <time>2022-04-29T15:37:50.068Z</time>
      </trkpt>
      <trkpt lat="43.6618" lon="1.45615">
        <ele>189.549485</ele>
        <time>2022-04-29T15:37:52.079Z</time>
      </trkpt>
      <trkpt lat="43.66171" lon="1.45603">
        <ele>189.564007</ele>
        <time>2022-04-29T15:37:54.090Z</time>
      </trkpt>
      <trkpt lat="43.66164" lon="1.45592">
        <ele>189.576626</ele>
        <time>2022-04-29T15:37:56.087Z</time>
      </trkpt>
      <trkpt lat="43.66153" lon="1.45581">
        <ele>189.592856</ele>
        <time>2022-04-29T15:37:59.086Z</time>
      </trkpt>
      <trkpt lat="43.66143" lon="1.45573">
        <ele>189.607136</ele>
        <time>2022-04-29T15:38:01.099Z</time>
      </trkpt>
      <trkpt lat="43.66132" lon="1.45564">
        <ele>189.621729</ele>
        <time>2022-04-29T15:38:03.102Z</time>
      </trkpt>
      <trkpt lat="43.66122" lon="1.45554">
        <ele>189.636306</ele>
        <time>2022-04-29T15:38:05.087Z</time>
      </trkpt>
      <trkpt lat="43.66112" lon="1.45546">
        <ele>189.650795</ele>
        <time>2022-04-29T15:38:07.120Z</time>
      </trkpt>
      <trkpt lat="43.66101" lon="1.45539">
        <ele>189.664798</ele>
        <time>2022-04-29T15:38:09.082Z</time>
      </trkpt>
      <trkpt lat="43.6609" lon="1.45533">
        <ele>189.679436</ele>
        <time>2022-04-29T15:38:11.098Z</time>
      </trkpt>
      <trkpt lat="43.66079" lon="1.45531">
        <ele>189.692341</ele>
        <time>2022-04-29T15:38:13.065Z</time>
      </trkpt>
      <trkpt lat="43.66068" lon="1.45535">
        <ele>189.763864</ele>
        <time>2022-04-29T15:38:15.094Z</time>
      </trkpt>
      <trkpt lat="43.66058" lon="1.4553">
        <ele>189.986418</ele>
        <time>2022-04-29T15:38:17.077Z</time>
      </trkpt>
      <trkpt lat="43.66048" lon="1.45524">
        <ele>190.198106</ele>
        <time>2022-04-29T15:38:19.080Z</time>
      </trkpt>
      <trkpt lat="43.66038" lon="1.45517">
        <ele>190.428201</ele>
        <time>2022-04-29T15:38:21.098Z</time>
      </trkpt>
      <trkpt lat="43.66028" lon="1.45509">
        <ele>190.666363</ele>
        <time>2022-04-29T15:38:23.083Z</time>
      </trkpt>
      <trkpt lat="43.66019" lon="1.455">
        <ele>190.894941</ele>
        <time>2022-04-29T15:38:25.093Z</time>
      </trkpt>
      <trkpt lat="43.6601" lon="1.45493">
        <ele>191.100577</ele>
        <time>2022-04-29T15:38:27.110Z</time>
      </trkpt>
      <trkpt lat="43.66" lon="1.45485">
        <ele>191.336756</ele>
        <time>2022-04-29T15:38:29.089Z</time>
      </trkpt>
      <trkpt lat="43.65988" lon="1.4548">
        <ele>191.575947</ele>
        <time>2022-04-29T15:38:31.088Z</time>
      </trkpt>
      <trkpt lat="43.65979" lon="1.45478">
        <ele>191.764849</ele>
        <time>2022-04-29T15:38:33.089Z</time>
      </trkpt>
      <trkpt lat="43.65972" lon="1.45469">
        <ele>191.959009</ele>
        <time>2022-04-29T15:38:35.085Z</time>
      </trkpt>
      <trkpt lat="43.65965" lon="1.45457">
        <ele>192.187511</ele>
        <time>2022-04-29T15:38:37.070Z</time>
      </trkpt>
      <trkpt lat="43.65953" lon="1.45453">
        <ele>192.428724</ele>
        <time>2022-04-29T15:38:39.084Z</time>
      </trkpt>
      <trkpt lat="43.65941" lon="1.45458">
        <ele>192.685421</ele>
        <time>2022-04-29T15:38:41.075Z</time>
      </trkpt>
      <trkpt lat="43.65931" lon="1.45469">
        <ele>192.942985</ele>
        <time>2022-04-29T15:38:43.089Z</time>
      </trkpt>
      <trkpt lat="43.6592" lon="1.45478">
        <ele>193.199379</ele>
        <time>2022-04-29T15:38:45.081Z</time>
      </trkpt>
      <trkpt lat="43.65907" lon="1.45478">
        <ele>193.301532</ele>
        <time>2022-04-29T15:38:47.074Z</time>
      </trkpt>
      <trkpt lat="43.65894" lon="1.45478">
        <ele>193.229545</ele>
        <time>2022-04-29T15:38:49.086Z</time>
      </trkpt>
      <trkpt lat="43.6588" lon="1.45478">
        <ele>193.15479</ele>
        <time>2022-04-29T15:38:51.088Z</time>
      </trkpt>
      <trkpt lat="43.65867" lon="1.4548">
        <ele>193.078657</ele>
        <time>2022-04-29T15:38:53.099Z</time>
      </trkpt>
      <trkpt lat="43.65853" lon="1.45483">
        <ele>193.001173</ele>
        <time>2022-04-29T15:38:55.097Z</time>
      </trkpt>
      <trkpt lat="43.65839" lon="1.45487">
        <ele>192.924719</ele>
        <time>2022-04-29T15:38:57.084Z</time>
      </trkpt>
      <trkpt lat="43.65826" lon="1.45491">
        <ele>192.848181</ele>
        <time>2022-04-29T15:38:59.108Z</time>
      </trkpt>
      <trkpt lat="43.65813" lon="1.45496">
        <ele>192.772635</ele>
        <time>2022-04-29T15:39:01.094Z</time>
      </trkpt>
      <trkpt lat="43.65799" lon="1.45498">
        <ele>192.699233</ele>
        <time>2022-04-29T15:39:03.074Z</time>
      </trkpt>
      <trkpt lat="43.65787" lon="1.45493">
        <ele>192.628654</ele>
        <time>2022-04-29T15:39:05.082Z</time>
      </trkpt>
      <trkpt lat="43.65775" lon="1.45488">
        <ele>192.557867</ele>
        <time>2022-04-29T15:39:07.072Z</time>
      </trkpt>
      <trkpt lat="43.65763" lon="1.45484">
        <ele>192.490775</ele>
        <time>2022-04-29T15:39:09.096Z</time>
      </trkpt>
      <trkpt lat="43.65752" lon="1.45481">
        <ele>192.425023</ele>
        <time>2022-04-29T15:39:11.067Z</time>
      </trkpt>
      <trkpt lat="43.6574" lon="1.45478">
        <ele>192.357824</ele>
        <time>2022-04-29T15:39:13.105Z</time>
      </trkpt>
      <trkpt lat="43.65727" lon="1.45475">
        <ele>192.261415</ele>
        <time>2022-04-29T15:39:15.086Z</time>
      </trkpt>
      <trkpt lat="43.65714" lon="1.4547">
        <ele>192.150512</ele>
        <time>2022-04-29T15:39:17.087Z</time>
      </trkpt>
      <trkpt lat="43.65701" lon="1.45464">
        <ele>192.035279</ele>
        <time>2022-04-29T15:39:19.092Z</time>
      </trkpt>
      <trkpt lat="43.65687" lon="1.45458">
        <ele>191.918479</ele>
        <time>2022-04-29T15:39:21.102Z</time>
      </trkpt>
      <trkpt lat="43.65673" lon="1.45453">
        <ele>191.800435</ele>
        <time>2022-04-29T15:39:23.073Z</time>
      </trkpt>
      <trkpt lat="43.65659" lon="1.45447">
        <ele>191.68354</ele>
        <time>2022-04-29T15:39:25.082Z</time>
      </trkpt>
      <trkpt lat="43.65646" lon="1.45441">
        <ele>191.565788</ele>
        <time>2022-04-29T15:39:27.086Z</time>
      </trkpt>
      <trkpt lat="43.65632" lon="1.45436">
        <ele>191.450104</ele>
        <time>2022-04-29T15:39:29.093Z</time>
      </trkpt>
      <trkpt lat="43.65619" lon="1.4543">
        <ele>191.336314</ele>
        <time>2022-04-29T15:39:31.087Z</time>
      </trkpt>
      <trkpt lat="43.65606" lon="1.45424">
        <ele>191.22637</ele>
        <time>2022-04-29T15:39:33.115Z</time>
      </trkpt>
      <trkpt lat="43.65594" lon="1.45419">
        <ele>191.119983</ele>
        <time>2022-04-29T15:39:35.094Z</time>
      </trkpt>
      <trkpt lat="43.65581" lon="1.45415">
        <ele>191.014289</ele>
        <time>2022-04-29T15:39:37.084Z</time>
      </trkpt>
      <trkpt lat="43.65569" lon="1.4541">
        <ele>190.910114</ele>
        <time>2022-04-29T15:39:39.076Z</time>
      </trkpt>
      <trkpt lat="43.65556" lon="1.45406">
        <ele>190.884404</ele>
        <time>2022-04-29T15:39:41.090Z</time>
      </trkpt>
      <trkpt lat="43.65544" lon="1.45402">
        <ele>190.907614</ele>
        <time>2022-04-29T15:39:43.073Z</time>
      </trkpt>
      <trkpt lat="43.65532" lon="1.45398">
        <ele>190.930338</ele>
        <time>2022-04-29T15:39:45.094Z</time>
      </trkpt>
      <trkpt lat="43.6552" lon="1.45394">
        <ele>190.952622</ele>
        <time>2022-04-29T15:39:47.084Z</time>
      </trkpt>
      <trkpt lat="43.65509" lon="1.45389">
        <ele>190.975364</ele>
        <time>2022-04-29T15:39:49.093Z</time>
      </trkpt>
      <trkpt lat="43.65497" lon="1.45385">
        <ele>190.998107</ele>
        <time>2022-04-29T15:39:51.092Z</time>
      </trkpt>
      <trkpt lat="43.65485" lon="1.45381">
        <ele>191.020622</ele>
        <time>2022-04-29T15:39:53.107Z</time>
      </trkpt>
      <trkpt lat="43.65473" lon="1.45375">
        <ele>191.043109</ele>
        <time>2022-04-29T15:39:55.082Z</time>
      </trkpt>
      <trkpt lat="43.65462" lon="1.45371">
        <ele>191.065181</ele>
        <time>2022-04-29T15:39:57.098Z</time>
      </trkpt>
      <trkpt lat="43.65451" lon="1.45367">
        <ele>191.08605</ele>
        <time>2022-04-29T15:39:59.081Z</time>
      </trkpt>
      <trkpt lat="43.65441" lon="1.45364">
        <ele>191.10429</ele>
        <time>2022-04-29T15:40:01.090Z</time>
      </trkpt>
      <trkpt lat="43.65437" lon="1.45351">
        <ele>191.123873</ele>
        <time>2022-04-29T15:40:04.086Z</time>
      </trkpt>
      <trkpt lat="43.65443" lon="1.4534">
        <ele>191.142464</ele>
        <time>2022-04-29T15:40:06.065Z</time>
      </trkpt>
      <trkpt lat="43.65452" lon="1.4533">
        <ele>191.164307</ele>
        <time>2022-04-29T15:40:08.086Z</time>
      </trkpt>
      <trkpt lat="43.65462" lon="1.4532">
        <ele>191.186647</ele>
        <time>2022-04-29T15:40:10.075Z</time>
      </trkpt>
      <trkpt lat="43.65471" lon="1.4531">
        <ele>191.191977</ele>
        <time>2022-04-29T15:40:12.099Z</time>
      </trkpt>
      <trkpt lat="43.65481" lon="1.45299">
        <ele>191.164007</ele>
        <time>2022-04-29T15:40:14.099Z</time>
      </trkpt>
      <trkpt lat="43.65489" lon="1.45287">
        <ele>191.135985</ele>
        <time>2022-04-29T15:40:16.096Z</time>
      </trkpt>
      <trkpt lat="43.65495" lon="1.45272">
        <ele>191.10835</ele>
        <time>2022-04-29T15:40:18.087Z</time>
      </trkpt>
      <trkpt lat="43.65503" lon="1.45261">
        <ele>191.08057</ele>
        <time>2022-04-29T15:40:20.109Z</time>
      </trkpt>
      <trkpt lat="43.65513" lon="1.45251">
        <ele>191.05275</ele>
        <time>2022-04-29T15:40:22.081Z</time>
      </trkpt>
      <trkpt lat="43.65523" lon="1.45241">
        <ele>191.025349</ele>
        <time>2022-04-29T15:40:24.087Z</time>
      </trkpt>
      <trkpt lat="43.65531" lon="1.4523">
        <ele>190.99845</ele>
        <time>2022-04-29T15:40:26.084Z</time>
      </trkpt>
      <trkpt lat="43.65541" lon="1.4522">
        <ele>190.971255</ele>
        <time>2022-04-29T15:40:28.098Z</time>
      </trkpt>
      <trkpt lat="43.6555" lon="1.4521">
        <ele>190.943878</ele>
        <time>2022-04-29T15:40:30.117Z</time>
      </trkpt>
      <trkpt lat="43.65559" lon="1.452">
        <ele>190.916476</ele>
        <time>2022-04-29T15:40:32.109Z</time>
      </trkpt>
      <trkpt lat="43.65569" lon="1.4519">
        <ele>190.889099</ele>
        <time>2022-04-29T15:40:34.100Z</time>
      </trkpt>
      <trkpt lat="43.65578" lon="1.4518">
        <ele>190.861808</ele>
        <time>2022-04-29T15:40:36.078Z</time>
      </trkpt>
      <trkpt lat="43.65586" lon="1.45168">
        <ele>190.834592</ele>
        <time>2022-04-29T15:40:38.080Z</time>
      </trkpt>
      <trkpt lat="43.65595" lon="1.45158">
        <ele>190.807346</ele>
        <time>2022-04-29T15:40:40.091Z</time>
      </trkpt>
      <trkpt lat="43.65601" lon="1.45144">
        <ele>190.806893</ele>
        <time>2022-04-29T15:40:42.086Z</time>
      </trkpt>
      <trkpt lat="43.656" lon="1.45127">
        <ele>190.898573</ele>
        <time>2022-04-29T15:40:44.075Z</time>
      </trkpt>
      <trkpt lat="43.65596" lon="1.45112">
        <ele>190.9906</ele>
        <time>2022-04-29T15:40:46.083Z</time>
      </trkpt>
      <trkpt lat="43.65588" lon="1.451">
        <ele>191.083527</ele>
        <time>2022-04-29T15:40:48.077Z</time>
      </trkpt>
      <trkpt lat="43.65579" lon="1.45089">
        <ele>191.172837</ele>
        <time>2022-04-29T15:40:50.089Z</time>
      </trkpt>
      <trkpt lat="43.65572" lon="1.45078">
        <ele>191.254912</ele>
        <time>2022-04-29T15:40:52.088Z</time>
      </trkpt>
      <trkpt lat="43.65564" lon="1.45068">
        <ele>191.335593</ele>
        <time>2022-04-29T15:40:55.075Z</time>
      </trkpt>
      <trkpt lat="43.65557" lon="1.45057">
        <ele>191.421547</ele>
        <time>2022-04-29T15:40:58.085Z</time>
      </trkpt>
      <trkpt lat="43.6555" lon="1.45048">
        <ele>191.494905</ele>
        <time>2022-04-29T15:41:00.091Z</time>
      </trkpt>
      <trkpt lat="43.65541" lon="1.45036">
        <ele>191.592139</ele>
        <time>2022-04-29T15:41:03.096Z</time>
      </trkpt>
      <trkpt lat="43.65533" lon="1.45024">
        <ele>191.681448</ele>
        <time>2022-04-29T15:41:06.071Z</time>
      </trkpt>
      <trkpt lat="43.65523" lon="1.45012">
        <ele>191.782227</ele>
        <time>2022-04-29T15:41:09.091Z</time>
      </trkpt>
      <trkpt lat="43.65516" lon="1.45">
        <ele>191.867904</ele>
        <time>2022-04-29T15:41:11.076Z</time>
      </trkpt>
      <trkpt lat="43.65508" lon="1.44988">
        <ele>191.962738</ele>
        <time>2022-04-29T15:41:13.064Z</time>
      </trkpt>
      <trkpt lat="43.65499" lon="1.44975">
        <ele>192.061309</ele>
        <time>2022-04-29T15:41:15.108Z</time>
      </trkpt>
      <trkpt lat="43.6549" lon="1.44963">
        <ele>192.160675</ele>
        <time>2022-04-29T15:41:17.094Z</time>
      </trkpt>
      <trkpt lat="43.65482" lon="1.44949">
        <ele>192.123577</ele>
        <time>2022-04-29T15:41:19.093Z</time>
      </trkpt>
      <trkpt lat="43.65474" lon="1.44935">
        <ele>192.062774</ele>
        <time>2022-04-29T15:41:21.088Z</time>
      </trkpt>
      <trkpt lat="43.65476" lon="1.44918">
        <ele>192.003716</ele>
        <time>2022-04-29T15:41:23.085Z</time>
      </trkpt>
      <trkpt lat="43.65481" lon="1.44903">
        <ele>191.943966</ele>
        <time>2022-04-29T15:41:25.087Z</time>
      </trkpt>
      <trkpt lat="43.65488" lon="1.44889">
        <ele>191.883457</ele>
        <time>2022-04-29T15:41:27.095Z</time>
      </trkpt>
      <trkpt lat="43.65496" lon="1.44874">
        <ele>191.823506</ele>
        <time>2022-04-29T15:41:29.080Z</time>
      </trkpt>
      <trkpt lat="43.65502" lon="1.4486">
        <ele>191.764336</ele>
        <time>2022-04-29T15:41:31.110Z</time>
      </trkpt>
      <trkpt lat="43.65507" lon="1.44845">
        <ele>191.707491</ele>
        <time>2022-04-29T15:41:33.095Z</time>
      </trkpt>
      <trkpt lat="43.65512" lon="1.4483">
        <ele>191.649571</ele>
        <time>2022-04-29T15:41:35.092Z</time>
      </trkpt>
      <trkpt lat="43.6552" lon="1.44817">
        <ele>191.591219</ele>
        <time>2022-04-29T15:41:37.087Z</time>
      </trkpt>
      <trkpt lat="43.65529" lon="1.44806">
        <ele>191.533723</ele>
        <time>2022-04-29T15:41:39.113Z</time>
      </trkpt>
      <trkpt lat="43.65537" lon="1.44795">
        <ele>191.477891</ele>
        <time>2022-04-29T15:41:41.095Z</time>
      </trkpt>
      <trkpt lat="43.65544" lon="1.44781">
        <ele>191.419079</ele>
        <time>2022-04-29T15:41:43.074Z</time>
      </trkpt>
      <trkpt lat="43.65551" lon="1.44767">
        <ele>191.361376</ele>
        <time>2022-04-29T15:41:45.047Z</time>
      </trkpt>
      <trkpt lat="43.65558" lon="1.44753">
        <ele>191.312644</ele>
        <time>2022-04-29T15:41:47.075Z</time>
      </trkpt>
      <trkpt lat="43.65565" lon="1.4474">
        <ele>191.312644</ele>
        <time>2022-04-29T15:41:49.081Z</time>
      </trkpt>
      <trkpt lat="43.65572" lon="1.44726">
        <ele>191.312644</ele>
        <time>2022-04-29T15:41:51.088Z</time>
      </trkpt>
      <trkpt lat="43.65579" lon="1.44713">
        <ele>191.312644</ele>
        <time>2022-04-29T15:41:53.088Z</time>
      </trkpt>
      <trkpt lat="43.65585" lon="1.44699">
        <ele>191.312644</ele>
        <time>2022-04-29T15:41:55.091Z</time>
      </trkpt>
      <trkpt lat="43.65592" lon="1.44686">
        <ele>191.312644</ele>
        <time>2022-04-29T15:41:57.105Z</time>
      </trkpt>
      <trkpt lat="43.65598" lon="1.44672">
        <ele>191.312644</ele>
        <time>2022-04-29T15:41:59.092Z</time>
      </trkpt>
      <trkpt lat="43.65604" lon="1.44661">
        <ele>191.312644</ele>
        <time>2022-04-29T15:42:01.092Z</time>
      </trkpt>
      <trkpt lat="43.65602" lon="1.44646">
        <ele>191.312644</ele>
        <time>2022-04-29T15:42:04.066Z</time>
      </trkpt>
      <trkpt lat="43.65594" lon="1.44639">
        <ele>191.312644</ele>
        <time>2022-04-29T15:42:07.061Z</time>
      </trkpt>
      <trkpt lat="43.65585" lon="1.44634">
        <ele>191.312644</ele>
        <time>2022-04-29T15:42:10.084Z</time>
      </trkpt>
      <trkpt lat="43.65574" lon="1.44628">
        <ele>191.312644</ele>
        <time>2022-04-29T15:42:13.102Z</time>
      </trkpt>
      <trkpt lat="43.65563" lon="1.44623">
        <ele>191.312644</ele>
        <time>2022-04-29T15:42:16.148Z</time>
      </trkpt>
      <trkpt lat="43.65559" lon="1.44611">
        <ele>191.312644</ele>
        <time>2022-04-29T15:42:21.102Z</time>
      </trkpt>
      <trkpt lat="43.65564" lon="1.44593">
        <ele>191.312644</ele>
        <time>2022-04-29T15:43:31.076Z</time>
      </trkpt>
      <trkpt lat="43.6557" lon="1.44582">
        <ele>191.312644</ele>
        <time>2022-04-29T15:43:38.070Z</time>
      </trkpt>
      <trkpt lat="43.65575" lon="1.44584">
        <ele>191.312644</ele>
        <time>2022-04-29T15:45:16.575Z</time>
      </trkpt>
    </trkseg>
  </trk>
</gpx>